<?xml version='1.0' encoding='UTF-8'?><gpx version="1.1" creator="JPX - https://github.com/jenetics/jpx" xmlns="http://www.topografix.com/GPX/1/1"><trk><trkseg><trkpt lat="45.85702818405446" lon="9.115690884350956"><ele>222.0</ele><time>2026-04-18T12:52:34.998Z</time></trkpt><trkpt lat="45.856962766155945" lon="9.115737285151884"><ele>222.0</ele><time>2026-04-18T12:54:32Z</time></trkpt><trkpt lat="45.85704823815482" lon="9.115702624123783"><ele>222.0</ele><time>2026-04-18T12:54:44Z</time></trkpt><trkpt lat="45.857125782232934" lon="9.115692445996487"><ele>222.0</ele><time>2026-04-18T12:54:46Z</time></trkpt><trkpt lat="45.85718249197903" lon="9.115757517963216"><ele>222.0</ele><time>2026-04-18T12:54:47Z</time></trkpt><trkpt lat="45.857269443509466" lon="9.115853157534167"><ele>222.0</ele><time>2026-04-18T12:54:49Z</time></trkpt><trkpt lat="45.85733345995023" lon="9.115911176805277"><ele>222.8</ele><time>2026-04-18T12:54:52Z</time></trkpt><trkpt lat="45.85744524675751" lon="9.115966530134148"><ele>223.6</ele><time>2026-04-18T12:55:01Z</time></trkpt><trkpt lat="45.857510359358635" lon="9.116027788038133"><ele>224.40000000000003</ele><time>2026-04-18T12:55:02Z</time></trkpt><trkpt lat="45.85757173947308" lon="9.11611209769562"><ele>225.20000000000002</ele><time>2026-04-18T12:55:03Z</time></trkpt><trkpt lat="45.857632999362295" lon="9.116223511477976"><ele>226.0</ele><time>2026-04-18T12:55:04Z</time></trkpt><trkpt lat="45.85768716746864" lon="9.116352853094373"><ele>224.20000000000002</ele><time>2026-04-18T12:55:05Z</time></trkpt><trkpt lat="45.85773123319444" lon="9.116479439927847"><ele>222.40000000000003</ele><time>2026-04-18T12:55:06Z</time></trkpt><trkpt lat="45.857789607023015" lon="9.116586481740113"><ele>220.6</ele><time>2026-04-18T12:55:07Z</time></trkpt><trkpt lat="45.857836255784996" lon="9.116689854323377"><ele>218.8</ele><time>2026-04-18T12:55:08Z</time></trkpt><trkpt lat="45.8578859453627" lon="9.116791932202977"><ele>217.0</ele><time>2026-04-18T12:55:09Z</time></trkpt><trkpt lat="45.85794108415411" lon="9.116908160953423"><ele>217.0</ele><time>2026-04-18T12:55:10Z</time></trkpt><trkpt lat="45.85799477840682" lon="9.117030455421936"><ele>217.0</ele><time>2026-04-18T12:55:11Z</time></trkpt><trkpt lat="45.85801944848154" lon="9.117174487667796"><ele>217.0</ele><time>2026-04-18T12:55:12Z</time></trkpt><trkpt lat="45.858066863870484" lon="9.117341306873302"><ele>217.0</ele><time>2026-04-18T12:55:13Z</time></trkpt><trkpt lat="45.85809861851098" lon="9.117533131918279"><ele>218.2</ele><time>2026-04-18T12:55:14Z</time></trkpt><trkpt lat="45.85812244355069" lon="9.117686523201494"><ele>219.39999999999998</ele><time>2026-04-18T12:55:15Z</time></trkpt><trkpt lat="45.858125637098475" lon="9.117819446411326"><ele>220.60000000000002</ele><time>2026-04-18T12:55:16Z</time></trkpt><trkpt lat="45.85808395333059" lon="9.117944315011583"><ele>221.8</ele><time>2026-04-18T12:55:17Z</time></trkpt><trkpt lat="45.85800421375258" lon="9.118073997277175"><ele>223.0</ele><time>2026-04-18T12:55:18Z</time></trkpt><trkpt lat="45.857942328391935" lon="9.118224174551392"><ele>225.4</ele><time>2026-04-18T12:55:19Z</time></trkpt><trkpt lat="45.85795578730597" lon="9.118397259990855"><ele>227.8</ele><time>2026-04-18T12:55:20Z</time></trkpt><trkpt lat="45.8580376390169" lon="9.11854137291976"><ele>230.2</ele><time>2026-04-18T12:55:21Z</time></trkpt><trkpt lat="45.8580820078483" lon="9.118644589659196"><ele>232.6</ele><time>2026-04-18T12:55:22Z</time></trkpt><trkpt lat="45.85810113925471" lon="9.118788778099562"><ele>235.0</ele><time>2026-04-18T12:55:23Z</time></trkpt><trkpt lat="45.85807549791744" lon="9.118931635084154"><ele>237.25</ele><time>2026-04-18T12:55:24Z</time></trkpt><trkpt lat="45.85802825404409" lon="9.119084884584511"><ele>239.5</ele><time>2026-04-18T12:55:25Z</time></trkpt><trkpt lat="45.85798695577935" lon="9.119233053274561"><ele>241.75</ele><time>2026-04-18T12:55:26Z</time></trkpt><trkpt lat="45.85795340587391" lon="9.119400788516504"><ele>244.0</ele><time>2026-04-18T12:55:27Z</time></trkpt><trkpt lat="45.85792121562372" lon="9.119571834863862"><ele>244.0</ele><time>2026-04-18T12:55:28Z</time></trkpt><trkpt lat="45.85788441066276" lon="9.119740407593522"><ele>244.0</ele><time>2026-04-18T12:55:29Z</time></trkpt><trkpt lat="45.857846037262554" lon="9.119904165070526"><ele>244.0</ele><time>2026-04-18T12:55:30Z</time></trkpt><trkpt lat="45.85780517645968" lon="9.120073088587144"><ele>244.0</ele><time>2026-04-18T12:55:31Z</time></trkpt><trkpt lat="45.85776439777629" lon="9.12024011210588"><ele>243.5</ele><time>2026-04-18T12:55:32Z</time></trkpt><trkpt lat="45.85774193347684" lon="9.120405975630078"><ele>243.0</ele><time>2026-04-18T12:55:33Z</time></trkpt><trkpt lat="45.857747010379605" lon="9.120580318859485"><ele>242.5</ele><time>2026-04-18T12:55:34Z</time></trkpt><trkpt lat="45.85779941049452" lon="9.120748196562662"><ele>242.0</ele><time>2026-04-18T12:55:35Z</time></trkpt><trkpt lat="45.85784207610535" lon="9.120900374487158"><ele>240.75</ele><time>2026-04-18T12:55:36Z</time></trkpt><trkpt lat="45.8578591132712" lon="9.121068569889735"><ele>239.5</ele><time>2026-04-18T12:55:37Z</time></trkpt><trkpt lat="45.85786794573632" lon="9.121236006308093"><ele>238.25</ele><time>2026-04-18T12:55:38Z</time></trkpt><trkpt lat="45.85789286288882" lon="9.121405096935534"><ele>237.0</ele><time>2026-04-18T12:55:39Z</time></trkpt><trkpt lat="45.8578687202956" lon="9.121560271348173"><ele>236.6</ele><time>2026-04-18T12:55:40Z</time></trkpt><trkpt lat="45.85783544558161" lon="9.121697172131"><ele>236.2</ele><time>2026-04-18T12:55:41Z</time></trkpt><trkpt lat="45.857788326267965" lon="9.121849302502879"><ele>235.8</ele><time>2026-04-18T12:55:42Z</time></trkpt><trkpt lat="45.85773499834787" lon="9.121994966776983"><ele>235.4</ele><time>2026-04-18T12:55:43Z</time></trkpt><trkpt lat="45.857684603408885" lon="9.122140399895107"><ele>235.0</ele><time>2026-04-18T12:55:44Z</time></trkpt><trkpt lat="45.857638563891875" lon="9.122275550594642"><ele>234.5</ele><time>2026-04-18T12:55:45Z</time></trkpt><trkpt lat="45.85761646836557" lon="9.122399558213903"><ele>234.0</ele><time>2026-04-18T12:55:46Z</time></trkpt><trkpt lat="45.857632557865685" lon="9.122560759538363"><ele>233.5</ele><time>2026-04-18T12:55:47Z</time></trkpt><trkpt lat="45.857688977463454" lon="9.122770533581875"><ele>233.0</ele><time>2026-04-18T12:55:48Z</time></trkpt><trkpt lat="45.85772868571732" lon="9.122966196310697"><ele>233.0</ele><time>2026-04-18T12:55:49Z</time></trkpt><trkpt lat="45.85775796347457" lon="9.123119620887088"><ele>233.0</ele><time>2026-04-18T12:55:50Z</time></trkpt><trkpt lat="45.8577776808518" lon="9.123258677682735"><ele>233.0</ele><time>2026-04-18T12:55:51Z</time></trkpt><trkpt lat="45.857776065681605" lon="9.123388957862172"><ele>233.0</ele><time>2026-04-18T12:55:52Z</time></trkpt><trkpt lat="45.85776462417333" lon="9.123528273844164"><ele>233.0</ele><time>2026-04-18T12:55:53Z</time></trkpt><trkpt lat="45.8577157348713" lon="9.123671364890697"><ele>232.0</ele><time>2026-04-18T12:55:54Z</time></trkpt><trkpt lat="45.85766489454117" lon="9.123834825096267"><ele>231.0</ele><time>2026-04-18T12:55:55Z</time></trkpt><trkpt lat="45.857619045173124" lon="9.124005046270351"><ele>230.0</ele><time>2026-04-18T12:55:56Z</time></trkpt><trkpt lat="45.85758120087717" lon="9.124172402891483"><ele>229.0</ele><time>2026-04-18T12:55:57Z</time></trkpt><trkpt lat="45.85754292546541" lon="9.124338370818348"><ele>237.6</ele><time>2026-04-18T12:55:58Z</time></trkpt><trkpt lat="45.8575139229296" lon="9.124476669224395"><ele>246.2</ele><time>2026-04-18T12:55:59Z</time></trkpt><trkpt lat="45.85750455803362" lon="9.124616697856467"><ele>254.79999999999998</ele><time>2026-04-18T12:56:00Z</time></trkpt><trkpt lat="45.85752497188322" lon="9.124770846426307"><ele>263.4</ele><time>2026-04-18T12:56:01Z</time></trkpt><trkpt lat="45.85755797218431" lon="9.124913203529584"><ele>272.0</ele><time>2026-04-18T12:56:02Z</time></trkpt><trkpt lat="45.85759292655431" lon="9.125006135082689"><ele>272.5</ele><time>2026-04-18T12:56:03Z</time></trkpt><trkpt lat="45.857606830289434" lon="9.12516094213813"><ele>273.0</ele><time>2026-04-18T12:56:04Z</time></trkpt><trkpt lat="45.857625967461075" lon="9.12527411837571"><ele>273.5</ele><time>2026-04-18T12:56:05Z</time></trkpt><trkpt lat="45.85764191161516" lon="9.125380996118745"><ele>274.0</ele><time>2026-04-18T12:56:06Z</time></trkpt><trkpt lat="45.85765712260301" lon="9.125499883831532"><ele>274.5</ele><time>2026-04-18T12:56:07Z</time></trkpt><trkpt lat="45.8576693720112" lon="9.125635633762098"><ele>275.0</ele><time>2026-04-18T12:56:08Z</time></trkpt><trkpt lat="45.85766607780217" lon="9.12580289939078"><ele>277.25</ele><time>2026-04-18T12:56:09Z</time></trkpt><trkpt lat="45.857645849983285" lon="9.125984522070437"><ele>279.5</ele><time>2026-04-18T12:56:10Z</time></trkpt><trkpt lat="45.857614061420705" lon="9.126165422781458"><ele>281.75</ele><time>2026-04-18T12:56:11Z</time></trkpt><trkpt lat="45.857580223273665" lon="9.126337347234909"><ele>284.0</ele><time>2026-04-18T12:56:12Z</time></trkpt><trkpt lat="45.85755475332269" lon="9.126496930542745"><ele>286.2</ele><time>2026-04-18T12:56:13Z</time></trkpt><trkpt lat="45.85754157609946" lon="9.126635645154902"><ele>288.4</ele><time>2026-04-18T12:56:14Z</time></trkpt><trkpt lat="45.85754982361803" lon="9.12677262667299"><ele>290.6</ele><time>2026-04-18T12:56:15Z</time></trkpt><trkpt lat="45.85756555756686" lon="9.126907449211044"><ele>292.8</ele><time>2026-04-18T12:56:16Z</time></trkpt><trkpt lat="45.857581990363016" lon="9.127042605080414"><ele>295.0</ele><time>2026-04-18T12:56:17Z</time></trkpt><trkpt lat="45.85760929724164" lon="9.127183311050995"><ele>285.4</ele><time>2026-04-18T12:56:18Z</time></trkpt><trkpt lat="45.85762802507433" lon="9.127326137427042"><ele>275.8</ele><time>2026-04-18T12:56:19Z</time></trkpt><trkpt lat="45.85764727065252" lon="9.12746783654084"><ele>266.2</ele><time>2026-04-18T12:56:20Z</time></trkpt><trkpt lat="45.85767246794491" lon="9.127610230637057"><ele>256.6</ele><time>2026-04-18T12:56:21Z</time></trkpt><trkpt lat="45.85768846734072" lon="9.127741992047854"><ele>247.0</ele><time>2026-04-18T12:56:22Z</time></trkpt><trkpt lat="45.85771711821685" lon="9.127884323031454"><ele>247.0</ele><time>2026-04-18T12:56:23Z</time></trkpt><trkpt lat="45.857738601319504" lon="9.1280623171468"><ele>247.0</ele><time>2026-04-18T12:56:24Z</time></trkpt><trkpt lat="45.85777009697526" lon="9.128273720179829"><ele>247.0</ele><time>2026-04-18T12:56:25Z</time></trkpt><trkpt lat="45.857784042503525" lon="9.128500820830322"><ele>247.0</ele><time>2026-04-18T12:56:26Z</time></trkpt><trkpt lat="45.85775156547729" lon="9.128690951846625"><ele>248.5</ele><time>2026-04-18T12:56:27Z</time></trkpt><trkpt lat="45.85771231645949" lon="9.128875312283755"><ele>250.0</ele><time>2026-04-18T12:56:28Z</time></trkpt><trkpt lat="45.857650859190905" lon="9.12905408860607"><ele>251.5</ele><time>2026-04-18T12:56:29Z</time></trkpt><trkpt lat="45.857568660806336" lon="9.129239696706827"><ele>253.0</ele><time>2026-04-18T12:56:30Z</time></trkpt><trkpt lat="45.857475778946075" lon="9.129439540565789"><ele>264.66666666666663</ele><time>2026-04-18T12:56:31Z</time></trkpt><trkpt lat="45.85738518359104" lon="9.129655447353342"><ele>276.3333333333333</ele><time>2026-04-18T12:56:32Z</time></trkpt><trkpt lat="45.85730429603302" lon="9.12986040324841"><ele>288.0</ele><time>2026-04-18T12:56:33Z</time></trkpt><trkpt lat="45.85722520717756" lon="9.130048220051915"><ele>288.0</ele><time>2026-04-18T12:56:34Z</time></trkpt><trkpt lat="45.85713890524972" lon="9.130246533823641"><ele>288.0</ele><time>2026-04-18T12:56:35Z</time></trkpt><trkpt lat="45.857072850706764" lon="9.130442523469746"><ele>288.0</ele><time>2026-04-18T12:56:36Z</time></trkpt><trkpt lat="45.85700232726938" lon="9.13061612073121"><ele>284.0</ele><time>2026-04-18T12:56:37Z</time></trkpt><trkpt lat="45.85694671453367" lon="9.130770167160913"><ele>280.0</ele><time>2026-04-18T12:56:38Z</time></trkpt><trkpt lat="45.85690227064981" lon="9.130920841364501"><ele>276.0</ele><time>2026-04-18T12:56:39Z</time></trkpt><trkpt lat="45.85686279035238" lon="9.131064770452467"><ele>272.0</ele><time>2026-04-18T12:56:40Z</time></trkpt><trkpt lat="45.856830027208" lon="9.13118329049033"><ele>268.0</ele><time>2026-04-18T12:56:41Z</time></trkpt><trkpt lat="45.85679843638462" lon="9.13131151852881"><ele>274.8</ele><time>2026-04-18T12:56:42Z</time></trkpt><trkpt lat="45.856748107703936" lon="9.13144106518327"><ele>281.6</ele><time>2026-04-18T12:56:43Z</time></trkpt><trkpt lat="45.85666564789909" lon="9.131547281258374"><ele>288.4</ele><time>2026-04-18T12:56:44Z</time></trkpt><trkpt lat="45.85656726956961" lon="9.131626564627473"><ele>295.2</ele><time>2026-04-18T12:56:45Z</time></trkpt><trkpt lat="45.856473199390045" lon="9.131696298918877"><ele>302.0</ele><time>2026-04-18T12:56:46Z</time></trkpt><trkpt lat="45.85640493333582" lon="9.131776880993108"><ele>302.0</ele><time>2026-04-18T12:56:47Z</time></trkpt><trkpt lat="45.85636099747941" lon="9.131866419545828"><ele>302.0</ele><time>2026-04-18T12:56:48Z</time></trkpt><trkpt lat="45.8563306574615" lon="9.1319819166383"><ele>302.0</ele><time>2026-04-18T12:56:49Z</time></trkpt><trkpt lat="45.85632247235347" lon="9.132130478767378"><ele>302.0</ele><time>2026-04-18T12:56:50Z</time></trkpt><trkpt lat="45.856351708359355" lon="9.132310569143618"><ele>302.0</ele><time>2026-04-18T12:56:51Z</time></trkpt><trkpt lat="45.85639229123867" lon="9.132532491696377"><ele>302.0</ele><time>2026-04-18T12:56:52Z</time></trkpt><trkpt lat="45.8564394560117" lon="9.13283726055764"><ele>302.0</ele><time>2026-04-18T12:56:53Z</time></trkpt><trkpt lat="45.85647047779053" lon="9.133213198705766"><ele>306.5</ele><time>2026-04-18T12:56:54Z</time></trkpt><trkpt lat="45.85651634643371" lon="9.133602592011465"><ele>311.0</ele><time>2026-04-18T12:56:55Z</time></trkpt><trkpt lat="45.856574113815945" lon="9.133936951910176"><ele>312.33333333333337</ele><time>2026-04-18T12:56:56Z</time></trkpt><trkpt lat="45.85660833260991" lon="9.134232834541049"><ele>313.6666666666667</ele><time>2026-04-18T12:56:57Z</time></trkpt><trkpt lat="45.856638667657926" lon="9.134508829685808"><ele>315.0</ele><time>2026-04-18T12:56:58Z</time></trkpt><trkpt lat="45.856662975919484" lon="9.134768425455821"><ele>317.3333333333333</ele><time>2026-04-18T12:56:59Z</time></trkpt><trkpt lat="45.85663939653844" lon="9.135021877605626"><ele>319.66666666666663</ele><time>2026-04-18T12:57:00Z</time></trkpt><trkpt lat="45.85658088384032" lon="9.135288201549404"><ele>322.0</ele><time>2026-04-18T12:57:01Z</time></trkpt><trkpt lat="45.85654725264057" lon="9.135564565397313"><ele>322.0</ele><time>2026-04-18T12:57:02Z</time></trkpt><trkpt lat="45.85655922974342" lon="9.135858945739026"><ele>322.0</ele><time>2026-04-18T12:57:03Z</time></trkpt><trkpt lat="45.856591518249026" lon="9.136139647186626"><ele>322.0</ele><time>2026-04-18T12:57:04Z</time></trkpt><trkpt lat="45.85662661561413" lon="9.136387564966011"><ele>324.0</ele><time>2026-04-18T12:57:05Z</time></trkpt><trkpt lat="45.85664708006277" lon="9.136606966512547"><ele>326.0</ele><time>2026-04-18T12:57:06Z</time></trkpt><trkpt lat="45.856663453817696" lon="9.13682271229286"><ele>328.0</ele><time>2026-04-18T12:57:07Z</time></trkpt><trkpt lat="45.85668074080455" lon="9.137025845764494"><ele>330.0</ele><time>2026-04-18T12:57:08Z</time></trkpt><trkpt lat="45.856706196600875" lon="9.137224469772164"><ele>333.0</ele><time>2026-04-18T12:57:09Z</time></trkpt><trkpt lat="45.85673303008897" lon="9.137421338891086"><ele>336.0</ele><time>2026-04-18T12:57:10Z</time></trkpt><trkpt lat="45.8567718706318" lon="9.137619244624515"><ele>339.0</ele><time>2026-04-18T12:57:11Z</time></trkpt><trkpt lat="45.85680452380006" lon="9.137822155760421"><ele>342.0</ele><time>2026-04-18T12:57:12Z</time></trkpt><trkpt lat="45.85683794244407" lon="9.138056685857542"><ele>324.0</ele><time>2026-04-18T12:57:13Z</time></trkpt><trkpt lat="45.85685383162385" lon="9.13826005915287"><ele>306.0</ele><time>2026-04-18T12:57:14Z</time></trkpt><trkpt lat="45.856863881525584" lon="9.13844828911333"><ele>288.0</ele><time>2026-04-18T12:57:15Z</time></trkpt><trkpt lat="45.856875785405286" lon="9.138623034283695"><ele>270.0</ele><time>2026-04-18T12:57:16Z</time></trkpt><trkpt lat="45.85687910716983" lon="9.138788291702946"><ele>270.0</ele><time>2026-04-18T12:57:17Z</time></trkpt><trkpt lat="45.85686854970039" lon="9.138946922375128"><ele>270.0</ele><time>2026-04-18T12:57:18Z</time></trkpt><trkpt lat="45.85684674488599" lon="9.139099491970642"><ele>270.0</ele><time>2026-04-18T12:57:19Z</time></trkpt><trkpt lat="45.85682785518276" lon="9.139247990479669"><ele>270.0</ele><time>2026-04-18T12:57:20Z</time></trkpt><trkpt lat="45.85682859725984" lon="9.139394616963894"><ele>270.0</ele><time>2026-04-18T12:57:21Z</time></trkpt><trkpt lat="45.85683473783225" lon="9.139549696557046"><ele>270.25</ele><time>2026-04-18T12:57:22Z</time></trkpt><trkpt lat="45.856859359248794" lon="9.139714658198425"><ele>270.5</ele><time>2026-04-18T12:57:23Z</time></trkpt><trkpt lat="45.85688930847963" lon="9.139898523659735"><ele>270.75</ele><time>2026-04-18T12:57:24Z</time></trkpt><trkpt lat="45.85689446361652" lon="9.140083625496215"><ele>271.0</ele><time>2026-04-18T12:57:25Z</time></trkpt><trkpt lat="45.85688099877209" lon="9.140251332179778"><ele>271.66666666666663</ele><time>2026-04-18T12:57:26Z</time></trkpt><trkpt lat="45.85685544811297" lon="9.140404348838468"><ele>272.3333333333333</ele><time>2026-04-18T12:57:27Z</time></trkpt><trkpt lat="45.856837408690446" lon="9.140549602078435"><ele>273.0</ele><time>2026-04-18T12:57:28Z</time></trkpt><trkpt lat="45.85682171726888" lon="9.140659224702333"><ele>273.6666666666667</ele><time>2026-04-18T12:57:29Z</time></trkpt><trkpt lat="45.856820239016905" lon="9.140749728012265"><ele>274.33333333333337</ele><time>2026-04-18T12:57:30Z</time></trkpt><trkpt lat="45.85687352975055" lon="9.14085427141406"><ele>275.0</ele><time>2026-04-18T12:57:32Z</time></trkpt><trkpt lat="45.8570140557397" lon="9.14093525304333"><ele>280.83333333333337</ele><time>2026-04-18T12:57:34Z</time></trkpt><trkpt lat="45.857099169489636" lon="9.140924721819696"><ele>286.6666666666667</ele><time>2026-04-18T12:57:35Z</time></trkpt><trkpt lat="45.85718758625169" lon="9.140910237811989"><ele>292.5</ele><time>2026-04-18T12:57:36Z</time></trkpt><trkpt lat="45.85727013723305" lon="9.140899560143634"><ele>298.3333333333333</ele><time>2026-04-18T12:57:37Z</time></trkpt><trkpt lat="45.8573406123793" lon="9.140902848688404"><ele>304.16666666666663</ele><time>2026-04-18T12:57:38Z</time></trkpt><trkpt lat="45.85742379392909" lon="9.140930977888155"><ele>310.0</ele><time>2026-04-18T12:57:39Z</time></trkpt><trkpt lat="45.857481291760514" lon="9.140990775476743"><ele>310.0</ele><time>2026-04-18T12:57:40Z</time></trkpt><trkpt lat="45.85754068041426" lon="9.141082651851768"><ele>310.0</ele><time>2026-04-18T12:57:41Z</time></trkpt><trkpt lat="45.85761595043023" lon="9.141167124441614"><ele>310.0</ele><time>2026-04-18T12:57:42Z</time></trkpt><trkpt lat="45.857693820897225" lon="9.141282832166283"><ele>310.0</ele><time>2026-04-18T12:57:43Z</time></trkpt><trkpt lat="45.85776192781741" lon="9.141386579624006"><ele>310.0</ele><time>2026-04-18T12:57:44Z</time></trkpt><trkpt lat="45.8578311425618" lon="9.141492164769684"><ele>303.0</ele><time>2026-04-18T12:57:45Z</time></trkpt><trkpt lat="45.85790387694345" lon="9.141590933038701"><ele>296.0</ele><time>2026-04-18T12:57:46Z</time></trkpt><trkpt lat="45.857975980904605" lon="9.14168948463542"><ele>289.0</ele><time>2026-04-18T12:57:47Z</time></trkpt><trkpt lat="45.858047552421375" lon="9.141792782497316"><ele>282.0</ele><time>2026-04-18T12:57:48Z</time></trkpt><trkpt lat="45.8581181551337" lon="9.14190888546103"><ele>275.0</ele><time>2026-04-18T12:57:49Z</time></trkpt><trkpt lat="45.85819092296101" lon="9.142028795227757"><ele>275.0</ele><time>2026-04-18T12:57:50Z</time></trkpt><trkpt lat="45.85825315106713" lon="9.142170031354983"><ele>275.0</ele><time>2026-04-18T12:57:51Z</time></trkpt><trkpt lat="45.858300870362974" lon="9.142338137852981"><ele>275.0</ele><time>2026-04-18T12:57:52Z</time></trkpt><trkpt lat="45.858327724854426" lon="9.142503466961523"><ele>275.0</ele><time>2026-04-18T12:57:53Z</time></trkpt><trkpt lat="45.85837192615419" lon="9.14266650098958"><ele>274.4</ele><time>2026-04-18T12:57:54Z</time></trkpt><trkpt lat="45.85842316853633" lon="9.142801597047253"><ele>273.8</ele><time>2026-04-18T12:57:55Z</time></trkpt><trkpt lat="45.85849801685258" lon="9.142926885726693"><ele>273.2</ele><time>2026-04-18T12:57:56Z</time></trkpt><trkpt lat="45.85858397621605" lon="9.143040404616327"><ele>272.6</ele><time>2026-04-18T12:57:57Z</time></trkpt><trkpt lat="45.85866047626039" lon="9.143148600463885"><ele>272.0</ele><time>2026-04-18T12:57:58Z</time></trkpt><trkpt lat="45.85874189609655" lon="9.143256987328375"><ele>272.0</ele><time>2026-04-18T12:57:59Z</time></trkpt><trkpt lat="45.8588217751556" lon="9.143368765330216"><ele>272.0</ele><time>2026-04-18T12:58:00Z</time></trkpt><trkpt lat="45.85889540254662" lon="9.143478465237052"><ele>272.0</ele><time>2026-04-18T12:58:01Z</time></trkpt><trkpt lat="45.85896977082944" lon="9.143591540252446"><ele>272.0</ele><time>2026-04-18T12:58:02Z</time></trkpt><trkpt lat="45.85904621152043" lon="9.143709654289786"><ele>272.0</ele><time>2026-04-18T12:58:03Z</time></trkpt><trkpt lat="45.859121811085295" lon="9.143834977555173"><ele>272.0</ele><time>2026-04-18T12:58:04Z</time></trkpt><trkpt lat="45.859196770073126" lon="9.143969438806051"><ele>272.0</ele><time>2026-04-18T12:58:05Z</time></trkpt><trkpt lat="45.85926315149886" lon="9.144109037804292"><ele>272.0</ele><time>2026-04-18T12:58:06Z</time></trkpt><trkpt lat="45.85932697484325" lon="9.144253986970375"><ele>272.0</ele><time>2026-04-18T12:58:07Z</time></trkpt><trkpt lat="45.8593904132897" lon="9.144390269753258"><ele>272.75</ele><time>2026-04-18T12:58:08Z</time></trkpt><trkpt lat="45.8594556862343" lon="9.144529811402082"><ele>273.5</ele><time>2026-04-18T12:58:09Z</time></trkpt><trkpt lat="45.859520431978154" lon="9.144662816809003"><ele>274.25</ele><time>2026-04-18T12:58:10Z</time></trkpt><trkpt lat="45.85958528228816" lon="9.14479516830578"><ele>275.0</ele><time>2026-04-18T12:58:11Z</time></trkpt><trkpt lat="45.859658522349946" lon="9.14492863122011"><ele>275.0</ele><time>2026-04-18T12:58:12Z</time></trkpt><trkpt lat="45.85972206682595" lon="9.145038617597974"><ele>275.0</ele><time>2026-04-18T12:58:13Z</time></trkpt><trkpt lat="45.85979055606982" lon="9.145155500769013"><ele>275.0</ele><time>2026-04-18T12:58:14Z</time></trkpt><trkpt lat="45.85987171613546" lon="9.14526417926184"><ele>275.0</ele><time>2026-04-18T12:58:15Z</time></trkpt><trkpt lat="45.85995150118024" lon="9.145379798076537"><ele>275.0</ele><time>2026-04-18T12:58:16Z</time></trkpt><trkpt lat="45.86003383021458" lon="9.145494195106552"><ele>271.75</ele><time>2026-04-18T12:58:17Z</time></trkpt><trkpt lat="45.860120241085816" lon="9.145608339218771"><ele>268.5</ele><time>2026-04-18T12:58:18Z</time></trkpt><trkpt lat="45.86020500971673" lon="9.145730369905406"><ele>265.25</ele><time>2026-04-18T12:58:19Z</time></trkpt><trkpt lat="45.860286260459915" lon="9.145842329668048"><ele>262.0</ele><time>2026-04-18T12:58:20Z</time></trkpt><trkpt lat="45.86036464281811" lon="9.145947341254141"><ele>262.0</ele><time>2026-04-18T12:58:21Z</time></trkpt><trkpt lat="45.860444330538506" lon="9.146043244218522"><ele>262.0</ele><time>2026-04-18T12:58:22Z</time></trkpt><trkpt lat="45.86053833054503" lon="9.146113708154795"><ele>262.0</ele><time>2026-04-18T12:58:23Z</time></trkpt><trkpt lat="45.86064451702814" lon="9.146163535547394"><ele>262.0</ele><time>2026-04-18T12:58:24Z</time></trkpt><trkpt lat="45.8607490680166" lon="9.146219754101528"><ele>262.0</ele><time>2026-04-18T12:58:25Z</time></trkpt><trkpt lat="45.86084562767527" lon="9.146302584946111"><ele>262.0</ele><time>2026-04-18T12:58:26Z</time></trkpt><trkpt lat="45.86092454122757" lon="9.146422998731298"><ele>262.0</ele><time>2026-04-18T12:58:27Z</time></trkpt><trkpt lat="45.86100518312352" lon="9.146545485984037"><ele>262.0</ele><time>2026-04-18T12:58:28Z</time></trkpt><trkpt lat="45.86107897863256" lon="9.146670011606618"><ele>262.0</ele><time>2026-04-18T12:58:29Z</time></trkpt><trkpt lat="45.86116261231296" lon="9.146779622650891"><ele>258.0</ele><time>2026-04-18T12:58:30Z</time></trkpt><trkpt lat="45.8612588030763" lon="9.146892103163335"><ele>254.0</ele><time>2026-04-18T12:58:31Z</time></trkpt><trkpt lat="45.8613517662645" lon="9.147004200094768"><ele>250.0</ele><time>2026-04-18T12:58:32Z</time></trkpt><trkpt lat="45.861432523413846" lon="9.147108923455754"><ele>246.0</ele><time>2026-04-18T12:58:33Z</time></trkpt><trkpt lat="45.8615110019433" lon="9.147208886955921"><ele>246.0</ele><time>2026-04-18T12:58:34Z</time></trkpt><trkpt lat="45.86158808741744" lon="9.147312293725001"><ele>246.00000000000003</ele><time>2026-04-18T12:58:35Z</time></trkpt><trkpt lat="45.86166467824433" lon="9.147418839075959"><ele>246.00000000000003</ele><time>2026-04-18T12:58:36Z</time></trkpt><trkpt lat="45.86174444299366" lon="9.147520590219589"><ele>246.0</ele><time>2026-04-18T12:58:37Z</time></trkpt><trkpt lat="45.861812896385274" lon="9.14763879086099"><ele>246.0</ele><time>2026-04-18T12:58:38Z</time></trkpt><trkpt lat="45.86185924487133" lon="9.14777880518318"><ele>245.75</ele><time>2026-04-18T12:58:39Z</time></trkpt><trkpt lat="45.86186767986695" lon="9.147919021072473"><ele>245.5</ele><time>2026-04-18T12:58:40Z</time></trkpt><trkpt lat="45.861889961884046" lon="9.14804815763016"><ele>245.25</ele><time>2026-04-18T12:58:41Z</time></trkpt><trkpt lat="45.861938285286826" lon="9.148267451707127"><ele>245.0</ele><time>2026-04-18T12:58:42Z</time></trkpt><trkpt lat="45.86196187259577" lon="9.148429433271211"><ele>245.0</ele><time>2026-04-18T12:58:43Z</time></trkpt><trkpt lat="45.86198666766549" lon="9.14858601451751"><ele>245.0</ele><time>2026-04-18T12:58:44Z</time></trkpt><trkpt lat="45.8620362198578" lon="9.148732734832224"><ele>245.0</ele><time>2026-04-18T12:58:45Z</time></trkpt><trkpt lat="45.86210869465373" lon="9.14885224735161"><ele>245.0</ele><time>2026-04-18T12:58:46Z</time></trkpt><trkpt lat="45.86217993853182" lon="9.148970671032746"><ele>245.0</ele><time>2026-04-18T12:58:47Z</time></trkpt><trkpt lat="45.86225069023167" lon="9.149060911651686"><ele>248.0</ele><time>2026-04-18T12:58:48Z</time></trkpt><trkpt lat="45.862302794989596" lon="9.14917459963247"><ele>251.0</ele><time>2026-04-18T12:58:49Z</time></trkpt><trkpt lat="45.86233805974919" lon="9.149297800908926"><ele>254.0</ele><time>2026-04-18T12:58:50Z</time></trkpt><trkpt lat="45.86236916739822" lon="9.149419394052927"><ele>257.0</ele><time>2026-04-18T12:58:51Z</time></trkpt><trkpt lat="45.86239643843385" lon="9.149537356400314"><ele>260.0</ele><time>2026-04-18T12:58:52Z</time></trkpt><trkpt lat="45.86243439160691" lon="9.149649683175491"><ele>260.0</ele><time>2026-04-18T12:58:53Z</time></trkpt><trkpt lat="45.86249454409459" lon="9.149757863188162"><ele>260.0</ele><time>2026-04-18T12:58:54Z</time></trkpt><trkpt lat="45.86257359872582" lon="9.149848241674412"><ele>260.0</ele><time>2026-04-18T12:58:55Z</time></trkpt><trkpt lat="45.86264743984299" lon="9.149945172896787"><ele>260.0</ele><time>2026-04-18T12:58:56Z</time></trkpt><trkpt lat="45.86270707914062" lon="9.150061984679681"><ele>260.0</ele><time>2026-04-18T12:58:57Z</time></trkpt><trkpt lat="45.862773028863046" lon="9.150169826217276"><ele>256.6</ele><time>2026-04-18T12:58:58Z</time></trkpt><trkpt lat="45.86282759380988" lon="9.150278725125784"><ele>253.2</ele><time>2026-04-18T12:58:59Z</time></trkpt><trkpt lat="45.86289402647161" lon="9.150393760986244"><ele>249.8</ele><time>2026-04-18T12:59:00Z</time></trkpt><trkpt lat="45.86296086263032" lon="9.15050688756043"><ele>246.4</ele><time>2026-04-18T12:59:01Z</time></trkpt><trkpt lat="45.863039513546205" lon="9.1506119288004"><ele>243.0</ele><time>2026-04-18T12:59:02Z</time></trkpt><trkpt lat="45.86312089920686" lon="9.150707352917724"><ele>241.2</ele><time>2026-04-18T12:59:03Z</time></trkpt><trkpt lat="45.86320635799766" lon="9.150792914335426"><ele>239.4</ele><time>2026-04-18T12:59:04Z</time></trkpt><trkpt lat="45.863287970391404" lon="9.150886569172979"><ele>237.59999999999997</ele><time>2026-04-18T12:59:05Z</time></trkpt><trkpt lat="45.86336519517072" lon="9.150978882265791"><ele>235.79999999999998</ele><time>2026-04-18T12:59:06Z</time></trkpt><trkpt lat="45.863442572447894" lon="9.151072235479173"><ele>234.0</ele><time>2026-04-18T12:59:07Z</time></trkpt><trkpt lat="45.863521192728015" lon="9.15115732662754"><ele>234.0</ele><time>2026-04-18T12:59:08Z</time></trkpt><trkpt lat="45.86360866300334" lon="9.15124212972514"><ele>233.99999999999997</ele><time>2026-04-18T12:59:09Z</time></trkpt><trkpt lat="45.8636988388064" lon="9.151327693094535"><ele>233.99999999999997</ele><time>2026-04-18T12:59:10Z</time></trkpt><trkpt lat="45.863779154233974" lon="9.15142270699076"><ele>234.0</ele><time>2026-04-18T12:59:11Z</time></trkpt><trkpt lat="45.86387846100199" lon="9.151510385942034"><ele>234.0</ele><time>2026-04-18T12:59:12Z</time></trkpt><trkpt lat="45.86393339631369" lon="9.15163331698107"><ele>239.39999999999998</ele><time>2026-04-18T12:59:13Z</time></trkpt><trkpt lat="45.86400760323692" lon="9.151759398733116"><ele>244.79999999999998</ele><time>2026-04-18T12:59:14Z</time></trkpt><trkpt lat="45.86407506558387" lon="9.151815787950094"><ele>250.20000000000002</ele><time>2026-04-18T12:59:15Z</time></trkpt><trkpt lat="45.86411402531532" lon="9.151927618271284"><ele>255.60000000000002</ele><time>2026-04-18T12:59:16Z</time></trkpt><trkpt lat="45.86418297540189" lon="9.152021406093713"><ele>261.0</ele><time>2026-04-18T12:59:17Z</time></trkpt><trkpt lat="45.86426368844425" lon="9.152123043584096"><ele>260.0</ele><time>2026-04-18T12:59:18Z</time></trkpt><trkpt lat="45.86429705947936" lon="9.152270970478535"><ele>259.0</ele><time>2026-04-18T12:59:19Z</time></trkpt><trkpt lat="45.86431901709089" lon="9.15242393218665"><ele>258.0</ele><time>2026-04-18T12:59:20Z</time></trkpt><trkpt lat="45.864356151657894" lon="9.152555076339038"><ele>257.0</ele><time>2026-04-18T12:59:21Z</time></trkpt><trkpt lat="45.864403526413746" lon="9.152667662991929"><ele>256.0</ele><time>2026-04-18T12:59:22Z</time></trkpt><trkpt lat="45.864470196773446" lon="9.152769502494964"><ele>255.99999999999997</ele><time>2026-04-18T12:59:23Z</time></trkpt><trkpt lat="45.86454624436916" lon="9.152844129513287"><ele>256.0</ele><time>2026-04-18T12:59:24Z</time></trkpt><trkpt lat="45.864634009903845" lon="9.152888533183638"><ele>256.0</ele><time>2026-04-18T12:59:25Z</time></trkpt><trkpt lat="45.86471185929668" lon="9.15291905270534"><ele>256.0</ele><time>2026-04-18T12:59:26Z</time></trkpt><trkpt lat="45.86479212408434" lon="9.152957476444271"><ele>255.99999999999997</ele><time>2026-04-18T12:59:27Z</time></trkpt><trkpt lat="45.86487117765686" lon="9.153002318489536"><ele>256.0</ele><time>2026-04-18T12:59:28Z</time></trkpt><trkpt lat="45.864960927740796" lon="9.153047355911767"><ele>256.0</ele><time>2026-04-18T12:59:29Z</time></trkpt><trkpt lat="45.865041182372295" lon="9.153106231209165"><ele>256.0</ele><time>2026-04-18T12:59:30Z</time></trkpt><trkpt lat="45.865111661270056" lon="9.153195782379857"><ele>256.0</ele><time>2026-04-18T12:59:31Z</time></trkpt><trkpt lat="45.86516693438152" lon="9.153307069703368"><ele>256.0</ele><time>2026-04-18T12:59:32Z</time></trkpt><trkpt lat="45.86521430133957" lon="9.153423316300687"><ele>256.0</ele><time>2026-04-18T12:59:33Z</time></trkpt><trkpt lat="45.86527125330518" lon="9.153529483382139"><ele>255.60000000000002</ele><time>2026-04-18T12:59:34Z</time></trkpt><trkpt lat="45.865348877608724" lon="9.153582445157166"><ele>255.20000000000002</ele><time>2026-04-18T12:59:35Z</time></trkpt><trkpt lat="45.865455960518105" lon="9.153607188132877"><ele>254.79999999999998</ele><time>2026-04-18T12:59:36Z</time></trkpt><trkpt lat="45.86554991654208" lon="9.153680226132368"><ele>254.39999999999998</ele><time>2026-04-18T12:59:37Z</time></trkpt><trkpt lat="45.865645944632774" lon="9.153813647609198"><ele>254.0</ele><time>2026-04-18T12:59:38Z</time></trkpt><trkpt lat="45.8657515544343" lon="9.153961326798642"><ele>253.0</ele><time>2026-04-18T12:59:39Z</time></trkpt><trkpt lat="45.86582045104134" lon="9.15410215913233"><ele>251.99999999999997</ele><time>2026-04-18T12:59:40Z</time></trkpt><trkpt lat="45.86585855452065" lon="9.154176210213556"><ele>250.99999999999997</ele><time>2026-04-18T12:59:41Z</time></trkpt><trkpt lat="45.86597796285915" lon="9.154247321903986"><ele>250.0</ele><time>2026-04-18T12:59:42Z</time></trkpt><trkpt lat="45.866082928546774" lon="9.154345447679598"><ele>249.0</ele><time>2026-04-18T12:59:43Z</time></trkpt><trkpt lat="45.86619422274276" lon="9.154448966866566"><ele>249.0</ele><time>2026-04-18T12:59:44Z</time></trkpt><trkpt lat="45.866294286722045" lon="9.154560700844737"><ele>249.0</ele><time>2026-04-18T12:59:45Z</time></trkpt><trkpt lat="45.866356762168664" lon="9.154650058182568"><ele>249.0</ele><time>2026-04-18T12:59:46Z</time></trkpt><trkpt lat="45.866474463996674" lon="9.154704491358173"><ele>249.0</ele><time>2026-04-18T12:59:47Z</time></trkpt><trkpt lat="45.86657400209262" lon="9.154784249382594"><ele>249.0</ele><time>2026-04-18T12:59:48Z</time></trkpt><trkpt lat="45.866670728657745" lon="9.154840336155551"><ele>248.99999999999997</ele><time>2026-04-18T12:59:49Z</time></trkpt><trkpt lat="45.86675973400915" lon="9.154916923639984"><ele>248.99999999999997</ele><time>2026-04-18T12:59:50Z</time></trkpt><trkpt lat="45.86685534751968" lon="9.15498234481411"><ele>249.0</ele><time>2026-04-18T12:59:51Z</time></trkpt><trkpt lat="45.86693508237142" lon="9.155064576571142"><ele>249.0</ele><time>2026-04-18T12:59:52Z</time></trkpt><trkpt lat="45.86702661827215" lon="9.155143814301304"><ele>251.6</ele><time>2026-04-18T12:59:53Z</time></trkpt><trkpt lat="45.867115998669085" lon="9.155222753555352"><ele>254.2</ele><time>2026-04-18T12:59:54Z</time></trkpt><trkpt lat="45.86720096631802" lon="9.155307939578787"><ele>256.79999999999995</ele><time>2026-04-18T12:59:55Z</time></trkpt><trkpt lat="45.86728359027544" lon="9.155412778417572"><ele>259.4</ele><time>2026-04-18T12:59:56Z</time></trkpt><trkpt lat="45.86736873728863" lon="9.15551208520102"><ele>262.0</ele><time>2026-04-18T12:59:57Z</time></trkpt><trkpt lat="45.867442566035905" lon="9.15562031513832"><ele>263.0</ele><time>2026-04-18T12:59:58Z</time></trkpt><trkpt lat="45.86753614442208" lon="9.155707508249542"><ele>264.0</ele><time>2026-04-18T12:59:59Z</time></trkpt><trkpt lat="45.867620709140006" lon="9.155799815226477"><ele>265.0</ele><time>2026-04-18T13:00:00Z</time></trkpt><trkpt lat="45.86770694243219" lon="9.155899519163524"><ele>266.0</ele><time>2026-04-18T13:00:01Z</time></trkpt><trkpt lat="45.86779229542287" lon="9.15599038620245"><ele>267.0</ele><time>2026-04-18T13:00:02Z</time></trkpt><trkpt lat="45.867877692065484" lon="9.156086986899378"><ele>267.0</ele><time>2026-04-18T13:00:03Z</time></trkpt><trkpt lat="45.8679554748392" lon="9.15618004967434"><ele>267.0</ele><time>2026-04-18T13:00:04Z</time></trkpt><trkpt lat="45.868049564181135" lon="9.15626985635246"><ele>267.0</ele><time>2026-04-18T13:00:05Z</time></trkpt><trkpt lat="45.86814756860479" lon="9.15635954919296"><ele>267.0</ele><time>2026-04-18T13:00:06Z</time></trkpt><trkpt lat="45.86826388120486" lon="9.156419969209013"><ele>267.0</ele><time>2026-04-18T13:00:07Z</time></trkpt><trkpt lat="45.868344204804295" lon="9.156513998244018"><ele>267.0</ele><time>2026-04-18T13:00:08Z</time></trkpt><trkpt lat="45.86842928682723" lon="9.156605983743955"><ele>267.0</ele><time>2026-04-18T13:00:09Z</time></trkpt><trkpt lat="45.8685178160022" lon="9.156706780899302"><ele>267.0</ele><time>2026-04-18T13:00:10Z</time></trkpt><trkpt lat="45.86859761933844" lon="9.156812732472675"><ele>267.0</ele><time>2026-04-18T13:00:11Z</time></trkpt><trkpt lat="45.86868516420866" lon="9.15690345957355"><ele>269.75</ele><time>2026-04-18T13:00:12Z</time></trkpt><trkpt lat="45.86878735377165" lon="9.156959943168983"><ele>272.5</ele><time>2026-04-18T13:00:13Z</time></trkpt><trkpt lat="45.86890141542697" lon="9.156969060254447"><ele>275.25</ele><time>2026-04-18T13:00:14Z</time></trkpt><trkpt lat="45.869009538766704" lon="9.157018573767424"><ele>278.0</ele><time>2026-04-18T13:00:15Z</time></trkpt><trkpt lat="45.869109999250625" lon="9.157097486521574"><ele>278.0</ele><time>2026-04-18T13:00:16Z</time></trkpt><trkpt lat="45.86918816140077" lon="9.15717934797441"><ele>278.0</ele><time>2026-04-18T13:00:17Z</time></trkpt><trkpt lat="45.869252945976115" lon="9.15732142909658"><ele>278.0</ele><time>2026-04-18T13:00:18Z</time></trkpt><trkpt lat="45.86930461478129" lon="9.157462836990778"><ele>278.0</ele><time>2026-04-18T13:00:19Z</time></trkpt><trkpt lat="45.8693572048834" lon="9.157610485952503"><ele>278.0</ele><time>2026-04-18T13:00:20Z</time></trkpt><trkpt lat="45.8694339168995" lon="9.157718847236714"><ele>282.25</ele><time>2026-04-18T13:00:21Z</time></trkpt><trkpt lat="45.86955097814605" lon="9.157762654828732"><ele>286.5</ele><time>2026-04-18T13:00:22Z</time></trkpt><trkpt lat="45.869671321543954" lon="9.157743675868124"><ele>290.75</ele><time>2026-04-18T13:00:23Z</time></trkpt><trkpt lat="45.86978092447641" lon="9.15768652054624"><ele>295.0</ele><time>2026-04-18T13:00:24Z</time></trkpt><trkpt lat="45.86989008296564" lon="9.157657546628185"><ele>295.0</ele><time>2026-04-18T13:00:25Z</time></trkpt><trkpt lat="45.86999175268781" lon="9.157754931122499"><ele>295.0</ele><time>2026-04-18T13:00:26Z</time></trkpt><trkpt lat="45.870088223541934" lon="9.157796937633169"><ele>295.0</ele><time>2026-04-18T13:00:27Z</time></trkpt><trkpt lat="45.87018989759689" lon="9.157856930136314"><ele>295.0</ele><time>2026-04-18T13:00:28Z</time></trkpt><trkpt lat="45.87029816258828" lon="9.157859673675384"><ele>295.0</ele><time>2026-04-18T13:00:29Z</time></trkpt><trkpt lat="45.870411004040704" lon="9.157820600068776"><ele>291.0</ele><time>2026-04-18T13:00:30Z</time></trkpt><trkpt lat="45.87051968634329" lon="9.157834524316804"><ele>287.0</ele><time>2026-04-18T13:00:31Z</time></trkpt><trkpt lat="45.87063324230042" lon="9.157820248317273"><ele>283.0</ele><time>2026-04-18T13:00:32Z</time></trkpt><trkpt lat="45.87075673100138" lon="9.157842271659602"><ele>279.0</ele><time>2026-04-18T13:00:33Z</time></trkpt><trkpt lat="45.87087234127402" lon="9.157904831530871"><ele>276.0</ele><time>2026-04-18T13:00:34Z</time></trkpt><trkpt lat="45.870986823851226" lon="9.157931814452649"><ele>273.0</ele><time>2026-04-18T13:00:35Z</time></trkpt><trkpt lat="45.87109682966535" lon="9.157975474135057"><ele>270.0</ele><time>2026-04-18T13:00:36Z</time></trkpt><trkpt lat="45.87120158202609" lon="9.158013810495929"><ele>267.0</ele><time>2026-04-18T13:00:37Z</time></trkpt><trkpt lat="45.87130366777817" lon="9.158049571958523"><ele>264.0</ele><time>2026-04-18T13:00:38Z</time></trkpt><trkpt lat="45.87140713435502" lon="9.158084488919124"><ele>264.0</ele><time>2026-04-18T13:00:39Z</time></trkpt><trkpt lat="45.87151220689813" lon="9.158134467598178"><ele>264.0</ele><time>2026-04-18T13:00:40Z</time></trkpt><trkpt lat="45.871615781007165" lon="9.15820929300568"><ele>264.0</ele><time>2026-04-18T13:00:41Z</time></trkpt><trkpt lat="45.871716233154" lon="9.158250322015258"><ele>264.0</ele><time>2026-04-18T13:00:42Z</time></trkpt><trkpt lat="45.87180959633784" lon="9.158317477078981"><ele>264.0</ele><time>2026-04-18T13:00:43Z</time></trkpt><trkpt lat="45.871916239743754" lon="9.15840576652339"><ele>262.75</ele><time>2026-04-18T13:00:44Z</time></trkpt><trkpt lat="45.87203452082376" lon="9.158437479871981"><ele>261.5</ele><time>2026-04-18T13:00:45Z</time></trkpt><trkpt lat="45.872141780800824" lon="9.158398040593685"><ele>260.25</ele><time>2026-04-18T13:00:46Z</time></trkpt><trkpt lat="45.87222800408284" lon="9.15828888328011"><ele>259.0</ele><time>2026-04-18T13:00:47Z</time></trkpt><trkpt lat="45.872296409885315" lon="9.158163478920088"><ele>259.0</ele><time>2026-04-18T13:00:48Z</time></trkpt><trkpt lat="45.87238022218082" lon="9.158081892638455"><ele>259.0</ele><time>2026-04-18T13:00:49Z</time></trkpt><trkpt lat="45.87248644634043" lon="9.158049336613507"><ele>259.0</ele><time>2026-04-18T13:00:50Z</time></trkpt><trkpt lat="45.8726009660646" lon="9.158058351238395"><ele>259.0</ele><time>2026-04-18T13:00:51Z</time></trkpt><trkpt lat="45.87271341527553" lon="9.158055405054515"><ele>259.0</ele><time>2026-04-18T13:00:52Z</time></trkpt><trkpt lat="45.87282191935583" lon="9.158051911700893"><ele>259.8</ele><time>2026-04-18T13:00:53Z</time></trkpt><trkpt lat="45.87292611909599" lon="9.158042513424972"><ele>260.59999999999997</ele><time>2026-04-18T13:00:54Z</time></trkpt><trkpt lat="45.87303297714536" lon="9.158030760058413"><ele>261.4</ele><time>2026-04-18T13:00:55Z</time></trkpt><trkpt lat="45.873145677081034" lon="9.158012118690786"><ele>262.2</ele><time>2026-04-18T13:00:56Z</time></trkpt><trkpt lat="45.87324668341629" lon="9.157972801759795"><ele>263.0</ele><time>2026-04-18T13:00:57Z</time></trkpt><trkpt lat="45.87336607451165" lon="9.157943942300806"><ele>262.6666666666667</ele><time>2026-04-18T13:00:58Z</time></trkpt><trkpt lat="45.873509481428684" lon="9.15791786333125"><ele>262.3333333333333</ele><time>2026-04-18T13:00:59Z</time></trkpt><trkpt lat="45.87367747617503" lon="9.157871045859457"><ele>262.0</ele><time>2026-04-18T13:01:00Z</time></trkpt><trkpt lat="45.873822190913415" lon="9.157834595249689"><ele>262.0</ele><time>2026-04-18T13:01:01Z</time></trkpt><trkpt lat="45.873956510419646" lon="9.157823801088655"><ele>262.0</ele><time>2026-04-18T13:01:02Z</time></trkpt><trkpt lat="45.87408565425144" lon="9.157852608495158"><ele>262.0</ele><time>2026-04-18T13:01:03Z</time></trkpt><trkpt lat="45.8742076797125" lon="9.157900187162337"><ele>262.0</ele><time>2026-04-18T13:01:04Z</time></trkpt><trkpt lat="45.87431767441899" lon="9.157953704795398"><ele>266.2</ele><time>2026-04-18T13:01:05Z</time></trkpt><trkpt lat="45.874417194283886" lon="9.157999395840967"><ele>270.4</ele><time>2026-04-18T13:01:06Z</time></trkpt><trkpt lat="45.87453238036611" lon="9.15799881621797"><ele>274.6</ele><time>2026-04-18T13:01:07Z</time></trkpt><trkpt lat="45.874629456969956" lon="9.157918063644557"><ele>278.8</ele><time>2026-04-18T13:01:08Z</time></trkpt><trkpt lat="45.874698746597744" lon="9.157801959880361"><ele>283.0</ele><time>2026-04-18T13:01:09Z</time></trkpt><trkpt lat="45.87475996772212" lon="9.157678007330166"><ele>283.0</ele><time>2026-04-18T13:01:10Z</time></trkpt><trkpt lat="45.87481808498559" lon="9.157575366893928"><ele>283.0</ele><time>2026-04-18T13:01:11Z</time></trkpt><trkpt lat="45.87488456229074" lon="9.157491660891072"><ele>283.0</ele><time>2026-04-18T13:01:12Z</time></trkpt><trkpt lat="45.87496628538059" lon="9.157416858899865"><ele>283.0</ele><time>2026-04-18T13:01:13Z</time></trkpt><trkpt lat="45.87505825353427" lon="9.157353182895802"><ele>283.0</ele><time>2026-04-18T13:01:14Z</time></trkpt><trkpt lat="45.87515333996655" lon="9.157294459482719"><ele>280.4</ele><time>2026-04-18T13:01:15Z</time></trkpt><trkpt lat="45.87525862963307" lon="9.157247348732747"><ele>277.8</ele><time>2026-04-18T13:01:16Z</time></trkpt><trkpt lat="45.87535788493319" lon="9.157210193509048"><ele>275.2</ele><time>2026-04-18T13:01:17Z</time></trkpt><trkpt lat="45.875450718003066" lon="9.157173339596177"><ele>272.6</ele><time>2026-04-18T13:01:18Z</time></trkpt><trkpt lat="45.875544041221694" lon="9.157124846942686"><ele>270.0</ele><time>2026-04-18T13:01:19Z</time></trkpt><trkpt lat="45.87563936956288" lon="9.157077943656738"><ele>270.0</ele><time>2026-04-18T13:01:20Z</time></trkpt><trkpt lat="45.87573995723908" lon="9.157036177606514"><ele>270.0</ele><time>2026-04-18T13:01:21Z</time></trkpt><trkpt lat="45.87583999595255" lon="9.157002983586287"><ele>270.0</ele><time>2026-04-18T13:01:22Z</time></trkpt><trkpt lat="45.875939387693755" lon="9.157002033047323"><ele>270.0</ele><time>2026-04-18T13:01:23Z</time></trkpt><trkpt lat="45.876032819673206" lon="9.157001775119877"><ele>270.0</ele><time>2026-04-18T13:01:24Z</time></trkpt><trkpt lat="45.87612703815516" lon="9.157016805071544"><ele>267.6</ele><time>2026-04-18T13:01:25Z</time></trkpt><trkpt lat="45.87622431655548" lon="9.157035810709537"><ele>265.2</ele><time>2026-04-18T13:01:26Z</time></trkpt><trkpt lat="45.876315228715704" lon="9.157073711709618"><ele>262.8</ele><time>2026-04-18T13:01:27Z</time></trkpt><trkpt lat="45.87640169845267" lon="9.157120808314168"><ele>260.4</ele><time>2026-04-18T13:01:28Z</time></trkpt><trkpt lat="45.87647617995007" lon="9.157173771974605"><ele>258.0</ele><time>2026-04-18T13:01:29Z</time></trkpt><trkpt lat="45.876548950716256" lon="9.15723705825086"><ele>258.0</ele><time>2026-04-18T13:01:30Z</time></trkpt><trkpt lat="45.876606455710686" lon="9.157326444696654"><ele>258.0</ele><time>2026-04-18T13:01:31Z</time></trkpt><trkpt lat="45.87665439583999" lon="9.157437258382693"><ele>258.0</ele><time>2026-04-18T13:01:32Z</time></trkpt><trkpt lat="45.87670609193285" lon="9.157559976954145"><ele>258.0</ele><time>2026-04-18T13:01:33Z</time></trkpt><trkpt lat="45.87673473612729" lon="9.15768165326028"><ele>258.0</ele><time>2026-04-18T13:01:34Z</time></trkpt><trkpt lat="45.87674707006281" lon="9.157803143669197"><ele>259.0</ele><time>2026-04-18T13:01:35Z</time></trkpt><trkpt lat="45.8767499463011" lon="9.157919037195704"><ele>260.0</ele><time>2026-04-18T13:01:36Z</time></trkpt><trkpt lat="45.87676538034556" lon="9.158027969138844"><ele>261.0</ele><time>2026-04-18T13:01:37Z</time></trkpt><trkpt lat="45.876827087420594" lon="9.158130852362383"><ele>262.0</ele><time>2026-04-18T13:01:38Z</time></trkpt><trkpt lat="45.87690610215857" lon="9.158208971631227"><ele>263.0</ele><time>2026-04-18T13:01:39Z</time></trkpt><trkpt lat="45.87700965443408" lon="9.158226161224652"><ele>263.0</ele><time>2026-04-18T13:01:40Z</time></trkpt><trkpt lat="45.87710198856714" lon="9.158191015940721"><ele>263.0</ele><time>2026-04-18T13:01:41Z</time></trkpt><trkpt lat="45.877167818418386" lon="9.158117472589744"><ele>263.0</ele><time>2026-04-18T13:01:42Z</time></trkpt><trkpt lat="45.877223166863175" lon="9.158044915909704"><ele>263.0</ele><time>2026-04-18T13:01:43Z</time></trkpt><trkpt lat="45.877290550547286" lon="9.157979231775041"><ele>263.0</ele><time>2026-04-18T13:01:44Z</time></trkpt><trkpt lat="45.877352567378466" lon="9.157908297197576"><ele>263.0</ele><time>2026-04-18T13:01:45Z</time></trkpt><trkpt lat="45.877419597796624" lon="9.157839991165414"><ele>263.0</ele><time>2026-04-18T13:01:46Z</time></trkpt><trkpt lat="45.87750080139549" lon="9.157797970264909"><ele>263.0</ele><time>2026-04-18T13:01:47Z</time></trkpt><trkpt lat="45.87756981501226" lon="9.157737075781087"><ele>263.0</ele><time>2026-04-18T13:01:48Z</time></trkpt><trkpt lat="45.877655596427445" lon="9.1577022477632"><ele>263.0</ele><time>2026-04-18T13:01:49Z</time></trkpt><trkpt lat="45.877780291741125" lon="9.15771608553785"><ele>263.0</ele><time>2026-04-18T13:01:50Z</time></trkpt><trkpt lat="45.87791735510418" lon="9.157754214908842"><ele>261.75</ele><time>2026-04-18T13:01:51Z</time></trkpt><trkpt lat="45.878077797994194" lon="9.15780668211176"><ele>260.5</ele><time>2026-04-18T13:01:52Z</time></trkpt><trkpt lat="45.878186430851706" lon="9.157841111151841"><ele>259.25</ele><time>2026-04-18T13:01:53Z</time></trkpt><trkpt lat="45.87830274136981" lon="9.157874450093857"><ele>258.0</ele><time>2026-04-18T13:01:54Z</time></trkpt><trkpt lat="45.87842015271811" lon="9.15790737519406"><ele>257.2</ele><time>2026-04-18T13:01:55Z</time></trkpt><trkpt lat="45.878526828971175" lon="9.15794130975912"><ele>256.4</ele><time>2026-04-18T13:01:56Z</time></trkpt><trkpt lat="45.87860399736663" lon="9.157970511973835"><ele>255.59999999999997</ele><time>2026-04-18T13:01:57Z</time></trkpt><trkpt lat="45.87872923351085" lon="9.1579744274813"><ele>254.79999999999998</ele><time>2026-04-18T13:01:59Z</time></trkpt><trkpt lat="45.87880929294165" lon="9.158004294958529"><ele>254.0</ele><time>2026-04-18T13:02:00Z</time></trkpt><trkpt lat="45.87890807761754" lon="9.158013765114534"><ele>254.0</ele><time>2026-04-18T13:02:01Z</time></trkpt><trkpt lat="45.879017007932006" lon="9.157996571871173"><ele>253.99999999999997</ele><time>2026-04-18T13:02:02Z</time></trkpt><trkpt lat="45.87910695846832" lon="9.157988273775224"><ele>253.99999999999997</ele><time>2026-04-18T13:02:03Z</time></trkpt><trkpt lat="45.87919295554126" lon="9.157960867932324"><ele>254.0</ele><time>2026-04-18T13:02:04Z</time></trkpt><trkpt lat="45.87926653702427" lon="9.157913694515546"><ele>254.0</ele><time>2026-04-18T13:02:05Z</time></trkpt><trkpt lat="45.87934321360496" lon="9.157872565432253"><ele>254.50000000000003</ele><time>2026-04-18T13:02:06Z</time></trkpt><trkpt lat="45.87941201431285" lon="9.157831604057488"><ele>255.0</ele><time>2026-04-18T13:02:07Z</time></trkpt><trkpt lat="45.8794816913469" lon="9.15779882439695"><ele>255.5</ele><time>2026-04-18T13:02:08Z</time></trkpt><trkpt lat="45.879554710748074" lon="9.157756312472742"><ele>256.0</ele><time>2026-04-18T13:02:09Z</time></trkpt><trkpt lat="45.87962179211045" lon="9.157725740902837"><ele>256.5</ele><time>2026-04-18T13:02:10Z</time></trkpt><trkpt lat="45.87969541383886" lon="9.157685468043685"><ele>257.0</ele><time>2026-04-18T13:02:11Z</time></trkpt><trkpt lat="45.879771774522176" lon="9.157652900380057"><ele>257.0</ele><time>2026-04-18T13:02:12Z</time></trkpt><trkpt lat="45.87991012821235" lon="9.157621239221967"><ele>257.0</ele><time>2026-04-18T13:02:14Z</time></trkpt><trkpt lat="45.87998398863545" lon="9.157617159924067"><ele>257.0</ele><time>2026-04-18T13:02:15Z</time></trkpt><trkpt lat="45.880057114558774" lon="9.157622045687395"><ele>257.0</ele><time>2026-04-18T13:02:16Z</time></trkpt><trkpt lat="45.88013673381471" lon="9.15762778816308"><ele>257.0</ele><time>2026-04-18T13:02:17Z</time></trkpt><trkpt lat="45.880206455698534" lon="9.157636901021757"><ele>257.0</ele><time>2026-04-18T13:02:18Z</time></trkpt><trkpt lat="45.88028253859646" lon="9.15763597703578"><ele>256.57142857142856</ele><time>2026-04-18T13:02:19Z</time></trkpt><trkpt lat="45.880347140193976" lon="9.15763832464723"><ele>256.14285714285717</ele><time>2026-04-18T13:02:20Z</time></trkpt><trkpt lat="45.880413739698945" lon="9.157641024450662"><ele>255.71428571428572</ele><time>2026-04-18T13:02:21Z</time></trkpt><trkpt lat="45.88048317862104" lon="9.157646228672252"><ele>255.28571428571428</ele><time>2026-04-18T13:02:22Z</time></trkpt><trkpt lat="45.88054986611189" lon="9.157640914978654"><ele>254.85714285714283</ele><time>2026-04-18T13:02:23Z</time></trkpt><trkpt lat="45.88061856307331" lon="9.157642406099077"><ele>254.42857142857144</ele><time>2026-04-18T13:02:24Z</time></trkpt><trkpt lat="45.88068249818399" lon="9.157656859654006"><ele>254.0</ele><time>2026-04-18T13:02:25Z</time></trkpt><trkpt lat="45.88074763048625" lon="9.157674220159796"><ele>254.00000000000003</ele><time>2026-04-18T13:02:26Z</time></trkpt><trkpt lat="45.8808197731825" lon="9.157695356807169"><ele>254.0</ele><time>2026-04-18T13:02:27Z</time></trkpt><trkpt lat="45.88090848114693" lon="9.157732299107098"><ele>254.0</ele><time>2026-04-18T13:02:28Z</time></trkpt><trkpt lat="45.88099255104186" lon="9.157785854906262"><ele>254.0</ele><time>2026-04-18T13:02:29Z</time></trkpt><trkpt lat="45.881069738288716" lon="9.157831723944255"><ele>254.00000000000003</ele><time>2026-04-18T13:02:30Z</time></trkpt><trkpt lat="45.8811446325784" lon="9.157879440495378"><ele>254.0</ele><time>2026-04-18T13:02:31Z</time></trkpt><trkpt lat="45.88121902618179" lon="9.157912454180044"><ele>254.66666666666669</ele><time>2026-04-18T13:02:32Z</time></trkpt><trkpt lat="45.88129087028233" lon="9.157935002353605"><ele>255.33333333333334</ele><time>2026-04-18T13:02:33Z</time></trkpt><trkpt lat="45.881365206476914" lon="9.157934379183473"><ele>256.0</ele><time>2026-04-18T13:02:34Z</time></trkpt><trkpt lat="45.88145178447497" lon="9.157930373764795"><ele>256.6666666666667</ele><time>2026-04-18T13:02:35Z</time></trkpt><trkpt lat="45.88154766443392" lon="9.157886381386689"><ele>257.3333333333333</ele><time>2026-04-18T13:02:36Z</time></trkpt><trkpt lat="45.88160211845096" lon="9.157759770194524"><ele>258.0</ele><time>2026-04-18T13:02:37Z</time></trkpt><trkpt lat="45.8816553551537" lon="9.157610258944407"><ele>258.0</ele><time>2026-04-18T13:02:38Z</time></trkpt><trkpt lat="45.88172165633722" lon="9.157500899779507"><ele>258.0</ele><time>2026-04-18T13:02:39Z</time></trkpt><trkpt lat="45.881814273503416" lon="9.157430455043313"><ele>258.0</ele><time>2026-04-18T13:02:40Z</time></trkpt><trkpt lat="45.881904166807125" lon="9.157386025935525"><ele>258.0</ele><time>2026-04-18T13:02:41Z</time></trkpt><trkpt lat="45.88198632080887" lon="9.15735980094142"><ele>258.0</ele><time>2026-04-18T13:02:42Z</time></trkpt><trkpt lat="45.882063850681824" lon="9.157338971096479"><ele>254.0</ele><time>2026-04-18T13:02:43Z</time></trkpt><trkpt lat="45.882134008585425" lon="9.15732411659334"><ele>250.0</ele><time>2026-04-18T13:02:44Z</time></trkpt><trkpt lat="45.88220680461666" lon="9.157321987175633"><ele>246.0</ele><time>2026-04-18T13:02:45Z</time></trkpt><trkpt lat="45.88228533922935" lon="9.157319477579492"><ele>242.0</ele><time>2026-04-18T13:02:46Z</time></trkpt><trkpt lat="45.88236246219082" lon="9.15731639816073"><ele>238.0</ele><time>2026-04-18T13:02:47Z</time></trkpt><trkpt lat="45.882443759901115" lon="9.157315252737591"><ele>234.0</ele><time>2026-04-18T13:02:48Z</time></trkpt><trkpt lat="45.8825294213113" lon="9.157330828078324"><ele>233.5</ele><time>2026-04-18T13:02:49Z</time></trkpt><trkpt lat="45.88260576980187" lon="9.15735551006591"><ele>233.0</ele><time>2026-04-18T13:02:50Z</time></trkpt><trkpt lat="45.8826723000183" lon="9.157388576366872"><ele>232.5</ele><time>2026-04-18T13:02:51Z</time></trkpt><trkpt lat="45.882748594358674" lon="9.157445871957812"><ele>232.0</ele><time>2026-04-18T13:02:52Z</time></trkpt><trkpt lat="45.882806631650915" lon="9.157556234000575"><ele>231.5</ele><time>2026-04-18T13:02:53Z</time></trkpt><trkpt lat="45.88284820926394" lon="9.157640244321394"><ele>231.0</ele><time>2026-04-18T13:02:54Z</time></trkpt><trkpt lat="45.88289453071536" lon="9.157756452765124"><ele>235.33333333333334</ele><time>2026-04-18T13:02:55Z</time></trkpt><trkpt lat="45.88293462097073" lon="9.157845227635354"><ele>239.66666666666669</ele><time>2026-04-18T13:02:56Z</time></trkpt><trkpt lat="45.88300023989102" lon="9.157908131209433"><ele>244.0</ele><time>2026-04-18T13:02:57Z</time></trkpt><trkpt lat="45.88306879975805" lon="9.157951553020638"><ele>248.33333333333334</ele><time>2026-04-18T13:02:58Z</time></trkpt><trkpt lat="45.883153352773014" lon="9.157960379225221"><ele>252.66666666666669</ele><time>2026-04-18T13:02:59Z</time></trkpt><trkpt lat="45.883240878966475" lon="9.157950890189687"><ele>257.0</ele><time>2026-04-18T13:02:59.999Z</time></trkpt><trkpt lat="45.88331432190727" lon="9.157960027857579"><ele>257.0</ele><time>2026-04-18T13:03:00.999Z</time></trkpt><trkpt lat="45.883384539196406" lon="9.157966101392011"><ele>257.0</ele><time>2026-04-18T13:03:01.999Z</time></trkpt><trkpt lat="45.88345509883947" lon="9.15794722902012"><ele>257.0</ele><time>2026-04-18T13:03:02.999Z</time></trkpt><trkpt lat="45.88351673244155" lon="9.157894701009695"><ele>257.0</ele><time>2026-04-18T13:03:03.999Z</time></trkpt><trkpt lat="45.88356384702945" lon="9.157789875592638"><ele>257.0</ele><time>2026-04-18T13:03:04.999Z</time></trkpt><trkpt lat="45.88359370047469" lon="9.157671641963196"><ele>257.0</ele><time>2026-04-18T13:03:05.999Z</time></trkpt><trkpt lat="45.88361217474057" lon="9.157558810889112"><ele>255.16666666666669</ele><time>2026-04-18T13:03:06.999Z</time></trkpt><trkpt lat="45.883632456947204" lon="9.15745419374751"><ele>253.33333333333334</ele><time>2026-04-18T13:03:07.999Z</time></trkpt><trkpt lat="45.883666400760944" lon="9.157359320412228"><ele>251.5</ele><time>2026-04-18T13:03:08.999Z</time></trkpt><trkpt lat="45.88372473687688" lon="9.157284776568382"><ele>249.66666666666669</ele><time>2026-04-18T13:03:09.999Z</time></trkpt><trkpt lat="45.88379339366029" lon="9.157225152273945"><ele>247.83333333333334</ele><time>2026-04-18T13:03:10.999Z</time></trkpt><trkpt lat="45.8838780210995" lon="9.15719622340724"><ele>246.0</ele><time>2026-04-18T13:03:11.999Z</time></trkpt><trkpt lat="45.883957233013646" lon="9.157149114876912"><ele>246.0</ele><time>2026-04-18T13:03:12.999Z</time></trkpt><trkpt lat="45.88404185976208" lon="9.157103078450612"><ele>246.0</ele><time>2026-04-18T13:03:13.999Z</time></trkpt><trkpt lat="45.884120941726465" lon="9.15705150999859"><ele>246.0</ele><time>2026-04-18T13:03:14.999Z</time></trkpt><trkpt lat="45.88420222385572" lon="9.156998501070406"><ele>246.0</ele><time>2026-04-18T13:03:15.999Z</time></trkpt><trkpt lat="45.88429035017925" lon="9.156963633204368"><ele>246.0</ele><time>2026-04-18T13:03:16.999Z</time></trkpt><trkpt lat="45.88436237483804" lon="9.156905695293274"><ele>246.0</ele><time>2026-04-18T13:03:17.999Z</time></trkpt><trkpt lat="45.88443601978341" lon="9.156869628377745"><ele>248.0</ele><time>2026-04-18T13:03:19Z</time></trkpt><trkpt lat="45.88451630740292" lon="9.156828499296521"><ele>250.00000000000003</ele><time>2026-04-18T13:03:20Z</time></trkpt><trkpt lat="45.884602843857586" lon="9.15681167612751"><ele>252.00000000000003</ele><time>2026-04-18T13:03:21Z</time></trkpt><trkpt lat="45.884698482273706" lon="9.156812302690827"><ele>254.0</ele><time>2026-04-18T13:03:22Z</time></trkpt><trkpt lat="45.884798654564094" lon="9.156821327370553"><ele>256.0</ele><time>2026-04-18T13:03:23Z</time></trkpt><trkpt lat="45.88489673072949" lon="9.156818598131869"><ele>256.0</ele><time>2026-04-18T13:03:24Z</time></trkpt><trkpt lat="45.88499847956351" lon="9.15681478230684"><ele>256.0</ele><time>2026-04-18T13:03:25Z</time></trkpt><trkpt lat="45.88509370294959" lon="9.156817335588613"><ele>256.0</ele><time>2026-04-18T13:03:26Z</time></trkpt><trkpt lat="45.88516952131901" lon="9.1568182408995"><ele>256.0</ele><time>2026-04-18T13:03:27Z</time></trkpt><trkpt lat="45.88526149106007" lon="9.156817365560073"><ele>256.0</ele><time>2026-04-18T13:03:28Z</time></trkpt><trkpt lat="45.88535753044346" lon="9.1568226356011"><ele>255.83333333333331</ele><time>2026-04-18T13:03:29Z</time></trkpt><trkpt lat="45.88544327107371" lon="9.1568170545787"><ele>255.66666666666666</ele><time>2026-04-18T13:03:30Z</time></trkpt><trkpt lat="45.885524058453065" lon="9.156813059942088"><ele>255.5</ele><time>2026-04-18T13:03:31Z</time></trkpt><trkpt lat="45.885607282254256" lon="9.156821771032302"><ele>255.33333333333331</ele><time>2026-04-18T13:03:32Z</time></trkpt><trkpt lat="45.88569372974339" lon="9.156843117175969"><ele>255.16666666666666</ele><time>2026-04-18T13:03:33Z</time></trkpt><trkpt lat="45.885774588274096" lon="9.1568818958188"><ele>255.0</ele><time>2026-04-18T13:03:34Z</time></trkpt><trkpt lat="45.88583795164026" lon="9.15692323382283"><ele>253.5</ele><time>2026-04-18T13:03:35Z</time></trkpt><trkpt lat="45.88594137528105" lon="9.156974710492038"><ele>252.0</ele><time>2026-04-18T13:03:37Z</time></trkpt><trkpt lat="45.88602248123589" lon="9.157017824072218"><ele>250.5</ele><time>2026-04-18T13:03:39Z</time></trkpt><trkpt lat="45.88609304430681" lon="9.157050499928665"><ele>249.0</ele><time>2026-04-18T13:03:42Z</time></trkpt><trkpt lat="45.88616419512976" lon="9.157079136158922"><ele>247.5</ele><time>2026-04-18T13:03:47Z</time></trkpt><trkpt lat="45.88624498137397" lon="9.157115446696958"><ele>246.0</ele><time>2026-04-18T13:04:02Z</time></trkpt><trkpt lat="45.88630998147465" lon="9.157139222587803"><ele>246.0</ele><time>2026-04-18T13:04:03Z</time></trkpt><trkpt lat="45.88638418998995" lon="9.15718127508057"><ele>246.0</ele><time>2026-04-18T13:04:04Z</time></trkpt><trkpt lat="45.886455585662866" lon="9.157218690920889"><ele>246.0</ele><time>2026-04-18T13:04:05Z</time></trkpt><trkpt lat="45.88653977990269" lon="9.15725470640859"><ele>246.0</ele><time>2026-04-18T13:04:06Z</time></trkpt><trkpt lat="45.88662421788807" lon="9.15728851986024"><ele>246.0</ele><time>2026-04-18T13:04:07Z</time></trkpt><trkpt lat="45.886698412861186" lon="9.157338330541625"><ele>246.0</ele><time>2026-04-18T13:04:08Z</time></trkpt><trkpt lat="45.886779600358146" lon="9.157367518091785"><ele>254.4</ele><time>2026-04-18T13:04:09Z</time></trkpt><trkpt lat="45.88686003182179" lon="9.157416149322952"><ele>262.8</ele><time>2026-04-18T13:04:10Z</time></trkpt><trkpt lat="45.88695269823717" lon="9.157435624449255"><ele>271.20000000000005</ele><time>2026-04-18T13:04:11Z</time></trkpt><trkpt lat="45.88703507306475" lon="9.15747522428378"><ele>279.6</ele><time>2026-04-18T13:04:12Z</time></trkpt><trkpt lat="45.887124506013244" lon="9.15752239682507"><ele>288.0</ele><time>2026-04-18T13:04:13Z</time></trkpt><trkpt lat="45.88719341439328" lon="9.15759878930196"><ele>288.0</ele><time>2026-04-18T13:04:14Z</time></trkpt><trkpt lat="45.88727477204632" lon="9.157661035635936"><ele>288.0</ele><time>2026-04-18T13:04:15Z</time></trkpt><trkpt lat="45.88734603237252" lon="9.157756954040636"><ele>288.0</ele><time>2026-04-18T13:04:16Z</time></trkpt><trkpt lat="45.88741567892786" lon="9.157833625649827"><ele>288.0</ele><time>2026-04-18T13:04:17Z</time></trkpt><trkpt lat="45.88749300192853" lon="9.157905575166566"><ele>288.0</ele><time>2026-04-18T13:04:18Z</time></trkpt><trkpt lat="45.88758871550405" lon="9.157884006053221"><ele>289.5</ele><time>2026-04-18T13:04:19Z</time></trkpt><trkpt lat="45.887668267402944" lon="9.157784072097332"><ele>291.0</ele><time>2026-04-18T13:04:20Z</time></trkpt><trkpt lat="45.88771929848358" lon="9.15764045333589"><ele>292.5</ele><time>2026-04-18T13:04:21Z</time></trkpt><trkpt lat="45.887789512877546" lon="9.157435174941806"><ele>294.0</ele><time>2026-04-18T13:04:22Z</time></trkpt><trkpt lat="45.887852427028" lon="9.157184004454422"><ele>294.0</ele><time>2026-04-18T13:04:23Z</time></trkpt><trkpt lat="45.88792705034389" lon="9.156988207817038"><ele>294.0</ele><time>2026-04-18T13:04:24Z</time></trkpt><trkpt lat="45.887997107674884" lon="9.156798104484103"><ele>294.0</ele><time>2026-04-18T13:04:25Z</time></trkpt><trkpt lat="45.888033836558066" lon="9.15661690501984"><ele>294.0</ele><time>2026-04-18T13:04:26Z</time></trkpt><trkpt lat="45.88806719418751" lon="9.156431599546504"><ele>287.0</ele><time>2026-04-18T13:04:27Z</time></trkpt><trkpt lat="45.88806305750557" lon="9.15629838164643"><ele>280.0</ele><time>2026-04-18T13:04:28Z</time></trkpt><trkpt lat="45.88808790375266" lon="9.156175629594205"><ele>273.0</ele><time>2026-04-18T13:04:29Z</time></trkpt><trkpt lat="45.888175741197735" lon="9.156099521083513"><ele>266.0</ele><time>2026-04-18T13:04:30Z</time></trkpt><trkpt lat="45.88827054670105" lon="9.156046606557931"><ele>259.0</ele><time>2026-04-18T13:04:31Z</time></trkpt><trkpt lat="45.88837471741544" lon="9.156052449797354"><ele>263.25</ele><time>2026-04-18T13:04:32Z</time></trkpt><trkpt lat="45.88848071903856" lon="9.156023865380606"><ele>267.5</ele><time>2026-04-18T13:04:33Z</time></trkpt><trkpt lat="45.88858626072619" lon="9.156030248377057"><ele>271.75</ele><time>2026-04-18T13:04:34Z</time></trkpt><trkpt lat="45.888702276464755" lon="9.156068846395687"><ele>276.0</ele><time>2026-04-18T13:04:35Z</time></trkpt><trkpt lat="45.888850670805034" lon="9.156101661995248"><ele>276.0</ele><time>2026-04-18T13:04:36Z</time></trkpt><trkpt lat="45.8890591436141" lon="9.156157325794942"><ele>276.0</ele><time>2026-04-18T13:04:37Z</time></trkpt><trkpt lat="45.88923313288251" lon="9.156190379178646"><ele>276.0</ele><time>2026-04-18T13:04:38Z</time></trkpt><trkpt lat="45.88936810350087" lon="9.156216197434318"><ele>276.5</ele><time>2026-04-18T13:04:39Z</time></trkpt><trkpt lat="45.88948069578313" lon="9.156191388064643"><ele>277.0</ele><time>2026-04-18T13:04:40Z</time></trkpt><trkpt lat="45.889597614033875" lon="9.156111366479303"><ele>277.5</ele><time>2026-04-18T13:04:41Z</time></trkpt><trkpt lat="45.889749371656485" lon="9.155990201776104"><ele>278.0</ele><time>2026-04-18T13:04:42Z</time></trkpt><trkpt lat="45.889903653541396" lon="9.156011732480843"><ele>278.0</ele><time>2026-04-18T13:04:43Z</time></trkpt><trkpt lat="45.89003112401277" lon="9.15604183802181"><ele>278.0</ele><time>2026-04-18T13:04:44Z</time></trkpt><trkpt lat="45.89017206366516" lon="9.156106221073403"><ele>278.0</ele><time>2026-04-18T13:04:45Z</time></trkpt><trkpt lat="45.890321350972265" lon="9.156161207255785"><ele>278.0</ele><time>2026-04-18T13:04:46Z</time></trkpt><trkpt lat="45.890453564122026" lon="9.156215980707962"><ele>282.0</ele><time>2026-04-18T13:04:47Z</time></trkpt><trkpt lat="45.89057432752845" lon="9.156208348251704"><ele>286.0</ele><time>2026-04-18T13:04:48Z</time></trkpt><trkpt lat="45.89068117867947" lon="9.156109396878774"><ele>290.0</ele><time>2026-04-18T13:04:49Z</time></trkpt><trkpt lat="45.890764931241854" lon="9.155961794737257"><ele>294.0</ele><time>2026-04-18T13:04:50Z</time></trkpt><trkpt lat="45.890844815686776" lon="9.15578041948917"><ele>288.5</ele><time>2026-04-18T13:04:51Z</time></trkpt><trkpt lat="45.8909659578599" lon="9.15566660177411"><ele>283.0</ele><time>2026-04-18T13:04:52Z</time></trkpt><trkpt lat="45.89106691606416" lon="9.15557363648207"><ele>277.5</ele><time>2026-04-18T13:04:53Z</time></trkpt><trkpt lat="45.89117697499326" lon="9.155455329855057"><ele>272.0</ele><time>2026-04-18T13:04:54Z</time></trkpt><trkpt lat="45.89129222499302" lon="9.155341244611789"><ele>272.0</ele><time>2026-04-18T13:04:55Z</time></trkpt><trkpt lat="45.89141130798507" lon="9.15527200659281"><ele>272.0</ele><time>2026-04-18T13:04:56Z</time></trkpt><trkpt lat="45.89154458507542" lon="9.155245235515213"><ele>272.0</ele><time>2026-04-18T13:04:57Z</time></trkpt><trkpt lat="45.89168985212057" lon="9.155204481289909"><ele>272.0</ele><time>2026-04-18T13:04:58Z</time></trkpt><trkpt lat="45.89183515751939" lon="9.15518770712185"><ele>274.25</ele><time>2026-04-18T13:04:59Z</time></trkpt><trkpt lat="45.89196114816095" lon="9.155146373571245"><ele>276.5</ele><time>2026-04-18T13:05:00Z</time></trkpt><trkpt lat="45.89208820225109" lon="9.155118545783434"><ele>278.75</ele><time>2026-04-18T13:05:01Z</time></trkpt><trkpt lat="45.89221410591722" lon="9.155107491605342"><ele>281.0</ele><time>2026-04-18T13:05:02Z</time></trkpt><trkpt lat="45.89233706221761" lon="9.155092121764783"><ele>281.0</ele><time>2026-04-18T13:05:03Z</time></trkpt><trkpt lat="45.89245253330255" lon="9.155090222547043"><ele>281.0</ele><time>2026-04-18T13:05:04Z</time></trkpt><trkpt lat="45.892564690950074" lon="9.155088714150278"><ele>281.0</ele><time>2026-04-18T13:05:05Z</time></trkpt><trkpt lat="45.892680390718056" lon="9.155084304455816"><ele>281.0</ele><time>2026-04-18T13:05:05.999Z</time></trkpt><trkpt lat="45.89280087617687" lon="9.155078625680373"><ele>281.2</ele><time>2026-04-18T13:05:06.999Z</time></trkpt><trkpt lat="45.8929166020031" lon="9.155072308559475"><ele>281.40000000000003</ele><time>2026-04-18T13:05:07.999Z</time></trkpt><trkpt lat="45.89303041162717" lon="9.15506211388784"><ele>281.6</ele><time>2026-04-18T13:05:08.999Z</time></trkpt><trkpt lat="45.89313586961104" lon="9.155047365046418"><ele>281.8</ele><time>2026-04-18T13:05:09.999Z</time></trkpt><trkpt lat="45.89323376183386" lon="9.155011786074683"><ele>282.0</ele><time>2026-04-18T13:05:10.999Z</time></trkpt><trkpt lat="45.8933179877668" lon="9.154930993602138"><ele>278.25</ele><time>2026-04-18T13:05:11.999Z</time></trkpt><trkpt lat="45.89339994531048" lon="9.15480831738519"><ele>274.5</ele><time>2026-04-18T13:05:12.999Z</time></trkpt><trkpt lat="45.893479528809216" lon="9.154694804521657"><ele>270.75</ele><time>2026-04-18T13:05:13.999Z</time></trkpt><trkpt lat="45.893559280969356" lon="9.154581918404293"><ele>267.0</ele><time>2026-04-18T13:05:14.999Z</time></trkpt><trkpt lat="45.89364254503463" lon="9.154466936057133"><ele>267.0</ele><time>2026-04-18T13:05:15.999Z</time></trkpt><trkpt lat="45.89372516668739" lon="9.154358251807361"><ele>267.0</ele><time>2026-04-18T13:05:16.999Z</time></trkpt><trkpt lat="45.89381065890456" lon="9.15426830984331"><ele>267.0</ele><time>2026-04-18T13:05:17.999Z</time></trkpt><trkpt lat="45.893911480776815" lon="9.154214554299008"><ele>267.0</ele><time>2026-04-18T13:05:18.999Z</time></trkpt><trkpt lat="45.894023910790416" lon="9.154210033079623"><ele>267.0</ele><time>2026-04-18T13:05:19.999Z</time></trkpt><trkpt lat="45.89412970622482" lon="9.15426889806036"><ele>267.0</ele><time>2026-04-18T13:05:21Z</time></trkpt><trkpt lat="45.89421456083986" lon="9.154360670349009"><ele>267.0</ele><time>2026-04-18T13:05:22Z</time></trkpt><trkpt lat="45.8942818446431" lon="9.154493010420538"><ele>267.0</ele><time>2026-04-18T13:05:23Z</time></trkpt><trkpt lat="45.89434311522206" lon="9.154635019836668"><ele>267.0</ele><time>2026-04-18T13:05:24Z</time></trkpt><trkpt lat="45.894389459987984" lon="9.154779972382062"><ele>267.0</ele><time>2026-04-18T13:05:25Z</time></trkpt><trkpt lat="45.89444043763702" lon="9.15492681076311"><ele>266.0</ele><time>2026-04-18T13:05:26Z</time></trkpt><trkpt lat="45.89449629352524" lon="9.15505963201244"><ele>265.0</ele><time>2026-04-18T13:05:27Z</time></trkpt><trkpt lat="45.894554036076066" lon="9.155179945001573"><ele>264.0</ele><time>2026-04-18T13:05:28Z</time></trkpt><trkpt lat="45.89465119663966" lon="9.155267384550912"><ele>263.0</ele><time>2026-04-18T13:05:29Z</time></trkpt><trkpt lat="45.89476303343194" lon="9.155356966284906"><ele>263.0</ele><time>2026-04-18T13:05:30Z</time></trkpt><trkpt lat="45.894828924013325" lon="9.155407350383118"><ele>263.0</ele><time>2026-04-18T13:05:31Z</time></trkpt><trkpt lat="45.89491990836267" lon="9.155507045234888"><ele>263.0</ele><time>2026-04-18T13:05:32Z</time></trkpt><trkpt lat="45.89499047340971" lon="9.1555662274655"><ele>263.0</ele><time>2026-04-18T13:05:33Z</time></trkpt><trkpt lat="45.89505086169151" lon="9.15560659471171"><ele>263.0</ele><time>2026-04-18T13:05:34Z</time></trkpt><trkpt lat="45.89515154135662" lon="9.155634296646419"><ele>263.0</ele><time>2026-04-18T13:05:36Z</time></trkpt><trkpt lat="45.895239508806036" lon="9.15561252964595"><ele>263.33333333333337</ele><time>2026-04-18T13:05:38Z</time></trkpt><trkpt lat="45.89530467047594" lon="9.155583132724534"><ele>263.6666666666667</ele><time>2026-04-18T13:05:40Z</time></trkpt><trkpt lat="45.89537746075188" lon="9.155471709590637"><ele>264.0</ele><time>2026-04-18T13:05:43Z</time></trkpt><trkpt lat="45.89541465016269" lon="9.155381362500231"><ele>264.3333333333333</ele><time>2026-04-18T13:05:44Z</time></trkpt><trkpt lat="45.89546414599998" lon="9.155279691948728"><ele>264.66666666666663</ele><time>2026-04-18T13:05:45Z</time></trkpt><trkpt lat="45.89552924878814" lon="9.15518835564469"><ele>265.0</ele><time>2026-04-18T13:05:46Z</time></trkpt><trkpt lat="45.89560608625232" lon="9.155132320214712"><ele>265.0</ele><time>2026-04-18T13:05:47Z</time></trkpt><trkpt lat="45.895686455030244" lon="9.15508973964103"><ele>265.0</ele><time>2026-04-18T13:05:48Z</time></trkpt><trkpt lat="45.89577186945754" lon="9.155085759201162"><ele>265.0</ele><time>2026-04-18T13:05:49Z</time></trkpt><trkpt lat="45.89585074170546" lon="9.155080319516042"><ele>265.0</ele><time>2026-04-18T13:05:50Z</time></trkpt><trkpt lat="45.89593465548452" lon="9.155081564159119"><ele>265.0</ele><time>2026-04-18T13:05:51Z</time></trkpt><trkpt lat="45.896017455280536" lon="9.155087207148476"><ele>265.0</ele><time>2026-04-18T13:05:52Z</time></trkpt><trkpt lat="45.89610409704039" lon="9.15511417788078"><ele>267.3333333333333</ele><time>2026-04-18T13:05:53Z</time></trkpt><trkpt lat="45.89619038148569" lon="9.155129216477569"><ele>269.66666666666663</ele><time>2026-04-18T13:05:54Z</time></trkpt><trkpt lat="45.89627024797056" lon="9.15514516098474"><ele>272.0</ele><time>2026-04-18T13:05:55Z</time></trkpt><trkpt lat="45.89635034430348" lon="9.15514287843289"><ele>274.3333333333333</ele><time>2026-04-18T13:05:56Z</time></trkpt><trkpt lat="45.89643459956423" lon="9.155108703249429"><ele>276.6666666666667</ele><time>2026-04-18T13:05:57Z</time></trkpt><trkpt lat="45.896524130407045" lon="9.155037720344444"><ele>279.0</ele><time>2026-04-18T13:05:58Z</time></trkpt><trkpt lat="45.89661579568451" lon="9.154932601950769"><ele>274.25</ele><time>2026-04-18T13:05:59Z</time></trkpt><trkpt lat="45.896717926479084" lon="9.154852422814294"><ele>269.5</ele><time>2026-04-18T13:06:00Z</time></trkpt><trkpt lat="45.89683084857153" lon="9.15479926126232"><ele>264.75</ele><time>2026-04-18T13:06:01Z</time></trkpt><trkpt lat="45.896937762848545" lon="9.15475607346509"><ele>260.0</ele><time>2026-04-18T13:06:02Z</time></trkpt><trkpt lat="45.8970355439004" lon="9.154701107345442"><ele>260.0</ele><time>2026-04-18T13:06:03Z</time></trkpt><trkpt lat="45.897127677505594" lon="9.154634626696382"><ele>260.0</ele><time>2026-04-18T13:06:04Z</time></trkpt><trkpt lat="45.897219458758684" lon="9.154541815870763"><ele>260.0</ele><time>2026-04-18T13:06:05Z</time></trkpt><trkpt lat="45.89729485992087" lon="9.154421608696305"><ele>260.0</ele><time>2026-04-18T13:06:06Z</time></trkpt><trkpt lat="45.897352728699204" lon="9.154299116955997"><ele>260.0</ele><time>2026-04-18T13:06:07Z</time></trkpt><trkpt lat="45.89743088541096" lon="9.154195476672562"><ele>260.0</ele><time>2026-04-18T13:06:08Z</time></trkpt><trkpt lat="45.89753535306161" lon="9.154136328304002"><ele>260.0</ele><time>2026-04-18T13:06:09Z</time></trkpt><trkpt lat="45.897643147640004" lon="9.154114666876799"><ele>260.0</ele><time>2026-04-18T13:06:10Z</time></trkpt><trkpt lat="45.89775193315752" lon="9.154127338517618"><ele>260.0</ele><time>2026-04-18T13:06:11Z</time></trkpt><trkpt lat="45.89785573643252" lon="9.154175191317636"><ele>260.0</ele><time>2026-04-18T13:06:12Z</time></trkpt><trkpt lat="45.8979617162999" lon="9.154223259005493"><ele>261.6</ele><time>2026-04-18T13:06:13Z</time></trkpt><trkpt lat="45.89806032445541" lon="9.15427627171335"><ele>263.2</ele><time>2026-04-18T13:06:14Z</time></trkpt><trkpt lat="45.898161363434845" lon="9.154292493896177"><ele>264.8</ele><time>2026-04-18T13:06:15Z</time></trkpt><trkpt lat="45.898271845767376" lon="9.154319279538802"><ele>266.4</ele><time>2026-04-18T13:06:16Z</time></trkpt><trkpt lat="45.898375363620886" lon="9.154337462491881"><ele>268.0</ele><time>2026-04-18T13:06:17Z</time></trkpt><trkpt lat="45.89847342645808" lon="9.154386942395012"><ele>269.25</ele><time>2026-04-18T13:06:18Z</time></trkpt><trkpt lat="45.89859702498728" lon="9.154389660145766"><ele>270.5</ele><time>2026-04-18T13:06:19Z</time></trkpt><trkpt lat="45.898737414306964" lon="9.154344642760035"><ele>271.75</ele><time>2026-04-18T13:06:20Z</time></trkpt><trkpt lat="45.89886038340848" lon="9.154288095199279"><ele>273.0</ele><time>2026-04-18T13:06:21Z</time></trkpt><trkpt lat="45.898992679169254" lon="9.154227259001107"><ele>273.0</ele><time>2026-04-18T13:06:22Z</time></trkpt><trkpt lat="45.899121928233825" lon="9.15415219705313"><ele>273.0</ele><time>2026-04-18T13:06:23Z</time></trkpt><trkpt lat="45.89928492133484" lon="9.154104084904134"><ele>273.0</ele><time>2026-04-18T13:06:26Z</time></trkpt><trkpt lat="45.899388277681865" lon="9.15405085029789"><ele>273.0</ele><time>2026-04-18T13:06:27Z</time></trkpt><trkpt lat="45.899487318462484" lon="9.154007820454076"><ele>270.25</ele><time>2026-04-18T13:06:28Z</time></trkpt><trkpt lat="45.899591182556094" lon="9.153956109466568"><ele>267.5</ele><time>2026-04-18T13:06:29Z</time></trkpt><trkpt lat="45.89968692548673" lon="9.153867069448664"><ele>264.75</ele><time>2026-04-18T13:06:30Z</time></trkpt><trkpt lat="45.899758690935556" lon="9.15374070531038"><ele>262.0</ele><time>2026-04-18T13:06:31Z</time></trkpt><trkpt lat="45.89982477969226" lon="9.153604754083467"><ele>262.0</ele><time>2026-04-18T13:06:32Z</time></trkpt><trkpt lat="45.89989038106632" lon="9.153478964908407"><ele>262.0</ele><time>2026-04-18T13:06:33Z</time></trkpt><trkpt lat="45.89998335362203" lon="9.153396925350997"><ele>262.0</ele><time>2026-04-18T13:06:34Z</time></trkpt><trkpt lat="45.90009005453331" lon="9.153374840704934"><ele>262.0</ele><time>2026-04-18T13:06:35Z</time></trkpt><trkpt lat="45.900193550016766" lon="9.153364115648163"><ele>262.0</ele><time>2026-04-18T13:06:36Z</time></trkpt><trkpt lat="45.900294214365644" lon="9.15333153852222"><ele>263.6</ele><time>2026-04-18T13:06:37Z</time></trkpt><trkpt lat="45.90039318252442" lon="9.153319978217212"><ele>265.2</ele><time>2026-04-18T13:06:38Z</time></trkpt><trkpt lat="45.90049448204896" lon="9.153307212563718"><ele>266.8</ele><time>2026-04-18T13:06:39Z</time></trkpt><trkpt lat="45.90059063054416" lon="9.153292895754586"><ele>268.4</ele><time>2026-04-18T13:06:40Z</time></trkpt><trkpt lat="45.90069155448848" lon="9.153280502016155"><ele>270.0</ele><time>2026-04-18T13:06:41Z</time></trkpt><trkpt lat="45.90079222510402" lon="9.153266182073086"><ele>270.0</ele><time>2026-04-18T13:06:42Z</time></trkpt><trkpt lat="45.90089165139544" lon="9.153257192682785"><ele>270.0</ele><time>2026-04-18T13:06:43Z</time></trkpt><trkpt lat="45.90098272137296" lon="9.153304785681641"><ele>270.0</ele><time>2026-04-18T13:06:44Z</time></trkpt><trkpt lat="45.90107567833595" lon="9.15336987906726"><ele>270.0</ele><time>2026-04-18T13:06:45Z</time></trkpt><trkpt lat="45.90117171772493" lon="9.153446900085981"><ele>270.0</ele><time>2026-04-18T13:06:46Z</time></trkpt><trkpt lat="45.901219886124196" lon="9.153606119910707"><ele>271.6</ele><time>2026-04-18T13:06:47Z</time></trkpt><trkpt lat="45.90127072620762" lon="9.15376707135358"><ele>273.2</ele><time>2026-04-18T13:06:48Z</time></trkpt><trkpt lat="45.90131853469431" lon="9.153907250552697"><ele>274.8</ele><time>2026-04-18T13:06:49Z</time></trkpt><trkpt lat="45.90136567056484" lon="9.154045365858874"><ele>276.4</ele><time>2026-04-18T13:06:50Z</time></trkpt><trkpt lat="45.901417752415476" lon="9.154182185044721"><ele>278.0</ele><time>2026-04-18T13:06:51Z</time></trkpt><trkpt lat="45.90150524852668" lon="9.154272229394984"><ele>278.0</ele><time>2026-04-18T13:06:52Z</time></trkpt><trkpt lat="45.90160529240173" lon="9.154310135812594"><ele>278.0</ele><time>2026-04-18T13:06:53Z</time></trkpt><trkpt lat="45.901720035893156" lon="9.154304477911978"><ele>278.0</ele><time>2026-04-18T13:06:54Z</time></trkpt><trkpt lat="45.9018309546733" lon="9.154271600291949"><ele>278.0</ele><time>2026-04-18T13:06:55Z</time></trkpt><trkpt lat="45.90193664945113" lon="9.154284208436643"><ele>278.0</ele><time>2026-04-18T13:06:56Z</time></trkpt><trkpt lat="45.90203942734588" lon="9.15430819974589"><ele>276.6</ele><time>2026-04-18T13:06:57Z</time></trkpt><trkpt lat="45.90213239980961" lon="9.154362866600152"><ele>275.20000000000005</ele><time>2026-04-18T13:06:58Z</time></trkpt><trkpt lat="45.902225313912346" lon="9.154446643436891"><ele>273.8</ele><time>2026-04-18T13:06:59Z</time></trkpt><trkpt lat="45.902320227157006" lon="9.154497644681186"><ele>272.40000000000003</ele><time>2026-04-18T13:07:00Z</time></trkpt><trkpt lat="45.90242353512869" lon="9.154558005539181"><ele>271.0</ele><time>2026-04-18T13:07:01Z</time></trkpt><trkpt lat="45.90253074147943" lon="9.154602335075902"><ele>266.0</ele><time>2026-04-18T13:07:02Z</time></trkpt><trkpt lat="45.902633294453274" lon="9.154649372271807"><ele>261.0</ele><time>2026-04-18T13:07:03Z</time></trkpt><trkpt lat="45.90273468742516" lon="9.154692752542434"><ele>256.0</ele><time>2026-04-18T13:07:04Z</time></trkpt><trkpt lat="45.902832168855895" lon="9.154745400371194"><ele>251.0</ele><time>2026-04-18T13:07:05Z</time></trkpt><trkpt lat="45.90293265343263" lon="9.154793721630853"><ele>246.0</ele><time>2026-04-18T13:07:06Z</time></trkpt><trkpt lat="45.90303137574839" lon="9.154840315311647"><ele>256.5</ele><time>2026-04-18T13:07:07Z</time></trkpt><trkpt lat="45.90313012118544" lon="9.154875592492003"><ele>267.0</ele><time>2026-04-18T13:07:08Z</time></trkpt><trkpt lat="45.90323403327684" lon="9.154911852015115"><ele>277.5</ele><time>2026-04-18T13:07:09Z</time></trkpt><trkpt lat="45.90333594867613" lon="9.154983210688593"><ele>288.0</ele><time>2026-04-18T13:07:10Z</time></trkpt><trkpt lat="45.90346723748546" lon="9.154995652500292"><ele>288.0</ele><time>2026-04-18T13:07:11Z</time></trkpt><trkpt lat="45.903611890860766" lon="9.155026805493398"><ele>288.0</ele><time>2026-04-18T13:07:11.999Z</time></trkpt><trkpt lat="45.903768861815074" lon="9.155033720937627"><ele>288.0</ele><time>2026-04-18T13:07:12.999Z</time></trkpt><trkpt lat="45.90393670817219" lon="9.15505044239288"><ele>288.0</ele><time>2026-04-18T13:07:13.999Z</time></trkpt><trkpt lat="45.904112154424205" lon="9.155061284596995"><ele>288.0</ele><time>2026-04-18T13:07:14.999Z</time></trkpt><trkpt lat="45.90429560050874" lon="9.155072330696886"><ele>288.0</ele><time>2026-04-18T13:07:15.999Z</time></trkpt><trkpt lat="45.90448217815887" lon="9.155085736209696"><ele>287.0</ele><time>2026-04-18T13:07:16.999Z</time></trkpt><trkpt lat="45.904661978342595" lon="9.15509512227024"><ele>286.0</ele><time>2026-04-18T13:07:17.999Z</time></trkpt><trkpt lat="45.90484057031317" lon="9.155124180287581"><ele>285.0</ele><time>2026-04-18T13:07:18.999Z</time></trkpt><trkpt lat="45.90498890982032" lon="9.155199077273778"><ele>286.75</ele><time>2026-04-18T13:07:19.999Z</time></trkpt><trkpt lat="45.90512330821386" lon="9.155244477832168"><ele>288.5</ele><time>2026-04-18T13:07:20.999Z</time></trkpt><trkpt lat="45.90522633333784" lon="9.155216495245156"><ele>290.25</ele><time>2026-04-18T13:07:21.999Z</time></trkpt><trkpt lat="45.90534178342005" lon="9.155101215172682"><ele>292.0</ele><time>2026-04-18T13:07:22.999Z</time></trkpt><trkpt lat="45.905486550187156" lon="9.154967292136664"><ele>292.0</ele><time>2026-04-18T13:07:23.999Z</time></trkpt><trkpt lat="45.90563473859672" lon="9.154906433365992"><ele>292.0</ele><time>2026-04-18T13:07:24.999Z</time></trkpt><trkpt lat="45.90583476410619" lon="9.154877315733948"><ele>292.0</ele><time>2026-04-18T13:07:25.999Z</time></trkpt><trkpt lat="45.906056136194984" lon="9.154847152285285"><ele>280.0</ele><time>2026-04-18T13:07:26.999Z</time></trkpt><trkpt lat="45.90627491693459" lon="9.154793402258406"><ele>268.0</ele><time>2026-04-18T13:07:27.999Z</time></trkpt><trkpt lat="45.90646065446461" lon="9.154729890147687"><ele>256.0</ele><time>2026-04-18T13:07:28.999Z</time></trkpt><trkpt lat="45.90662721666053" lon="9.154617563901109"><ele>253.33333333333331</ele><time>2026-04-18T13:07:29.999Z</time></trkpt><trkpt lat="45.90679395685735" lon="9.154601616257853"><ele>250.66666666666669</ele><time>2026-04-18T13:07:30.999Z</time></trkpt><trkpt lat="45.906958635540065" lon="9.154599047357951"><ele>248.0</ele><time>2026-04-18T13:07:31.999Z</time></trkpt><trkpt lat="45.9071145839045" lon="9.154576811162238"><ele>248.0</ele><time>2026-04-18T13:07:33Z</time></trkpt><trkpt lat="45.90726562937451" lon="9.154611578082493"><ele>248.0</ele><time>2026-04-18T13:07:34Z</time></trkpt><trkpt lat="45.90739216898666" lon="9.154626980011418"><ele>248.0</ele><time>2026-04-18T13:07:35Z</time></trkpt><trkpt lat="45.907485432152576" lon="9.154631192253417"><ele>248.0</ele><time>2026-04-18T13:07:36Z</time></trkpt><trkpt lat="45.90757435986985" lon="9.154650451618824"><ele>249.4</ele><time>2026-04-18T13:07:37Z</time></trkpt><trkpt lat="45.90767295532449" lon="9.154659328020557"><ele>250.8</ele><time>2026-04-18T13:07:38Z</time></trkpt><trkpt lat="45.90777107580363" lon="9.154662847584687"><ele>252.2</ele><time>2026-04-18T13:07:39Z</time></trkpt><trkpt lat="45.907867174643854" lon="9.154673008657731"><ele>253.6</ele><time>2026-04-18T13:07:40Z</time></trkpt><trkpt lat="45.90795879708413" lon="9.154688359883828"><ele>255.0</ele><time>2026-04-18T13:07:41Z</time></trkpt><trkpt lat="45.9080431433902" lon="9.1546639788245"><ele>255.0</ele><time>2026-04-18T13:07:42Z</time></trkpt><trkpt lat="45.908129597926035" lon="9.15462657898795"><ele>255.0</ele><time>2026-04-18T13:07:43Z</time></trkpt><trkpt lat="45.9082118566213" lon="9.154581736350135"><ele>255.0</ele><time>2026-04-18T13:07:44Z</time></trkpt><trkpt lat="45.90829959902423" lon="9.154552155611135"><ele>255.0</ele><time>2026-04-18T13:07:45Z</time></trkpt><trkpt lat="45.90840038891321" lon="9.15455260056476"><ele>255.0</ele><time>2026-04-18T13:07:46Z</time></trkpt><trkpt lat="45.90849012510329" lon="9.1546090558919"><ele>254.0</ele><time>2026-04-18T13:07:47Z</time></trkpt><trkpt lat="45.90858475193957" lon="9.154645645935325"><ele>253.0</ele><time>2026-04-18T13:07:48Z</time></trkpt><trkpt lat="45.90866599377903" lon="9.154719702785243"><ele>252.0</ele><time>2026-04-18T13:07:49Z</time></trkpt><trkpt lat="45.90874348557495" lon="9.154770064580037"><ele>251.0</ele><time>2026-04-18T13:07:50Z</time></trkpt><trkpt lat="45.908820254458576" lon="9.15479835055061"><ele>250.0</ele><time>2026-04-18T13:07:51Z</time></trkpt><trkpt lat="45.90891614522104" lon="9.154777417596684"><ele>249.99999999999997</ele><time>2026-04-18T13:07:53Z</time></trkpt><trkpt lat="45.908981729346905" lon="9.154701844821487"><ele>250.0</ele><time>2026-04-18T13:07:55Z</time></trkpt><trkpt lat="45.90906303133596" lon="9.15462783525255"><ele>250.0</ele><time>2026-04-18T13:07:58Z</time></trkpt><trkpt lat="45.909137931838046" lon="9.154598364098142"><ele>250.0</ele><time>2026-04-18T13:08:00Z</time></trkpt><trkpt lat="45.9092115550553" lon="9.154594275344554"><ele>249.99999999999997</ele><time>2026-04-18T13:08:02Z</time></trkpt><trkpt lat="45.90928457279425" lon="9.15460255848805"><ele>250.0</ele><time>2026-04-18T13:08:04Z</time></trkpt><trkpt lat="45.90938144610676" lon="9.15463168495936"><ele>250.8</ele><time>2026-04-18T13:08:06Z</time></trkpt><trkpt lat="45.909479095658895" lon="9.154672027144429"><ele>251.6</ele><time>2026-04-18T13:08:08Z</time></trkpt><trkpt lat="45.90956393106683" lon="9.15471155525592"><ele>252.39999999999998</ele><time>2026-04-18T13:08:10Z</time></trkpt><trkpt lat="45.909660354280426" lon="9.154778262082852"><ele>253.2</ele><time>2026-04-18T13:08:12Z</time></trkpt><trkpt lat="45.90974337248074" lon="9.154905996232413"><ele>254.0</ele><time>2026-04-18T13:08:14Z</time></trkpt><trkpt lat="45.909779562746316" lon="9.155071240212237"><ele>254.0</ele><time>2026-04-18T13:08:16Z</time></trkpt><trkpt lat="45.909794002621965" lon="9.155169313486455"><ele>254.0</ele><time>2026-04-18T13:08:17Z</time></trkpt><trkpt lat="45.9098094820594" lon="9.155266403689245"><ele>254.0</ele><time>2026-04-18T13:08:18Z</time></trkpt><trkpt lat="45.909837492701925" lon="9.155357354644426"><ele>254.0</ele><time>2026-04-18T13:08:19Z</time></trkpt><trkpt lat="45.90984871903293" lon="9.155456081104742"><ele>254.0</ele><time>2026-04-18T13:08:20Z</time></trkpt><trkpt lat="45.90986767978412" lon="9.155551445646559"><ele>254.0</ele><time>2026-04-18T13:08:21Z</time></trkpt><trkpt lat="45.90990199780174" lon="9.155632008475969"><ele>254.0</ele><time>2026-04-18T13:08:22Z</time></trkpt><trkpt lat="45.90995038803235" lon="9.155784029693997"><ele>255.83333333333334</ele><time>2026-04-18T13:08:24Z</time></trkpt><trkpt lat="45.91001143430833" lon="9.155812201368505"><ele>257.6666666666667</ele><time>2026-04-18T13:08:25Z</time></trkpt><trkpt lat="45.91007723679517" lon="9.1558161645177"><ele>259.5</ele><time>2026-04-18T13:08:26Z</time></trkpt><trkpt lat="45.910141518574505" lon="9.155806521950153"><ele>261.3333333333333</ele><time>2026-04-18T13:08:27Z</time></trkpt><trkpt lat="45.910264749583426" lon="9.155828238661107"><ele>263.16666666666663</ele><time>2026-04-18T13:08:29Z</time></trkpt><trkpt lat="45.910327628352604" lon="9.155810781170118"><ele>265.0</ele><time>2026-04-18T13:08:30Z</time></trkpt><trkpt lat="45.91040322540648" lon="9.155773106416044"><ele>265.4</ele><time>2026-04-18T13:08:31Z</time></trkpt><trkpt lat="45.91049031899531" lon="9.155750796898928"><ele>265.8</ele><time>2026-04-18T13:08:32Z</time></trkpt><trkpt lat="45.91057810754451" lon="9.155725239103406"><ele>266.2</ele><time>2026-04-18T13:08:33Z</time></trkpt><trkpt lat="45.910669408429875" lon="9.155707387532592"><ele>266.6</ele><time>2026-04-18T13:08:34Z</time></trkpt><trkpt lat="45.910762510928464" lon="9.155695727270869"><ele>267.0</ele><time>2026-04-18T13:08:35Z</time></trkpt><trkpt lat="45.91085950179719" lon="9.155667971882416"><ele>259.5</ele><time>2026-04-18T13:08:36Z</time></trkpt><trkpt lat="45.91096103295408" lon="9.155602666185539"><ele>252.0</ele><time>2026-04-18T13:08:37Z</time></trkpt><trkpt lat="45.911082762319445" lon="9.155518385996688"><ele>244.5</ele><time>2026-04-18T13:08:38Z</time></trkpt><trkpt lat="45.91121611024044" lon="9.15542031874922"><ele>237.0</ele><time>2026-04-18T13:08:39Z</time></trkpt><trkpt lat="45.911336980700476" lon="9.155352631950805"><ele>237.0</ele><time>2026-04-18T13:08:40Z</time></trkpt><trkpt lat="45.91143642241304" lon="9.15527877414028"><ele>237.0</ele><time>2026-04-18T13:08:41Z</time></trkpt><trkpt lat="45.91153126149364" lon="9.155281321372797"><ele>237.0</ele><time>2026-04-18T13:08:42Z</time></trkpt><trkpt lat="45.91161733950685" lon="9.155278165184972"><ele>237.0</ele><time>2026-04-18T13:08:43Z</time></trkpt><trkpt lat="45.91169449710576" lon="9.15527571839392"><ele>237.0</ele><time>2026-04-18T13:08:44Z</time></trkpt><trkpt lat="45.91176837060875" lon="9.155272686973476"><ele>237.0</ele><time>2026-04-18T13:08:45Z</time></trkpt><trkpt lat="45.91184045907324" lon="9.155253502949725"><ele>240.85714285714283</ele><time>2026-04-18T13:08:46Z</time></trkpt><trkpt lat="45.91190626935407" lon="9.155227787509574"><ele>244.71428571428572</ele><time>2026-04-18T13:08:47Z</time></trkpt><trkpt lat="45.91197839738839" lon="9.155224858614309"><ele>248.57142857142856</ele><time>2026-04-18T13:08:48Z</time></trkpt><trkpt lat="45.91204320732541" lon="9.155211687053232"><ele>252.42857142857142</ele><time>2026-04-18T13:08:49Z</time></trkpt><trkpt lat="45.912114135555306" lon="9.155200719454053"><ele>256.2857142857143</ele><time>2026-04-18T13:08:50Z</time></trkpt><trkpt lat="45.91219017490224" lon="9.155178851482905"><ele>260.1428571428571</ele><time>2026-04-18T13:08:51Z</time></trkpt><trkpt lat="45.91227163916781" lon="9.155142760742152"><ele>264.0</ele><time>2026-04-18T13:08:52Z</time></trkpt><trkpt lat="45.912383541949325" lon="9.155100800104444"><ele>264.0</ele><time>2026-04-18T13:08:53Z</time></trkpt><trkpt lat="45.912520973374995" lon="9.155050371025368"><ele>264.0</ele><time>2026-04-18T13:08:54Z</time></trkpt><trkpt lat="45.91265785423294" lon="9.154928819218773"><ele>264.0</ele><time>2026-04-18T13:08:55Z</time></trkpt><trkpt lat="45.91280254228304" lon="9.154793138105473"><ele>259.3333333333333</ele><time>2026-04-18T13:08:56Z</time></trkpt><trkpt lat="45.91297007893712" lon="9.15463435761893"><ele>254.66666666666666</ele><time>2026-04-18T13:08:57Z</time></trkpt><trkpt lat="45.91313176832633" lon="9.154526717350473"><ele>250.0</ele><time>2026-04-18T13:08:58Z</time></trkpt><trkpt lat="45.913268478179134" lon="9.154431597900755"><ele>252.0</ele><time>2026-04-18T13:08:59Z</time></trkpt><trkpt lat="45.9134079138646" lon="9.154357144794437"><ele>254.0</ele><time>2026-04-18T13:09:00Z</time></trkpt><trkpt lat="45.9135338805133" lon="9.154313027900049"><ele>256.0</ele><time>2026-04-18T13:09:01Z</time></trkpt><trkpt lat="45.913653629530394" lon="9.154293318441344"><ele>258.0</ele><time>2026-04-18T13:09:02Z</time></trkpt><trkpt lat="45.91380144879842" lon="9.154305399222078"><ele>258.0</ele><time>2026-04-18T13:09:03Z</time></trkpt><trkpt lat="45.91398063832048" lon="9.154393930944376"><ele>258.0</ele><time>2026-04-18T13:09:04Z</time></trkpt><trkpt lat="45.91415165702815" lon="9.15450731975638"><ele>258.0</ele><time>2026-04-18T13:09:05Z</time></trkpt><trkpt lat="45.91430110731129" lon="9.154591541776004"><ele>258.75</ele><time>2026-04-18T13:09:06Z</time></trkpt><trkpt lat="45.91443228035903" lon="9.15467571277641"><ele>259.5</ele><time>2026-04-18T13:09:07Z</time></trkpt><trkpt lat="45.91453754738647" lon="9.154780333483856"><ele>260.25</ele><time>2026-04-18T13:09:08Z</time></trkpt><trkpt lat="45.91463012258758" lon="9.154870248779888"><ele>261.0</ele><time>2026-04-18T13:09:09Z</time></trkpt><trkpt lat="45.91474248204836" lon="9.154869929883079"><ele>261.0</ele><time>2026-04-18T13:09:10Z</time></trkpt><trkpt lat="45.91486549429487" lon="9.15479792069528"><ele>261.0</ele><time>2026-04-18T13:09:11Z</time></trkpt><trkpt lat="45.91500721052636" lon="9.154690101629546"><ele>261.0</ele><time>2026-04-18T13:09:12Z</time></trkpt><trkpt lat="45.91514836308199" lon="9.154602332597253"><ele>261.0</ele><time>2026-04-18T13:09:13Z</time></trkpt><trkpt lat="45.91528670285059" lon="9.154521187096718"><ele>260.8</ele><time>2026-04-18T13:09:14Z</time></trkpt><trkpt lat="45.91540339923951" lon="9.154485338086614"><ele>260.6</ele><time>2026-04-18T13:09:15Z</time></trkpt><trkpt lat="45.915516047339906" lon="9.154466833130499"><ele>260.4</ele><time>2026-04-18T13:09:16Z</time></trkpt><trkpt lat="45.91560977419807" lon="9.154495359045187"><ele>260.2</ele><time>2026-04-18T13:09:17Z</time></trkpt><trkpt lat="45.915698613191985" lon="9.154558077637425"><ele>260.0</ele><time>2026-04-18T13:09:17.999Z</time></trkpt><trkpt lat="45.915813228653604" lon="9.154632582261861"><ele>260.25</ele><time>2026-04-18T13:09:18.999Z</time></trkpt><trkpt lat="45.915943306538466" lon="9.154702684482713"><ele>260.5</ele><time>2026-04-18T13:09:19.999Z</time></trkpt><trkpt lat="45.916067433929896" lon="9.154782716687718"><ele>260.75</ele><time>2026-04-18T13:09:20.999Z</time></trkpt><trkpt lat="45.916182753719326" lon="9.154861939468681"><ele>261.0</ele><time>2026-04-18T13:09:21.999Z</time></trkpt><trkpt lat="45.91632089022366" lon="9.154839698895884"><ele>261.0</ele><time>2026-04-18T13:09:22.999Z</time></trkpt><trkpt lat="45.916470863732414" lon="9.154814802543353"><ele>261.0</ele><time>2026-04-18T13:09:23.999Z</time></trkpt><trkpt lat="45.91662483020439" lon="9.154786930822608"><ele>261.0</ele><time>2026-04-18T13:09:24.999Z</time></trkpt><trkpt lat="45.91680528418535" lon="9.154754086820086"><ele>261.0</ele><time>2026-04-18T13:09:25.999Z</time></trkpt><trkpt lat="45.9169566982491" lon="9.154789560694862"><ele>261.0</ele><time>2026-04-18T13:09:26.999Z</time></trkpt><trkpt lat="45.91706995294649" lon="9.154783516485958"><ele>261.0</ele><time>2026-04-18T13:09:27.999Z</time></trkpt><trkpt lat="45.91715363003219" lon="9.154764974768092"><ele>261.0</ele><time>2026-04-18T13:09:28.999Z</time></trkpt><trkpt lat="45.91721678992732" lon="9.154835482827444"><ele>261.0</ele><time>2026-04-18T13:09:31Z</time></trkpt><trkpt lat="45.91709571577096" lon="9.154856996960946"><ele>261.0</ele><time>2026-04-18T13:09:33Z</time></trkpt><trkpt lat="45.91698194032236" lon="9.15485516694726"><ele>261.0</ele><time>2026-04-18T13:09:34Z</time></trkpt><trkpt lat="45.91688801353086" lon="9.154876769491354"><ele>261.0</ele><time>2026-04-18T13:09:35Z</time></trkpt><trkpt lat="45.91677270868275" lon="9.154932628455573"><ele>261.0</ele><time>2026-04-18T13:09:36Z</time></trkpt><trkpt lat="45.91665181202514" lon="9.154996954155623"><ele>270.25</ele><time>2026-04-18T13:09:37Z</time></trkpt><trkpt lat="45.91654943859038" lon="9.155049039097072"><ele>279.5</ele><time>2026-04-18T13:09:38Z</time></trkpt><trkpt lat="45.916444447699845" lon="9.155139741907895"><ele>288.75</ele><time>2026-04-18T13:09:39Z</time></trkpt><trkpt lat="45.91633038259949" lon="9.155203195634542"><ele>298.0</ele><time>2026-04-18T13:09:40Z</time></trkpt><trkpt lat="45.9161981111828" lon="9.155239687283363"><ele>298.0</ele><time>2026-04-18T13:09:41Z</time></trkpt><trkpt lat="45.91604882593372" lon="9.155215824128412"><ele>298.0</ele><time>2026-04-18T13:09:42Z</time></trkpt><trkpt lat="45.915901041142234" lon="9.155187078119562"><ele>298.0</ele><time>2026-04-18T13:09:43Z</time></trkpt><trkpt lat="45.91575649804855" lon="9.155177572567062"><ele>298.0</ele><time>2026-04-18T13:09:44Z</time></trkpt><trkpt lat="45.9156233699787" lon="9.155178892934662"><ele>296.8</ele><time>2026-04-18T13:09:45Z</time></trkpt><trkpt lat="45.91551030687652" lon="9.155205115416376"><ele>295.6</ele><time>2026-04-18T13:09:46Z</time></trkpt><trkpt lat="45.91541853872262" lon="9.155270785770117"><ele>294.4</ele><time>2026-04-18T13:09:47Z</time></trkpt><trkpt lat="45.91536813952834" lon="9.155378837686772"><ele>293.2</ele><time>2026-04-18T13:09:48Z</time></trkpt><trkpt lat="45.91533842625876" lon="9.155524165974798"><ele>292.0</ele><time>2026-04-18T13:09:49Z</time></trkpt><trkpt lat="45.91531038164248" lon="9.15567021372789"><ele>295.6</ele><time>2026-04-18T13:09:50Z</time></trkpt><trkpt lat="45.915255355185195" lon="9.155767550946138"><ele>299.2</ele><time>2026-04-18T13:09:51Z</time></trkpt><trkpt lat="45.91516454398381" lon="9.155827996887203"><ele>302.8</ele><time>2026-04-18T13:09:52Z</time></trkpt><trkpt lat="45.91505357633178" lon="9.15583379312498"><ele>306.4</ele><time>2026-04-18T13:09:53Z</time></trkpt><trkpt lat="45.91494572379056" lon="9.15584531049293"><ele>310.0</ele><time>2026-04-18T13:09:54Z</time></trkpt><trkpt lat="45.91486419502658" lon="9.155896005833856"><ele>310.0</ele><time>2026-04-18T13:09:55Z</time></trkpt><trkpt lat="45.914791249415764" lon="9.155967701355632"><ele>310.0</ele><time>2026-04-18T13:09:56Z</time></trkpt><trkpt lat="45.914695289905055" lon="9.156001573470528"><ele>310.0</ele><time>2026-04-18T13:09:57Z</time></trkpt><trkpt lat="45.91459335092123" lon="9.155966824146569"><ele>310.0</ele><time>2026-04-18T13:09:58Z</time></trkpt><trkpt lat="45.914494413751626" lon="9.155929714730219"><ele>310.0</ele><time>2026-04-18T13:09:59Z</time></trkpt><trkpt lat="45.914376134913546" lon="9.155910715298166"><ele>310.0</ele><time>2026-04-18T13:10:00Z</time></trkpt><trkpt lat="45.91424774493823" lon="9.155936175672316"><ele>310.0</ele><time>2026-04-18T13:10:01Z</time></trkpt><trkpt lat="45.91411708296875" lon="9.155925338369649"><ele>310.0</ele><time>2026-04-18T13:10:02Z</time></trkpt><trkpt lat="45.91398178038048" lon="9.155948431225154"><ele>310.0</ele><time>2026-04-18T13:10:03Z</time></trkpt><trkpt lat="45.91384512798082" lon="9.156010676459605"><ele>310.2</ele><time>2026-04-18T13:10:04Z</time></trkpt><trkpt lat="45.91372056646785" lon="9.156032840802737"><ele>310.4</ele><time>2026-04-18T13:10:05Z</time></trkpt><trkpt lat="45.913614832215245" lon="9.15607139523032"><ele>310.6</ele><time>2026-04-18T13:10:06Z</time></trkpt><trkpt lat="45.91351608490584" lon="9.156116793262143"><ele>310.8</ele><time>2026-04-18T13:10:07Z</time></trkpt><trkpt lat="45.91342036996072" lon="9.15619429495208"><ele>311.0</ele><time>2026-04-18T13:10:08Z</time></trkpt><trkpt lat="45.91334690776403" lon="9.15631661801805"><ele>310.2</ele><time>2026-04-18T13:10:09Z</time></trkpt><trkpt lat="45.913289876378684" lon="9.15646161605472"><ele>309.40000000000003</ele><time>2026-04-18T13:10:10Z</time></trkpt><trkpt lat="45.91324477539873" lon="9.156616234948109"><ele>308.6</ele><time>2026-04-18T13:10:11Z</time></trkpt><trkpt lat="45.91320094177195" lon="9.156761726850979"><ele>307.8</ele><time>2026-04-18T13:10:12Z</time></trkpt><trkpt lat="45.91315876415452" lon="9.15688065024618"><ele>307.0</ele><time>2026-04-18T13:10:13Z</time></trkpt><trkpt lat="45.91310764681957" lon="9.156984028264048"><ele>311.0</ele><time>2026-04-18T13:10:14Z</time></trkpt><trkpt lat="45.91304812305863" lon="9.157075576297359"><ele>315.0</ele><time>2026-04-18T13:10:15Z</time></trkpt><trkpt lat="45.912960080567" lon="9.157117496644927"><ele>319.0</ele><time>2026-04-18T13:10:16Z</time></trkpt><trkpt lat="45.912863081415125" lon="9.157125187946471"><ele>323.0</ele><time>2026-04-18T13:10:17Z</time></trkpt><trkpt lat="45.912764692652786" lon="9.15714189248812"><ele>327.0</ele><time>2026-04-18T13:10:18Z</time></trkpt><trkpt lat="45.912663593421044" lon="9.157170072589551"><ele>325.40000000000003</ele><time>2026-04-18T13:10:19Z</time></trkpt><trkpt lat="45.91255782667565" lon="9.157166370183448"><ele>323.8</ele><time>2026-04-18T13:10:20Z</time></trkpt><trkpt lat="45.91246389043558" lon="9.157276536922735"><ele>322.2</ele><time>2026-04-18T13:10:21Z</time></trkpt><trkpt lat="45.91239026906859" lon="9.157395923919886"><ele>320.6</ele><time>2026-04-18T13:10:22Z</time></trkpt><trkpt lat="45.91231102741689" lon="9.157502305418012"><ele>319.0</ele><time>2026-04-18T13:10:23Z</time></trkpt><trkpt lat="45.912291275795646" lon="9.157705308461654"><ele>321.8333333333333</ele><time>2026-04-18T13:10:24Z</time></trkpt><trkpt lat="45.91223220732135" lon="9.157797536228278"><ele>324.66666666666663</ele><time>2026-04-18T13:10:25Z</time></trkpt><trkpt lat="45.91218443575596" lon="9.157871948558412"><ele>327.5</ele><time>2026-04-18T13:10:26Z</time></trkpt><trkpt lat="45.912141771072406" lon="9.15793931326561"><ele>330.3333333333333</ele><time>2026-04-18T13:10:27Z</time></trkpt><trkpt lat="45.91203746224469" lon="9.158047156726173"><ele>333.1666666666667</ele><time>2026-04-18T13:10:29Z</time></trkpt><trkpt lat="45.91198318465497" lon="9.158120407147596"><ele>336.0</ele><time>2026-04-18T13:10:30Z</time></trkpt><trkpt lat="45.911921558173404" lon="9.158204001841055"><ele>337.0</ele><time>2026-04-18T13:10:31Z</time></trkpt><trkpt lat="45.911856456999956" lon="9.158283320607548"><ele>338.0</ele><time>2026-04-18T13:10:32Z</time></trkpt><trkpt lat="45.911798550147104" lon="9.158344745181285"><ele>339.0</ele><time>2026-04-18T13:10:33Z</time></trkpt><trkpt lat="45.91173934953749" lon="9.158399511372936"><ele>340.0</ele><time>2026-04-18T13:10:35Z</time></trkpt><trkpt lat="45.91161369193369" lon="9.158488476012169"><ele>341.0</ele><time>2026-04-18T13:10:41Z</time></trkpt><trkpt lat="45.911491607933314" lon="9.158567041455449"><ele>341.0</ele><time>2026-04-18T13:10:42Z</time></trkpt><trkpt lat="45.91131768569165" lon="9.15866310962083"><ele>341.0</ele><time>2026-04-18T13:10:43Z</time></trkpt><trkpt lat="45.91112562505581" lon="9.158760546594054"><ele>341.0</ele><time>2026-04-18T13:10:44Z</time></trkpt><trkpt lat="45.91098171535109" lon="9.158835371870028"><ele>339.25</ele><time>2026-04-18T13:10:45Z</time></trkpt><trkpt lat="45.910849181025945" lon="9.158902570519428"><ele>337.5</ele><time>2026-04-18T13:10:46Z</time></trkpt><trkpt lat="45.91073206446923" lon="9.158965500229575"><ele>335.75</ele><time>2026-04-18T13:10:47Z</time></trkpt><trkpt lat="45.91062357448082" lon="9.159018229130197"><ele>334.0</ele><time>2026-04-18T13:10:48Z</time></trkpt><trkpt lat="45.910522775441486" lon="9.159047054535527"><ele>338.25</ele><time>2026-04-18T13:10:49Z</time></trkpt><trkpt lat="45.910449308428056" lon="9.159070667888757"><ele>342.5</ele><time>2026-04-18T13:10:50Z</time></trkpt><trkpt lat="45.910454754679904" lon="9.159273525899463"><ele>346.75</ele><time>2026-04-18T13:10:52.001Z</time></trkpt><trkpt lat="45.910652648272645" lon="9.15920195484037"><ele>351.0</ele><time>2026-04-18T13:10:54.001Z</time></trkpt><trkpt lat="45.910746868248914" lon="9.159126570165435"><ele>351.0</ele><time>2026-04-18T13:10:55.001Z</time></trkpt><trkpt lat="45.910868055831216" lon="9.15914032950861"><ele>351.0</ele><time>2026-04-18T13:10:56.001Z</time></trkpt><trkpt lat="45.91099184939816" lon="9.15920550162556"><ele>351.0</ele><time>2026-04-18T13:10:57.001Z</time></trkpt><trkpt lat="45.91112430120124" lon="9.159297229482446"><ele>351.0</ele><time>2026-04-18T13:10:58.001Z</time></trkpt><trkpt lat="45.91125448230597" lon="9.159335180142342"><ele>354.6666666666667</ele><time>2026-04-18T13:10:59.001Z</time></trkpt><trkpt lat="45.9114039579739" lon="9.159307539772344"><ele>358.33333333333337</ele><time>2026-04-18T13:11:00.001Z</time></trkpt><trkpt lat="45.911577859890144" lon="9.159244800489425"><ele>362.0</ele><time>2026-04-18T13:11:01.001Z</time></trkpt><trkpt lat="45.91174916552674" lon="9.159134384165098"><ele>360.6666666666667</ele><time>2026-04-18T13:11:02.001Z</time></trkpt><trkpt lat="45.91193199138867" lon="9.158979051967505"><ele>359.3333333333333</ele><time>2026-04-18T13:11:03.001Z</time></trkpt><trkpt lat="45.9120781279787" lon="9.15888501762659"><ele>358.0</ele><time>2026-04-18T13:11:04.001Z</time></trkpt><trkpt lat="45.91223255515155" lon="9.15877389901159"><ele>358.0</ele><time>2026-04-18T13:11:05.001Z</time></trkpt><trkpt lat="45.912376969083184" lon="9.15873158940488"><ele>358.0</ele><time>2026-04-18T13:11:06.001Z</time></trkpt><trkpt lat="45.91252801438813" lon="9.15868848542782"><ele>358.0</ele><time>2026-04-18T13:11:07.001Z</time></trkpt><trkpt lat="45.912721305363284" lon="9.158640424775554"><ele>361.3333333333333</ele><time>2026-04-18T13:11:08.001Z</time></trkpt><trkpt lat="45.91291006539902" lon="9.158569564287612"><ele>364.6666666666667</ele><time>2026-04-18T13:11:09.001Z</time></trkpt><trkpt lat="45.913076947775984" lon="9.158527739119165"><ele>368.0</ele><time>2026-04-18T13:11:10.001Z</time></trkpt><trkpt lat="45.9132107238536" lon="9.158500665250271"><ele>368.0</ele><time>2026-04-18T13:11:11.001Z</time></trkpt><trkpt lat="45.91334151782846" lon="9.158514422517028"><ele>368.0</ele><time>2026-04-18T13:11:12.001Z</time></trkpt><trkpt lat="45.91347714967233" lon="9.15855311820682"><ele>368.0</ele><time>2026-04-18T13:11:13.001Z</time></trkpt><trkpt lat="45.91363018249955" lon="9.15863492889479"><ele>368.0</ele><time>2026-04-18T13:11:14.001Z</time></trkpt><trkpt lat="45.91376277223316" lon="9.158736305773171"><ele>369.5</ele><time>2026-04-18T13:11:15.001Z</time></trkpt><trkpt lat="45.91389165263303" lon="9.158752057081491"><ele>371.0</ele><time>2026-04-18T13:11:16.001Z</time></trkpt><trkpt lat="45.9140295917046" lon="9.158683442124461"><ele>372.5</ele><time>2026-04-18T13:11:17.001Z</time></trkpt><trkpt lat="45.914183699079764" lon="9.158594164039156"><ele>374.0</ele><time>2026-04-18T13:11:18.001Z</time></trkpt><trkpt lat="45.91433885523028" lon="9.15850719526424"><ele>376.4</ele><time>2026-04-18T13:11:19.001Z</time></trkpt><trkpt lat="45.91447373980065" lon="9.158428535750314"><ele>378.79999999999995</ele><time>2026-04-18T13:11:20.001Z</time></trkpt><trkpt lat="45.91457745196899" lon="9.15836976093971"><ele>381.20000000000005</ele><time>2026-04-18T13:11:21.001Z</time></trkpt><trkpt lat="45.91466311656115" lon="9.158431300905029"><ele>383.6</ele><time>2026-04-18T13:11:22.001Z</time></trkpt><trkpt lat="45.91472448418594" lon="9.158526552781094"><ele>386.0</ele><time>2026-04-18T13:11:23.001Z</time></trkpt><trkpt lat="45.91483528380981" lon="9.15856698168105"><ele>386.0</ele><time>2026-04-18T13:11:24Z</time></trkpt><trkpt lat="45.91495321727556" lon="9.158592798653396"><ele>386.0</ele><time>2026-04-18T13:11:25Z</time></trkpt><trkpt lat="45.91507935990686" lon="9.158505319042366"><ele>386.0</ele><time>2026-04-18T13:11:26Z</time></trkpt><trkpt lat="45.91520510497687" lon="9.15840196736375"><ele>386.0</ele><time>2026-04-18T13:11:27Z</time></trkpt><trkpt lat="45.91531294677888" lon="9.158367618172173"><ele>386.25</ele><time>2026-04-18T13:11:28Z</time></trkpt><trkpt lat="45.915405861450125" lon="9.158415013519633"><ele>386.5</ele><time>2026-04-18T13:11:29Z</time></trkpt><trkpt lat="45.91549378042167" lon="9.15849193226778"><ele>386.75</ele><time>2026-04-18T13:11:30Z</time></trkpt><trkpt lat="45.91559212095293" lon="9.158604450843805"><ele>387.0</ele><time>2026-04-18T13:11:31Z</time></trkpt><trkpt lat="45.915709639612615" lon="9.158721359780534"><ele>387.0</ele><time>2026-04-18T13:11:32Z</time></trkpt><trkpt lat="45.915852769661875" lon="9.15882934471153"><ele>387.0</ele><time>2026-04-18T13:11:33Z</time></trkpt><trkpt lat="45.91602825384885" lon="9.158864706150252"><ele>387.0</ele><time>2026-04-18T13:11:34Z</time></trkpt><trkpt lat="45.91617213029038" lon="9.158853235719704"><ele>394.25</ele><time>2026-04-18T13:11:35Z</time></trkpt><trkpt lat="45.916277975766825" lon="9.158805382528293"><ele>401.5</ele><time>2026-04-18T13:11:36Z</time></trkpt><trkpt lat="45.91635290420835" lon="9.158675498494716"><ele>408.75</ele><time>2026-04-18T13:11:37Z</time></trkpt><trkpt lat="45.916400535685696" lon="9.158481647875695"><ele>416.0</ele><time>2026-04-18T13:11:38Z</time></trkpt><trkpt lat="45.91644990705753" lon="9.158266278955997"><ele>415.0</ele><time>2026-04-18T13:11:39Z</time></trkpt><trkpt lat="45.91652188998002" lon="9.158081749530895"><ele>414.0</ele><time>2026-04-18T13:11:40Z</time></trkpt><trkpt lat="45.91662979278364" lon="9.15795341099673"><ele>413.0</ele><time>2026-04-18T13:11:41Z</time></trkpt><trkpt lat="45.916724264318376" lon="9.15785223207269"><ele>412.0</ele><time>2026-04-18T13:11:42Z</time></trkpt><trkpt lat="45.91682366305889" lon="9.157776080361309"><ele>412.0</ele><time>2026-04-18T13:11:43Z</time></trkpt><trkpt lat="45.916939588305056" lon="9.157703713375671"><ele>412.0</ele><time>2026-04-18T13:11:44Z</time></trkpt><trkpt lat="45.91706504626881" lon="9.157637132709063"><ele>412.0</ele><time>2026-04-18T13:11:45Z</time></trkpt><trkpt lat="45.91719006173253" lon="9.157617535238684"><ele>412.0</ele><time>2026-04-18T13:11:46Z</time></trkpt><trkpt lat="45.917327258241976" lon="9.157630644625804"><ele>412.0</ele><time>2026-04-18T13:11:47Z</time></trkpt><trkpt lat="45.91747531939814" lon="9.157615449517682"><ele>412.0</ele><time>2026-04-18T13:11:48Z</time></trkpt><trkpt lat="45.91760943407151" lon="9.157617540979846"><ele>412.0</ele><time>2026-04-18T13:11:49Z</time></trkpt><trkpt lat="45.91771564038541" lon="9.157636258998528"><ele>412.0</ele><time>2026-04-18T13:11:50Z</time></trkpt><trkpt lat="45.91778140771157" lon="9.157755354703541"><ele>409.6</ele><time>2026-04-18T13:11:51Z</time></trkpt><trkpt lat="45.917923272622176" lon="9.157814307458729"><ele>407.20000000000005</ele><time>2026-04-18T13:11:52Z</time></trkpt><trkpt lat="45.91801428041316" lon="9.157864718105916"><ele>404.8</ele><time>2026-04-18T13:11:53Z</time></trkpt><trkpt lat="45.918105896463786" lon="9.157870587224428"><ele>402.4</ele><time>2026-04-18T13:11:54Z</time></trkpt><trkpt lat="45.91816026643304" lon="9.157923271266165"><ele>400.0</ele><time>2026-04-18T13:11:55Z</time></trkpt><trkpt lat="45.91806152370741" lon="9.158040157164647"><ele>400.0</ele><time>2026-04-18T13:11:57Z</time></trkpt><trkpt lat="45.91800714366096" lon="9.157936117566353"><ele>400.0</ele><time>2026-04-18T13:11:58Z</time></trkpt><trkpt lat="45.91788919234594" lon="9.15786148145734"><ele>400.0</ele><time>2026-04-18T13:11:59Z</time></trkpt><trkpt lat="45.917775341111" lon="9.157790422806146"><ele>400.0</ele><time>2026-04-18T13:12:00Z</time></trkpt><trkpt lat="45.917616642367896" lon="9.157784009300046"><ele>404.0</ele><time>2026-04-18T13:12:01Z</time></trkpt><trkpt lat="45.91740986267501" lon="9.157841656365274"><ele>408.0</ele><time>2026-04-18T13:12:02Z</time></trkpt><trkpt lat="45.917211665104354" lon="9.15792901081561"><ele>412.0</ele><time>2026-04-18T13:12:03Z</time></trkpt><trkpt lat="45.917047681846995" lon="9.157968070191524"><ele>412.0</ele><time>2026-04-18T13:12:04Z</time></trkpt><trkpt lat="45.916935014819" lon="9.158052341203888"><ele>412.0</ele><time>2026-04-18T13:12:05Z</time></trkpt><trkpt lat="45.91685462308218" lon="9.158188984848955"><ele>412.0</ele><time>2026-04-18T13:12:06Z</time></trkpt><trkpt lat="45.91680576423639" lon="9.15835030990224"><ele>412.0</ele><time>2026-04-18T13:12:07Z</time></trkpt><trkpt lat="45.91679873723289" lon="9.158545295330532"><ele>418.20000000000005</ele><time>2026-04-18T13:12:08Z</time></trkpt><trkpt lat="45.91681127157308" lon="9.158743743441699"><ele>424.4</ele><time>2026-04-18T13:12:09Z</time></trkpt><trkpt lat="45.916843259496154" lon="9.158909743398556"><ele>430.59999999999997</ele><time>2026-04-18T13:12:10Z</time></trkpt><trkpt lat="45.91691476391207" lon="9.159026480529375"><ele>436.79999999999995</ele><time>2026-04-18T13:12:11Z</time></trkpt><trkpt lat="45.91695812258601" lon="9.15912321250599"><ele>443.0</ele><time>2026-04-18T13:12:12Z</time></trkpt><trkpt lat="45.91696750520821" lon="9.159238921856748"><ele>440.25</ele><time>2026-04-18T13:12:13Z</time></trkpt><trkpt lat="45.91690274591879" lon="9.159348254602552"><ele>437.5</ele><time>2026-04-18T13:12:14Z</time></trkpt><trkpt lat="45.91677865099071" lon="9.15942380328584"><ele>434.75</ele><time>2026-04-18T13:12:15.001Z</time></trkpt><trkpt lat="45.91667602746965" lon="9.159571014240878"><ele>432.0</ele><time>2026-04-18T13:12:16.001Z</time></trkpt><trkpt lat="45.9165670949183" lon="9.159729222559697"><ele>432.0</ele><time>2026-04-18T13:12:17.001Z</time></trkpt><trkpt lat="45.91643516759082" lon="9.15985181681806"><ele>432.0</ele><time>2026-04-18T13:12:18.001Z</time></trkpt><trkpt lat="45.9162821461633" lon="9.15990976303291"><ele>432.0</ele><time>2026-04-18T13:12:19.001Z</time></trkpt><trkpt lat="45.91616013271905" lon="9.159974591482392"><ele>432.0</ele><time>2026-04-18T13:12:20.001Z</time></trkpt><trkpt lat="45.916054179861455" lon="9.159916974508006"><ele>436.0</ele><time>2026-04-18T13:12:21.001Z</time></trkpt><trkpt lat="45.916041754089804" lon="9.16015753760625"><ele>440.0</ele><time>2026-04-18T13:12:22.001Z</time></trkpt><trkpt lat="45.916008239437474" lon="9.160267048550939"><ele>444.0</ele><time>2026-04-18T13:12:23.001Z</time></trkpt><trkpt lat="45.915923760153746" lon="9.160317038569147"><ele>448.0</ele><time>2026-04-18T13:12:24.001Z</time></trkpt><trkpt lat="45.91581419686996" lon="9.1602616818546"><ele>448.0</ele><time>2026-04-18T13:12:25.001Z</time></trkpt><trkpt lat="45.91568494654601" lon="9.160253017288847"><ele>448.0</ele><time>2026-04-18T13:12:26.001Z</time></trkpt><trkpt lat="45.91555645951457" lon="9.160247602389196"><ele>448.0</ele><time>2026-04-18T13:12:27.001Z</time></trkpt><trkpt lat="45.91542565295829" lon="9.160244309486334"><ele>448.0</ele><time>2026-04-18T13:12:28.001Z</time></trkpt><trkpt lat="45.915294962716686" lon="9.160259940300483"><ele>448.0</ele><time>2026-04-18T13:12:29.001Z</time></trkpt><trkpt lat="45.91516533353006" lon="9.160312846057954"><ele>447.99999999999994</ele><time>2026-04-18T13:12:30.001Z</time></trkpt><trkpt lat="45.91504606147292" lon="9.160336625716411"><ele>447.99999999999994</ele><time>2026-04-18T13:12:31.001Z</time></trkpt><trkpt lat="45.914957769433876" lon="9.160336192284852"><ele>448.0</ele><time>2026-04-18T13:12:32.001Z</time></trkpt><trkpt lat="45.91487829167693" lon="9.160345889521992"><ele>448.0</ele><time>2026-04-18T13:12:33.001Z</time></trkpt><trkpt lat="45.91479250631917" lon="9.160335776545162"><ele>446.50000000000006</ele><time>2026-04-18T13:12:34.001Z</time></trkpt><trkpt lat="45.91470619393547" lon="9.160302972119963"><ele>445.0</ele><time>2026-04-18T13:12:35.001Z</time></trkpt><trkpt lat="45.914624730135564" lon="9.160252372712275"><ele>443.5</ele><time>2026-04-18T13:12:36.001Z</time></trkpt><trkpt lat="45.91454227607747" lon="9.160246109582436"><ele>442.0</ele><time>2026-04-18T13:12:37.001Z</time></trkpt><trkpt lat="45.91449105296222" lon="9.160307285081918"><ele>440.50000000000006</ele><time>2026-04-18T13:12:38.001Z</time></trkpt><trkpt lat="45.91448975917009" lon="9.160449655371238"><ele>439.0</ele><time>2026-04-18T13:12:39.001Z</time></trkpt><trkpt lat="45.914583541296466" lon="9.160548259051618"><ele>439.0</ele><time>2026-04-18T13:12:40.001Z</time></trkpt><trkpt lat="45.91470798153085" lon="9.160526915320386"><ele>439.0</ele><time>2026-04-18T13:12:41.001Z</time></trkpt><trkpt lat="45.91484535428125" lon="9.160481113936898"><ele>439.0</ele><time>2026-04-18T13:12:42.001Z</time></trkpt><trkpt lat="45.9150085496901" lon="9.160501541148689"><ele>439.0</ele><time>2026-04-18T13:12:43.001Z</time></trkpt><trkpt lat="45.915204282336624" lon="9.16055511554654"><ele>442.0</ele><time>2026-04-18T13:12:44.001Z</time></trkpt><trkpt lat="45.915417242280995" lon="9.160584411399602"><ele>445.0</ele><time>2026-04-18T13:12:45.001Z</time></trkpt><trkpt lat="45.91558344340789" lon="9.160619280156395"><ele>448.0</ele><time>2026-04-18T13:12:46.001Z</time></trkpt><trkpt lat="45.91573087337673" lon="9.160638985527548"><ele>457.25</ele><time>2026-04-18T13:12:47.001Z</time></trkpt><trkpt lat="45.91587453376285" lon="9.160703199897153"><ele>466.5</ele><time>2026-04-18T13:12:48.001Z</time></trkpt><trkpt lat="45.91602470925316" lon="9.160759966321628"><ele>475.75</ele><time>2026-04-18T13:12:49.001Z</time></trkpt><trkpt lat="45.916151259927396" lon="9.16081882932378"><ele>485.0</ele><time>2026-04-18T13:12:50.001Z</time></trkpt><trkpt lat="45.91626526937041" lon="9.160813768840288"><ele>491.0</ele><time>2026-04-18T13:12:51.001Z</time></trkpt><trkpt lat="45.91638226800637" lon="9.160715421429838"><ele>497.0</ele><time>2026-04-18T13:12:52.001Z</time></trkpt><trkpt lat="45.91652185990793" lon="9.160545801979831"><ele>503.0</ele><time>2026-04-18T13:12:53.001Z</time></trkpt><trkpt lat="45.91665986065991" lon="9.160386305307373"><ele>502.0</ele><time>2026-04-18T13:12:54.001Z</time></trkpt><trkpt lat="45.9168218982436" lon="9.160323805237766"><ele>501.0</ele><time>2026-04-18T13:12:55.001Z</time></trkpt><trkpt lat="45.9169980448962" lon="9.160225939703892"><ele>500.0</ele><time>2026-04-18T13:12:56.001Z</time></trkpt><trkpt lat="45.917181418459464" lon="9.160081361862389"><ele>500.0</ele><time>2026-04-18T13:12:57.001Z</time></trkpt><trkpt lat="45.91735059887559" lon="9.159908746754102"><ele>500.0</ele><time>2026-04-18T13:12:58.001Z</time></trkpt><trkpt lat="45.91749085078546" lon="9.159771787685182"><ele>500.0</ele><time>2026-04-18T13:12:59.001Z</time></trkpt><trkpt lat="45.917585585965774" lon="9.159662080923033"><ele>496.3333333333333</ele><time>2026-04-18T13:13:00.001Z</time></trkpt><trkpt lat="45.91764534345854" lon="9.159586292998078"><ele>492.66666666666663</ele><time>2026-04-18T13:13:01.001Z</time></trkpt><trkpt lat="45.91769665176723" lon="9.159511659149066"><ele>489.0</ele><time>2026-04-18T13:13:02.001Z</time></trkpt><trkpt lat="45.9177581383178" lon="9.15955469471915"><ele>485.33333333333337</ele><time>2026-04-18T13:13:04.001Z</time></trkpt><trkpt lat="45.917736931776076" lon="9.159707090542529"><ele>481.6666666666667</ele><time>2026-04-18T13:13:06.001Z</time></trkpt><trkpt lat="45.917665263566946" lon="9.159746281277066"><ele>478.0</ele><time>2026-04-18T13:13:07.001Z</time></trkpt><trkpt lat="45.91756536893222" lon="9.159737375118162"><ele>475.0</ele><time>2026-04-18T13:13:08.001Z</time></trkpt><trkpt lat="45.917482322355546" lon="9.159833835510884"><ele>472.0</ele><time>2026-04-18T13:13:09.001Z</time></trkpt><trkpt lat="45.917401093227326" lon="9.159946366334792"><ele>469.0</ele><time>2026-04-18T13:13:10.001Z</time></trkpt><trkpt lat="45.917337869692176" lon="9.160081029785594"><ele>466.0</ele><time>2026-04-18T13:13:11.001Z</time></trkpt><trkpt lat="45.91726691789374" lon="9.160221070511676"><ele>474.5</ele><time>2026-04-18T13:13:12.001Z</time></trkpt><trkpt lat="45.9171851942063" lon="9.160349905904598"><ele>483.0</ele><time>2026-04-18T13:13:13.001Z</time></trkpt><trkpt lat="45.91709047041637" lon="9.160462690396859"><ele>491.5</ele><time>2026-04-18T13:13:14.001Z</time></trkpt><trkpt lat="45.91700072280203" lon="9.160590002155022"><ele>500.0</ele><time>2026-04-18T13:13:15.001Z</time></trkpt><trkpt lat="45.91691629392314" lon="9.160691518621023"><ele>500.75</ele><time>2026-04-18T13:13:16.001Z</time></trkpt><trkpt lat="45.91682705355811" lon="9.16079282667157"><ele>501.5</ele><time>2026-04-18T13:13:17.001Z</time></trkpt><trkpt lat="45.91672888527917" lon="9.160902469387523"><ele>502.25</ele><time>2026-04-18T13:13:18.001Z</time></trkpt><trkpt lat="45.916651082432175" lon="9.161022020252815"><ele>503.0</ele><time>2026-04-18T13:13:19.001Z</time></trkpt><trkpt lat="45.91656908303434" lon="9.161154251989164"><ele>503.0</ele><time>2026-04-18T13:13:20.001Z</time></trkpt><trkpt lat="45.91648639399637" lon="9.161261265229413"><ele>502.99999999999994</ele><time>2026-04-18T13:13:21.001Z</time></trkpt><trkpt lat="45.91641908808707" lon="9.16136610258535"><ele>502.99999999999994</ele><time>2026-04-18T13:13:22.001Z</time></trkpt><trkpt lat="45.91634551998234" lon="9.161407430407879"><ele>503.0</ele><time>2026-04-18T13:13:23.001Z</time></trkpt><trkpt lat="45.916225049816774" lon="9.161381813791714"><ele>503.0</ele><time>2026-04-18T13:13:24.001Z</time></trkpt><trkpt lat="45.916087390890375" lon="9.161346134588372"><ele>503.0</ele><time>2026-04-18T13:13:25.001Z</time></trkpt><trkpt lat="45.915942683987026" lon="9.161345271346601"><ele>503.0</ele><time>2026-04-18T13:13:26.001Z</time></trkpt><trkpt lat="45.915801175416036" lon="9.161369232579197"><ele>503.0</ele><time>2026-04-18T13:13:27.001Z</time></trkpt><trkpt lat="45.91563462566871" lon="9.161442536104225"><ele>506.3333333333333</ele><time>2026-04-18T13:13:28.001Z</time></trkpt><trkpt lat="45.915428829889784" lon="9.161518759034545"><ele>509.66666666666663</ele><time>2026-04-18T13:13:29.001Z</time></trkpt><trkpt lat="45.91523342477431" lon="9.161647617467505"><ele>513.0</ele><time>2026-04-18T13:13:30.001Z</time></trkpt><trkpt lat="45.91505766419327" lon="9.161750190792443"><ele>513.0</ele><time>2026-04-18T13:13:31.001Z</time></trkpt><trkpt lat="45.91488865174372" lon="9.16181449339842"><ele>513.0</ele><time>2026-04-18T13:13:32.001Z</time></trkpt><trkpt lat="45.91474224075014" lon="9.161877459190093"><ele>513.0</ele><time>2026-04-18T13:13:33.001Z</time></trkpt><trkpt lat="45.91461317346096" lon="9.16193522145452"><ele>513.0</ele><time>2026-04-18T13:13:34.001Z</time></trkpt><trkpt lat="45.914487588647084" lon="9.161981306449329"><ele>513.0</ele><time>2026-04-18T13:13:35.001Z</time></trkpt><trkpt lat="45.91437396918312" lon="9.162011724564913"><ele>513.0</ele><time>2026-04-18T13:13:36.001Z</time></trkpt><trkpt lat="45.91425515585581" lon="9.161956752232838"><ele>513.0</ele><time>2026-04-18T13:13:37.001Z</time></trkpt><trkpt lat="45.91412402092497" lon="9.161910698662265"><ele>512.4</ele><time>2026-04-18T13:13:38.001Z</time></trkpt><trkpt lat="45.91399523240526" lon="9.161889647020818"><ele>511.79999999999995</ele><time>2026-04-18T13:13:39.001Z</time></trkpt><trkpt lat="45.91388853832559" lon="9.161922479990896"><ele>511.2</ele><time>2026-04-18T13:13:40.001Z</time></trkpt><trkpt lat="45.913792209509076" lon="9.161945261739614"><ele>510.6</ele><time>2026-04-18T13:13:41.001Z</time></trkpt><trkpt lat="45.91371888172139" lon="9.161967983575694"><ele>510.0</ele><time>2026-04-18T13:13:42.001Z</time></trkpt><trkpt lat="45.913644039925806" lon="9.162036857638798"><ele>510.0</ele><time>2026-04-18T13:13:44.001Z</time></trkpt><trkpt lat="45.913769212518275" lon="9.162184106956186"><ele>510.0</ele><time>2026-04-18T13:13:45.001Z</time></trkpt><trkpt lat="45.91387855113753" lon="9.16212537095227"><ele>510.0</ele><time>2026-04-18T13:13:46.001Z</time></trkpt><trkpt lat="45.91395534117062" lon="9.162036707480086"><ele>510.0</ele><time>2026-04-18T13:13:47.001Z</time></trkpt><trkpt lat="45.914052942480254" lon="9.162046476860038"><ele>510.0</ele><time>2026-04-18T13:13:48.001Z</time></trkpt><trkpt lat="45.91415684533659" lon="9.162123952267882"><ele>510.0</ele><time>2026-04-18T13:13:49.001Z</time></trkpt><trkpt lat="45.914251628725694" lon="9.162204024723318"><ele>510.0</ele><time>2026-04-18T13:13:50.001Z</time></trkpt><trkpt lat="45.91434299351611" lon="9.162264636281364"><ele>510.0</ele><time>2026-04-18T13:13:51.001Z</time></trkpt><trkpt lat="45.914427507226684" lon="9.162340657714765"><ele>510.0</ele><time>2026-04-18T13:13:52.001Z</time></trkpt><trkpt lat="45.91453513304243" lon="9.16236686479147"><ele>510.75</ele><time>2026-04-18T13:13:53.001Z</time></trkpt><trkpt lat="45.9146451206479" lon="9.162394773690126"><ele>511.5</ele><time>2026-04-18T13:13:54.001Z</time></trkpt><trkpt lat="45.91476031566152" lon="9.162340961858446"><ele>512.25</ele><time>2026-04-18T13:13:55.001Z</time></trkpt><trkpt lat="45.91486996044216" lon="9.162321641880467"><ele>513.0</ele><time>2026-04-18T13:13:56.001Z</time></trkpt><trkpt lat="45.91498355244286" lon="9.162315453376369"><ele>515.0</ele><time>2026-04-18T13:13:57.001Z</time></trkpt><trkpt lat="45.91509620708585" lon="9.162294440899029"><ele>517.0</ele><time>2026-04-18T13:13:58.001Z</time></trkpt><trkpt lat="45.915199557700106" lon="9.162275709622499"><ele>519.0</ele><time>2026-04-18T13:13:59.001Z</time></trkpt><trkpt lat="45.9153090469827" lon="9.16223707633762"><ele>521.0</ele><time>2026-04-18T13:14:00.001Z</time></trkpt><trkpt lat="45.91541447020992" lon="9.162195829793042"><ele>523.0</ele><time>2026-04-18T13:14:01.001Z</time></trkpt><trkpt lat="45.91549365248755" lon="9.162138260361274"><ele>523.0</ele><time>2026-04-18T13:14:02.001Z</time></trkpt><trkpt lat="45.91556124381473" lon="9.16208515290251"><ele>523.0</ele><time>2026-04-18T13:14:03.001Z</time></trkpt><trkpt lat="45.915649802966605" lon="9.162117089141892"><ele>523.0</ele><time>2026-04-18T13:14:05.001Z</time></trkpt><trkpt lat="45.91555014178723" lon="9.162191198392005"><ele>523.0</ele><time>2026-04-18T13:14:07.001Z</time></trkpt><trkpt lat="45.91544501351351" lon="9.162234055130487"><ele>523.0</ele><time>2026-04-18T13:14:08.001Z</time></trkpt><trkpt lat="45.915333465699945" lon="9.162278175787279"><ele>523.0</ele><time>2026-04-18T13:14:09.001Z</time></trkpt><trkpt lat="45.915213190134736" lon="9.162347773009191"><ele>523.0</ele><time>2026-04-18T13:14:10.001Z</time></trkpt><trkpt lat="45.91509687521547" lon="9.162429134738902"><ele>523.0</ele><time>2026-04-18T13:14:11.001Z</time></trkpt><trkpt lat="45.914986762441266" lon="9.16250734086673"><ele>523.0</ele><time>2026-04-18T13:14:12.001Z</time></trkpt><trkpt lat="45.914879409940106" lon="9.16257997773007"><ele>529.0</ele><time>2026-04-18T13:14:13.001Z</time></trkpt><trkpt lat="45.91477424666195" lon="9.162651526510853"><ele>535.0</ele><time>2026-04-18T13:14:14.001Z</time></trkpt><trkpt lat="45.91467424321526" lon="9.162720957049364"><ele>541.0</ele><time>2026-04-18T13:14:15.001Z</time></trkpt><trkpt lat="45.91458149085022" lon="9.16276452538207"><ele>547.0</ele><time>2026-04-18T13:14:16.001Z</time></trkpt><trkpt lat="45.91447730979076" lon="9.162771108644797"><ele>553.0</ele><time>2026-04-18T13:14:17.001Z</time></trkpt><trkpt lat="45.91436358440812" lon="9.162738127733286"><ele>553.0</ele><time>2026-04-18T13:14:18.001Z</time></trkpt><trkpt lat="45.91425045409629" lon="9.162720826314967"><ele>553.0</ele><time>2026-04-18T13:14:19.001Z</time></trkpt><trkpt lat="45.91413186111752" lon="9.162804465909677"><ele>553.0</ele><time>2026-04-18T13:14:20.001Z</time></trkpt><trkpt lat="45.914001161909205" lon="9.16289017085568"><ele>553.0</ele><time>2026-04-18T13:14:21.001Z</time></trkpt><trkpt lat="45.9138551595804" lon="9.163018553462583"><ele>551.0</ele><time>2026-04-18T13:14:22.001Z</time></trkpt><trkpt lat="45.91369042991335" lon="9.163122987909992"><ele>549.0</ele><time>2026-04-18T13:14:23.001Z</time></trkpt><trkpt lat="45.913529125569745" lon="9.163240165407709"><ele>547.0</ele><time>2026-04-18T13:14:24.001Z</time></trkpt><trkpt lat="45.91338284204837" lon="9.163332310863415"><ele>550.25</ele><time>2026-04-18T13:14:25.001Z</time></trkpt><trkpt lat="45.91326091510387" lon="9.163432392470432"><ele>553.5</ele><time>2026-04-18T13:14:26.001Z</time></trkpt><trkpt lat="45.913168442386336" lon="9.163524532682722"><ele>556.75</ele><time>2026-04-18T13:14:27.001Z</time></trkpt><trkpt lat="45.913086597917975" lon="9.163641838811827"><ele>560.0</ele><time>2026-04-18T13:14:28.001Z</time></trkpt><trkpt lat="45.912999331558986" lon="9.163796210082925"><ele>560.0</ele><time>2026-04-18T13:14:29.001Z</time></trkpt><trkpt lat="45.912922871646074" lon="9.163948603054388"><ele>560.0</ele><time>2026-04-18T13:14:30.001Z</time></trkpt><trkpt lat="45.91284377468456" lon="9.164067651550345"><ele>560.0</ele><time>2026-04-18T13:14:31.001Z</time></trkpt><trkpt lat="45.91276646477174" lon="9.164110619570726"><ele>560.0</ele><time>2026-04-18T13:14:32.001Z</time></trkpt><trkpt lat="45.91269548117692" lon="9.164210036068848"><ele>560.0</ele><time>2026-04-18T13:14:33.001Z</time></trkpt><trkpt lat="45.91268506905287" lon="9.164303562941921"><ele>560.0</ele><time>2026-04-18T13:14:34.001Z</time></trkpt><trkpt lat="45.912829663045436" lon="9.164361377128307"><ele>560.0</ele><time>2026-04-18T13:14:36.001Z</time></trkpt><trkpt lat="45.91290611782095" lon="9.164257503554717"><ele>560.0</ele><time>2026-04-18T13:14:37.001Z</time></trkpt><trkpt lat="45.91297133613458" lon="9.164091237025932"><ele>560.0</ele><time>2026-04-18T13:14:38.001Z</time></trkpt><trkpt lat="45.91307759300725" lon="9.16395313793503"><ele>560.0</ele><time>2026-04-18T13:14:39.001Z</time></trkpt><trkpt lat="45.91318848511964" lon="9.163835249797831"><ele>560.0</ele><time>2026-04-18T13:14:40.001Z</time></trkpt><trkpt lat="45.91330967237869" lon="9.163762926917528"><ele>560.0</ele><time>2026-04-18T13:14:41.001Z</time></trkpt><trkpt lat="45.91343930292575" lon="9.16370885119294"><ele>560.0</ele><time>2026-04-18T13:14:42.001Z</time></trkpt><trkpt lat="45.91358737837645" lon="9.163624879064718"><ele>566.5</ele><time>2026-04-18T13:14:43.001Z</time></trkpt><trkpt lat="45.91374617969723" lon="9.163562177488759"><ele>573.0</ele><time>2026-04-18T13:14:44.001Z</time></trkpt><trkpt lat="45.913871393311865" lon="9.163500463268354"><ele>579.5</ele><time>2026-04-18T13:14:45.001Z</time></trkpt><trkpt lat="45.91397416148879" lon="9.16340990363765"><ele>586.0</ele><time>2026-04-18T13:14:46.001Z</time></trkpt><trkpt lat="45.91403126432227" lon="9.163303587204489"><ele>586.0</ele><time>2026-04-18T13:14:47.001Z</time></trkpt><trkpt lat="45.91410681515596" lon="9.163273113926381"><ele>586.0</ele><time>2026-04-18T13:14:49.001Z</time></trkpt><trkpt lat="45.9141218859853" lon="9.1633616803641"><ele>586.0</ele><time>2026-04-18T13:14:50.001Z</time></trkpt><trkpt lat="45.91409601902788" lon="9.163449817717568"><ele>586.0</ele><time>2026-04-18T13:14:51.001Z</time></trkpt><trkpt lat="45.914003720558604" lon="9.163465698402115"><ele>586.0</ele><time>2026-04-18T13:14:52.001Z</time></trkpt><trkpt lat="45.913915779159005" lon="9.163548649329478"><ele>586.0</ele><time>2026-04-18T13:14:53.001Z</time></trkpt><trkpt lat="45.91383069895729" lon="9.163640361734677"><ele>586.0</ele><time>2026-04-18T13:14:54.001Z</time></trkpt><trkpt lat="45.91373853912322" lon="9.163719735832544"><ele>586.0</ele><time>2026-04-18T13:14:55.001Z</time></trkpt><trkpt lat="45.91364577633562" lon="9.163795885461699"><ele>586.0</ele><time>2026-04-18T13:14:56.001Z</time></trkpt><trkpt lat="45.913563578770656" lon="9.16390510361696"><ele>586.0</ele><time>2026-04-18T13:14:57.001Z</time></trkpt><trkpt lat="45.91346701837307" lon="9.164002627423512"><ele>586.0</ele><time>2026-04-18T13:14:58.001Z</time></trkpt><trkpt lat="45.913405518471095" lon="9.164131161472305"><ele>587.25</ele><time>2026-04-18T13:14:59.001Z</time></trkpt><trkpt lat="45.913326973596966" lon="9.164265051215533"><ele>588.5</ele><time>2026-04-18T13:15:00.001Z</time></trkpt><trkpt lat="45.913236898956704" lon="9.164405228777667"><ele>589.75</ele><time>2026-04-18T13:15:01.001Z</time></trkpt><trkpt lat="45.913177936413746" lon="9.16455944115315"><ele>591.0</ele><time>2026-04-18T13:15:02.001Z</time></trkpt><trkpt lat="45.913118491083196" lon="9.164702661338591"><ele>591.0</ele><time>2026-04-18T13:15:03.001Z</time></trkpt><trkpt lat="45.913044090853234" lon="9.164858233741034"><ele>591.0</ele><time>2026-04-18T13:15:04.001Z</time></trkpt><trkpt lat="45.91298589554699" lon="9.165028100976626"><ele>591.0</ele><time>2026-04-18T13:15:05.001Z</time></trkpt><trkpt lat="45.91293215531758" lon="9.165201297901408"><ele>591.0</ele><time>2026-04-18T13:15:06.001Z</time></trkpt><trkpt lat="45.91290849048789" lon="9.165358055251264"><ele>596.25</ele><time>2026-04-18T13:15:07.001Z</time></trkpt><trkpt lat="45.91291661791132" lon="9.165564613745456"><ele>601.5</ele><time>2026-04-18T13:15:08.001Z</time></trkpt><trkpt lat="45.91291404635053" lon="9.165742272022198"><ele>606.75</ele><time>2026-04-18T13:15:09.001Z</time></trkpt><trkpt lat="45.91291658286137" lon="9.16592802878278"><ele>612.0</ele><time>2026-04-18T13:15:10.001Z</time></trkpt><trkpt lat="45.912968380571215" lon="9.166107769874104"><ele>615.6666666666666</ele><time>2026-04-18T13:15:11.001Z</time></trkpt><trkpt lat="45.913033978995436" lon="9.166308975792779"><ele>619.3333333333333</ele><time>2026-04-18T13:15:12.001Z</time></trkpt><trkpt lat="45.91308404021714" lon="9.166555205694264"><ele>623.0</ele><time>2026-04-18T13:15:13.001Z</time></trkpt><trkpt lat="45.91312993858752" lon="9.166861258666987"><ele>624.5</ele><time>2026-04-18T13:15:14.001Z</time></trkpt><trkpt lat="45.91315376695649" lon="9.167099037369118"><ele>626.0</ele><time>2026-04-18T13:15:15.001Z</time></trkpt><trkpt lat="45.91317725632434" lon="9.167310766931859"><ele>627.5</ele><time>2026-04-18T13:15:16.001Z</time></trkpt><trkpt lat="45.913216893354345" lon="9.167485292863645"><ele>629.0</ele><time>2026-04-18T13:15:17.001Z</time></trkpt><trkpt lat="45.91327169197014" lon="9.167640910782898"><ele>629.0</ele><time>2026-04-18T13:15:18.001Z</time></trkpt><trkpt lat="45.91330572652716" lon="9.167775453507469"><ele>629.0</ele><time>2026-04-18T13:15:19.001Z</time></trkpt><trkpt lat="45.91332486497783" lon="9.167910312149854"><ele>629.0</ele><time>2026-04-18T13:15:20.001Z</time></trkpt><trkpt lat="45.9132577329497" lon="9.168084385372447"><ele>629.0</ele><time>2026-04-18T13:15:21.001Z</time></trkpt><trkpt lat="45.91321740516826" lon="9.168281392566294"><ele>631.6</ele><time>2026-04-18T13:15:22.001Z</time></trkpt><trkpt lat="45.91318664161526" lon="9.168443466472045"><ele>634.2</ele><time>2026-04-18T13:15:23.001Z</time></trkpt><trkpt lat="45.91316453115396" lon="9.168575461101165"><ele>636.8000000000001</ele><time>2026-04-18T13:15:24.001Z</time></trkpt><trkpt lat="45.91310222633339" lon="9.168656040432115"><ele>639.4</ele><time>2026-04-18T13:15:25.001Z</time></trkpt><trkpt lat="45.91300699203204" lon="9.16865759891888"><ele>642.0</ele><time>2026-04-18T13:15:26.001Z</time></trkpt><trkpt lat="45.91289697458595" lon="9.168671817632708"><ele>642.0</ele><time>2026-04-18T13:15:27.001Z</time></trkpt><trkpt lat="45.91274911413936" lon="9.168690149872969"><ele>642.0</ele><time>2026-04-18T13:15:28.001Z</time></trkpt><trkpt lat="45.912618489015834" lon="9.16871168336195"><ele>642.0</ele><time>2026-04-18T13:15:29.001Z</time></trkpt><trkpt lat="45.912502539242226" lon="9.16865818691875"><ele>642.0</ele><time>2026-04-18T13:15:30.001Z</time></trkpt><trkpt lat="45.91238752148251" lon="9.168625960160057"><ele>639.0</ele><time>2026-04-18T13:15:31.001Z</time></trkpt><trkpt lat="45.9123034324376" lon="9.168591429051563"><ele>636.0</ele><time>2026-04-18T13:15:32.001Z</time></trkpt><trkpt lat="45.91221949231699" lon="9.168518471642525"><ele>633.0</ele><time>2026-04-18T13:15:33.001Z</time></trkpt><trkpt lat="45.912145087119534" lon="9.1684474024516"><ele>630.0</ele><time>2026-04-18T13:15:34.001Z</time></trkpt><trkpt lat="45.91204908228909" lon="9.168386557509528"><ele>627.0</ele><time>2026-04-18T13:15:35.001Z</time></trkpt><trkpt lat="45.91196740213681" lon="9.168286985368006"><ele>627.0</ele><time>2026-04-18T13:15:36.001Z</time></trkpt><trkpt lat="45.911881937367134" lon="9.168229914092732"><ele>627.0</ele><time>2026-04-18T13:15:37.001Z</time></trkpt><trkpt lat="45.91180137081026" lon="9.168137956582434"><ele>627.0</ele><time>2026-04-18T13:15:38.001Z</time></trkpt><trkpt lat="45.91170816931221" lon="9.168072505799431"><ele>627.0</ele><time>2026-04-18T13:15:39.001Z</time></trkpt><trkpt lat="45.91162132430481" lon="9.167990138697807"><ele>627.0</ele><time>2026-04-18T13:15:40.001Z</time></trkpt><trkpt lat="45.911533195212556" lon="9.167906444318787"><ele>624.4</ele><time>2026-04-18T13:15:41.001Z</time></trkpt><trkpt lat="45.91142324700508" lon="9.167831860231558"><ele>621.8000000000001</ele><time>2026-04-18T13:15:42.001Z</time></trkpt><trkpt lat="45.911310125784354" lon="9.16780165613025"><ele>619.2</ele><time>2026-04-18T13:15:43.001Z</time></trkpt><trkpt lat="45.91121001610445" lon="9.167806980260567"><ele>616.6</ele><time>2026-04-18T13:15:44.001Z</time></trkpt><trkpt lat="45.91110573447418" lon="9.167803285623355"><ele>614.0</ele><time>2026-04-18T13:15:45.001Z</time></trkpt><trkpt lat="45.911000044136124" lon="9.167791808665058"><ele>619.6</ele><time>2026-04-18T13:15:46.001Z</time></trkpt><trkpt lat="45.91090245582123" lon="9.167756706612325"><ele>625.2</ele><time>2026-04-18T13:15:47.001Z</time></trkpt><trkpt lat="45.91078622620161" lon="9.167709332292146"><ele>630.8000000000001</ele><time>2026-04-18T13:15:48.001Z</time></trkpt><trkpt lat="45.910700830862275" lon="9.167672068252374"><ele>636.4</ele><time>2026-04-18T13:15:49.001Z</time></trkpt><trkpt lat="45.91062896824167" lon="9.16761314470102"><ele>642.0</ele><time>2026-04-18T13:15:50.001Z</time></trkpt><trkpt lat="45.910580574042626" lon="9.167500897493996"><ele>630.0</ele><time>2026-04-18T13:15:51.001Z</time></trkpt><trkpt lat="45.91051658697117" lon="9.167345194636088"><ele>618.0</ele><time>2026-04-18T13:15:52.001Z</time></trkpt><trkpt lat="45.91042022723878" lon="9.167242956334507"><ele>606.0</ele><time>2026-04-18T13:15:53Z</time></trkpt><trkpt lat="45.91031484331569" lon="9.16720969309238"><ele>594.0</ele><time>2026-04-18T13:15:54Z</time></trkpt><trkpt lat="45.91019037093813" lon="9.167248949601165"><ele>594.0</ele><time>2026-04-18T13:15:55Z</time></trkpt><trkpt lat="45.91007552941194" lon="9.167317635493264"><ele>594.0</ele><time>2026-04-18T13:15:56Z</time></trkpt><trkpt lat="45.910007105492745" lon="9.167478007815005"><ele>594.0</ele><time>2026-04-18T13:15:57Z</time></trkpt><trkpt lat="45.90994403725295" lon="9.16763587230513"><ele>594.0</ele><time>2026-04-18T13:15:58Z</time></trkpt><trkpt lat="45.90988170050574" lon="9.167827061337293"><ele>607.3333333333334</ele><time>2026-04-18T13:15:59Z</time></trkpt><trkpt lat="45.90980884962962" lon="9.168054499655991"><ele>620.6666666666667</ele><time>2026-04-18T13:16:00Z</time></trkpt><trkpt lat="45.909733029580174" lon="9.16829596391538"><ele>634.0</ele><time>2026-04-18T13:16:01Z</time></trkpt><trkpt lat="45.909652996846184" lon="9.16855082315506"><ele>641.6666666666667</ele><time>2026-04-18T13:16:02Z</time></trkpt><trkpt lat="45.909556485751274" lon="9.168814324854393"><ele>649.3333333333334</ele><time>2026-04-18T13:16:03Z</time></trkpt><trkpt lat="45.90947557477571" lon="9.169075415299764"><ele>657.0</ele><time>2026-04-18T13:16:04Z</time></trkpt><trkpt lat="45.90939327921754" lon="9.169303065875384"><ele>660.6666666666666</ele><time>2026-04-18T13:16:05Z</time></trkpt><trkpt lat="45.90933180697496" lon="9.169514121914812"><ele>664.3333333333333</ele><time>2026-04-18T13:16:06Z</time></trkpt><trkpt lat="45.90926117308398" lon="9.169698464940986"><ele>668.0</ele><time>2026-04-18T13:16:07Z</time></trkpt><trkpt lat="45.909202568363064" lon="9.1698979703382"><ele>660.0</ele><time>2026-04-18T13:16:08Z</time></trkpt><trkpt lat="45.909161877415066" lon="9.170126317864181"><ele>652.0</ele><time>2026-04-18T13:16:09Z</time></trkpt><trkpt lat="45.90912202964114" lon="9.170369039271584"><ele>644.0</ele><time>2026-04-18T13:16:10Z</time></trkpt><trkpt lat="45.90907775979689" lon="9.170613968719827"><ele>649.0</ele><time>2026-04-18T13:16:11Z</time></trkpt><trkpt lat="45.90902722507795" lon="9.170858020688192"><ele>654.0</ele><time>2026-04-18T13:16:12Z</time></trkpt><trkpt lat="45.90898577747698" lon="9.171056076168945"><ele>659.0</ele><time>2026-04-18T13:16:13Z</time></trkpt><trkpt lat="45.90895587024881" lon="9.171237509574523"><ele>659.0</ele><time>2026-04-18T13:16:14Z</time></trkpt><trkpt lat="45.90891612081" lon="9.171402550183688"><ele>659.0</ele><time>2026-04-18T13:16:15Z</time></trkpt><trkpt lat="45.90888966692071" lon="9.171551068601492"><ele>659.0</ele><time>2026-04-18T13:16:16Z</time></trkpt><trkpt lat="45.908863017174646" lon="9.171683694575307"><ele>659.0</ele><time>2026-04-18T13:16:17Z</time></trkpt><trkpt lat="45.908861745762174" lon="9.17180507395961"><ele>659.0</ele><time>2026-04-18T13:16:18Z</time></trkpt><trkpt lat="45.90889688222818" lon="9.171941414178434"><ele>661.5</ele><time>2026-04-18T13:16:19Z</time></trkpt><trkpt lat="45.90893830583897" lon="9.172091429357938"><ele>664.0</ele><time>2026-04-18T13:16:20Z</time></trkpt><trkpt lat="45.90897101547618" lon="9.172260118702683"><ele>666.5</ele><time>2026-04-18T13:16:21Z</time></trkpt><trkpt lat="45.90900648302796" lon="9.172421641578314"><ele>669.0</ele><time>2026-04-18T13:16:22Z</time></trkpt><trkpt lat="45.90904146276341" lon="9.17258516776178"><ele>669.75</ele><time>2026-04-18T13:16:23Z</time></trkpt><trkpt lat="45.9090455645055" lon="9.17275444018854"><ele>670.5</ele><time>2026-04-18T13:16:24Z</time></trkpt><trkpt lat="45.90902779875503" lon="9.172914448553518"><ele>671.25</ele><time>2026-04-18T13:16:25Z</time></trkpt><trkpt lat="45.90901115153641" lon="9.173079990873742"><ele>672.0</ele><time>2026-04-18T13:16:26Z</time></trkpt><trkpt lat="45.90899257634038" lon="9.173231437138556"><ele>672.8333333333334</ele><time>2026-04-18T13:16:27Z</time></trkpt><trkpt lat="45.9090234360108" lon="9.173343199844558"><ele>673.6666666666666</ele><time>2026-04-18T13:16:28Z</time></trkpt><trkpt lat="45.90908016304293" lon="9.173431428880052"><ele>674.5</ele><time>2026-04-18T13:16:29Z</time></trkpt><trkpt lat="45.90914886817347" lon="9.173526094765373"><ele>675.3333333333333</ele><time>2026-04-18T13:16:30Z</time></trkpt><trkpt lat="45.90920677465382" lon="9.173624578746884"><ele>676.1666666666666</ele><time>2026-04-18T13:16:31Z</time></trkpt><trkpt lat="45.90926064049397" lon="9.173717620902154"><ele>677.0</ele><time>2026-04-18T13:16:32Z</time></trkpt><trkpt lat="45.90933386325557" lon="9.173806133064597"><ele>680.2</ele><time>2026-04-18T13:16:33Z</time></trkpt><trkpt lat="45.9094119346383" lon="9.17388487861755"><ele>683.4000000000001</ele><time>2026-04-18T13:16:34Z</time></trkpt><trkpt lat="45.9094939950467" lon="9.173953211915402"><ele>686.5999999999999</ele><time>2026-04-18T13:16:35Z</time></trkpt><trkpt lat="45.909577612055585" lon="9.174030670127415"><ele>689.8</ele><time>2026-04-18T13:16:36Z</time></trkpt><trkpt lat="45.90966396728053" lon="9.174094834872623"><ele>693.0</ele><time>2026-04-18T13:16:37Z</time></trkpt><trkpt lat="45.90974579431029" lon="9.174169590123357"><ele>693.0</ele><time>2026-04-18T13:16:38Z</time></trkpt><trkpt lat="45.9098203416801" lon="9.17425160142142"><ele>693.0</ele><time>2026-04-18T13:16:39Z</time></trkpt><trkpt lat="45.9098803946936" lon="9.174349691238218"><ele>693.0</ele><time>2026-04-18T13:16:40Z</time></trkpt><trkpt lat="45.90991974832591" lon="9.174435621481807"><ele>693.0</ele><time>2026-04-18T13:16:41Z</time></trkpt><trkpt lat="45.90999269600777" lon="9.17453725877956"><ele>693.0</ele><time>2026-04-18T13:16:43Z</time></trkpt><trkpt lat="45.90999255755953" lon="9.174675166605564"><ele>693.0</ele><time>2026-04-18T13:16:45.001Z</time></trkpt><trkpt lat="45.90995183531863" lon="9.174761850988567"><ele>693.0</ele><time>2026-04-18T13:16:46.001Z</time></trkpt><trkpt lat="45.90992251473476" lon="9.174864872204745"><ele>693.0</ele><time>2026-04-18T13:16:47.001Z</time></trkpt><trkpt lat="45.90989402489493" lon="9.174963976779958"><ele>693.0</ele><time>2026-04-18T13:16:48.001Z</time></trkpt><trkpt lat="45.90986171391132" lon="9.175073154468565"><ele>693.0</ele><time>2026-04-18T13:16:49.001Z</time></trkpt><trkpt lat="45.90984113709195" lon="9.175182055041518"><ele>693.0</ele><time>2026-04-18T13:16:50.001Z</time></trkpt><trkpt lat="45.90979086510799" lon="9.1752408943234"><ele>693.5999999999999</ele><time>2026-04-18T13:16:51.001Z</time></trkpt><trkpt lat="45.9096775927601" lon="9.175161880783348"><ele>694.1999999999999</ele><time>2026-04-18T13:16:53.001Z</time></trkpt><trkpt lat="45.90959161162869" lon="9.175110650334885"><ele>694.8</ele><time>2026-04-18T13:16:54.001Z</time></trkpt><trkpt lat="45.909489849107466" lon="9.175064825829265"><ele>695.4</ele><time>2026-04-18T13:16:55.001Z</time></trkpt><trkpt lat="45.90939202233894" lon="9.175109939369326"><ele>696.0</ele><time>2026-04-18T13:16:56.001Z</time></trkpt><trkpt lat="45.909354238409875" lon="9.175254933074285"><ele>696.0</ele><time>2026-04-18T13:16:57.001Z</time></trkpt><trkpt lat="45.90932569023111" lon="9.175404987555263"><ele>696.0</ele><time>2026-04-18T13:16:58.001Z</time></trkpt><trkpt lat="45.90931934698591" lon="9.175589790222155"><ele>696.0</ele><time>2026-04-18T13:16:59.001Z</time></trkpt><trkpt lat="45.909280797730034" lon="9.17579304272982"><ele>696.0</ele><time>2026-04-18T13:17:00.001Z</time></trkpt><trkpt lat="45.90923368881259" lon="9.175978836609648"><ele>696.0</ele><time>2026-04-18T13:17:01.001Z</time></trkpt><trkpt lat="45.90914281314334" lon="9.176126141451103"><ele>696.0</ele><time>2026-04-18T13:17:02.001Z</time></trkpt><trkpt lat="45.90904672850735" lon="9.176286125549321"><ele>696.0</ele><time>2026-04-18T13:17:03.001Z</time></trkpt><trkpt lat="45.908956008444555" lon="9.176437616755386"><ele>696.0</ele><time>2026-04-18T13:17:04.001Z</time></trkpt><trkpt lat="45.90886646866076" lon="9.176589025119839"><ele>703.5</ele><time>2026-04-18T13:17:05.001Z</time></trkpt><trkpt lat="45.90877529984951" lon="9.176741179958077"><ele>711.0</ele><time>2026-04-18T13:17:06.001Z</time></trkpt><trkpt lat="45.908686804484866" lon="9.176887873203473"><ele>718.5</ele><time>2026-04-18T13:17:07.001Z</time></trkpt><trkpt lat="45.908599707700624" lon="9.177032247797202"><ele>726.0</ele><time>2026-04-18T13:17:08.001Z</time></trkpt><trkpt lat="45.90851585371628" lon="9.177176573433705"><ele>726.0</ele><time>2026-04-18T13:17:09.001Z</time></trkpt><trkpt lat="45.90843143177112" lon="9.17732242830085"><ele>726.0</ele><time>2026-04-18T13:17:10.001Z</time></trkpt><trkpt lat="45.90834998718632" lon="9.17744682491651"><ele>726.0</ele><time>2026-04-18T13:17:11.001Z</time></trkpt><trkpt lat="45.908255793166845" lon="9.177545950307236"><ele>726.0</ele><time>2026-04-18T13:17:12.001Z</time></trkpt><trkpt lat="45.90815078745277" lon="9.177604247560577"><ele>724.0</ele><time>2026-04-18T13:17:13.001Z</time></trkpt><trkpt lat="45.908037050468764" lon="9.17769523797525"><ele>722.0</ele><time>2026-04-18T13:17:14.001Z</time></trkpt><trkpt lat="45.907978967377765" lon="9.177837764846107"><ele>720.0</ele><time>2026-04-18T13:17:15.001Z</time></trkpt><trkpt lat="45.907901671846844" lon="9.177976676667164"><ele>718.0</ele><time>2026-04-18T13:17:16.001Z</time></trkpt><trkpt lat="45.907836530806186" lon="9.178133813228495"><ele>725.75</ele><time>2026-04-18T13:17:17.001Z</time></trkpt><trkpt lat="45.90777666011252" lon="9.178306069709853"><ele>733.5</ele><time>2026-04-18T13:17:18.001Z</time></trkpt><trkpt lat="45.907733696766975" lon="9.178492635694328"><ele>741.25</ele><time>2026-04-18T13:17:19.001Z</time></trkpt><trkpt lat="45.9076667841395" lon="9.178665030729965"><ele>749.0</ele><time>2026-04-18T13:17:20.001Z</time></trkpt><trkpt lat="45.90760481933485" lon="9.178846909672252"><ele>744.0</ele><time>2026-04-18T13:17:21.001Z</time></trkpt><trkpt lat="45.90755652481937" lon="9.179033514799839"><ele>739.0</ele><time>2026-04-18T13:17:22.001Z</time></trkpt><trkpt lat="45.90752446725798" lon="9.17920444094607"><ele>734.0</ele><time>2026-04-18T13:17:23.001Z</time></trkpt><trkpt lat="45.907501123967855" lon="9.179342604607072"><ele>729.0</ele><time>2026-04-18T13:17:24.001Z</time></trkpt><trkpt lat="45.90745073335933" lon="9.179459847841624"><ele>729.0</ele><time>2026-04-18T13:17:25.001Z</time></trkpt><trkpt lat="45.907352635433504" lon="9.17954156054437"><ele>729.0</ele><time>2026-04-18T13:17:26.001Z</time></trkpt><trkpt lat="45.907240858470075" lon="9.179633941188406"><ele>729.0</ele><time>2026-04-18T13:17:27.001Z</time></trkpt><trkpt lat="45.90713260424052" lon="9.179744223906301"><ele>729.0</ele><time>2026-04-18T13:17:28.001Z</time></trkpt><trkpt lat="45.90701804375964" lon="9.179833393501452"><ele>735.75</ele><time>2026-04-18T13:17:29.001Z</time></trkpt><trkpt lat="45.90692787663147" lon="9.179931962424094"><ele>742.5</ele><time>2026-04-18T13:17:30.001Z</time></trkpt><trkpt lat="45.90687512545326" lon="9.18007075521142"><ele>749.25</ele><time>2026-04-18T13:17:31.001Z</time></trkpt><trkpt lat="45.90685093440222" lon="9.180258183571924"><ele>756.0</ele><time>2026-04-18T13:17:32.001Z</time></trkpt><trkpt lat="45.90678085373557" lon="9.180425407990636"><ele>753.5</ele><time>2026-04-18T13:17:33.001Z</time></trkpt><trkpt lat="45.906696999404524" lon="9.180591709020836"><ele>751.0</ele><time>2026-04-18T13:17:34.001Z</time></trkpt><trkpt lat="45.90661672363111" lon="9.180752129441965"><ele>748.5</ele><time>2026-04-18T13:17:35.001Z</time></trkpt><trkpt lat="45.90654143788498" lon="9.180905298666302"><ele>746.0</ele><time>2026-04-18T13:17:36.001Z</time></trkpt><trkpt lat="45.906481573521646" lon="9.181067745702162"><ele>746.0</ele><time>2026-04-18T13:17:37.001Z</time></trkpt><trkpt lat="45.90640343605391" lon="9.181211328592273"><ele>746.0</ele><time>2026-04-18T13:17:38.001Z</time></trkpt><trkpt lat="45.906352133286624" lon="9.18136863102825"><ele>746.0</ele><time>2026-04-18T13:17:39.001Z</time></trkpt><trkpt lat="45.90632503804916" lon="9.181534792004316"><ele>746.0</ele><time>2026-04-18T13:17:40.001Z</time></trkpt><trkpt lat="45.90625404742326" lon="9.181662650140487"><ele>749.1666666666666</ele><time>2026-04-18T13:17:41.001Z</time></trkpt><trkpt lat="45.90617654056609" lon="9.181775150673076"><ele>752.3333333333333</ele><time>2026-04-18T13:17:42.001Z</time></trkpt><trkpt lat="45.906111072220796" lon="9.181862837762592"><ele>755.5</ele><time>2026-04-18T13:17:43.001Z</time></trkpt><trkpt lat="45.90604940515702" lon="9.181942169017589"><ele>758.6666666666666</ele><time>2026-04-18T13:17:44.001Z</time></trkpt><trkpt lat="45.9059952081749" lon="9.181996471474397"><ele>761.8333333333334</ele><time>2026-04-18T13:17:45.001Z</time></trkpt><trkpt lat="45.90593558760141" lon="9.182053910681795"><ele>765.0</ele><time>2026-04-18T13:17:46.001Z</time></trkpt><trkpt lat="45.90586001063879" lon="9.18200134662468"><ele>765.0</ele><time>2026-04-18T13:17:47.001Z</time></trkpt><trkpt lat="45.90577035343198" lon="9.18197990295639"><ele>765.0</ele><time>2026-04-18T13:17:48.001Z</time></trkpt><trkpt lat="45.90568247960634" lon="9.181981043289076"><ele>765.0</ele><time>2026-04-18T13:17:49.001Z</time></trkpt><trkpt lat="45.905614957024504" lon="9.182015904207983"><ele>765.0</ele><time>2026-04-18T13:17:50.001Z</time></trkpt><trkpt lat="45.90557708467858" lon="9.182110129956438"><ele>765.0</ele><time>2026-04-18T13:17:51.001Z</time></trkpt><trkpt lat="45.9055859492505" lon="9.18220762565227"><ele>765.0</ele><time>2026-04-18T13:17:52.001Z</time></trkpt><trkpt lat="45.90561736960412" lon="9.182296544379339"><ele>765.0</ele><time>2026-04-18T13:17:53.001Z</time></trkpt><trkpt lat="45.905567692001476" lon="9.182408882052549"><ele>765.0</ele><time>2026-04-18T13:17:55.001Z</time></trkpt><trkpt lat="45.90549229681153" lon="9.182348424973634"><ele>765.0</ele><time>2026-04-18T13:17:57.001Z</time></trkpt><trkpt lat="45.905511051103005" lon="9.18216261732779"><ele>765.0</ele><time>2026-04-18T13:17:59Z</time></trkpt><trkpt lat="45.90551271460187" lon="9.182035192469217"><ele>765.0</ele><time>2026-04-18T13:18:00Z</time></trkpt><trkpt lat="45.90550028667855" lon="9.181891338716563"><ele>765.0</ele><time>2026-04-18T13:18:01Z</time></trkpt><trkpt lat="45.905509380817655" lon="9.181741813076595"><ele>765.0</ele><time>2026-04-18T13:18:02Z</time></trkpt><trkpt lat="45.90549882287545" lon="9.181585418636162"><ele>765.0</ele><time>2026-04-18T13:18:03Z</time></trkpt><trkpt lat="45.90548419402581" lon="9.18142162859836"><ele>765.0</ele><time>2026-04-18T13:18:04Z</time></trkpt><trkpt lat="45.90547094691282" lon="9.181264477832942"><ele>765.0</ele><time>2026-04-18T13:18:05Z</time></trkpt><trkpt lat="45.905442944306316" lon="9.181109951461229"><ele>764.2</ele><time>2026-04-18T13:18:06Z</time></trkpt><trkpt lat="45.90543631319933" lon="9.180955491530256"><ele>763.4</ele><time>2026-04-18T13:18:07Z</time></trkpt><trkpt lat="45.905428129439194" lon="9.180792027484168"><ele>762.5999999999999</ele><time>2026-04-18T13:18:08Z</time></trkpt><trkpt lat="45.905419423024235" lon="9.18063134295783"><ele>761.8</ele><time>2026-04-18T13:18:09Z</time></trkpt><trkpt lat="45.90540453426195" lon="9.180469189552037"><ele>761.0</ele><time>2026-04-18T13:18:10Z</time></trkpt><trkpt lat="45.90539212751495" lon="9.180305279216874"><ele>761.0</ele><time>2026-04-18T13:18:11Z</time></trkpt><trkpt lat="45.905378410004154" lon="9.180142984977664"><ele>761.0</ele><time>2026-04-18T13:18:12Z</time></trkpt><trkpt lat="45.90537047738861" lon="9.179983533601298"><ele>761.0</ele><time>2026-04-18T13:18:13Z</time></trkpt><trkpt lat="45.90535638722599" lon="9.179816231409083"><ele>761.0</ele><time>2026-04-18T13:18:14Z</time></trkpt><trkpt lat="45.9054032326722" lon="9.179669936413887"><ele>760.1999999999999</ele><time>2026-04-18T13:18:15Z</time></trkpt><trkpt lat="45.9054140164937" lon="9.179544970833014"><ele>759.4</ele><time>2026-04-18T13:18:16Z</time></trkpt><trkpt lat="45.9054220733707" lon="9.179439202794352"><ele>758.6</ele><time>2026-04-18T13:18:17Z</time></trkpt><trkpt lat="45.90542783777893" lon="9.179338406758864"><ele>757.8</ele><time>2026-04-18T13:18:18Z</time></trkpt><trkpt lat="45.905427742088825" lon="9.179208486277915"><ele>757.0</ele><time>2026-04-18T13:18:19Z</time></trkpt><trkpt lat="45.90523506388656" lon="9.179238867422486"><ele>757.0</ele><time>2026-04-18T13:18:20Z</time></trkpt><trkpt lat="45.9051776463444" lon="9.179397564641892"><ele>757.0</ele><time>2026-04-18T13:18:21Z</time></trkpt><trkpt lat="45.90513126446507" lon="9.179541654372077"><ele>757.0</ele><time>2026-04-18T13:18:22Z</time></trkpt><trkpt lat="45.90509932996133" lon="9.179673456488912"><ele>757.0</ele><time>2026-04-18T13:18:23Z</time></trkpt><trkpt lat="45.90504644610733" lon="9.17985300090302"><ele>763.25</ele><time>2026-04-18T13:18:24Z</time></trkpt><trkpt lat="45.90499805558828" lon="9.180047647937789"><ele>769.5</ele><time>2026-04-18T13:18:25Z</time></trkpt><trkpt lat="45.90495371031261" lon="9.180251205949146"><ele>775.75</ele><time>2026-04-18T13:18:26Z</time></trkpt><trkpt lat="45.90490889743674" lon="9.180425061195727"><ele>782.0</ele><time>2026-04-18T13:18:27Z</time></trkpt><trkpt lat="45.90487086454655" lon="9.180570166631439"><ele>783.5</ele><time>2026-04-18T13:18:28Z</time></trkpt><trkpt lat="45.90483161191971" lon="9.180713142516499"><ele>785.0</ele><time>2026-04-18T13:18:29Z</time></trkpt><trkpt lat="45.90481616108936" lon="9.180870803388805"><ele>786.5</ele><time>2026-04-18T13:18:30Z</time></trkpt><trkpt lat="45.9048471298918" lon="9.181049795311688"><ele>788.0</ele><time>2026-04-18T13:18:31Z</time></trkpt><trkpt lat="45.90489780966403" lon="9.181229228281016"><ele>788.0</ele><time>2026-04-18T13:18:32Z</time></trkpt><trkpt lat="45.90494810595173" lon="9.181421915480781"><ele>788.0</ele><time>2026-04-18T13:18:33Z</time></trkpt><trkpt lat="45.904977966927895" lon="9.181625389556514"><ele>788.0</ele><time>2026-04-18T13:18:34Z</time></trkpt><trkpt lat="45.905002104155024" lon="9.1818125575739"><ele>788.0</ele><time>2026-04-18T13:18:35Z</time></trkpt><trkpt lat="45.90501164726664" lon="9.182015287319897"><ele>789.0</ele><time>2026-04-18T13:18:36Z</time></trkpt><trkpt lat="45.904998748067996" lon="9.182247163863519"><ele>790.0</ele><time>2026-04-18T13:18:37Z</time></trkpt><trkpt lat="45.90498589872366" lon="9.18243756270572"><ele>791.0</ele><time>2026-04-18T13:18:38Z</time></trkpt><trkpt lat="45.905004486134764" lon="9.182590775371386"><ele>792.0</ele><time>2026-04-18T13:18:39Z</time></trkpt><trkpt lat="45.905048211293085" lon="9.182710583438437"><ele>794.8</ele><time>2026-04-18T13:18:40Z</time></trkpt><trkpt lat="45.90506769018098" lon="9.182817309542902"><ele>797.6</ele><time>2026-04-18T13:18:41Z</time></trkpt><trkpt lat="45.90496557958358" lon="9.182877570308234"><ele>800.4</ele><time>2026-04-18T13:18:43Z</time></trkpt><trkpt lat="45.90491834635923" lon="9.182731143538874"><ele>803.1999999999999</ele><time>2026-04-18T13:18:44Z</time></trkpt><trkpt lat="45.90488806354761" lon="9.18259743038891"><ele>806.0</ele><time>2026-04-18T13:18:45Z</time></trkpt><trkpt lat="45.90482776920595" lon="9.182489668779604"><ele>806.0</ele><time>2026-04-18T13:18:46Z</time></trkpt><trkpt lat="45.9047380432577" lon="9.182377220880493"><ele>806.0</ele><time>2026-04-18T13:18:47Z</time></trkpt><trkpt lat="45.904628992804604" lon="9.182272058526152"><ele>806.0</ele><time>2026-04-18T13:18:48Z</time></trkpt><trkpt lat="45.90449111024476" lon="9.182212497971639"><ele>806.0</ele><time>2026-04-18T13:18:49Z</time></trkpt><trkpt lat="45.9043573223209" lon="9.182163763378222"><ele>807.0</ele><time>2026-04-18T13:18:50Z</time></trkpt><trkpt lat="45.90421043980226" lon="9.18215866896361"><ele>808.0</ele><time>2026-04-18T13:18:51Z</time></trkpt><trkpt lat="45.904055568546184" lon="9.182143864353275"><ele>809.0</ele><time>2026-04-18T13:18:52Z</time></trkpt><trkpt lat="45.90391773550596" lon="9.182144405832009"><ele>810.0</ele><time>2026-04-18T13:18:53Z</time></trkpt><trkpt lat="45.90380338722814" lon="9.182191744227689"><ele>810.0</ele><time>2026-04-18T13:18:54Z</time></trkpt><trkpt lat="45.9037009315028" lon="9.1822525573016"><ele>810.0</ele><time>2026-04-18T13:18:55Z</time></trkpt><trkpt lat="45.90360930649134" lon="9.1823803655355"><ele>810.0</ele><time>2026-04-18T13:18:56Z</time></trkpt><trkpt lat="45.903524642010645" lon="9.1825017240658"><ele>810.0</ele><time>2026-04-18T13:18:57Z</time></trkpt><trkpt lat="45.903457455480414" lon="9.182622880669957"><ele>812.75</ele><time>2026-04-18T13:18:58Z</time></trkpt><trkpt lat="45.90338502378328" lon="9.182758743656466"><ele>815.5</ele><time>2026-04-18T13:18:59Z</time></trkpt><trkpt lat="45.90330496319253" lon="9.182868057016425"><ele>818.25</ele><time>2026-04-18T13:19:00Z</time></trkpt><trkpt lat="45.90322858318077" lon="9.182982461155088"><ele>821.0</ele><time>2026-04-18T13:19:01.001Z</time></trkpt><trkpt lat="45.90314352678263" lon="9.183099099821197"><ele>826.75</ele><time>2026-04-18T13:19:02.001Z</time></trkpt><trkpt lat="45.90306935091115" lon="9.183214597161657"><ele>832.5</ele><time>2026-04-18T13:19:03.001Z</time></trkpt><trkpt lat="45.90299799818463" lon="9.18334273679385"><ele>838.25</ele><time>2026-04-18T13:19:04.001Z</time></trkpt><trkpt lat="45.90293390550711" lon="9.18347365648758"><ele>844.0</ele><time>2026-04-18T13:19:05.001Z</time></trkpt><trkpt lat="45.90287448513417" lon="9.183618772847904"><ele>844.0</ele><time>2026-04-18T13:19:06.001Z</time></trkpt><trkpt lat="45.90281279577979" lon="9.18376361487663"><ele>844.0</ele><time>2026-04-18T13:19:07.001Z</time></trkpt><trkpt lat="45.90275275529056" lon="9.183908958362814"><ele>844.0</ele><time>2026-04-18T13:19:08.001Z</time></trkpt><trkpt lat="45.902696705040135" lon="9.18405752759477"><ele>844.0</ele><time>2026-04-18T13:19:09.001Z</time></trkpt><trkpt lat="45.90263518252435" lon="9.184207939153328"><ele>841.75</ele><time>2026-04-18T13:19:10.001Z</time></trkpt><trkpt lat="45.90256247794594" lon="9.184354837150137"><ele>839.5</ele><time>2026-04-18T13:19:11.001Z</time></trkpt><trkpt lat="45.90251743336032" lon="9.184526973238489"><ele>837.25</ele><time>2026-04-18T13:19:12.001Z</time></trkpt><trkpt lat="45.90248883257999" lon="9.18471201892441"><ele>835.0</ele><time>2026-04-18T13:19:13.001Z</time></trkpt><trkpt lat="45.90246306926515" lon="9.184906109003373"><ele>840.5</ele><time>2026-04-18T13:19:14.001Z</time></trkpt><trkpt lat="45.90242999029834" lon="9.185100820440104"><ele>846.0</ele><time>2026-04-18T13:19:15.001Z</time></trkpt><trkpt lat="45.90234256706398" lon="9.185273752086786"><ele>851.5</ele><time>2026-04-18T13:19:16.001Z</time></trkpt><trkpt lat="45.902270422504145" lon="9.18545917481393"><ele>857.0</ele><time>2026-04-18T13:19:17.001Z</time></trkpt><trkpt lat="45.902191916356315" lon="9.185638114953013"><ele>861.0</ele><time>2026-04-18T13:19:18.001Z</time></trkpt><trkpt lat="45.90212210938423" lon="9.185827744274295"><ele>865.0</ele><time>2026-04-18T13:19:19.001Z</time></trkpt><trkpt lat="45.902055238727435" lon="9.186031472518973"><ele>869.0</ele><time>2026-04-18T13:19:20.001Z</time></trkpt><trkpt lat="45.901981516356635" lon="9.186231176517301"><ele>869.0</ele><time>2026-04-18T13:19:21.001Z</time></trkpt><trkpt lat="45.90191001444012" lon="9.186436388515204"><ele>869.0</ele><time>2026-04-18T13:19:22.001Z</time></trkpt><trkpt lat="45.90184060273415" lon="9.186614845421941"><ele>869.0</ele><time>2026-04-18T13:19:23.001Z</time></trkpt><trkpt lat="45.90177732752939" lon="9.186780574937499"><ele>869.0</ele><time>2026-04-18T13:19:24.001Z</time></trkpt><trkpt lat="45.901706505029736" lon="9.186939988170623"><ele>867.75</ele><time>2026-04-18T13:19:25.001Z</time></trkpt><trkpt lat="45.9016248926347" lon="9.187091663419265"><ele>866.5</ele><time>2026-04-18T13:19:26.001Z</time></trkpt><trkpt lat="45.90153667919695" lon="9.187247509052417"><ele>865.25</ele><time>2026-04-18T13:19:27.001Z</time></trkpt><trkpt lat="45.90145104407631" lon="9.187406546721535"><ele>864.0</ele><time>2026-04-18T13:19:28.001Z</time></trkpt><trkpt lat="45.90136638749828" lon="9.187563967570537"><ele>864.0</ele><time>2026-04-18T13:19:29.001Z</time></trkpt><trkpt lat="45.90127762124959" lon="9.187716561720986"><ele>864.0</ele><time>2026-04-18T13:19:30.001Z</time></trkpt><trkpt lat="45.90118880634566" lon="9.187869897784855"><ele>864.0</ele><time>2026-04-18T13:19:31.001Z</time></trkpt><trkpt lat="45.901098017088806" lon="9.18802275215611"><ele>864.0</ele><time>2026-04-18T13:19:32.001Z</time></trkpt><trkpt lat="45.90100590684377" lon="9.188168766959503"><ele>863.25</ele><time>2026-04-18T13:19:33.001Z</time></trkpt><trkpt lat="45.90092025359185" lon="9.188294002076395"><ele>862.5</ele><time>2026-04-18T13:19:34.001Z</time></trkpt><trkpt lat="45.90083299158877" lon="9.188415710287835"><ele>861.75</ele><time>2026-04-18T13:19:35.001Z</time></trkpt><trkpt lat="45.900737948501984" lon="9.188526206749406"><ele>861.0</ele><time>2026-04-18T13:19:36.001Z</time></trkpt><trkpt lat="45.90064110511262" lon="9.188631800117449"><ele>861.0</ele><time>2026-04-18T13:19:37.001Z</time></trkpt><trkpt lat="45.90054811151699" lon="9.188746553258232"><ele>861.0</ele><time>2026-04-18T13:19:38.001Z</time></trkpt><trkpt lat="45.900463505238044" lon="9.188879429735728"><ele>861.0</ele><time>2026-04-18T13:19:39.001Z</time></trkpt><trkpt lat="45.900389090785296" lon="9.189025866492457"><ele>861.0</ele><time>2026-04-18T13:19:40.001Z</time></trkpt><trkpt lat="45.900316440545716" lon="9.189169679678086"><ele>866.0</ele><time>2026-04-18T13:19:41.001Z</time></trkpt><trkpt lat="45.90024859005326" lon="9.189321025786956"><ele>871.0</ele><time>2026-04-18T13:19:42.001Z</time></trkpt><trkpt lat="45.90019669637594" lon="9.189490583063888"><ele>876.0</ele><time>2026-04-18T13:19:43.001Z</time></trkpt><trkpt lat="45.90017070417417" lon="9.189679742631242"><ele>881.0</ele><time>2026-04-18T13:19:44.001Z</time></trkpt><trkpt lat="45.900161261617114" lon="9.189884258259873"><ele>887.3333333333334</ele><time>2026-04-18T13:19:45.001Z</time></trkpt><trkpt lat="45.900147555553886" lon="9.190092208438358"><ele>893.6666666666667</ele><time>2026-04-18T13:19:46.001Z</time></trkpt><trkpt lat="45.900137118041584" lon="9.190310603883514"><ele>900.0</ele><time>2026-04-18T13:19:47.001Z</time></trkpt><trkpt lat="45.900138791667906" lon="9.19053402981366"><ele>902.5</ele><time>2026-04-18T13:19:48Z</time></trkpt><trkpt lat="45.90014265658342" lon="9.190757914576345"><ele>905.0</ele><time>2026-04-18T13:19:49Z</time></trkpt><trkpt lat="45.90014770822011" lon="9.190969753032968"><ele>907.5</ele><time>2026-04-18T13:19:50Z</time></trkpt><trkpt lat="45.90015370898896" lon="9.191155107263123"><ele>910.0</ele><time>2026-04-18T13:19:51Z</time></trkpt><trkpt lat="45.90015694127719" lon="9.191332936379418"><ele>910.0</ele><time>2026-04-18T13:19:52Z</time></trkpt><trkpt lat="45.90014800137357" lon="9.19150653649593"><ele>910.0</ele><time>2026-04-18T13:19:53Z</time></trkpt><trkpt lat="45.900115336260136" lon="9.191673632997901"><ele>910.0</ele><time>2026-04-18T13:19:54Z</time></trkpt><trkpt lat="45.90007242118531" lon="9.191841733220116"><ele>910.0</ele><time>2026-04-18T13:19:55Z</time></trkpt><trkpt lat="45.90001031948163" lon="9.191988208809764"><ele>907.5</ele><time>2026-04-18T13:19:56Z</time></trkpt><trkpt lat="45.89991906565002" lon="9.192082538389815"><ele>905.0</ele><time>2026-04-18T13:19:57Z</time></trkpt><trkpt lat="45.899806694095176" lon="9.192172545895119"><ele>902.5</ele><time>2026-04-18T13:19:58Z</time></trkpt><trkpt lat="45.89970245875689" lon="9.192281353749054"><ele>900.0</ele><time>2026-04-18T13:19:59Z</time></trkpt><trkpt lat="45.899640603385166" lon="9.192441410751494"><ele>900.0</ele><time>2026-04-18T13:20:00Z</time></trkpt><trkpt lat="45.899620675732" lon="9.192610144524092"><ele>900.0</ele><time>2026-04-18T13:20:01Z</time></trkpt><trkpt lat="45.899594542285065" lon="9.19278855554319"><ele>900.0</ele><time>2026-04-18T13:20:02Z</time></trkpt><trkpt lat="45.89956691322978" lon="9.19297328266038"><ele>900.0</ele><time>2026-04-18T13:20:03Z</time></trkpt><trkpt lat="45.899529070210036" lon="9.193156659986702"><ele>903.75</ele><time>2026-04-18T13:20:04Z</time></trkpt><trkpt lat="45.899484644711194" lon="9.193340664939825"><ele>907.5</ele><time>2026-04-18T13:20:05Z</time></trkpt><trkpt lat="45.899399605220445" lon="9.193492157004158"><ele>911.25</ele><time>2026-04-18T13:20:06Z</time></trkpt><trkpt lat="45.89934267146963" lon="9.19364602999859"><ele>915.0</ele><time>2026-04-18T13:20:07Z</time></trkpt><trkpt lat="45.899292274557446" lon="9.193797378265273"><ele>915.0</ele><time>2026-04-18T13:20:08Z</time></trkpt><trkpt lat="45.899281338631305" lon="9.193960734183676"><ele>915.0</ele><time>2026-04-18T13:20:09Z</time></trkpt><trkpt lat="45.89925614538029" lon="9.194122881321533"><ele>915.0</ele><time>2026-04-18T13:20:10Z</time></trkpt><trkpt lat="45.899245397033724" lon="9.19428779796691"><ele>915.0</ele><time>2026-04-18T13:20:11Z</time></trkpt><trkpt lat="45.89923375857312" lon="9.19444346608705"><ele>914.75</ele><time>2026-04-18T13:20:12Z</time></trkpt><trkpt lat="45.89920364966086" lon="9.19458804967151"><ele>914.5</ele><time>2026-04-18T13:20:13Z</time></trkpt><trkpt lat="45.89915327222734" lon="9.194737377078328"><ele>914.25</ele><time>2026-04-18T13:20:14Z</time></trkpt><trkpt lat="45.89907596584164" lon="9.194866729439248"><ele>914.0</ele><time>2026-04-18T13:20:15Z</time></trkpt><trkpt lat="45.899009393750106" lon="9.195007649256903"><ele>914.0</ele><time>2026-04-18T13:20:16Z</time></trkpt><trkpt lat="45.89896072833168" lon="9.195165084477214"><ele>914.0</ele><time>2026-04-18T13:20:17Z</time></trkpt><trkpt lat="45.89892730067553" lon="9.195331513363326"><ele>914.0</ele><time>2026-04-18T13:20:18Z</time></trkpt><trkpt lat="45.89888523119584" lon="9.19548967276646"><ele>914.0</ele><time>2026-04-18T13:20:19Z</time></trkpt><trkpt lat="45.898868198411506" lon="9.19566242226442"><ele>918.25</ele><time>2026-04-18T13:20:20Z</time></trkpt><trkpt lat="45.89883969266519" lon="9.195824090540235"><ele>922.5</ele><time>2026-04-18T13:20:21Z</time></trkpt><trkpt lat="45.89881467995196" lon="9.195982591037023"><ele>926.75</ele><time>2026-04-18T13:20:22Z</time></trkpt><trkpt lat="45.89878728964517" lon="9.196139579810465"><ele>931.0</ele><time>2026-04-18T13:20:23Z</time></trkpt><trkpt lat="45.8987621667152" lon="9.196302067385975"><ele>931.0</ele><time>2026-04-18T13:20:24Z</time></trkpt><trkpt lat="45.89874353477653" lon="9.196469475540507"><ele>931.0</ele><time>2026-04-18T13:20:25Z</time></trkpt><trkpt lat="45.89874094289963" lon="9.196638663569578"><ele>931.0</ele><time>2026-04-18T13:20:26Z</time></trkpt><trkpt lat="45.898743392103" lon="9.19681856575954"><ele>931.0</ele><time>2026-04-18T13:20:27Z</time></trkpt><trkpt lat="45.89870498765566" lon="9.197005324699822"><ele>934.3333333333333</ele><time>2026-04-18T13:20:28Z</time></trkpt><trkpt lat="45.898645943372614" lon="9.197205943206134"><ele>937.6666666666667</ele><time>2026-04-18T13:20:29Z</time></trkpt><trkpt lat="45.89860235288592" lon="9.197423723946265"><ele>941.0</ele><time>2026-04-18T13:20:30Z</time></trkpt><trkpt lat="45.89856826265705" lon="9.19763413991804"><ele>944.3333333333334</ele><time>2026-04-18T13:20:31Z</time></trkpt><trkpt lat="45.89855480557816" lon="9.19785376049224"><ele>947.6666666666667</ele><time>2026-04-18T13:20:32Z</time></trkpt><trkpt lat="45.89853572021534" lon="9.198078743143181"><ele>951.0</ele><time>2026-04-18T13:20:33Z</time></trkpt><trkpt lat="45.89851273647132" lon="9.198281843485379"><ele>953.6666666666667</ele><time>2026-04-18T13:20:34Z</time></trkpt><trkpt lat="45.898486096540275" lon="9.198492718902846"><ele>956.3333333333334</ele><time>2026-04-18T13:20:35Z</time></trkpt><trkpt lat="45.89847656770526" lon="9.198715889782441"><ele>959.0</ele><time>2026-04-18T13:20:36Z</time></trkpt><trkpt lat="45.89844120586233" lon="9.198934808977544"><ele>960.3333333333334</ele><time>2026-04-18T13:20:37Z</time></trkpt><trkpt lat="45.89842912548086" lon="9.199157303555012"><ele>961.6666666666667</ele><time>2026-04-18T13:20:38Z</time></trkpt><trkpt lat="45.89840250475724" lon="9.19938291460146"><ele>963.0</ele><time>2026-04-18T13:20:39Z</time></trkpt><trkpt lat="45.898385822013665" lon="9.199613363970927"><ele>955.3333333333333</ele><time>2026-04-18T13:20:40Z</time></trkpt><trkpt lat="45.898379636471894" lon="9.199842718563524"><ele>947.6666666666666</ele><time>2026-04-18T13:20:41Z</time></trkpt><trkpt lat="45.89837895615007" lon="9.200076904718582"><ele>940.0</ele><time>2026-04-18T13:20:42Z</time></trkpt><trkpt lat="45.89838025773939" lon="9.200310014444456"><ele>940.0</ele><time>2026-04-18T13:20:43Z</time></trkpt><trkpt lat="45.89837458403355" lon="9.200544752758749"><ele>940.0</ele><time>2026-04-18T13:20:44Z</time></trkpt><trkpt lat="45.89837914857695" lon="9.200781879899377"><ele>940.0</ele><time>2026-04-18T13:20:45Z</time></trkpt><trkpt lat="45.89839700348151" lon="9.201027805535215"><ele>940.6666666666666</ele><time>2026-04-18T13:20:46Z</time></trkpt><trkpt lat="45.89841393243032" lon="9.201273311438843"><ele>941.3333333333333</ele><time>2026-04-18T13:20:47Z</time></trkpt><trkpt lat="45.898427042468846" lon="9.201520947252455"><ele>942.0</ele><time>2026-04-18T13:20:48Z</time></trkpt><trkpt lat="45.89844067160638" lon="9.201771492799937"><ele>946.25</ele><time>2026-04-18T13:20:49Z</time></trkpt><trkpt lat="45.8984534889309" lon="9.202009031038168"><ele>950.5</ele><time>2026-04-18T13:20:50Z</time></trkpt><trkpt lat="45.89847190023662" lon="9.202209200373021"><ele>954.75</ele><time>2026-04-18T13:20:51Z</time></trkpt><trkpt lat="45.89849961784958" lon="9.202392391364086"><ele>959.0</ele><time>2026-04-18T13:20:52Z</time></trkpt><trkpt lat="45.89852457898897" lon="9.202574745621515"><ele>959.5</ele><time>2026-04-18T13:20:53Z</time></trkpt><trkpt lat="45.89848240626564" lon="9.202770536523113"><ele>960.0</ele><time>2026-04-18T13:20:54Z</time></trkpt><trkpt lat="45.89843372089641" lon="9.20296922517072"><ele>960.5</ele><time>2026-04-18T13:20:55Z</time></trkpt><trkpt lat="45.89837125685806" lon="9.20315864588851"><ele>961.0</ele><time>2026-04-18T13:20:56Z</time></trkpt><trkpt lat="45.89832920468065" lon="9.20333497181836"><ele>959.75</ele><time>2026-04-18T13:20:57Z</time></trkpt><trkpt lat="45.898290841827155" lon="9.203491254839621"><ele>958.5</ele><time>2026-04-18T13:20:58Z</time></trkpt><trkpt lat="45.898306281164494" lon="9.203667208205346"><ele>957.25</ele><time>2026-04-18T13:20:59Z</time></trkpt><trkpt lat="45.89830898707561" lon="9.203834045004468"><ele>956.0</ele><time>2026-04-18T13:21:00Z</time></trkpt><trkpt lat="45.89830184575258" lon="9.20397611732079"><ele>956.0</ele><time>2026-04-18T13:21:01Z</time></trkpt><trkpt lat="45.89826721194184" lon="9.204075080580528"><ele>955.9999999999999</ele><time>2026-04-18T13:21:02Z</time></trkpt><trkpt lat="45.8981836805315" lon="9.20410414113358"><ele>955.9999999999999</ele><time>2026-04-18T13:21:03Z</time></trkpt><trkpt lat="45.89810895708351" lon="9.20405102083942"><ele>956.0</ele><time>2026-04-18T13:21:04Z</time></trkpt><trkpt lat="45.89805566750352" lon="9.203934018447404"><ele>956.0</ele><time>2026-04-18T13:21:05Z</time></trkpt><trkpt lat="45.897945106975946" lon="9.203842511589222"><ele>956.0</ele><time>2026-04-18T13:21:06Z</time></trkpt><trkpt lat="45.89781434546328" lon="9.20379435202523"><ele>956.0</ele><time>2026-04-18T13:21:07Z</time></trkpt><trkpt lat="45.89768643955661" lon="9.203797295006103"><ele>956.0</ele><time>2026-04-18T13:21:08Z</time></trkpt><trkpt lat="45.89756329603557" lon="9.203874666218088"><ele>956.0</ele><time>2026-04-18T13:21:09Z</time></trkpt><trkpt lat="45.89742523620753" lon="9.203942852490961"><ele>959.25</ele><time>2026-04-18T13:21:10Z</time></trkpt><trkpt lat="45.897293887981675" lon="9.204001423193715"><ele>962.5</ele><time>2026-04-18T13:21:11Z</time></trkpt><trkpt lat="45.897159853540614" lon="9.20408847918232"><ele>965.75</ele><time>2026-04-18T13:21:12Z</time></trkpt><trkpt lat="45.89703040730928" lon="9.204201627800845"><ele>969.0</ele><time>2026-04-18T13:21:13Z</time></trkpt><trkpt lat="45.89691218250711" lon="9.204341220837073"><ele>969.0</ele><time>2026-04-18T13:21:14Z</time></trkpt><trkpt lat="45.89680103629685" lon="9.204504765251343"><ele>969.0</ele><time>2026-04-18T13:21:15Z</time></trkpt><trkpt lat="45.89669167783203" lon="9.20464186651379"><ele>969.0</ele><time>2026-04-18T13:21:16Z</time></trkpt><trkpt lat="45.89661984918478" lon="9.204850256351408"><ele>969.0</ele><time>2026-04-18T13:21:17Z</time></trkpt><trkpt lat="45.89657064975622" lon="9.205089184230243"><ele>969.0</ele><time>2026-04-18T13:21:18Z</time></trkpt><trkpt lat="45.89653327742706" lon="9.2053750788191"><ele>969.0</ele><time>2026-04-18T13:21:19Z</time></trkpt><trkpt lat="45.896507469887304" lon="9.205679455804662"><ele>970.3333333333333</ele><time>2026-04-18T13:21:20Z</time></trkpt><trkpt lat="45.8964923626489" lon="9.205930872125528"><ele>971.6666666666666</ele><time>2026-04-18T13:21:21Z</time></trkpt><trkpt lat="45.89649556010215" lon="9.206155078893124"><ele>973.0</ele><time>2026-04-18T13:21:22Z</time></trkpt><trkpt lat="45.89654111795579" lon="9.206375851328803"><ele>973.75</ele><time>2026-04-18T13:21:23Z</time></trkpt><trkpt lat="45.896615523955575" lon="9.206579320426632"><ele>974.5</ele><time>2026-04-18T13:21:24Z</time></trkpt><trkpt lat="45.896677580786715" lon="9.206768335337284"><ele>975.25</ele><time>2026-04-18T13:21:25Z</time></trkpt><trkpt lat="45.89673347328431" lon="9.206951687094499"><ele>976.0</ele><time>2026-04-18T13:21:26Z</time></trkpt><trkpt lat="45.89678585187398" lon="9.207113480920851"><ele>980.8</ele><time>2026-04-18T13:21:27Z</time></trkpt><trkpt lat="45.896833037048665" lon="9.207248174046098"><ele>985.5999999999999</ele><time>2026-04-18T13:21:28Z</time></trkpt><trkpt lat="45.896872940067944" lon="9.207367103321682"><ele>990.4</ele><time>2026-04-18T13:21:29Z</time></trkpt><trkpt lat="45.89690953177693" lon="9.20747989369725"><ele>995.2</ele><time>2026-04-18T13:21:30Z</time></trkpt><trkpt lat="45.89694809134063" lon="9.207599091583344"><ele>1000.0</ele><time>2026-04-18T13:21:31Z</time></trkpt><trkpt lat="45.896980483805045" lon="9.20772030054745"><ele>1000.0</ele><time>2026-04-18T13:21:32Z</time></trkpt><trkpt lat="45.89701149966078" lon="9.20784231616925"><ele>1000.0</ele><time>2026-04-18T13:21:33Z</time></trkpt><trkpt lat="45.897030241988034" lon="9.207987726508874"><ele>1000.0</ele><time>2026-04-18T13:21:34Z</time></trkpt><trkpt lat="45.89703222830463" lon="9.20815638785936"><ele>1000.0</ele><time>2026-04-18T13:21:35Z</time></trkpt><trkpt lat="45.896997576857395" lon="9.208343902439958"><ele>1000.0</ele><time>2026-04-18T13:21:36Z</time></trkpt><trkpt lat="45.89697591549683" lon="9.208543236107733"><ele>999.75</ele><time>2026-04-18T13:21:37Z</time></trkpt><trkpt lat="45.89695042379349" lon="9.208746394245269"><ele>999.5</ele><time>2026-04-18T13:21:38Z</time></trkpt><trkpt lat="45.89693403929305" lon="9.208944383799581"><ele>999.25</ele><time>2026-04-18T13:21:39Z</time></trkpt><trkpt lat="45.89690743921274" lon="9.20913116084154"><ele>999.0</ele><time>2026-04-18T13:21:40Z</time></trkpt><trkpt lat="45.89688338437849" lon="9.209325099143488"><ele>997.5</ele><time>2026-04-18T13:21:41Z</time></trkpt><trkpt lat="45.89686174015279" lon="9.209523502484856"><ele>996.0</ele><time>2026-04-18T13:21:42Z</time></trkpt><trkpt lat="45.896840054922755" lon="9.209719179520933"><ele>994.5</ele><time>2026-04-18T13:21:43Z</time></trkpt><trkpt lat="45.896809044711155" lon="9.209902639922252"><ele>993.0</ele><time>2026-04-18T13:21:44Z</time></trkpt><trkpt lat="45.896782633400406" lon="9.210091526164275"><ele>991.0</ele><time>2026-04-18T13:21:45Z</time></trkpt><trkpt lat="45.896755488567635" lon="9.210280016087575"><ele>989.0</ele><time>2026-04-18T13:21:46Z</time></trkpt><trkpt lat="45.896734320207386" lon="9.210469907823926"><ele>987.0</ele><time>2026-04-18T13:21:47Z</time></trkpt><trkpt lat="45.896711617587336" lon="9.210661348563743"><ele>985.0</ele><time>2026-04-18T13:21:48Z</time></trkpt><trkpt lat="45.896686027507876" lon="9.210853912820568"><ele>982.75</ele><time>2026-04-18T13:21:49Z</time></trkpt><trkpt lat="45.89666051184611" lon="9.211044082568847"><ele>980.5</ele><time>2026-04-18T13:21:50Z</time></trkpt><trkpt lat="45.896631613914586" lon="9.211234739907777"><ele>978.25</ele><time>2026-04-18T13:21:51Z</time></trkpt><trkpt lat="45.89661012095933" lon="9.21142516073136"><ele>976.0</ele><time>2026-04-18T13:21:52Z</time></trkpt><trkpt lat="45.896575994571954" lon="9.211614506140965"><ele>976.0</ele><time>2026-04-18T13:21:53Z</time></trkpt><trkpt lat="45.89655392534106" lon="9.211801272978986"><ele>976.0</ele><time>2026-04-18T13:21:54.001Z</time></trkpt><trkpt lat="45.89652728907004" lon="9.212000771456381"><ele>976.0</ele><time>2026-04-18T13:21:55.001Z</time></trkpt><trkpt lat="45.89650270457214" lon="9.212181488119542"><ele>976.0</ele><time>2026-04-18T13:21:56.001Z</time></trkpt><trkpt lat="45.89647179183578" lon="9.21236301729862"><ele>976.5</ele><time>2026-04-18T13:21:57.001Z</time></trkpt><trkpt lat="45.89643939101613" lon="9.212552858107452"><ele>977.0</ele><time>2026-04-18T13:21:58.001Z</time></trkpt><trkpt lat="45.89639992007449" lon="9.212738841505427"><ele>977.5</ele><time>2026-04-18T13:21:59.001Z</time></trkpt><trkpt lat="45.89635763521765" lon="9.212922121998488"><ele>978.0</ele><time>2026-04-18T13:22:00.001Z</time></trkpt><trkpt lat="45.89630780720647" lon="9.213104057720418"><ele>977.75</ele><time>2026-04-18T13:22:01.001Z</time></trkpt><trkpt lat="45.89625780987054" lon="9.21328316870808"><ele>977.5</ele><time>2026-04-18T13:22:02.001Z</time></trkpt><trkpt lat="45.89621335262595" lon="9.213466147116211"><ele>977.25</ele><time>2026-04-18T13:22:03.001Z</time></trkpt><trkpt lat="45.896174627189055" lon="9.213651916591878"><ele>977.0</ele><time>2026-04-18T13:22:04.001Z</time></trkpt><trkpt lat="45.89614296200825" lon="9.213840161878633"><ele>978.0</ele><time>2026-04-18T13:22:05.001Z</time></trkpt><trkpt lat="45.89612160796492" lon="9.214031451363919"><ele>979.0</ele><time>2026-04-18T13:22:06.001Z</time></trkpt><trkpt lat="45.89610246959517" lon="9.214220929402758"><ele>980.0</ele><time>2026-04-18T13:22:07.001Z</time></trkpt><trkpt lat="45.8960803265151" lon="9.214408404197043"><ele>981.0</ele><time>2026-04-18T13:22:08.001Z</time></trkpt><trkpt lat="45.896051040589164" lon="9.214594873934484"><ele>981.0</ele><time>2026-04-18T13:22:09Z</time></trkpt><trkpt lat="45.89599866643076" lon="9.21477261155905"><ele>981.0</ele><time>2026-04-18T13:22:10Z</time></trkpt><trkpt lat="45.8959073731892" lon="9.214918991814617"><ele>981.0</ele><time>2026-04-18T13:22:11Z</time></trkpt><trkpt lat="45.895826078995604" lon="9.215071021133602"><ele>981.0</ele><time>2026-04-18T13:22:12Z</time></trkpt><trkpt lat="45.89571062812067" lon="9.215166438202615"><ele>980.0</ele><time>2026-04-18T13:22:13Z</time></trkpt><trkpt lat="45.89559884821411" lon="9.215267831044882"><ele>978.9999999999999</ele><time>2026-04-18T13:22:14Z</time></trkpt><trkpt lat="45.89551262822492" lon="9.215360641921087"><ele>977.9999999999999</ele><time>2026-04-18T13:22:15Z</time></trkpt><trkpt lat="45.89544491693838" lon="9.215408026555576"><ele>977.0</ele><time>2026-04-18T13:22:16Z</time></trkpt><trkpt lat="45.89538334681836" lon="9.215467313490482"><ele>976.0</ele><time>2026-04-18T13:22:17Z</time></trkpt><trkpt lat="45.895328272710856" lon="9.21553813161963"><ele>975.9999999999999</ele><time>2026-04-18T13:22:18Z</time></trkpt><trkpt lat="45.895284324467234" lon="9.215619600548662"><ele>976.0</ele><time>2026-04-18T13:22:19Z</time></trkpt><trkpt lat="45.895243383967575" lon="9.215719191536335"><ele>976.0</ele><time>2026-04-18T13:22:20Z</time></trkpt><trkpt lat="45.895198879317704" lon="9.215833604647369"><ele>976.0</ele><time>2026-04-18T13:22:21Z</time></trkpt><trkpt lat="45.89515661809031" lon="9.215960322047147"><ele>975.9999999999999</ele><time>2026-04-18T13:22:22Z</time></trkpt><trkpt lat="45.89512081255972" lon="9.216103636558497"><ele>976.0</ele><time>2026-04-18T13:22:23Z</time></trkpt><trkpt lat="45.895095284848395" lon="9.216250558616254"><ele>976.1666666666666</ele><time>2026-04-18T13:22:24Z</time></trkpt><trkpt lat="45.89507982294104" lon="9.216382279712393"><ele>976.3333333333333</ele><time>2026-04-18T13:22:25Z</time></trkpt><trkpt lat="45.895054513187446" lon="9.216503342461186"><ele>976.5</ele><time>2026-04-18T13:22:26Z</time></trkpt><trkpt lat="45.894998107770924" lon="9.216594371560198"><ele>976.6666666666667</ele><time>2026-04-18T13:22:27Z</time></trkpt><trkpt lat="45.89496787560308" lon="9.216686289556451"><ele>976.8333333333334</ele><time>2026-04-18T13:22:28Z</time></trkpt><trkpt lat="45.89492428763341" lon="9.216788838959278"><ele>977.0</ele><time>2026-04-18T13:22:29Z</time></trkpt><trkpt lat="45.894928643470635" lon="9.216905979288713"><ele>977.0</ele><time>2026-04-18T13:22:30Z</time></trkpt><trkpt lat="45.89497659483618" lon="9.217021827074655"><ele>977.0</ele><time>2026-04-18T13:22:31Z</time></trkpt><trkpt lat="45.89504164256308" lon="9.217136458726591"><ele>977.0</ele><time>2026-04-18T13:22:32Z</time></trkpt><trkpt lat="45.89510227202578" lon="9.217241116815364"><ele>977.0</ele><time>2026-04-18T13:22:33Z</time></trkpt><trkpt lat="45.895133910067514" lon="9.217355924404787"><ele>977.0</ele><time>2026-04-18T13:22:34Z</time></trkpt><trkpt lat="45.89513585670259" lon="9.217476773863494"><ele>976.6</ele><time>2026-04-18T13:22:35Z</time></trkpt><trkpt lat="45.89510156487587" lon="9.21759959536837"><ele>976.2</ele><time>2026-04-18T13:22:36Z</time></trkpt><trkpt lat="45.89507090777646" lon="9.217729464346247"><ele>975.8</ele><time>2026-04-18T13:22:37Z</time></trkpt><trkpt lat="45.89502840201573" lon="9.217863740684555"><ele>975.4</ele><time>2026-04-18T13:22:38Z</time></trkpt><trkpt lat="45.89497611810305" lon="9.217999961054094"><ele>975.0</ele><time>2026-04-18T13:22:39Z</time></trkpt><trkpt lat="45.89491014763996" lon="9.218144388479628"><ele>976.25</ele><time>2026-04-18T13:22:40Z</time></trkpt><trkpt lat="45.89483076750404" lon="9.21829704979083"><ele>977.5</ele><time>2026-04-18T13:22:41Z</time></trkpt><trkpt lat="45.89473093502867" lon="9.218437754803034"><ele>978.75</ele><time>2026-04-18T13:22:42Z</time></trkpt><trkpt lat="45.89463726941114" lon="9.218594749670533"><ele>980.0</ele><time>2026-04-18T13:22:43Z</time></trkpt><trkpt lat="45.894532538300126" lon="9.218781547650304"><ele>977.3333333333334</ele><time>2026-04-18T13:22:44Z</time></trkpt><trkpt lat="45.8944181219868" lon="9.218999405698867"><ele>974.6666666666667</ele><time>2026-04-18T13:22:45Z</time></trkpt><trkpt lat="45.89428324630026" lon="9.219247002861067"><ele>972.0</ele><time>2026-04-18T13:22:46Z</time></trkpt><trkpt lat="45.89415424146333" lon="9.219524964857625"><ele>972.0</ele><time>2026-04-18T13:22:47Z</time></trkpt><trkpt lat="45.89404256014958" lon="9.219810549697169"><ele>972.0</ele><time>2026-04-18T13:22:48Z</time></trkpt><trkpt lat="45.893949946014054" lon="9.22006829297694"><ele>972.0</ele><time>2026-04-18T13:22:49Z</time></trkpt><trkpt lat="45.89388809892802" lon="9.22032214208217"><ele>973.3333333333333</ele><time>2026-04-18T13:22:50Z</time></trkpt><trkpt lat="45.89384821487697" lon="9.220596972540134"><ele>974.6666666666666</ele><time>2026-04-18T13:22:51Z</time></trkpt><trkpt lat="45.893827482123086" lon="9.220897362281791"><ele>976.0</ele><time>2026-04-18T13:22:52Z</time></trkpt><trkpt lat="45.893813679817164" lon="9.22119889629592"><ele>979.6666666666666</ele><time>2026-04-18T13:22:53Z</time></trkpt><trkpt lat="45.8937728480741" lon="9.221495191678866"><ele>983.3333333333333</ele><time>2026-04-18T13:22:54Z</time></trkpt><trkpt lat="45.89373928612208" lon="9.221781194011243"><ele>987.0</ele><time>2026-04-18T13:22:55Z</time></trkpt><trkpt lat="45.893722841265316" lon="9.222052701603047"><ele>987.0</ele><time>2026-04-18T13:22:56Z</time></trkpt><trkpt lat="45.89368939032071" lon="9.22229038116167"><ele>987.0</ele><time>2026-04-18T13:22:57Z</time></trkpt><trkpt lat="45.89366088638754" lon="9.222522447759303"><ele>987.0</ele><time>2026-04-18T13:22:58Z</time></trkpt><trkpt lat="45.89363536681791" lon="9.22276414431431"><ele>986.6666666666667</ele><time>2026-04-18T13:22:59Z</time></trkpt><trkpt lat="45.89360660663238" lon="9.22301022230544"><ele>986.3333333333334</ele><time>2026-04-18T13:23:00Z</time></trkpt><trkpt lat="45.89358131498798" lon="9.223224883026173"><ele>986.0</ele><time>2026-04-18T13:23:01Z</time></trkpt><trkpt lat="45.89356026795722" lon="9.223430235342667"><ele>985.5</ele><time>2026-04-18T13:23:02Z</time></trkpt><trkpt lat="45.893541784536964" lon="9.2236213079832"><ele>985.0</ele><time>2026-04-18T13:23:03Z</time></trkpt><trkpt lat="45.893520785720824" lon="9.22380220786114"><ele>984.5</ele><time>2026-04-18T13:23:04Z</time></trkpt><trkpt lat="45.893499954676585" lon="9.223969576546558"><ele>984.0</ele><time>2026-04-18T13:23:05Z</time></trkpt><trkpt lat="45.89347550053797" lon="9.224127931163494"><ele>983.8000000000001</ele><time>2026-04-18T13:23:06Z</time></trkpt><trkpt lat="45.893458781637115" lon="9.224269616346591"><ele>983.6000000000001</ele><time>2026-04-18T13:23:07Z</time></trkpt><trkpt lat="45.89344548367762" lon="9.224408723575324"><ele>983.4</ele><time>2026-04-18T13:23:08Z</time></trkpt><trkpt lat="45.89342939800876" lon="9.224541093633949"><ele>983.2</ele><time>2026-04-18T13:23:09Z</time></trkpt><trkpt lat="45.893413054954365" lon="9.22467598160419"><ele>983.0</ele><time>2026-04-18T13:23:10Z</time></trkpt><trkpt lat="45.893392043955224" lon="9.224812254722758"><ele>983.5999999999999</ele><time>2026-04-18T13:23:11Z</time></trkpt><trkpt lat="45.89336435492326" lon="9.224944086228817"><ele>984.1999999999999</ele><time>2026-04-18T13:23:12Z</time></trkpt><trkpt lat="45.89333165780841" lon="9.225074009135449"><ele>984.8</ele><time>2026-04-18T13:23:13Z</time></trkpt><trkpt lat="45.8932883957532" lon="9.225195107981348"><ele>985.4</ele><time>2026-04-18T13:23:14Z</time></trkpt><trkpt lat="45.89323108419261" lon="9.225305375377062"><ele>986.0</ele><time>2026-04-18T13:23:15Z</time></trkpt><trkpt lat="45.89316053880537" lon="9.225403840601047"><ele>986.0</ele><time>2026-04-18T13:23:16Z</time></trkpt><trkpt lat="45.89306792265687" lon="9.225454163831571"><ele>985.9999999999999</ele><time>2026-04-18T13:23:17Z</time></trkpt><trkpt lat="45.89297085104383" lon="9.225499143504559"><ele>985.9999999999999</ele><time>2026-04-18T13:23:18Z</time></trkpt><trkpt lat="45.89286238975996" lon="9.225508665704599"><ele>986.0</ele><time>2026-04-18T13:23:19Z</time></trkpt><trkpt lat="45.89275724019994" lon="9.225467122877747"><ele>986.0</ele><time>2026-04-18T13:23:20Z</time></trkpt><trkpt lat="45.892639280257605" lon="9.22542761633518"><ele>989.5</ele><time>2026-04-18T13:23:21Z</time></trkpt><trkpt lat="45.89250978068088" lon="9.225365006979747"><ele>993.0</ele><time>2026-04-18T13:23:22Z</time></trkpt><trkpt lat="45.892366458310924" lon="9.225350883994945"><ele>996.5</ele><time>2026-04-18T13:23:23Z</time></trkpt><trkpt lat="45.89225308460814" lon="9.225314535730563"><ele>1000.0</ele><time>2026-04-18T13:23:24Z</time></trkpt><trkpt lat="45.89216590816857" lon="9.225264113315612"><ele>1000.0</ele><time>2026-04-18T13:23:25Z</time></trkpt><trkpt lat="45.89213122384301" lon="9.225047694535876"><ele>1000.0</ele><time>2026-04-18T13:23:26Z</time></trkpt><trkpt lat="45.892024243792214" lon="9.22481011845862"><ele>1000.0</ele><time>2026-04-18T13:23:27Z</time></trkpt><trkpt lat="45.89193140149501" lon="9.224559192851878"><ele>998.25</ele><time>2026-04-18T13:23:28Z</time></trkpt><trkpt lat="45.89183340091496" lon="9.224383432438797"><ele>996.5</ele><time>2026-04-18T13:23:29Z</time></trkpt><trkpt lat="45.89174161317041" lon="9.224247677417424"><ele>994.75</ele><time>2026-04-18T13:23:30Z</time></trkpt><trkpt lat="45.89163672666052" lon="9.224171946977332"><ele>993.0</ele><time>2026-04-18T13:23:31Z</time></trkpt><trkpt lat="45.891475046251394" lon="9.224132225289347"><ele>995.6666666666667</ele><time>2026-04-18T13:23:32Z</time></trkpt><trkpt lat="45.89130065682011" lon="9.224045299197098"><ele>998.3333333333334</ele><time>2026-04-18T13:23:33Z</time></trkpt><trkpt lat="45.89113686699659" lon="9.223945184493754"><ele>1001.0</ele><time>2026-04-18T13:23:34Z</time></trkpt><trkpt lat="45.89099677179346" lon="9.22388199623962"><ele>1003.75</ele><time>2026-04-18T13:23:35Z</time></trkpt><trkpt lat="45.890882965836006" lon="9.22387374542542"><ele>1006.5</ele><time>2026-04-18T13:23:36Z</time></trkpt><trkpt lat="45.890755415716235" lon="9.22396270233672"><ele>1009.25</ele><time>2026-04-18T13:23:37Z</time></trkpt><trkpt lat="45.89063540118048" lon="9.224050575788254"><ele>1012.0</ele><time>2026-04-18T13:23:38Z</time></trkpt><trkpt lat="45.89051482960101" lon="9.224118205471202"><ele>1014.75</ele><time>2026-04-18T13:23:39Z</time></trkpt><trkpt lat="45.89040682255084" lon="9.224149738022264"><ele>1017.5</ele><time>2026-04-18T13:23:40Z</time></trkpt><trkpt lat="45.89029546687391" lon="9.224202496188687"><ele>1020.25</ele><time>2026-04-18T13:23:41Z</time></trkpt><trkpt lat="45.89019810574744" lon="9.224302438941283"><ele>1023.0</ele><time>2026-04-18T13:23:42Z</time></trkpt><trkpt lat="45.89013238132656" lon="9.224457702588495"><ele>1023.5</ele><time>2026-04-18T13:23:43Z</time></trkpt><trkpt lat="45.89006847786663" lon="9.224635510852139"><ele>1024.0</ele><time>2026-04-18T13:23:44Z</time></trkpt><trkpt lat="45.88998407107565" lon="9.224801345231478"><ele>1024.5</ele><time>2026-04-18T13:23:45Z</time></trkpt><trkpt lat="45.889869337705555" lon="9.224910380560218"><ele>1025.0</ele><time>2026-04-18T13:23:46Z</time></trkpt><trkpt lat="45.889763121179406" lon="9.225016339978684"><ele>1025.0</ele><time>2026-04-18T13:23:47Z</time></trkpt><trkpt lat="45.88967920143593" lon="9.225100802277739"><ele>1025.0</ele><time>2026-04-18T13:23:48Z</time></trkpt><trkpt lat="45.88960896034106" lon="9.22513399265248"><ele>1025.0</ele><time>2026-04-18T13:23:49Z</time></trkpt><trkpt lat="45.88954182897963" lon="9.225091991089565"><ele>1025.0</ele><time>2026-04-18T13:23:50Z</time></trkpt><trkpt lat="45.889503144441086" lon="9.224991037615787"><ele>1025.0</ele><time>2026-04-18T13:23:51Z</time></trkpt><trkpt lat="45.88950072596203" lon="9.224862482510778"><ele>1025.0</ele><time>2026-04-18T13:23:52Z</time></trkpt><trkpt lat="45.88948436125231" lon="9.224730645114693"><ele>1025.0</ele><time>2026-04-18T13:23:53Z</time></trkpt><trkpt lat="45.88945137719589" lon="9.224602405380672"><ele>1025.0</ele><time>2026-04-18T13:23:54Z</time></trkpt><trkpt lat="45.88938960248921" lon="9.224471426506188"><ele>1025.0</ele><time>2026-04-18T13:23:55Z</time></trkpt><trkpt lat="45.889310255601956" lon="9.22434349526173"><ele>1025.0</ele><time>2026-04-18T13:23:56Z</time></trkpt><trkpt lat="45.88919988047096" lon="9.224247776663127"><ele>1029.25</ele><time>2026-04-18T13:23:57Z</time></trkpt><trkpt lat="45.88908790759234" lon="9.224183117600518"><ele>1033.5</ele><time>2026-04-18T13:23:58Z</time></trkpt><trkpt lat="45.8889610051824" lon="9.224154338855392"><ele>1037.75</ele><time>2026-04-18T13:23:59Z</time></trkpt><trkpt lat="45.88882947997104" lon="9.224172464029929"><ele>1042.0</ele><time>2026-04-18T13:24:00.001Z</time></trkpt><trkpt lat="45.8887004039826" lon="9.224241350152797"><ele>1042.0</ele><time>2026-04-18T13:24:01.001Z</time></trkpt><trkpt lat="45.88854832257758" lon="9.224306287636162"><ele>1042.0</ele><time>2026-04-18T13:24:02.001Z</time></trkpt><trkpt lat="45.88837712192183" lon="9.224376094678544"><ele>1042.0</ele><time>2026-04-18T13:24:03.001Z</time></trkpt><trkpt lat="45.88817905253324" lon="9.224362225563473"><ele>1046.0</ele><time>2026-04-18T13:24:04.001Z</time></trkpt><trkpt lat="45.88799043428451" lon="9.224255567270863"><ele>1050.0</ele><time>2026-04-18T13:24:05.001Z</time></trkpt><trkpt lat="45.8878138724077" lon="9.224152946890674"><ele>1054.0</ele><time>2026-04-18T13:24:06.001Z</time></trkpt><trkpt lat="45.887678682828" lon="9.22403523474977"><ele>1052.75</ele><time>2026-04-18T13:24:07.001Z</time></trkpt><trkpt lat="45.88754522991858" lon="9.223929247513313"><ele>1051.5</ele><time>2026-04-18T13:24:08.001Z</time></trkpt><trkpt lat="45.887418294452914" lon="9.22385864782033"><ele>1050.25</ele><time>2026-04-18T13:24:09.001Z</time></trkpt><trkpt lat="45.887288120544135" lon="9.22381840709441"><ele>1049.0</ele><time>2026-04-18T13:24:10.001Z</time></trkpt><trkpt lat="45.88714416891545" lon="9.223842069366297"><ele>1049.0</ele><time>2026-04-18T13:24:11.001Z</time></trkpt><trkpt lat="45.88700678845399" lon="9.223930270873156"><ele>1049.0</ele><time>2026-04-18T13:24:12.001Z</time></trkpt><trkpt lat="45.88687227619842" lon="9.22408919499695"><ele>1049.0</ele><time>2026-04-18T13:24:13.001Z</time></trkpt><trkpt lat="45.88673389142686" lon="9.224306546439177"><ele>1055.0</ele><time>2026-04-18T13:24:14.001Z</time></trkpt><trkpt lat="45.886583316638266" lon="9.22455566063656"><ele>1061.0</ele><time>2026-04-18T13:24:15.001Z</time></trkpt><trkpt lat="45.88643542231756" lon="9.22478841536019"><ele>1067.0</ele><time>2026-04-18T13:24:16.001Z</time></trkpt><trkpt lat="45.886291060544764" lon="9.225017382909016"><ele>1074.0</ele><time>2026-04-18T13:24:17.001Z</time></trkpt><trkpt lat="45.88616341585653" lon="9.225220736863811"><ele>1081.0</ele><time>2026-04-18T13:24:18.001Z</time></trkpt><trkpt lat="45.88604365150611" lon="9.225394842214616"><ele>1088.0</ele><time>2026-04-18T13:24:19.001Z</time></trkpt><trkpt lat="45.885931802682705" lon="9.225558381213563"><ele>1086.6666666666667</ele><time>2026-04-18T13:24:20.001Z</time></trkpt><trkpt lat="45.88582534178534" lon="9.225721193783581"><ele>1085.3333333333333</ele><time>2026-04-18T13:24:21.001Z</time></trkpt><trkpt lat="45.88573622943248" lon="9.225907754729178"><ele>1084.0</ele><time>2026-04-18T13:24:22.001Z</time></trkpt><trkpt lat="45.88566853713251" lon="9.226117892498715"><ele>1084.0</ele><time>2026-04-18T13:24:23.001Z</time></trkpt><trkpt lat="45.88561333909597" lon="9.22634691920273"><ele>1084.0</ele><time>2026-04-18T13:24:24.001Z</time></trkpt><trkpt lat="45.88557803124484" lon="9.226585365779215"><ele>1084.0</ele><time>2026-04-18T13:24:25.001Z</time></trkpt><trkpt lat="45.885569961983066" lon="9.226832223115972"><ele>1088.75</ele><time>2026-04-18T13:24:26.001Z</time></trkpt><trkpt lat="45.885592411232956" lon="9.227069093170554"><ele>1093.5</ele><time>2026-04-18T13:24:27.001Z</time></trkpt><trkpt lat="45.88559053735503" lon="9.227268703477069"><ele>1098.25</ele><time>2026-04-18T13:24:28.001Z</time></trkpt><trkpt lat="45.88550894171483" lon="9.227406803690263"><ele>1103.0</ele><time>2026-04-18T13:24:29.001Z</time></trkpt><trkpt lat="45.88540851236082" lon="9.227484028603394"><ele>1102.6666666666667</ele><time>2026-04-18T13:24:30.001Z</time></trkpt><trkpt lat="45.885263836608395" lon="9.227583813645822"><ele>1102.3333333333333</ele><time>2026-04-18T13:24:31.001Z</time></trkpt><trkpt lat="45.88512179494772" lon="9.22771342538306"><ele>1102.0</ele><time>2026-04-18T13:24:32.001Z</time></trkpt><trkpt lat="45.88497899242305" lon="9.22780504837777"><ele>1102.0</ele><time>2026-04-18T13:24:33.001Z</time></trkpt><trkpt lat="45.884845577116835" lon="9.227913349468917"><ele>1102.0</ele><time>2026-04-18T13:24:34Z</time></trkpt><trkpt lat="45.8847126156354" lon="9.228016755414949"><ele>1102.0</ele><time>2026-04-18T13:24:35Z</time></trkpt><trkpt lat="45.884569946426716" lon="9.228103890967127"><ele>1106.6666666666665</ele><time>2026-04-18T13:24:36Z</time></trkpt><trkpt lat="45.884446329908776" lon="9.228237688147031"><ele>1111.3333333333333</ele><time>2026-04-18T13:24:37Z</time></trkpt><trkpt lat="45.88431461478727" lon="9.228337485015183"><ele>1116.0</ele><time>2026-04-18T13:24:38Z</time></trkpt><trkpt lat="45.8841935818557" lon="9.228463762654796"><ele>1116.25</ele><time>2026-04-18T13:24:39Z</time></trkpt><trkpt lat="45.884049824235326" lon="9.22852148104171"><ele>1116.5</ele><time>2026-04-18T13:24:40Z</time></trkpt><trkpt lat="45.8839227105229" lon="9.228583018194056"><ele>1116.75</ele><time>2026-04-18T13:24:41Z</time></trkpt><trkpt lat="45.8838162821673" lon="9.228552205578463"><ele>1117.0</ele><time>2026-04-18T13:24:42Z</time></trkpt><trkpt lat="45.8836913223831" lon="9.22857294394513"><ele>1117.0</ele><time>2026-04-18T13:24:43Z</time></trkpt><trkpt lat="45.883572096426164" lon="9.228567498428742"><ele>1117.0</ele><time>2026-04-18T13:24:44Z</time></trkpt><trkpt lat="45.88345142833136" lon="9.22857295712094"><ele>1117.0</ele><time>2026-04-18T13:24:45Z</time></trkpt><trkpt lat="45.88333195821446" lon="9.228592458189562"><ele>1117.0</ele><time>2026-04-18T13:24:46Z</time></trkpt><trkpt lat="45.88323966326067" lon="9.228635344061377"><ele>1117.6666666666665</ele><time>2026-04-18T13:24:47Z</time></trkpt><trkpt lat="45.88317435081454" lon="9.228722984588279"><ele>1118.3333333333333</ele><time>2026-04-18T13:24:48Z</time></trkpt><trkpt lat="45.88312018351385" lon="9.228821217411213"><ele>1119.0</ele><time>2026-04-18T13:24:49Z</time></trkpt><trkpt lat="45.883042646779636" lon="9.228906500063989"><ele>1119.6666666666667</ele><time>2026-04-18T13:24:51Z</time></trkpt><trkpt lat="45.8829775323541" lon="9.22897890040055"><ele>1120.3333333333335</ele><time>2026-04-18T13:24:53Z</time></trkpt><trkpt lat="45.88291325280253" lon="9.229041512304562"><ele>1121.0</ele><time>2026-04-18T13:24:55Z</time></trkpt><trkpt lat="45.88283952940663" lon="9.229123323420184"><ele>1121.6</ele><time>2026-04-18T13:24:57Z</time></trkpt><trkpt lat="45.882770705587" lon="9.229247712935274"><ele>1122.1999999999998</ele><time>2026-04-18T13:24:59Z</time></trkpt><trkpt lat="45.88277389607145" lon="9.229342757631768"><ele>1122.8000000000002</ele><time>2026-04-18T13:25:00Z</time></trkpt><trkpt lat="45.88278201668949" lon="9.229434751379774"><ele>1123.4</ele><time>2026-04-18T13:25:01Z</time></trkpt><trkpt lat="45.88283165454774" lon="9.229575012984517"><ele>1124.0</ele><time>2026-04-18T13:25:03Z</time></trkpt><trkpt lat="45.88288209008083" lon="9.22973974539204"><ele>1124.2857142857144</ele><time>2026-04-18T13:25:05Z</time></trkpt><trkpt lat="45.88290583524945" lon="9.229825364005949"><ele>1124.5714285714287</ele><time>2026-04-18T13:25:06Z</time></trkpt><trkpt lat="45.88293290152187" lon="9.229919119749704"><ele>1124.857142857143</ele><time>2026-04-18T13:25:07Z</time></trkpt><trkpt lat="45.88295492979784" lon="9.230010950842525"><ele>1125.1428571428573</ele><time>2026-04-18T13:25:08Z</time></trkpt><trkpt lat="45.88298012549698" lon="9.230112486595491"><ele>1125.4285714285716</ele><time>2026-04-18T13:25:09Z</time></trkpt><trkpt lat="45.88299641111062" lon="9.230222531880832"><ele>1125.7142857142858</ele><time>2026-04-18T13:25:10Z</time></trkpt><trkpt lat="45.883007304771596" lon="9.230341519543908"><ele>1126.0</ele><time>2026-04-18T13:25:11Z</time></trkpt><trkpt lat="45.88301594314238" lon="9.2304726468141"><ele>1126.0</ele><time>2026-04-18T13:25:12Z</time></trkpt><trkpt lat="45.88302295204861" lon="9.230609420602166"><ele>1126.0</ele><time>2026-04-18T13:25:13Z</time></trkpt><trkpt lat="45.88303025897862" lon="9.23075877164758"><ele>1126.0</ele><time>2026-04-18T13:25:14Z</time></trkpt><trkpt lat="45.88304477554537" lon="9.230911668873466"><ele>1126.0</ele><time>2026-04-18T13:25:15Z</time></trkpt><trkpt lat="45.883069209333236" lon="9.231068384836755"><ele>1126.0</ele><time>2026-04-18T13:25:16Z</time></trkpt><trkpt lat="45.883141500013146" lon="9.231225411503388"><ele>1124.0</ele><time>2026-04-18T13:25:17Z</time></trkpt><trkpt lat="45.88324388612267" lon="9.231365205134328"><ele>1122.0</ele><time>2026-04-18T13:25:18Z</time></trkpt><trkpt lat="45.88334298472663" lon="9.231463835635813"><ele>1120.0</ele><time>2026-04-18T13:25:19Z</time></trkpt><trkpt lat="45.883458246105505" lon="9.231517654618525"><ele>1118.0</ele><time>2026-04-18T13:25:20Z</time></trkpt><trkpt lat="45.88357596323194" lon="9.231545157662222"><ele>1114.0</ele><time>2026-04-18T13:25:21Z</time></trkpt><trkpt lat="45.883699591880024" lon="9.231562522170456"><ele>1110.0</ele><time>2026-04-18T13:25:22Z</time></trkpt><trkpt lat="45.88382335118224" lon="9.231564907784316"><ele>1106.0</ele><time>2026-04-18T13:25:23Z</time></trkpt><trkpt lat="45.8839647756795" lon="9.23153205774728"><ele>1102.0</ele><time>2026-04-18T13:25:24Z</time></trkpt><trkpt lat="45.88411971338286" lon="9.231481242008616"><ele>1109.25</ele><time>2026-04-18T13:25:25Z</time></trkpt><trkpt lat="45.88425256194449" lon="9.231455052923703"><ele>1116.5</ele><time>2026-04-18T13:25:26Z</time></trkpt><trkpt lat="45.884379544158065" lon="9.231427969857233"><ele>1123.75</ele><time>2026-04-18T13:25:27Z</time></trkpt><trkpt lat="45.88450062083143" lon="9.231399535246029"><ele>1131.0</ele><time>2026-04-18T13:25:28Z</time></trkpt><trkpt lat="45.88464463259783" lon="9.23139623411912"><ele>1132.0</ele><time>2026-04-18T13:25:29Z</time></trkpt><trkpt lat="45.88476796801224" lon="9.231448041294042"><ele>1133.0</ele><time>2026-04-18T13:25:30Z</time></trkpt><trkpt lat="45.884905740915514" lon="9.23149801559512"><ele>1134.0</ele><time>2026-04-18T13:25:31Z</time></trkpt><trkpt lat="45.88505749316858" lon="9.231561311865223"><ele>1135.0</ele><time>2026-04-18T13:25:32Z</time></trkpt><trkpt lat="45.885206602510806" lon="9.231624776609987"><ele>1128.0</ele><time>2026-04-18T13:25:33Z</time></trkpt><trkpt lat="45.8853730712891" lon="9.23170126178994"><ele>1121.0</ele><time>2026-04-18T13:25:34Z</time></trkpt><trkpt lat="45.88555294661704" lon="9.23178548247156"><ele>1114.0</ele><time>2026-04-18T13:25:35Z</time></trkpt><trkpt lat="45.8857397929754" lon="9.231849589553198"><ele>1114.0</ele><time>2026-04-18T13:25:36Z</time></trkpt><trkpt lat="45.88592512199885" lon="9.231929649629809"><ele>1114.0</ele><time>2026-04-18T13:25:37Z</time></trkpt><trkpt lat="45.88611974060195" lon="9.232003197655384"><ele>1114.0</ele><time>2026-04-18T13:25:38Z</time></trkpt><trkpt lat="45.88632336820091" lon="9.232044711676798"><ele>1117.0</ele><time>2026-04-18T13:25:39Z</time></trkpt><trkpt lat="45.88653226818913" lon="9.232057857874837"><ele>1120.0</ele><time>2026-04-18T13:25:40Z</time></trkpt><trkpt lat="45.88673382050832" lon="9.232092390746354"><ele>1123.0</ele><time>2026-04-18T13:25:41Z</time></trkpt><trkpt lat="45.88691716086639" lon="9.232105873881839"><ele>1124.75</ele><time>2026-04-18T13:25:42Z</time></trkpt><trkpt lat="45.88706311677616" lon="9.232138115527205"><ele>1126.5</ele><time>2026-04-18T13:25:43Z</time></trkpt><trkpt lat="45.887193702829805" lon="9.232198393995061"><ele>1128.25</ele><time>2026-04-18T13:25:44Z</time></trkpt><trkpt lat="45.88732743267172" lon="9.232300494044148"><ele>1130.0</ele><time>2026-04-18T13:25:45Z</time></trkpt><trkpt lat="45.887447765672" lon="9.23243147800405"><ele>1132.3333333333335</ele><time>2026-04-18T13:25:46Z</time></trkpt><trkpt lat="45.88756361646589" lon="9.232602057138026"><ele>1134.6666666666667</ele><time>2026-04-18T13:25:47Z</time></trkpt><trkpt lat="45.887667216239144" lon="9.232774931672155"><ele>1137.0</ele><time>2026-04-18T13:25:48Z</time></trkpt><trkpt lat="45.88777715412956" lon="9.232941387319752"><ele>1137.0</ele><time>2026-04-18T13:25:49Z</time></trkpt><trkpt lat="45.88786379197928" lon="9.233110362890448"><ele>1137.0</ele><time>2026-04-18T13:25:50Z</time></trkpt><trkpt lat="45.8879559480643" lon="9.233271694359676"><ele>1137.0</ele><time>2026-04-18T13:25:51Z</time></trkpt><trkpt lat="45.88804570522394" lon="9.233432982971264"><ele>1137.0</ele><time>2026-04-18T13:25:52Z</time></trkpt><trkpt lat="45.88813119008392" lon="9.233600232326843"><ele>1131.25</ele><time>2026-04-18T13:25:53Z</time></trkpt><trkpt lat="45.88821281196496" lon="9.233768766312771"><ele>1125.5</ele><time>2026-04-18T13:25:54Z</time></trkpt><trkpt lat="45.88828061618546" lon="9.233929414616945"><ele>1119.75</ele><time>2026-04-18T13:25:55Z</time></trkpt><trkpt lat="45.88833878374938" lon="9.234091537760474"><ele>1114.0</ele><time>2026-04-18T13:25:56Z</time></trkpt><trkpt lat="45.88837137223284" lon="9.234262682236128"><ele>1117.5</ele><time>2026-04-18T13:25:57Z</time></trkpt><trkpt lat="45.88839328989981" lon="9.234431556688035"><ele>1121.0</ele><time>2026-04-18T13:25:58Z</time></trkpt><trkpt lat="45.88842323309218" lon="9.234604288190214"><ele>1124.5</ele><time>2026-04-18T13:25:59Z</time></trkpt><trkpt lat="45.888458885156254" lon="9.234778321622988"><ele>1128.0</ele><time>2026-04-18T13:26:00Z</time></trkpt><trkpt lat="45.88849040701823" lon="9.234954016424432"><ele>1128.0</ele><time>2026-04-18T13:26:01Z</time></trkpt><trkpt lat="45.88851960171622" lon="9.235120232813966"><ele>1128.0</ele><time>2026-04-18T13:26:02Z</time></trkpt><trkpt lat="45.88855515905132" lon="9.235287235962074"><ele>1128.0</ele><time>2026-04-18T13:26:03Z</time></trkpt><trkpt lat="45.888594263653054" lon="9.235449213623916"><ele>1128.0</ele><time>2026-04-18T13:26:04Z</time></trkpt><trkpt lat="45.888647768283384" lon="9.235599863893054"><ele>1120.75</ele><time>2026-04-18T13:26:05Z</time></trkpt><trkpt lat="45.88871100239851" lon="9.235734056248393"><ele>1113.5</ele><time>2026-04-18T13:26:06.001Z</time></trkpt><trkpt lat="45.888794502656985" lon="9.235847948432932"><ele>1106.25</ele><time>2026-04-18T13:26:07.001Z</time></trkpt><trkpt lat="45.88888935048517" lon="9.235970444371594"><ele>1099.0</ele><time>2026-04-18T13:26:08.001Z</time></trkpt><trkpt lat="45.8889872252222" lon="9.236075789087026"><ele>1099.0</ele><time>2026-04-18T13:26:09.001Z</time></trkpt><trkpt lat="45.889083287615115" lon="9.23618975071563"><ele>1099.0</ele><time>2026-04-18T13:26:10.001Z</time></trkpt><trkpt lat="45.889184793203235" lon="9.236262668883068"><ele>1099.0</ele><time>2026-04-18T13:26:11.001Z</time></trkpt><trkpt lat="45.88930219340949" lon="9.236264224766277"><ele>1099.0</ele><time>2026-04-18T13:26:12.001Z</time></trkpt><trkpt lat="45.889413973414314" lon="9.23620407789811"><ele>1098.25</ele><time>2026-04-18T13:26:13.001Z</time></trkpt><trkpt lat="45.88950756948885" lon="9.2362411005703"><ele>1097.5</ele><time>2026-04-18T13:26:14.001Z</time></trkpt><trkpt lat="45.889561373911064" lon="9.236357520964303"><ele>1096.75</ele><time>2026-04-18T13:26:15.001Z</time></trkpt><trkpt lat="45.88959334748608" lon="9.236540669128065"><ele>1096.0</ele><time>2026-04-18T13:26:16.001Z</time></trkpt><trkpt lat="45.88966220955484" lon="9.236710730946024"><ele>1096.0</ele><time>2026-04-18T13:26:17.001Z</time></trkpt><trkpt lat="45.88975351941795" lon="9.236849667108936"><ele>1096.0</ele><time>2026-04-18T13:26:18.001Z</time></trkpt><trkpt lat="45.88986327233361" lon="9.236945877755089"><ele>1096.0</ele><time>2026-04-18T13:26:19.001Z</time></trkpt><trkpt lat="45.88996715041286" lon="9.237015888935774"><ele>1096.0</ele><time>2026-04-18T13:26:20.001Z</time></trkpt><trkpt lat="45.89005408973849" lon="9.237054557683619"><ele>1094.3333333333333</ele><time>2026-04-18T13:26:21.001Z</time></trkpt><trkpt lat="45.89012426650852" lon="9.237067797324423"><ele>1092.6666666666665</ele><time>2026-04-18T13:26:22.001Z</time></trkpt><trkpt lat="45.89019068256314" lon="9.237090759085847"><ele>1091.0</ele><time>2026-04-18T13:26:23.001Z</time></trkpt><trkpt lat="45.89029507061803" lon="9.237165461788324"><ele>1089.3333333333333</ele><time>2026-04-18T13:26:25.001Z</time></trkpt><trkpt lat="45.89034031739486" lon="9.237234280519012"><ele>1087.6666666666667</ele><time>2026-04-18T13:26:26.001Z</time></trkpt><trkpt lat="45.89037235118004" lon="9.23732922035837"><ele>1086.0</ele><time>2026-04-18T13:26:27.001Z</time></trkpt><trkpt lat="45.89038614778364" lon="9.237432419310165"><ele>1086.0</ele><time>2026-04-18T13:26:28.001Z</time></trkpt><trkpt lat="45.890395867864115" lon="9.237533737394154"><ele>1086.0</ele><time>2026-04-18T13:26:29.001Z</time></trkpt><trkpt lat="45.89042209793472" lon="9.237636659623629"><ele>1086.0</ele><time>2026-04-18T13:26:30.001Z</time></trkpt><trkpt lat="45.89046311727703" lon="9.237739509944287"><ele>1086.0</ele><time>2026-04-18T13:26:31.001Z</time></trkpt><trkpt lat="45.89051770902431" lon="9.237835612891358"><ele>1086.0</ele><time>2026-04-18T13:26:32.001Z</time></trkpt><trkpt lat="45.890594689354074" lon="9.237935326482537"><ele>1086.0</ele><time>2026-04-18T13:26:33.001Z</time></trkpt><trkpt lat="45.890694441523145" lon="9.238024353612595"><ele>1086.0</ele><time>2026-04-18T13:26:34.001Z</time></trkpt><trkpt lat="45.89080833213806" lon="9.238089696876026"><ele>1086.0</ele><time>2026-04-18T13:26:35.001Z</time></trkpt><trkpt lat="45.89090752941014" lon="9.23812180873442"><ele>1086.0</ele><time>2026-04-18T13:26:36.001Z</time></trkpt><trkpt lat="45.89102025806629" lon="9.238158833364714"><ele>1086.0</ele><time>2026-04-18T13:26:37.001Z</time></trkpt><trkpt lat="45.89112640822917" lon="9.238176582220197"><ele>1086.0</ele><time>2026-04-18T13:26:38.001Z</time></trkpt><trkpt lat="45.89123172978025" lon="9.238159951744144"><ele>1081.6</ele><time>2026-04-18T13:26:39.001Z</time></trkpt><trkpt lat="45.89133925535687" lon="9.238160331765885"><ele>1077.1999999999998</ele><time>2026-04-18T13:26:40.001Z</time></trkpt><trkpt lat="45.89143934573789" lon="9.238176017245346"><ele>1072.8000000000002</ele><time>2026-04-18T13:26:41.001Z</time></trkpt><trkpt lat="45.89152595781795" lon="9.238237727999932"><ele>1068.4</ele><time>2026-04-18T13:26:42.001Z</time></trkpt><trkpt lat="45.89159418336506" lon="9.238350918137733"><ele>1064.0</ele><time>2026-04-18T13:26:43Z</time></trkpt><trkpt lat="45.891651335814196" lon="9.238469976614399"><ele>1064.0</ele><time>2026-04-18T13:26:44Z</time></trkpt><trkpt lat="45.891724721278436" lon="9.238597072575802"><ele>1064.0</ele><time>2026-04-18T13:26:45Z</time></trkpt><trkpt lat="45.89178594522904" lon="9.238737752908184"><ele>1064.0</ele><time>2026-04-18T13:26:46Z</time></trkpt><trkpt lat="45.89184748979199" lon="9.238875398370201"><ele>1064.0</ele><time>2026-04-18T13:26:47Z</time></trkpt><trkpt lat="45.89191788331774" lon="9.238994537420908"><ele>1062.8</ele><time>2026-04-18T13:26:48Z</time></trkpt><trkpt lat="45.892000452289" lon="9.239099991252594"><ele>1061.6000000000001</ele><time>2026-04-18T13:26:49Z</time></trkpt><trkpt lat="45.89209582565859" lon="9.239171696222709"><ele>1060.4</ele><time>2026-04-18T13:26:50Z</time></trkpt><trkpt lat="45.892179053584314" lon="9.239227987171283"><ele>1059.2</ele><time>2026-04-18T13:26:51Z</time></trkpt><trkpt lat="45.89227942636277" lon="9.239273019342566"><ele>1058.0</ele><time>2026-04-18T13:26:52Z</time></trkpt><trkpt lat="45.89239891880739" lon="9.239319964374545"><ele>1058.0</ele><time>2026-04-18T13:26:53Z</time></trkpt><trkpt lat="45.89249384545606" lon="9.23933731322434"><ele>1058.0</ele><time>2026-04-18T13:26:54Z</time></trkpt><trkpt lat="45.89257728766604" lon="9.239342598923681"><ele>1058.0</ele><time>2026-04-18T13:26:55Z</time></trkpt><trkpt lat="45.89267346671787" lon="9.239359860368351"><ele>1058.0</ele><time>2026-04-18T13:26:56Z</time></trkpt><trkpt lat="45.89277550613641" lon="9.239360421710817"><ele>1058.0</ele><time>2026-04-18T13:26:57Z</time></trkpt><trkpt lat="45.8928706037082" lon="9.239343393034495"><ele>1060.4</ele><time>2026-04-18T13:26:58Z</time></trkpt><trkpt lat="45.89296680670956" lon="9.239293202900681"><ele>1062.8</ele><time>2026-04-18T13:26:59Z</time></trkpt><trkpt lat="45.89306592391037" lon="9.239282599845323"><ele>1065.2</ele><time>2026-04-18T13:27:00Z</time></trkpt><trkpt lat="45.89314770254542" lon="9.2393392176174"><ele>1067.6</ele><time>2026-04-18T13:27:01Z</time></trkpt><trkpt lat="45.89320173165603" lon="9.239541270466553"><ele>1070.0</ele><time>2026-04-18T13:27:02Z</time></trkpt><trkpt lat="45.89330375268421" lon="9.2396589655437"><ele>1070.0</ele><time>2026-04-18T13:27:03Z</time></trkpt><trkpt lat="45.89339976835571" lon="9.23975216423685"><ele>1070.0</ele><time>2026-04-18T13:27:04Z</time></trkpt><trkpt lat="45.89352638835129" lon="9.239856129023101"><ele>1070.0</ele><time>2026-04-18T13:27:05Z</time></trkpt><trkpt lat="45.893602685678154" lon="9.240046225226891"><ele>1070.0</ele><time>2026-04-18T13:27:06Z</time></trkpt><trkpt lat="45.89369986554682" lon="9.240229149592107"><ele>1068.6666666666667</ele><time>2026-04-18T13:27:07Z</time></trkpt><trkpt lat="45.8938032854027" lon="9.240396115881946"><ele>1067.3333333333333</ele><time>2026-04-18T13:27:08Z</time></trkpt><trkpt lat="45.89384145674464" lon="9.240599774447757"><ele>1066.0</ele><time>2026-04-18T13:27:09Z</time></trkpt><trkpt lat="45.893890131332945" lon="9.24080133173675"><ele>1059.3333333333333</ele><time>2026-04-18T13:27:10Z</time></trkpt><trkpt lat="45.8939155881665" lon="9.241008425873776"><ele>1052.6666666666667</ele><time>2026-04-18T13:27:11Z</time></trkpt><trkpt lat="45.89397487957874" lon="9.241200450447543"><ele>1046.0</ele><time>2026-04-18T13:27:12Z</time></trkpt><trkpt lat="45.894061304974706" lon="9.241390305038424"><ele>1049.6666666666667</ele><time>2026-04-18T13:27:13Z</time></trkpt><trkpt lat="45.89416636875344" lon="9.241560914467076"><ele>1053.3333333333333</ele><time>2026-04-18T13:27:14Z</time></trkpt><trkpt lat="45.89428323407556" lon="9.241715957947996"><ele>1057.0</ele><time>2026-04-18T13:27:15Z</time></trkpt><trkpt lat="45.89440462687634" lon="9.241830525964273"><ele>1057.0</ele><time>2026-04-18T13:27:16Z</time></trkpt><trkpt lat="45.894502711706096" lon="9.241975238205965"><ele>1057.0</ele><time>2026-04-18T13:27:17Z</time></trkpt><trkpt lat="45.894538990200324" lon="9.242154381642107"><ele>1057.0</ele><time>2026-04-18T13:27:18Z</time></trkpt><trkpt lat="45.894544327010735" lon="9.242337838452645"><ele>1057.0</ele><time>2026-04-18T13:27:19Z</time></trkpt><trkpt lat="45.89451359933636" lon="9.242526611422479"><ele>1053.25</ele><time>2026-04-18T13:27:20Z</time></trkpt><trkpt lat="45.894537669611054" lon="9.242733294649877"><ele>1049.5</ele><time>2026-04-18T13:27:21Z</time></trkpt><trkpt lat="45.89461624290217" lon="9.242920499809562"><ele>1045.75</ele><time>2026-04-18T13:27:22Z</time></trkpt><trkpt lat="45.89470869189879" lon="9.243038827329798"><ele>1042.0</ele><time>2026-04-18T13:27:23Z</time></trkpt><trkpt lat="45.8947692622299" lon="9.243122491874615"><ele>1041.0</ele><time>2026-04-18T13:27:24Z</time></trkpt><trkpt lat="45.894780339960384" lon="9.243225059334316"><ele>1040.0</ele><time>2026-04-18T13:27:25Z</time></trkpt><trkpt lat="45.89474884968359" lon="9.243322773020768"><ele>1039.0</ele><time>2026-04-18T13:27:26Z</time></trkpt><trkpt lat="45.894668785041354" lon="9.243354377791253"><ele>1038.0</ele><time>2026-04-18T13:27:27Z</time></trkpt><trkpt lat="45.894565219263505" lon="9.243390602928695"><ele>1037.0</ele><time>2026-04-18T13:27:28Z</time></trkpt><trkpt lat="45.89444379160927" lon="9.243469312665743"><ele>1037.0</ele><time>2026-04-18T13:27:29Z</time></trkpt><trkpt lat="45.8943058965844" lon="9.24359657575987"><ele>1037.0</ele><time>2026-04-18T13:27:30Z</time></trkpt><trkpt lat="45.89416699724883" lon="9.243747516594128"><ele>1037.0</ele><time>2026-04-18T13:27:31Z</time></trkpt><trkpt lat="45.89405393624417" lon="9.243947022530868"><ele>1029.3333333333335</ele><time>2026-04-18T13:27:32Z</time></trkpt><trkpt lat="45.89397298483877" lon="9.244178283031232"><ele>1021.6666666666667</ele><time>2026-04-18T13:27:33Z</time></trkpt><trkpt lat="45.8939320776928" lon="9.244417969344774"><ele>1014.0</ele><time>2026-04-18T13:27:34Z</time></trkpt><trkpt lat="45.89391292565473" lon="9.24464648703854"><ele>1014.6666666666667</ele><time>2026-04-18T13:27:35Z</time></trkpt><trkpt lat="45.8939312058749" lon="9.2448716830407"><ele>1015.3333333333334</ele><time>2026-04-18T13:27:36Z</time></trkpt><trkpt lat="45.89394990575967" lon="9.245087988041908"><ele>1016.0</ele><time>2026-04-18T13:27:37Z</time></trkpt><trkpt lat="45.89397384811477" lon="9.24529681382311"><ele>1016.0</ele><time>2026-04-18T13:27:38Z</time></trkpt><trkpt lat="45.89401769443268" lon="9.245456813205998"><ele>1015.9999999999999</ele><time>2026-04-18T13:27:39Z</time></trkpt><trkpt lat="45.894084926145375" lon="9.245545730300586"><ele>1015.9999999999999</ele><time>2026-04-18T13:27:40Z</time></trkpt><trkpt lat="45.89416202905812" lon="9.245627212290154"><ele>1016.0</ele><time>2026-04-18T13:27:41Z</time></trkpt><trkpt lat="45.89420662359581" lon="9.245719527029895"><ele>1016.0</ele><time>2026-04-18T13:27:42Z</time></trkpt><trkpt lat="45.89419458289851" lon="9.24583232892452"><ele>1014.75</ele><time>2026-04-18T13:27:43Z</time></trkpt><trkpt lat="45.89413614382844" lon="9.245935551178714"><ele>1013.5</ele><time>2026-04-18T13:27:44Z</time></trkpt><trkpt lat="45.894017198682626" lon="9.245956613199075"><ele>1012.25</ele><time>2026-04-18T13:27:45Z</time></trkpt><trkpt lat="45.89386754397445" lon="9.245973354700421"><ele>1011.0</ele><time>2026-04-18T13:27:46Z</time></trkpt><trkpt lat="45.8937087342699" lon="9.245983882464614"><ele>1011.0</ele><time>2026-04-18T13:27:47Z</time></trkpt><trkpt lat="45.89353916464674" lon="9.245956253868274"><ele>1011.0</ele><time>2026-04-18T13:27:48Z</time></trkpt><trkpt lat="45.893383677394866" lon="9.245923876242985"><ele>1011.0</ele><time>2026-04-18T13:27:49Z</time></trkpt><trkpt lat="45.89322805433982" lon="9.245897869973676"><ele>1005.0</ele><time>2026-04-18T13:27:50Z</time></trkpt><trkpt lat="45.89307234557751" lon="9.245873034449765"><ele>999.0</ele><time>2026-04-18T13:27:51Z</time></trkpt><trkpt lat="45.89290931097787" lon="9.24584638709317"><ele>993.0</ele><time>2026-04-18T13:27:52Z</time></trkpt><trkpt lat="45.89274317334966" lon="9.245823196454973"><ele>992.3333333333333</ele><time>2026-04-18T13:27:53Z</time></trkpt><trkpt lat="45.89257737633689" lon="9.245794494707399"><ele>991.6666666666666</ele><time>2026-04-18T13:27:54Z</time></trkpt><trkpt lat="45.89241315744744" lon="9.245770525522255"><ele>991.0</ele><time>2026-04-18T13:27:55Z</time></trkpt><trkpt lat="45.89222831529721" lon="9.245726533699333"><ele>991.0</ele><time>2026-04-18T13:27:56Z</time></trkpt><trkpt lat="45.892019627691695" lon="9.245693677693744"><ele>991.0</ele><time>2026-04-18T13:27:57Z</time></trkpt><trkpt lat="45.8918061646819" lon="9.245647997663403"><ele>991.0</ele><time>2026-04-18T13:27:58Z</time></trkpt><trkpt lat="45.89158124459073" lon="9.245591044732661"><ele>979.3333333333333</ele><time>2026-04-18T13:27:59Z</time></trkpt><trkpt lat="45.89136845597338" lon="9.245542633221056"><ele>967.6666666666667</ele><time>2026-04-18T13:28:00Z</time></trkpt><trkpt lat="45.89118378903065" lon="9.24545595402211"><ele>956.0</ele><time>2026-04-18T13:28:01Z</time></trkpt><trkpt lat="45.89102179216673" lon="9.24538734978323"><ele>956.3333333333334</ele><time>2026-04-18T13:28:02Z</time></trkpt><trkpt lat="45.89079321361242" lon="9.245319844063303"><ele>956.6666666666667</ele><time>2026-04-18T13:28:03Z</time></trkpt><trkpt lat="45.890615843442035" lon="9.245272363970045"><ele>957.0</ele><time>2026-04-18T13:28:04Z</time></trkpt><trkpt lat="45.89043447346768" lon="9.245238981808987"><ele>957.0</ele><time>2026-04-18T13:28:05Z</time></trkpt><trkpt lat="45.89024186106621" lon="9.245224838726434"><ele>957.0</ele><time>2026-04-18T13:28:06Z</time></trkpt><trkpt lat="45.88999151360642" lon="9.245171664657557"><ele>957.0</ele><time>2026-04-18T13:28:07Z</time></trkpt><trkpt lat="45.889708071765334" lon="9.245126541970816"><ele>958.0</ele><time>2026-04-18T13:28:08Z</time></trkpt><trkpt lat="45.88943629572431" lon="9.245078169525131"><ele>959.0</ele><time>2026-04-18T13:28:09Z</time></trkpt><trkpt lat="45.88917599106458" lon="9.245026619450918"><ele>956.5</ele><time>2026-04-18T13:28:10Z</time></trkpt><trkpt lat="45.88894209577872" lon="9.244994400795523"><ele>954.0</ele><time>2026-04-18T13:28:11Z</time></trkpt><trkpt lat="45.888703370591" lon="9.244983866282402"><ele>954.0</ele><time>2026-04-18T13:28:12.001Z</time></trkpt><trkpt lat="45.88843474499213" lon="9.244997981286149"><ele>954.0</ele><time>2026-04-18T13:28:13.001Z</time></trkpt><trkpt lat="45.888189928134054" lon="9.245030569601052"><ele>951.5</ele><time>2026-04-18T13:28:14.001Z</time></trkpt><trkpt lat="45.88794572673067" lon="9.245044669360107"><ele>949.0</ele><time>2026-04-18T13:28:15.001Z</time></trkpt><trkpt lat="45.88773287560853" lon="9.245070017096053"><ele>946.0</ele><time>2026-04-18T13:28:16.001Z</time></trkpt><trkpt lat="45.887528712218966" lon="9.24511100670428"><ele>943.0</ele><time>2026-04-18T13:28:17.001Z</time></trkpt><trkpt lat="45.887327945655564" lon="9.245143736031148"><ele>940.0</ele><time>2026-04-18T13:28:18.001Z</time></trkpt><trkpt lat="45.88715235608155" lon="9.245234077519152"><ele>940.0</ele><time>2026-04-18T13:28:19.001Z</time></trkpt><trkpt lat="45.88700010509965" lon="9.245353060117823"><ele>940.0</ele><time>2026-04-18T13:28:20.001Z</time></trkpt><trkpt lat="45.8868755540947" lon="9.24536888640889"><ele>940.0</ele><time>2026-04-18T13:28:21.001Z</time></trkpt><trkpt lat="45.88679111044986" lon="9.245361210290332"><ele>940.0</ele><time>2026-04-18T13:28:22.001Z</time></trkpt><trkpt lat="45.88676127240114" lon="9.24525458648347"><ele>940.0</ele><time>2026-04-18T13:28:23.001Z</time></trkpt><trkpt lat="45.88683632066538" lon="9.245128210381436"><ele>940.0</ele><time>2026-04-18T13:28:25.001Z</time></trkpt><trkpt lat="45.88689810364785" lon="9.245097462105418"><ele>940.0</ele><time>2026-04-18T13:28:26.001Z</time></trkpt><trkpt lat="45.88700930013188" lon="9.245108752411879"><ele>940.0</ele><time>2026-04-18T13:28:27.001Z</time></trkpt><trkpt lat="45.88717866252296" lon="9.245093345361404"><ele>940.0</ele><time>2026-04-18T13:28:28.001Z</time></trkpt><trkpt lat="45.88738260271987" lon="9.244994056555251"><ele>940.0</ele><time>2026-04-18T13:28:29.001Z</time></trkpt><trkpt lat="45.88760006950265" lon="9.244821518842963"><ele>930.5</ele><time>2026-04-18T13:28:30.001Z</time></trkpt><trkpt lat="45.887851523408536" lon="9.244679681505781"><ele>921.0</ele><time>2026-04-18T13:28:31.001Z</time></trkpt><trkpt lat="45.88806147599062" lon="9.244538606534348"><ele>921.0</ele><time>2026-04-18T13:28:32.001Z</time></trkpt><trkpt lat="45.88825429705956" lon="9.244415221941518"><ele>921.0</ele><time>2026-04-18T13:28:33.001Z</time></trkpt><trkpt lat="45.88843853735251" lon="9.244300861708364"><ele>921.0</ele><time>2026-04-18T13:28:34.001Z</time></trkpt><trkpt lat="45.88866281446982" lon="9.244172586391397"><ele>926.0</ele><time>2026-04-18T13:28:35.001Z</time></trkpt><trkpt lat="45.88888970488249" lon="9.244044977639573"><ele>931.0</ele><time>2026-04-18T13:28:36.001Z</time></trkpt><trkpt lat="45.88909881083196" lon="9.243928953711707"><ele>924.0</ele><time>2026-04-18T13:28:37.001Z</time></trkpt><trkpt lat="45.88928024772387" lon="9.24386667327664"><ele>917.0</ele><time>2026-04-18T13:28:38.001Z</time></trkpt><trkpt lat="45.889447367651904" lon="9.243866116489011"><ele>910.0</ele><time>2026-04-18T13:28:39.001Z</time></trkpt><trkpt lat="45.889604346242905" lon="9.243911092607785"><ele>910.0</ele><time>2026-04-18T13:28:40Z</time></trkpt><trkpt lat="45.889731585475715" lon="9.24393534211447"><ele>910.0</ele><time>2026-04-18T13:28:41Z</time></trkpt><trkpt lat="45.88980977199955" lon="9.243974704235207"><ele>910.0</ele><time>2026-04-18T13:28:42Z</time></trkpt><trkpt lat="45.88988693804209" lon="9.243898005825812"><ele>910.0</ele><time>2026-04-18T13:28:43Z</time></trkpt><trkpt lat="45.88990403010633" lon="9.243759996216149"><ele>910.0</ele><time>2026-04-18T13:28:44Z</time></trkpt><trkpt lat="45.88985338078991" lon="9.243624703312117"><ele>910.0</ele><time>2026-04-18T13:28:45Z</time></trkpt><trkpt lat="45.88974511987901" lon="9.243563373840594"><ele>910.0</ele><time>2026-04-18T13:28:46Z</time></trkpt><trkpt lat="45.88959866181506" lon="9.243588375361094"><ele>910.0</ele><time>2026-04-18T13:28:47Z</time></trkpt><trkpt lat="45.889421592699584" lon="9.24366056075759"><ele>910.0</ele><time>2026-04-18T13:28:48Z</time></trkpt><trkpt lat="45.889226371552695" lon="9.243625206182957"><ele>909.5</ele><time>2026-04-18T13:28:49Z</time></trkpt><trkpt lat="45.88900100202261" lon="9.243606213909475"><ele>909.0</ele><time>2026-04-18T13:28:50Z</time></trkpt><trkpt lat="45.888749352511894" lon="9.243563866059125"><ele>909.0</ele><time>2026-04-18T13:28:51Z</time></trkpt><trkpt lat="45.88848474604035" lon="9.243522885434265"><ele>909.0</ele><time>2026-04-18T13:28:52Z</time></trkpt><trkpt lat="45.888206399288926" lon="9.243480103547478"><ele>903.5</ele><time>2026-04-18T13:28:53Z</time></trkpt><trkpt lat="45.88792843401661" lon="9.243440386813722"><ele>898.0</ele><time>2026-04-18T13:28:54Z</time></trkpt><trkpt lat="45.88766894359153" lon="9.243396669177367"><ele>893.5</ele><time>2026-04-18T13:28:55Z</time></trkpt><trkpt lat="45.88742794661961" lon="9.243335167061975"><ele>889.0</ele><time>2026-04-18T13:28:56Z</time></trkpt><trkpt lat="45.88719054908709" lon="9.243327363710938"><ele>889.0</ele><time>2026-04-18T13:28:57Z</time></trkpt><trkpt lat="45.8869915577735" lon="9.243254857711769"><ele>889.0</ele><time>2026-04-18T13:28:58Z</time></trkpt><trkpt lat="45.88680966846861" lon="9.24314755458421"><ele>889.0</ele><time>2026-04-18T13:28:59Z</time></trkpt><trkpt lat="45.88662106263529" lon="9.24305634270567"><ele>885.6666666666666</ele><time>2026-04-18T13:29:00Z</time></trkpt><trkpt lat="45.88644705455953" lon="9.242935754452425"><ele>882.3333333333333</ele><time>2026-04-18T13:29:01Z</time></trkpt><trkpt lat="45.8862728517561" lon="9.242829345588651"><ele>879.0</ele><time>2026-04-18T13:29:02Z</time></trkpt><trkpt lat="45.88610285630966" lon="9.242724550809493"><ele>879.0</ele><time>2026-04-18T13:29:03Z</time></trkpt><trkpt lat="45.8859385998934" lon="9.242620419991223"><ele>879.0</ele><time>2026-04-18T13:29:04Z</time></trkpt><trkpt lat="45.8857927243382" lon="9.242532282292709"><ele>879.0</ele><time>2026-04-18T13:29:05Z</time></trkpt><trkpt lat="45.88565548012394" lon="9.242512041914818"><ele>878.0</ele><time>2026-04-18T13:29:06Z</time></trkpt><trkpt lat="45.88551716115719" lon="9.242590060319"><ele>877.0</ele><time>2026-04-18T13:29:07Z</time></trkpt><trkpt lat="45.8853797164211" lon="9.242694825456809"><ele>876.0</ele><time>2026-04-18T13:29:08Z</time></trkpt><trkpt lat="45.88523717894462" lon="9.242774792718512"><ele>872.0</ele><time>2026-04-18T13:29:09Z</time></trkpt><trkpt lat="45.88508244279475" lon="9.242825027941787"><ele>868.0</ele><time>2026-04-18T13:29:10Z</time></trkpt><trkpt lat="45.88492731162142" lon="9.242867329320385"><ele>864.0</ele><time>2026-04-18T13:29:11Z</time></trkpt><trkpt lat="45.88476071103943" lon="9.242898962525702"><ele>864.0</ele><time>2026-04-18T13:29:12Z</time></trkpt><trkpt lat="45.88459773492994" lon="9.242923698027605"><ele>864.0</ele><time>2026-04-18T13:29:13Z</time></trkpt><trkpt lat="45.8844495378276" lon="9.243016830562384"><ele>864.0</ele><time>2026-04-18T13:29:14Z</time></trkpt><trkpt lat="45.88433024716272" lon="9.243147648154979"><ele>865.5</ele><time>2026-04-18T13:29:15Z</time></trkpt><trkpt lat="45.88420976564764" lon="9.243267762591548"><ele>867.0</ele><time>2026-04-18T13:29:16Z</time></trkpt><trkpt lat="45.88407447870747" lon="9.243298605963522"><ele>868.5</ele><time>2026-04-18T13:29:17Z</time></trkpt><trkpt lat="45.88392995499931" lon="9.243302893697274"><ele>870.0</ele><time>2026-04-18T13:29:18Z</time></trkpt><trkpt lat="45.88377583199073" lon="9.243300892482335"><ele>870.0</ele><time>2026-04-18T13:29:19Z</time></trkpt><trkpt lat="45.88362502422755" lon="9.243319401989362"><ele>870.0</ele><time>2026-04-18T13:29:20Z</time></trkpt><trkpt lat="45.88348373854354" lon="9.243385108447766"><ele>870.0</ele><time>2026-04-18T13:29:21Z</time></trkpt><trkpt lat="45.88335943611632" lon="9.243498815783566"><ele>870.0</ele><time>2026-04-18T13:29:22Z</time></trkpt><trkpt lat="45.88325929003243" lon="9.243649055974572"><ele>866.0</ele><time>2026-04-18T13:29:23Z</time></trkpt><trkpt lat="45.88316033178952" lon="9.243751891499038"><ele>862.0</ele><time>2026-04-18T13:29:24Z</time></trkpt><trkpt lat="45.88304086604984" lon="9.243792305398081"><ele>858.0</ele><time>2026-04-18T13:29:25Z</time></trkpt><trkpt lat="45.88286052213366" lon="9.243745059336868"><ele>854.0</ele><time>2026-04-18T13:29:26Z</time></trkpt><trkpt lat="45.88265087658042" lon="9.243787593825816"><ele>845.0</ele><time>2026-04-18T13:29:27Z</time></trkpt><trkpt lat="45.88238568077002" lon="9.243809689195201"><ele>836.0</ele><time>2026-04-18T13:29:28Z</time></trkpt><trkpt lat="45.88213625713859" lon="9.243812136245154"><ele>836.0</ele><time>2026-04-18T13:29:29Z</time></trkpt><trkpt lat="45.881921158707875" lon="9.243824772045073"><ele>836.0</ele><time>2026-04-18T13:29:30Z</time></trkpt><trkpt lat="45.881718892704455" lon="9.243839623368396"><ele>836.0</ele><time>2026-04-18T13:29:31Z</time></trkpt><trkpt lat="45.881546919269816" lon="9.24386088346823"><ele>832.6666666666667</ele><time>2026-04-18T13:29:32Z</time></trkpt><trkpt lat="45.88138060384047" lon="9.243900906673247"><ele>829.3333333333333</ele><time>2026-04-18T13:29:33Z</time></trkpt><trkpt lat="45.881231804790175" lon="9.243959643995627"><ele>826.0</ele><time>2026-04-18T13:29:34Z</time></trkpt><trkpt lat="45.88109558682181" lon="9.2440205720828"><ele>826.25</ele><time>2026-04-18T13:29:35Z</time></trkpt><trkpt lat="45.88096486246721" lon="9.244093807628358"><ele>826.5</ele><time>2026-04-18T13:29:36Z</time></trkpt><trkpt lat="45.88083267736043" lon="9.244183190852365"><ele>826.75</ele><time>2026-04-18T13:29:37Z</time></trkpt><trkpt lat="45.88070067296389" lon="9.244255310602618"><ele>827.0</ele><time>2026-04-18T13:29:38Z</time></trkpt><trkpt lat="45.88056732707548" lon="9.244315885711673"><ele>827.0</ele><time>2026-04-18T13:29:39Z</time></trkpt><trkpt lat="45.88044148533988" lon="9.244387251821669"><ele>827.0</ele><time>2026-04-18T13:29:40Z</time></trkpt><trkpt lat="45.880319884094355" lon="9.244445236252524"><ele>827.0</ele><time>2026-04-18T13:29:41Z</time></trkpt><trkpt lat="45.880208190565085" lon="9.24450193681732"><ele>827.0</ele><time>2026-04-18T13:29:42Z</time></trkpt><trkpt lat="45.88011161230763" lon="9.244567193538703"><ele>824.25</ele><time>2026-04-18T13:29:43Z</time></trkpt><trkpt lat="45.8800307231176" lon="9.244658862511999"><ele>821.5</ele><time>2026-04-18T13:29:44Z</time></trkpt><trkpt lat="45.87997884407188" lon="9.244803144933178"><ele>818.75</ele><time>2026-04-18T13:29:45Z</time></trkpt><trkpt lat="45.87996354980554" lon="9.245002302120483"><ele>816.0</ele><time>2026-04-18T13:29:46Z</time></trkpt><trkpt lat="45.879959640244806" lon="9.245201934469431"><ele>816.0</ele><time>2026-04-18T13:29:47Z</time></trkpt><trkpt lat="45.87994569908781" lon="9.245391564635806"><ele>816.0</ele><time>2026-04-18T13:29:48Z</time></trkpt><trkpt lat="45.879927512731946" lon="9.245566867198761"><ele>816.0</ele><time>2026-04-18T13:29:49Z</time></trkpt><trkpt lat="45.879912457612406" lon="9.245739132278613"><ele>816.0</ele><time>2026-04-18T13:29:50Z</time></trkpt><trkpt lat="45.87990807842438" lon="9.245912487953127"><ele>816.0</ele><time>2026-04-18T13:29:51Z</time></trkpt><trkpt lat="45.87990234900918" lon="9.246085063064884"><ele>816.0</ele><time>2026-04-18T13:29:52Z</time></trkpt><trkpt lat="45.879913458781054" lon="9.246256339109472"><ele>816.0</ele><time>2026-04-18T13:29:53Z</time></trkpt><trkpt lat="45.87992987569281" lon="9.24641925650877"><ele>816.0</ele><time>2026-04-18T13:29:54Z</time></trkpt><trkpt lat="45.87993033758775" lon="9.24655053506352"><ele>816.0</ele><time>2026-04-18T13:29:55Z</time></trkpt><trkpt lat="45.87992126697183" lon="9.246680512108"><ele>816.0</ele><time>2026-04-18T13:29:57Z</time></trkpt><trkpt lat="45.879801871201586" lon="9.246653938109208"><ele>816.0</ele><time>2026-04-18T13:29:59Z</time></trkpt><trkpt lat="45.8797643551169" lon="9.246573835518344"><ele>816.0</ele><time>2026-04-18T13:30:00Z</time></trkpt><trkpt lat="45.87977118390072" lon="9.246443460507612"><ele>816.0</ele><time>2026-04-18T13:30:01Z</time></trkpt><trkpt lat="45.87972252353135" lon="9.24627982693041"><ele>816.0</ele><time>2026-04-18T13:30:02Z</time></trkpt><trkpt lat="45.879671157036924" lon="9.246083268731164"><ele>816.0</ele><time>2026-04-18T13:30:03Z</time></trkpt><trkpt lat="45.87958685770404" lon="9.245875967460103"><ele>816.0</ele><time>2026-04-18T13:30:04Z</time></trkpt><trkpt lat="45.87948899435583" lon="9.245647125600927"><ele>816.0</ele><time>2026-04-18T13:30:05Z</time></trkpt><trkpt lat="45.87939353431579" lon="9.245416630355574"><ele>816.0</ele><time>2026-04-18T13:30:06Z</time></trkpt><trkpt lat="45.87931580053035" lon="9.24520750613472"><ele>816.0</ele><time>2026-04-18T13:30:07Z</time></trkpt><trkpt lat="45.879237471730576" lon="9.245017277767682"><ele>816.0</ele><time>2026-04-18T13:30:08Z</time></trkpt><trkpt lat="45.87917038341595" lon="9.244822880296494"><ele>810.5</ele><time>2026-04-18T13:30:09Z</time></trkpt><trkpt lat="45.87910290989209" lon="9.24465430213499"><ele>805.0</ele><time>2026-04-18T13:30:10Z</time></trkpt><trkpt lat="45.87902260298444" lon="9.244526887011464"><ele>799.5</ele><time>2026-04-18T13:30:11Z</time></trkpt><trkpt lat="45.87896408370929" lon="9.244377865587266"><ele>794.0</ele><time>2026-04-18T13:30:12Z</time></trkpt><trkpt lat="45.87892810036852" lon="9.244166138543477"><ele>794.0</ele><time>2026-04-18T13:30:13Z</time></trkpt><trkpt lat="45.8789138402019" lon="9.243968324877097"><ele>794.0</ele><time>2026-04-18T13:30:14Z</time></trkpt><trkpt lat="45.87890814111717" lon="9.243847164554602"><ele>794.0</ele><time>2026-04-18T13:30:15Z</time></trkpt><trkpt lat="45.87890155928125" lon="9.243686297329752"><ele>794.0</ele><time>2026-04-18T13:30:17Z</time></trkpt><trkpt lat="45.87889228520647" lon="9.243532422177479"><ele>794.0</ele><time>2026-04-18T13:30:24.001Z</time></trkpt><trkpt lat="45.878725872834764" lon="9.243608380767121"><ele>794.0</ele><time>2026-04-18T13:30:26.001Z</time></trkpt><trkpt lat="45.87869581249509" lon="9.243745937181346"><ele>794.0</ele><time>2026-04-18T13:30:27.001Z</time></trkpt><trkpt lat="45.87871203613094" lon="9.24389465933369"><ele>794.0</ele><time>2026-04-18T13:30:28.001Z</time></trkpt><trkpt lat="45.87872611443667" lon="9.244054667094122"><ele>794.0</ele><time>2026-04-18T13:30:29.001Z</time></trkpt><trkpt lat="45.8786822008823" lon="9.244192542035442"><ele>794.0</ele><time>2026-04-18T13:30:30.001Z</time></trkpt><trkpt lat="45.8786338667597" lon="9.244341982297776"><ele>794.0</ele><time>2026-04-18T13:30:31.001Z</time></trkpt><trkpt lat="45.878558469877454" lon="9.24448383064198"><ele>794.0</ele><time>2026-04-18T13:30:32.001Z</time></trkpt><trkpt lat="45.87848676730504" lon="9.244674962300222"><ele>794.0</ele><time>2026-04-18T13:30:33.001Z</time></trkpt><trkpt lat="45.878417500639955" lon="9.244898378281553"><ele>794.0</ele><time>2026-04-18T13:30:34Z</time></trkpt><trkpt lat="45.87839774927328" lon="9.245129684435875"><ele>790.0</ele><time>2026-04-18T13:30:35Z</time></trkpt><trkpt lat="45.87834659835406" lon="9.245332321723668"><ele>786.0</ele><time>2026-04-18T13:30:36Z</time></trkpt><trkpt lat="45.87826103029734" lon="9.245500273191999"><ele>782.0</ele><time>2026-04-18T13:30:37Z</time></trkpt><trkpt lat="45.878171384853545" lon="9.245680138788197"><ele>778.0</ele><time>2026-04-18T13:30:38Z</time></trkpt><trkpt lat="45.87808653171552" lon="9.245853987598478"><ele>778.0</ele><time>2026-04-18T13:30:39Z</time></trkpt><trkpt lat="45.87800275295398" lon="9.246027385617811"><ele>778.0</ele><time>2026-04-18T13:30:40Z</time></trkpt><trkpt lat="45.87791787411377" lon="9.246188864042066"><ele>778.0</ele><time>2026-04-18T13:30:41Z</time></trkpt><trkpt lat="45.87782461286948" lon="9.246335889648517"><ele>778.0</ele><time>2026-04-18T13:30:42Z</time></trkpt><trkpt lat="45.877714917160844" lon="9.246438822799972"><ele>775.25</ele><time>2026-04-18T13:30:43Z</time></trkpt><trkpt lat="45.87759568814817" lon="9.246514867177957"><ele>772.5</ele><time>2026-04-18T13:30:44Z</time></trkpt><trkpt lat="45.87748554952051" lon="9.246588112633528"><ele>769.75</ele><time>2026-04-18T13:30:45Z</time></trkpt><trkpt lat="45.87738694161461" lon="9.246639419179681"><ele>767.0</ele><time>2026-04-18T13:30:46Z</time></trkpt><trkpt lat="45.87730063666208" lon="9.24669812521123"><ele>767.0</ele><time>2026-04-18T13:30:47Z</time></trkpt><trkpt lat="45.877216598820894" lon="9.246759212216437"><ele>767.0</ele><time>2026-04-18T13:30:48Z</time></trkpt><trkpt lat="45.87713202206757" lon="9.246830254753162"><ele>767.0</ele><time>2026-04-18T13:30:49Z</time></trkpt><trkpt lat="45.87707087088639" lon="9.246915555448352"><ele>767.0</ele><time>2026-04-18T13:30:50Z</time></trkpt><trkpt lat="45.87701473405493" lon="9.247012259189525"><ele>767.0</ele><time>2026-04-18T13:30:51Z</time></trkpt><trkpt lat="45.87698603774185" lon="9.24712232094103"><ele>767.0</ele><time>2026-04-18T13:30:52Z</time></trkpt><trkpt lat="45.87696749051167" lon="9.247252849079318"><ele>767.6666666666666</ele><time>2026-04-18T13:30:53Z</time></trkpt><trkpt lat="45.87695786718558" lon="9.247386812951467"><ele>768.3333333333333</ele><time>2026-04-18T13:30:54Z</time></trkpt><trkpt lat="45.87695509973787" lon="9.247511693266816"><ele>769.0</ele><time>2026-04-18T13:30:55Z</time></trkpt><trkpt lat="45.87694731407094" lon="9.247627496875527"><ele>769.6666666666666</ele><time>2026-04-18T13:30:56Z</time></trkpt><trkpt lat="45.87694768779066" lon="9.247742958130257"><ele>770.3333333333334</ele><time>2026-04-18T13:30:57Z</time></trkpt><trkpt lat="45.876944269612125" lon="9.247862357359635"><ele>771.0</ele><time>2026-04-18T13:30:58Z</time></trkpt><trkpt lat="45.87693775426144" lon="9.247975726477186"><ele>771.0</ele><time>2026-04-18T13:30:59Z</time></trkpt><trkpt lat="45.87692070692542" lon="9.24810677091738"><ele>771.0</ele><time>2026-04-18T13:31:00Z</time></trkpt><trkpt lat="45.87690608485876" lon="9.248233716985798"><ele>771.0</ele><time>2026-04-18T13:31:01Z</time></trkpt><trkpt lat="45.876887702991795" lon="9.248384510090998"><ele>771.0</ele><time>2026-04-18T13:31:02Z</time></trkpt><trkpt lat="45.876864040928645" lon="9.24851767931691"><ele>771.0</ele><time>2026-04-18T13:31:03Z</time></trkpt><trkpt lat="45.87683867137658" lon="9.24864512328951"><ele>770.0</ele><time>2026-04-18T13:31:04Z</time></trkpt><trkpt lat="45.87681392869697" lon="9.248770780555134"><ele>769.0</ele><time>2026-04-18T13:31:05Z</time></trkpt><trkpt lat="45.876792555106405" lon="9.248886340609392"><ele>768.0</ele><time>2026-04-18T13:31:06Z</time></trkpt><trkpt lat="45.876774106337926" lon="9.24900227938377"><ele>767.0</ele><time>2026-04-18T13:31:07Z</time></trkpt><trkpt lat="45.876738388530704" lon="9.249123274483468"><ele>766.0</ele><time>2026-04-18T13:31:08Z</time></trkpt><trkpt lat="45.8767182948826" lon="9.249262240076416"><ele>765.0</ele><time>2026-04-18T13:31:09Z</time></trkpt><trkpt lat="45.876719924740954" lon="9.2493879519595"><ele>765.0</ele><time>2026-04-18T13:31:10Z</time></trkpt><trkpt lat="45.87672957464607" lon="9.249502343101343"><ele>765.0</ele><time>2026-04-18T13:31:11Z</time></trkpt><trkpt lat="45.87675083990877" lon="9.249610056548342"><ele>765.0</ele><time>2026-04-18T13:31:12Z</time></trkpt><trkpt lat="45.87681433932054" lon="9.249656384384192"><ele>765.0</ele><time>2026-04-18T13:31:13Z</time></trkpt><trkpt lat="45.876904523094254" lon="9.24958115034969"><ele>765.0</ele><time>2026-04-18T13:31:14Z</time></trkpt><trkpt lat="45.87696473932122" lon="9.249490873388897"><ele>765.0</ele><time>2026-04-18T13:31:15Z</time></trkpt><trkpt lat="45.877023424816095" lon="9.2494291459234"><ele>762.8333333333334</ele><time>2026-04-18T13:31:16Z</time></trkpt><trkpt lat="45.87708004228978" lon="9.249359078380184"><ele>760.6666666666666</ele><time>2026-04-18T13:31:17Z</time></trkpt><trkpt lat="45.87714410091529" lon="9.249293946085102"><ele>758.5</ele><time>2026-04-18T13:31:18Z</time></trkpt><trkpt lat="45.877192367087176" lon="9.249194244099614"><ele>756.3333333333333</ele><time>2026-04-18T13:31:19Z</time></trkpt><trkpt lat="45.877254856429985" lon="9.249208849441917"><ele>754.1666666666666</ele><time>2026-04-18T13:31:20Z</time></trkpt><trkpt lat="45.87731156663568" lon="9.249294707190353"><ele>752.0</ele><time>2026-04-18T13:31:21Z</time></trkpt><trkpt lat="45.87730887811206" lon="9.249431367192509"><ele>752.0</ele><time>2026-04-18T13:31:22Z</time></trkpt><trkpt lat="45.87726854286975" lon="9.249547280909644"><ele>752.0</ele><time>2026-04-18T13:31:23Z</time></trkpt><trkpt lat="45.877227399645456" lon="9.249666286987852"><ele>752.0</ele><time>2026-04-18T13:31:24Z</time></trkpt><trkpt lat="45.87717803005776" lon="9.249784218392788"><ele>752.0</ele><time>2026-04-18T13:31:25Z</time></trkpt><trkpt lat="45.87713433799463" lon="9.249919816202237"><ele>752.0</ele><time>2026-04-18T13:31:26Z</time></trkpt><trkpt lat="45.87708779595748" lon="9.250054099967116"><ele>750.4000000000001</ele><time>2026-04-18T13:31:27Z</time></trkpt><trkpt lat="45.87703723030495" lon="9.250178924597686"><ele>748.8000000000001</ele><time>2026-04-18T13:31:28Z</time></trkpt><trkpt lat="45.87699593928744" lon="9.250295964940069"><ele>747.2</ele><time>2026-04-18T13:31:29Z</time></trkpt><trkpt lat="45.87696799990622" lon="9.25042675169885"><ele>745.6</ele><time>2026-04-18T13:31:30Z</time></trkpt><trkpt lat="45.876962783750486" lon="9.250551067453056"><ele>744.0</ele><time>2026-04-18T13:31:31Z</time></trkpt><trkpt lat="45.87695969498083" lon="9.25067147470135"><ele>743.2</ele><time>2026-04-18T13:31:32Z</time></trkpt><trkpt lat="45.876952564458925" lon="9.250788718741902"><ele>742.4000000000001</ele><time>2026-04-18T13:31:33Z</time></trkpt><trkpt lat="45.87694397660921" lon="9.25091825897145"><ele>741.6</ele><time>2026-04-18T13:31:34Z</time></trkpt><trkpt lat="45.876919826603455" lon="9.251045265595621"><ele>740.8</ele><time>2026-04-18T13:31:35Z</time></trkpt><trkpt lat="45.87687299559353" lon="9.251174159901"><ele>740.0</ele><time>2026-04-18T13:31:36Z</time></trkpt><trkpt lat="45.87679799207884" lon="9.251272217477347"><ele>741.6</ele><time>2026-04-18T13:31:37Z</time></trkpt><trkpt lat="45.87670690318173" lon="9.251328831514106"><ele>743.2</ele><time>2026-04-18T13:31:38Z</time></trkpt><trkpt lat="45.87660910084815" lon="9.251356872606703"><ele>744.8</ele><time>2026-04-18T13:31:39Z</time></trkpt><trkpt lat="45.87650389784529" lon="9.25136328940135"><ele>746.4</ele><time>2026-04-18T13:31:40Z</time></trkpt><trkpt lat="45.87639026445142" lon="9.251356732623485"><ele>748.0</ele><time>2026-04-18T13:31:41Z</time></trkpt><trkpt lat="45.87627209969122" lon="9.251366234500821"><ele>748.0</ele><time>2026-04-18T13:31:42Z</time></trkpt><trkpt lat="45.8761492539186" lon="9.251388002601567"><ele>748.0</ele><time>2026-04-18T13:31:43Z</time></trkpt><trkpt lat="45.87602626214294" lon="9.25142669165626"><ele>748.0</ele><time>2026-04-18T13:31:44Z</time></trkpt><trkpt lat="45.8759081331492" lon="9.251496372292625"><ele>748.0</ele><time>2026-04-18T13:31:45Z</time></trkpt><trkpt lat="45.87580210722471" lon="9.251583145961003"><ele>742.6666666666667</ele><time>2026-04-18T13:31:46Z</time></trkpt><trkpt lat="45.87568624620144" lon="9.251686085930624"><ele>737.3333333333334</ele><time>2026-04-18T13:31:47Z</time></trkpt><trkpt lat="45.875549557196756" lon="9.251808274041291"><ele>732.0</ele><time>2026-04-18T13:31:48Z</time></trkpt><trkpt lat="45.87540625179082" lon="9.251930627911388"><ele>732.0</ele><time>2026-04-18T13:31:49Z</time></trkpt><trkpt lat="45.875266116198" lon="9.252050771411444"><ele>732.0</ele><time>2026-04-18T13:31:50Z</time></trkpt><trkpt lat="45.87515965405807" lon="9.252147471424271"><ele>732.0</ele><time>2026-04-18T13:31:51Z</time></trkpt><trkpt lat="45.87506084859737" lon="9.25223884582686"><ele>732.0</ele><time>2026-04-18T13:31:52Z</time></trkpt><trkpt lat="45.87496358571625" lon="9.252321048694215"><ele>730.4000000000001</ele><time>2026-04-18T13:31:53Z</time></trkpt><trkpt lat="45.874885279335004" lon="9.252410478858469"><ele>728.8000000000001</ele><time>2026-04-18T13:31:54Z</time></trkpt><trkpt lat="45.87480061185414" lon="9.252475694697168"><ele>727.2</ele><time>2026-04-18T13:31:55Z</time></trkpt><trkpt lat="45.8747120692969" lon="9.252546301680486"><ele>725.6</ele><time>2026-04-18T13:31:55.999Z</time></trkpt><trkpt lat="45.874624203713445" lon="9.252599856915516"><ele>724.0</ele><time>2026-04-18T13:31:56.999Z</time></trkpt><trkpt lat="45.87454570390173" lon="9.252622040390017"><ele>724.0</ele><time>2026-04-18T13:31:57.999Z</time></trkpt><trkpt lat="45.874465353131974" lon="9.252611384106427"><ele>724.0</ele><time>2026-04-18T13:31:58.999Z</time></trkpt><trkpt lat="45.8743866126376" lon="9.252596598139425"><ele>724.0</ele><time>2026-04-18T13:31:59.999Z</time></trkpt><trkpt lat="45.874320521692944" lon="9.252575562677045"><ele>724.0</ele><time>2026-04-18T13:32:00.999Z</time></trkpt><trkpt lat="45.87425107285564" lon="9.252553179224037"><ele>724.0</ele><time>2026-04-18T13:32:01.999Z</time></trkpt><trkpt lat="45.87413251061053" lon="9.25251733354786"><ele>724.0</ele><time>2026-04-18T13:32:03.999Z</time></trkpt><trkpt lat="45.87404247479644" lon="9.25249764697822"><ele>723.25</ele><time>2026-04-18T13:32:05.999Z</time></trkpt><trkpt lat="45.87396173756949" lon="9.252544337714822"><ele>722.5</ele><time>2026-04-18T13:32:07.999Z</time></trkpt><trkpt lat="45.87394341862439" lon="9.252632934495521"><ele>721.75</ele><time>2026-04-18T13:32:08.999Z</time></trkpt><trkpt lat="45.8740644379651" lon="9.252777522408165"><ele>721.0</ele><time>2026-04-18T13:32:10.999Z</time></trkpt><trkpt lat="45.87420837233556" lon="9.252862541464987"><ele>721.75</ele><time>2026-04-18T13:32:11.999Z</time></trkpt><trkpt lat="45.87435927695961" lon="9.252937570120775"><ele>722.5</ele><time>2026-04-18T13:32:12.999Z</time></trkpt><trkpt lat="45.87447961444701" lon="9.252996497071441"><ele>723.25</ele><time>2026-04-18T13:32:13.999Z</time></trkpt><trkpt lat="45.87457160254227" lon="9.253044074151198"><ele>724.0</ele><time>2026-04-18T13:32:14.999Z</time></trkpt><trkpt lat="45.87464082080758" lon="9.253068589634365"><ele>724.0</ele><time>2026-04-18T13:32:15.999Z</time></trkpt><trkpt lat="45.8747046091029" lon="9.25308921029308"><ele>724.0</ele><time>2026-04-18T13:32:16.999Z</time></trkpt><trkpt lat="45.87478363573086" lon="9.253100565973478"><ele>724.0</ele><time>2026-04-18T13:32:17.999Z</time></trkpt><trkpt lat="45.87486987516419" lon="9.25309970561406"><ele>724.0</ele><time>2026-04-18T13:32:18.999Z</time></trkpt><trkpt lat="45.874949661285754" lon="9.253076966307706"><ele>724.0</ele><time>2026-04-18T13:32:19.999Z</time></trkpt><trkpt lat="45.87503527544222" lon="9.253038459787955"><ele>724.0</ele><time>2026-04-18T13:32:20.999Z</time></trkpt><trkpt lat="45.87517108946417" lon="9.252986576444062"><ele>722.4000000000001</ele><time>2026-04-18T13:32:21.999Z</time></trkpt><trkpt lat="45.8752714044345" lon="9.252878757831619"><ele>720.8</ele><time>2026-04-18T13:32:22.999Z</time></trkpt><trkpt lat="45.875333085262206" lon="9.252849643123318"><ele>719.2</ele><time>2026-04-18T13:32:24Z</time></trkpt><trkpt lat="45.875403320236494" lon="9.252800575126825"><ele>717.5999999999999</ele><time>2026-04-18T13:32:27Z</time></trkpt><trkpt lat="45.875472615894516" lon="9.252834622383132"><ele>716.0</ele><time>2026-04-18T13:32:29Z</time></trkpt><trkpt lat="45.87543459348546" lon="9.253006145780095"><ele>716.0</ele><time>2026-04-18T13:32:31Z</time></trkpt><trkpt lat="45.87534674243942" lon="9.253072717992625"><ele>716.0</ele><time>2026-04-18T13:32:32Z</time></trkpt><trkpt lat="45.87526595714319" lon="9.253186726405316"><ele>716.0</ele><time>2026-04-18T13:32:33Z</time></trkpt><trkpt lat="45.87514509530858" lon="9.253297566246875"><ele>716.0</ele><time>2026-04-18T13:32:34Z</time></trkpt><trkpt lat="45.87501590649605" lon="9.253471431959861"><ele>713.0</ele><time>2026-04-18T13:32:35Z</time></trkpt><trkpt lat="45.874883844889425" lon="9.253555443184085"><ele>710.0</ele><time>2026-04-18T13:32:36Z</time></trkpt><trkpt lat="45.87475179469274" lon="9.253645140430171"><ele>707.0</ele><time>2026-04-18T13:32:37Z</time></trkpt><trkpt lat="45.87460786273323" lon="9.253693377623643"><ele>704.0</ele><time>2026-04-18T13:32:38Z</time></trkpt><trkpt lat="45.874466372855366" lon="9.253713648597548"><ele>704.0</ele><time>2026-04-18T13:32:39Z</time></trkpt><trkpt lat="45.87433489417933" lon="9.253745941364771"><ele>704.0</ele><time>2026-04-18T13:32:40Z</time></trkpt><trkpt lat="45.87420771785193" lon="9.253781529123549"><ele>704.0</ele><time>2026-04-18T13:32:41Z</time></trkpt><trkpt lat="45.87408416436438" lon="9.253814035304561"><ele>704.0</ele><time>2026-04-18T13:32:42Z</time></trkpt><trkpt lat="45.873963011910874" lon="9.253846762177913"><ele>703.8333333333333</ele><time>2026-04-18T13:32:43Z</time></trkpt><trkpt lat="45.87385530775968" lon="9.253872405185001"><ele>703.6666666666666</ele><time>2026-04-18T13:32:44Z</time></trkpt><trkpt lat="45.87376874572727" lon="9.253875697460304"><ele>703.5</ele><time>2026-04-18T13:32:45Z</time></trkpt><trkpt lat="45.873683008122704" lon="9.253873087772893"><ele>703.3333333333334</ele><time>2026-04-18T13:32:46Z</time></trkpt><trkpt lat="45.87360294903564" lon="9.25386918436756"><ele>703.1666666666667</ele><time>2026-04-18T13:32:47Z</time></trkpt><trkpt lat="45.873535208972704" lon="9.253902227120323"><ele>703.0</ele><time>2026-04-18T13:32:48Z</time></trkpt><trkpt lat="45.87350983775599" lon="9.254004136446857"><ele>699.0</ele><time>2026-04-18T13:32:49Z</time></trkpt><trkpt lat="45.8735167589922" lon="9.254094754092078"><ele>695.0</ele><time>2026-04-18T13:32:50Z</time></trkpt><trkpt lat="45.87365900177491" lon="9.254162295838565"><ele>691.0</ele><time>2026-04-18T13:32:51Z</time></trkpt><trkpt lat="45.87380321732698" lon="9.25417557953387"><ele>687.0</ele><time>2026-04-18T13:32:52Z</time></trkpt><trkpt lat="45.87395205777198" lon="9.254197723520473"><ele>687.0</ele><time>2026-04-18T13:32:53Z</time></trkpt><trkpt lat="45.874095670159655" lon="9.254219717762224"><ele>687.0</ele><time>2026-04-18T13:32:54Z</time></trkpt><trkpt lat="45.87423015087474" lon="9.254205266539286"><ele>687.0</ele><time>2026-04-18T13:32:55Z</time></trkpt><trkpt lat="45.87435763535973" lon="9.254212863971258"><ele>687.0</ele><time>2026-04-18T13:32:56Z</time></trkpt><trkpt lat="45.87446343419848" lon="9.254201001745761"><ele>687.0</ele><time>2026-04-18T13:32:57Z</time></trkpt><trkpt lat="45.87453340487642" lon="9.254204331594757"><ele>687.0</ele><time>2026-04-18T13:32:58Z</time></trkpt><trkpt lat="45.87457117060311" lon="9.254304581279325"><ele>687.0</ele><time>2026-04-18T13:33:00Z</time></trkpt><trkpt lat="45.874502005644736" lon="9.254404206206287"><ele>687.0</ele><time>2026-04-18T13:33:01Z</time></trkpt><trkpt lat="45.87439649304879" lon="9.254386604526267"><ele>687.0</ele><time>2026-04-18T13:33:02Z</time></trkpt><trkpt lat="45.87424670511795" lon="9.25440319472428"><ele>687.0</ele><time>2026-04-18T13:33:03Z</time></trkpt><trkpt lat="45.8741021544443" lon="9.254443630567712"><ele>687.0</ele><time>2026-04-18T13:33:04Z</time></trkpt><trkpt lat="45.87396640730819" lon="9.254484664412521"><ele>687.0</ele><time>2026-04-18T13:33:05Z</time></trkpt><trkpt lat="45.87380135493764" lon="9.254554394353057"><ele>687.0</ele><time>2026-04-18T13:33:06Z</time></trkpt><trkpt lat="45.87364865409188" lon="9.25460658177577"><ele>687.0</ele><time>2026-04-18T13:33:07Z</time></trkpt><trkpt lat="45.87350439060393" lon="9.254662183029833"><ele>687.0</ele><time>2026-04-18T13:33:08Z</time></trkpt><trkpt lat="45.87336438835358" lon="9.254661131483944"><ele>687.0</ele><time>2026-04-18T13:33:09Z</time></trkpt><trkpt lat="45.8732326020607" lon="9.254678506421154"><ele>686.5</ele><time>2026-04-18T13:33:10Z</time></trkpt><trkpt lat="45.87312383021205" lon="9.254659007545653"><ele>686.0</ele><time>2026-04-18T13:33:11Z</time></trkpt><trkpt lat="45.87303669955768" lon="9.254621395557558"><ele>685.5</ele><time>2026-04-18T13:33:12Z</time></trkpt><trkpt lat="45.87295690078851" lon="9.254628424891214"><ele>685.0</ele><time>2026-04-18T13:33:13Z</time></trkpt><trkpt lat="45.87289672210964" lon="9.254681284649717"><ele>684.5</ele><time>2026-04-18T13:33:14Z</time></trkpt><trkpt lat="45.872894256668346" lon="9.254804190776174"><ele>684.0</ele><time>2026-04-18T13:33:15Z</time></trkpt><trkpt lat="45.872934114130544" lon="9.25490628542318"><ele>677.3333333333334</ele><time>2026-04-18T13:33:16Z</time></trkpt><trkpt lat="45.87308214536528" lon="9.254920712120883"><ele>670.6666666666667</ele><time>2026-04-18T13:33:17Z</time></trkpt><trkpt lat="45.87323019554493" lon="9.254914765688465"><ele>664.0</ele><time>2026-04-18T13:33:18Z</time></trkpt><trkpt lat="45.87338235678312" lon="9.254960715342932"><ele>665.3333333333334</ele><time>2026-04-18T13:33:19Z</time></trkpt><trkpt lat="45.873530304187355" lon="9.255026958367235"><ele>666.6666666666666</ele><time>2026-04-18T13:33:20Z</time></trkpt><trkpt lat="45.8736953044474" lon="9.255082121666257"><ele>668.0</ele><time>2026-04-18T13:33:21Z</time></trkpt><trkpt lat="45.87382929267652" lon="9.255153728971449"><ele>668.0</ele><time>2026-04-18T13:33:22Z</time></trkpt><trkpt lat="45.87395832859308" lon="9.25521261575781"><ele>668.0</ele><time>2026-04-18T13:33:23Z</time></trkpt><trkpt lat="45.87408390617296" lon="9.255262034566512"><ele>668.0</ele><time>2026-04-18T13:33:24Z</time></trkpt><trkpt lat="45.8742086382438" lon="9.25527026336955"><ele>668.0</ele><time>2026-04-18T13:33:25Z</time></trkpt><trkpt lat="45.8743335521935" lon="9.255231348164457"><ele>667.2</ele><time>2026-04-18T13:33:26Z</time></trkpt><trkpt lat="45.87443347467872" lon="9.255222520235987"><ele>666.4</ele><time>2026-04-18T13:33:27Z</time></trkpt><trkpt lat="45.874538456173966" lon="9.255201409379682"><ele>665.6</ele><time>2026-04-18T13:33:29Z</time></trkpt><trkpt lat="45.87459261033658" lon="9.255265969562258"><ele>664.8000000000001</ele><time>2026-04-18T13:33:31Z</time></trkpt><trkpt lat="45.87454384752365" lon="9.25536763336114"><ele>664.0</ele><time>2026-04-18T13:33:32Z</time></trkpt><trkpt lat="45.87444744210248" lon="9.255413909089448"><ele>664.0</ele><time>2026-04-18T13:33:33Z</time></trkpt><trkpt lat="45.874327597620386" lon="9.255436790595652"><ele>664.0</ele><time>2026-04-18T13:33:34Z</time></trkpt><trkpt lat="45.874197118285224" lon="9.255486384085124"><ele>664.0</ele><time>2026-04-18T13:33:35Z</time></trkpt><trkpt lat="45.874063443287284" lon="9.25554413342629"><ele>664.0</ele><time>2026-04-18T13:33:36Z</time></trkpt><trkpt lat="45.873913436244656" lon="9.255609977956524"><ele>660.0</ele><time>2026-04-18T13:33:37Z</time></trkpt><trkpt lat="45.873751338689786" lon="9.255671271732748"><ele>656.0</ele><time>2026-04-18T13:33:38Z</time></trkpt><trkpt lat="45.87358940394605" lon="9.25572979214471"><ele>652.0</ele><time>2026-04-18T13:33:39Z</time></trkpt><trkpt lat="45.87341553840666" lon="9.255802384369641"><ele>650.0</ele><time>2026-04-18T13:33:40Z</time></trkpt><trkpt lat="45.87323948975798" lon="9.255880035470906"><ele>648.0</ele><time>2026-04-18T13:33:41Z</time></trkpt><trkpt lat="45.87306633262437" lon="9.255951846055986"><ele>646.0</ele><time>2026-04-18T13:33:42Z</time></trkpt><trkpt lat="45.87290757449229" lon="9.256012200068492"><ele>646.0</ele><time>2026-04-18T13:33:43Z</time></trkpt><trkpt lat="45.87277542927246" lon="9.25603806869535"><ele>646.0</ele><time>2026-04-18T13:33:44Z</time></trkpt><trkpt lat="45.87265928431121" lon="9.256005683474736"><ele>646.0</ele><time>2026-04-18T13:33:45Z</time></trkpt><trkpt lat="45.87255606482677" lon="9.25589939732688"><ele>646.0</ele><time>2026-04-18T13:33:46Z</time></trkpt><trkpt lat="45.87247237667261" lon="9.255757987012723"><ele>646.0</ele><time>2026-04-18T13:33:47Z</time></trkpt><trkpt lat="45.872400733190446" lon="9.255543034697261"><ele>646.0</ele><time>2026-04-18T13:33:48Z</time></trkpt><trkpt lat="45.8723344326131" lon="9.255300219362429"><ele>646.0</ele><time>2026-04-18T13:33:49Z</time></trkpt><trkpt lat="45.87225328792534" lon="9.255061326432312"><ele>646.0</ele><time>2026-04-18T13:33:49.999Z</time></trkpt><trkpt lat="45.872171104696896" lon="9.254841876801155"><ele>646.0</ele><time>2026-04-18T13:33:50.999Z</time></trkpt><trkpt lat="45.872064260236094" lon="9.254646923364007"><ele>646.0</ele><time>2026-04-18T13:33:51.999Z</time></trkpt><trkpt lat="45.87191317822987" lon="9.254471506296158"><ele>640.3333333333334</ele><time>2026-04-18T13:33:52.999Z</time></trkpt><trkpt lat="45.87174823369795" lon="9.254329604901974"><ele>634.6666666666666</ele><time>2026-04-18T13:33:53.999Z</time></trkpt><trkpt lat="45.871613069407175" lon="9.254184479834372"><ele>629.0</ele><time>2026-04-18T13:33:54.999Z</time></trkpt><trkpt lat="45.87150105322145" lon="9.25403917099553"><ele>630.6</ele><time>2026-04-18T13:33:55.999Z</time></trkpt><trkpt lat="45.87141264886262" lon="9.25390042657968"><ele>632.2</ele><time>2026-04-18T13:33:56.999Z</time></trkpt><trkpt lat="45.87133381137441" lon="9.25377580070205"><ele>633.8000000000001</ele><time>2026-04-18T13:33:57.999Z</time></trkpt><trkpt lat="45.87125495169401" lon="9.253735872184604"><ele>635.4</ele><time>2026-04-18T13:33:58.999Z</time></trkpt><trkpt lat="45.87119068458613" lon="9.253804015904597"><ele>637.0</ele><time>2026-04-18T13:33:59.999Z</time></trkpt><trkpt lat="45.87116368092156" lon="9.253919192829542"><ele>634.3333333333334</ele><time>2026-04-18T13:34:00.999Z</time></trkpt><trkpt lat="45.871221914618744" lon="9.254101314732628"><ele>631.6666666666666</ele><time>2026-04-18T13:34:01.999Z</time></trkpt><trkpt lat="45.871282070110155" lon="9.254319972650546"><ele>629.0</ele><time>2026-04-18T13:34:02.999Z</time></trkpt><trkpt lat="45.87134672640291" lon="9.254511125851169"><ele>629.0</ele><time>2026-04-18T13:34:03.999Z</time></trkpt><trkpt lat="45.87138907706982" lon="9.254697692107124"><ele>629.0</ele><time>2026-04-18T13:34:04.999Z</time></trkpt><trkpt lat="45.871393215574635" lon="9.254887192078533"><ele>629.0</ele><time>2026-04-18T13:34:05.999Z</time></trkpt><trkpt lat="45.8713844028339" lon="9.255067823723302"><ele>629.0</ele><time>2026-04-18T13:34:06.999Z</time></trkpt><trkpt lat="45.871363060655085" lon="9.2552524023339"><ele>627.25</ele><time>2026-04-18T13:34:07.999Z</time></trkpt><trkpt lat="45.87134193137724" lon="9.255447008923783"><ele>625.5</ele><time>2026-04-18T13:34:08.999Z</time></trkpt><trkpt lat="45.871335920982226" lon="9.255648142057103"><ele>623.75</ele><time>2026-04-18T13:34:09.999Z</time></trkpt><trkpt lat="45.87137580388993" lon="9.25586323599417"><ele>622.0</ele><time>2026-04-18T13:34:10.999Z</time></trkpt><trkpt lat="45.87143908283391" lon="9.256077305049118"><ele>620.6666666666667</ele><time>2026-04-18T13:34:11.999Z</time></trkpt><trkpt lat="45.87151687566606" lon="9.256307090584425"><ele>619.3333333333334</ele><time>2026-04-18T13:34:12.999Z</time></trkpt><trkpt lat="45.871589565098404" lon="9.256553897854634"><ele>618.0</ele><time>2026-04-18T13:34:13.999Z</time></trkpt><trkpt lat="45.87165633768748" lon="9.256798871454967"><ele>618.6666666666666</ele><time>2026-04-18T13:34:14.999Z</time></trkpt><trkpt lat="45.87172592137849" lon="9.257022524851054"><ele>619.3333333333333</ele><time>2026-04-18T13:34:15.999Z</time></trkpt><trkpt lat="45.87177562018859" lon="9.25721187125409"><ele>620.0</ele><time>2026-04-18T13:34:16.999Z</time></trkpt><trkpt lat="45.871893111516826" lon="9.257327580575216"><ele>614.5</ele><time>2026-04-18T13:34:17.999Z</time></trkpt><trkpt lat="45.87204270896611" lon="9.257383589896731"><ele>609.0</ele><time>2026-04-18T13:34:18.999Z</time></trkpt><trkpt lat="45.872186244739204" lon="9.257378972041726"><ele>603.5</ele><time>2026-04-18T13:34:19.999Z</time></trkpt><trkpt lat="45.87229078727888" lon="9.257330415043054"><ele>598.0</ele><time>2026-04-18T13:34:20.999Z</time></trkpt><trkpt lat="45.87234363780508" lon="9.257469514956261"><ele>598.0</ele><time>2026-04-18T13:34:22.999Z</time></trkpt><trkpt lat="45.87228035472179" lon="9.25754519731852"><ele>598.0</ele><time>2026-04-18T13:34:23.999Z</time></trkpt><trkpt lat="45.87215297101097" lon="9.257591621287006"><ele>598.0</ele><time>2026-04-18T13:34:24.999Z</time></trkpt><trkpt lat="45.87198874852963" lon="9.257640166492308"><ele>598.0</ele><time>2026-04-18T13:34:25.999Z</time></trkpt><trkpt lat="45.871837389102026" lon="9.257695232283895"><ele>597.25</ele><time>2026-04-18T13:34:26.999Z</time></trkpt><trkpt lat="45.87169896652131" lon="9.257743220610761"><ele>596.5</ele><time>2026-04-18T13:34:27.999Z</time></trkpt><trkpt lat="45.87157226305217" lon="9.257759499361978"><ele>595.75</ele><time>2026-04-18T13:34:28.999Z</time></trkpt><trkpt lat="45.87145749263394" lon="9.257706955034138"><ele>595.0</ele><time>2026-04-18T13:34:30Z</time></trkpt><trkpt lat="45.87134506020784" lon="9.257578385006427"><ele>595.0</ele><time>2026-04-18T13:34:31Z</time></trkpt><trkpt lat="45.87117456954915" lon="9.257449780641638"><ele>595.0</ele><time>2026-04-18T13:34:32Z</time></trkpt><trkpt lat="45.87098858091179" lon="9.257285226634684"><ele>595.0</ele><time>2026-04-18T13:34:33Z</time></trkpt><trkpt lat="45.87081489437232" lon="9.257139657181828"><ele>593.0</ele><time>2026-04-18T13:34:34Z</time></trkpt><trkpt lat="45.87064578298347" lon="9.256991133492146"><ele>591.0</ele><time>2026-04-18T13:34:35Z</time></trkpt><trkpt lat="45.87050074629536" lon="9.256853845512547"><ele>589.0</ele><time>2026-04-18T13:34:36Z</time></trkpt><trkpt lat="45.870401244076824" lon="9.256708725715267"><ele>589.0</ele><time>2026-04-18T13:34:37Z</time></trkpt><trkpt lat="45.87035608742026" lon="9.256517011615191"><ele>589.0</ele><time>2026-04-18T13:34:38Z</time></trkpt><trkpt lat="45.87029835878637" lon="9.256378131120709"><ele>589.0</ele><time>2026-04-18T13:34:39Z</time></trkpt><trkpt lat="45.870260637996736" lon="9.256262531519488"><ele>589.0</ele><time>2026-04-18T13:34:40Z</time></trkpt><trkpt lat="45.87019451804986" lon="9.256218303505092"><ele>589.0</ele><time>2026-04-18T13:34:41Z</time></trkpt><trkpt lat="45.870131208826365" lon="9.256257159631968"><ele>589.0</ele><time>2026-04-18T13:34:42Z</time></trkpt><trkpt lat="45.87010563346665" lon="9.256353090178541"><ele>589.0</ele><time>2026-04-18T13:34:43Z</time></trkpt><trkpt lat="45.87015001048237" lon="9.256499581480925"><ele>589.0</ele><time>2026-04-18T13:34:44Z</time></trkpt><trkpt lat="45.87019199220928" lon="9.25666567040269"><ele>589.0</ele><time>2026-04-18T13:34:45Z</time></trkpt><trkpt lat="45.87023110851755" lon="9.256821720517582"><ele>589.0</ele><time>2026-04-18T13:34:46Z</time></trkpt><trkpt lat="45.870268471683374" lon="9.25700437127176"><ele>589.0</ele><time>2026-04-18T13:34:47Z</time></trkpt><trkpt lat="45.87030470221354" lon="9.257197297548363"><ele>589.0</ele><time>2026-04-18T13:34:48Z</time></trkpt><trkpt lat="45.870338969592964" lon="9.257352572443127"><ele>589.0</ele><time>2026-04-18T13:34:49Z</time></trkpt><trkpt lat="45.870373057847914" lon="9.257487156585473"><ele>589.0</ele><time>2026-04-18T13:34:50Z</time></trkpt><trkpt lat="45.870399880287366" lon="9.257591320597703"><ele>589.0</ele><time>2026-04-18T13:34:51Z</time></trkpt><trkpt lat="45.87042029497323" lon="9.25767833170154"><ele>589.0</ele><time>2026-04-18T13:34:52Z</time></trkpt><trkpt lat="45.87031607381471" lon="9.25772582066689"><ele>589.0</ele><time>2026-04-18T13:34:54Z</time></trkpt><trkpt lat="45.870264418058255" lon="9.257656702789399"><ele>589.0</ele><time>2026-04-18T13:34:55Z</time></trkpt><trkpt lat="45.87025730315031" lon="9.257505939232043"><ele>589.0</ele><time>2026-04-18T13:34:56Z</time></trkpt><trkpt lat="45.870217610358566" lon="9.25732191061592"><ele>589.0</ele><time>2026-04-18T13:34:57Z</time></trkpt><trkpt lat="45.87013333858895" lon="9.257106235859759"><ele>584.25</ele><time>2026-04-18T13:34:58Z</time></trkpt><trkpt lat="45.870063192203816" lon="9.25692524875131"><ele>579.5</ele><time>2026-04-18T13:34:59Z</time></trkpt><trkpt lat="45.87001129490319" lon="9.256745399054083"><ele>574.75</ele><time>2026-04-18T13:35:00Z</time></trkpt><trkpt lat="45.86994856682324" lon="9.256576748448285"><ele>570.0</ele><time>2026-04-18T13:35:01Z</time></trkpt><trkpt lat="45.86988526568705" lon="9.256399545488645"><ele>570.0</ele><time>2026-04-18T13:35:02Z</time></trkpt><trkpt lat="45.86988044578292" lon="9.256196922421474"><ele>570.0</ele><time>2026-04-18T13:35:03Z</time></trkpt><trkpt lat="45.86988120820328" lon="9.256025160237959"><ele>570.0</ele><time>2026-04-18T13:35:04Z</time></trkpt><trkpt lat="45.86989731484676" lon="9.255912105097439"><ele>570.0</ele><time>2026-04-18T13:35:05Z</time></trkpt><trkpt lat="45.86992238713261" lon="9.25582065465478"><ele>570.0</ele><time>2026-04-18T13:35:06Z</time></trkpt><trkpt lat="45.86993986059823" lon="9.255727229006828"><ele>569.3333333333334</ele><time>2026-04-18T13:35:07Z</time></trkpt><trkpt lat="45.86995887689313" lon="9.255592711377743"><ele>568.6666666666666</ele><time>2026-04-18T13:35:09Z</time></trkpt><trkpt lat="45.869957063176116" lon="9.255495686651889"><ele>568.0</ele><time>2026-04-18T13:35:11Z</time></trkpt><trkpt lat="45.86994982476828" lon="9.255398683488291"><ele>567.3333333333333</ele><time>2026-04-18T13:35:33Z</time></trkpt><trkpt lat="45.86988972464692" lon="9.255331860546832"><ele>566.6666666666666</ele><time>2026-04-18T13:35:35Z</time></trkpt><trkpt lat="45.869775144527395" lon="9.255404928287925"><ele>566.0</ele><time>2026-04-18T13:35:39Z</time></trkpt><trkpt lat="45.869743453104974" lon="9.255591195202735"><ele>567.3333333333333</ele><time>2026-04-18T13:35:40Z</time></trkpt><trkpt lat="45.869730706975794" lon="9.255802107796328"><ele>568.6666666666666</ele><time>2026-04-18T13:35:41Z</time></trkpt><trkpt lat="45.8697313193716" lon="9.256045409696311"><ele>570.0</ele><time>2026-04-18T13:35:42Z</time></trkpt><trkpt lat="45.869726763388286" lon="9.256281170027496"><ele>569.25</ele><time>2026-04-18T13:35:43Z</time></trkpt><trkpt lat="45.869710982656066" lon="9.256486417497948"><ele>568.5</ele><time>2026-04-18T13:35:44Z</time></trkpt><trkpt lat="45.86968524757384" lon="9.25668781706639"><ele>567.75</ele><time>2026-04-18T13:35:44.999Z</time></trkpt><trkpt lat="45.869644986564616" lon="9.256886153474214"><ele>567.0</ele><time>2026-04-18T13:35:45.999Z</time></trkpt><trkpt lat="45.86956104269034" lon="9.257050556764904"><ele>567.0</ele><time>2026-04-18T13:35:46.999Z</time></trkpt><trkpt lat="45.869493236228216" lon="9.257218965433633"><ele>567.0</ele><time>2026-04-18T13:35:47.999Z</time></trkpt><trkpt lat="45.869426948827766" lon="9.257409028492454"><ele>567.0</ele><time>2026-04-18T13:35:48.999Z</time></trkpt><trkpt lat="45.86938752972663" lon="9.257646721230376"><ele>566.3333333333334</ele><time>2026-04-18T13:35:49.999Z</time></trkpt><trkpt lat="45.86932967349534" lon="9.25789035722493"><ele>565.6666666666667</ele><time>2026-04-18T13:35:50.999Z</time></trkpt><trkpt lat="45.869204135838274" lon="9.25809029125693"><ele>565.0</ele><time>2026-04-18T13:35:51.999Z</time></trkpt><trkpt lat="45.869093975782846" lon="9.258310953238647"><ele>557.0</ele><time>2026-04-18T13:35:52.999Z</time></trkpt><trkpt lat="45.868974349634584" lon="9.258518578039588"><ele>549.0</ele><time>2026-04-18T13:35:53.999Z</time></trkpt><trkpt lat="45.86887241397391" lon="9.258718500933636"><ele>541.0</ele><time>2026-04-18T13:35:54.999Z</time></trkpt><trkpt lat="45.868788205535985" lon="9.25890564233951"><ele>541.75</ele><time>2026-04-18T13:35:55.999Z</time></trkpt><trkpt lat="45.868753930593044" lon="9.259109830495378"><ele>542.5</ele><time>2026-04-18T13:35:56.999Z</time></trkpt><trkpt lat="45.8687586614235" lon="9.25932246238306"><ele>543.25</ele><time>2026-04-18T13:35:57.999Z</time></trkpt><trkpt lat="45.86880351042738" lon="9.259519492907401"><ele>544.0</ele><time>2026-04-18T13:35:58.999Z</time></trkpt><trkpt lat="45.868884686157955" lon="9.259679842060375"><ele>545.3333333333334</ele><time>2026-04-18T13:35:59.999Z</time></trkpt><trkpt lat="45.86900005033639" lon="9.25983350933569"><ele>546.6666666666666</ele><time>2026-04-18T13:36:00.999Z</time></trkpt><trkpt lat="45.86913830273552" lon="9.259976563627376"><ele>548.0</ele><time>2026-04-18T13:36:01.999Z</time></trkpt><trkpt lat="45.86927693530717" lon="9.260161748279819"><ele>548.0</ele><time>2026-04-18T13:36:02.999Z</time></trkpt><trkpt lat="45.86940917861133" lon="9.260305117144997"><ele>548.0</ele><time>2026-04-18T13:36:03.999Z</time></trkpt><trkpt lat="45.86952652695757" lon="9.26046944749461"><ele>548.0</ele><time>2026-04-18T13:36:04.999Z</time></trkpt><trkpt lat="45.869636718221734" lon="9.26062329848012"><ele>542.75</ele><time>2026-04-18T13:36:05.999Z</time></trkpt><trkpt lat="45.86974574347026" lon="9.260755781344242"><ele>537.5</ele><time>2026-04-18T13:36:06.999Z</time></trkpt><trkpt lat="45.869830323107834" lon="9.260842042074497"><ele>532.25</ele><time>2026-04-18T13:36:07.999Z</time></trkpt><trkpt lat="45.86999641416447" lon="9.26092369103763"><ele>527.0</ele><time>2026-04-18T13:36:08.999Z</time></trkpt><trkpt lat="45.870159617424356" lon="9.260963262886493"><ele>527.0</ele><time>2026-04-18T13:36:09.999Z</time></trkpt><trkpt lat="45.87031347509998" lon="9.260993939948227"><ele>527.0</ele><time>2026-04-18T13:36:10.999Z</time></trkpt><trkpt lat="45.870458792876605" lon="9.261039411837004"><ele>527.0</ele><time>2026-04-18T13:36:11.999Z</time></trkpt><trkpt lat="45.87060211220119" lon="9.26109063193272"><ele>527.0</ele><time>2026-04-18T13:36:12.999Z</time></trkpt><trkpt lat="45.8707430395949" lon="9.261116345901552"><ele>527.0</ele><time>2026-04-18T13:36:13.999Z</time></trkpt><trkpt lat="45.87087765257015" lon="9.261071725631485"><ele>527.0</ele><time>2026-04-18T13:36:14.999Z</time></trkpt><trkpt lat="45.87099579817396" lon="9.260969907549343"><ele>527.0</ele><time>2026-04-18T13:36:15.999Z</time></trkpt><trkpt lat="45.87109106557013" lon="9.260874162121114"><ele>527.3333333333333</ele><time>2026-04-18T13:36:16.999Z</time></trkpt><trkpt lat="45.871193586790696" lon="9.260690575991553"><ele>527.6666666666666</ele><time>2026-04-18T13:36:17.999Z</time></trkpt><trkpt lat="45.87131824744676" lon="9.260513051048205"><ele>528.0</ele><time>2026-04-18T13:36:18.999Z</time></trkpt><trkpt lat="45.87147343188192" lon="9.260368554889551"><ele>528.0</ele><time>2026-04-18T13:36:19.999Z</time></trkpt><trkpt lat="45.87164448245605" lon="9.260227837928577"><ele>528.0</ele><time>2026-04-18T13:36:20.999Z</time></trkpt><trkpt lat="45.87180694657417" lon="9.260093731082092"><ele>528.0</ele><time>2026-04-18T13:36:21.999Z</time></trkpt><trkpt lat="45.87196153338379" lon="9.259973770871326"><ele>530.25</ele><time>2026-04-18T13:36:22.999Z</time></trkpt><trkpt lat="45.8720959381235" lon="9.259875523975735"><ele>532.5</ele><time>2026-04-18T13:36:23.999Z</time></trkpt><trkpt lat="45.872204403816134" lon="9.259798223625157"><ele>534.75</ele><time>2026-04-18T13:36:24.999Z</time></trkpt><trkpt lat="45.872323116995986" lon="9.259780289258886"><ele>537.0</ele><time>2026-04-18T13:36:25.999Z</time></trkpt><trkpt lat="45.87243832846624" lon="9.25978996248092"><ele>531.75</ele><time>2026-04-18T13:36:26.999Z</time></trkpt><trkpt lat="45.87255324929476" lon="9.25982760026281"><ele>526.5</ele><time>2026-04-18T13:36:27.999Z</time></trkpt><trkpt lat="45.8726773265247" lon="9.259867332228877"><ele>521.25</ele><time>2026-04-18T13:36:28.999Z</time></trkpt><trkpt lat="45.872793671827374" lon="9.259910565917895"><ele>516.0</ele><time>2026-04-18T13:36:29.999Z</time></trkpt><trkpt lat="45.872899240861884" lon="9.259969001290544"><ele>516.0</ele><time>2026-04-18T13:36:30.999Z</time></trkpt><trkpt lat="45.87298931469976" lon="9.260072360428689"><ele>516.0</ele><time>2026-04-18T13:36:31.999Z</time></trkpt><trkpt lat="45.873016674620814" lon="9.260226118005598"><ele>516.0</ele><time>2026-04-18T13:36:32.999Z</time></trkpt><trkpt lat="45.8730055385816" lon="9.260370780649113"><ele>516.0</ele><time>2026-04-18T13:36:33.999Z</time></trkpt><trkpt lat="45.872953319625196" lon="9.26051121676474"><ele>516.0</ele><time>2026-04-18T13:36:34.999Z</time></trkpt><trkpt lat="45.872915474048234" lon="9.260673658373884"><ele>512.5</ele><time>2026-04-18T13:36:36Z</time></trkpt><trkpt lat="45.87286292692483" lon="9.26078131415071"><ele>509.0</ele><time>2026-04-18T13:36:37Z</time></trkpt><trkpt lat="45.87283324100249" lon="9.260871405679474"><ele>505.5</ele><time>2026-04-18T13:36:38Z</time></trkpt><trkpt lat="45.87282644930038" lon="9.26101662878314"><ele>502.0</ele><time>2026-04-18T13:36:40Z</time></trkpt><trkpt lat="45.872639842812376" lon="9.261182492517497"><ele>504.6666666666667</ele><time>2026-04-18T13:36:42Z</time></trkpt><trkpt lat="45.87249169183733" lon="9.261294460760885"><ele>507.33333333333337</ele><time>2026-04-18T13:36:43Z</time></trkpt><trkpt lat="45.87233423709171" lon="9.26144381319248"><ele>510.0</ele><time>2026-04-18T13:36:44Z</time></trkpt><trkpt lat="45.87216694042401" lon="9.261588406012066"><ele>510.0</ele><time>2026-04-18T13:36:45Z</time></trkpt><trkpt lat="45.872013706072664" lon="9.261749210889452"><ele>510.0</ele><time>2026-04-18T13:36:46Z</time></trkpt><trkpt lat="45.871857506728404" lon="9.261903145169347"><ele>510.0</ele><time>2026-04-18T13:36:47Z</time></trkpt><trkpt lat="45.87169963675371" lon="9.262061485162224"><ele>508.0</ele><time>2026-04-18T13:36:48Z</time></trkpt><trkpt lat="45.87153715796959" lon="9.262227340062687"><ele>506.0</ele><time>2026-04-18T13:36:49Z</time></trkpt><trkpt lat="45.87139126697304" lon="9.262376507667462"><ele>504.0</ele><time>2026-04-18T13:36:50Z</time></trkpt><trkpt lat="45.87124018245642" lon="9.262491228499702"><ele>504.0</ele><time>2026-04-18T13:36:51Z</time></trkpt><trkpt lat="45.87109938338959" lon="9.262609983614047"><ele>504.0</ele><time>2026-04-18T13:36:52Z</time></trkpt><trkpt lat="45.870968927872326" lon="9.262750165052086"><ele>504.0</ele><time>2026-04-18T13:36:53Z</time></trkpt><trkpt lat="45.87081772879238" lon="9.262816066836088"><ele>499.33333333333337</ele><time>2026-04-18T13:36:54Z</time></trkpt><trkpt lat="45.870637340441895" lon="9.262827767213986"><ele>494.6666666666667</ele><time>2026-04-18T13:36:55Z</time></trkpt><trkpt lat="45.8704480490479" lon="9.262793935521163"><ele>490.0</ele><time>2026-04-18T13:36:56Z</time></trkpt><trkpt lat="45.87026693706679" lon="9.262730718458815"><ele>487.33333333333337</ele><time>2026-04-18T13:36:57Z</time></trkpt><trkpt lat="45.87010055709225" lon="9.26269816187871"><ele>484.66666666666663</ele><time>2026-04-18T13:36:58Z</time></trkpt><trkpt lat="45.869954836105556" lon="9.262672325037455"><ele>482.0</ele><time>2026-04-18T13:36:59Z</time></trkpt><trkpt lat="45.869809453122144" lon="9.26270091386873"><ele>482.0</ele><time>2026-04-18T13:37:00Z</time></trkpt><trkpt lat="45.869658991350775" lon="9.262806696314605"><ele>482.0</ele><time>2026-04-18T13:37:01Z</time></trkpt><trkpt lat="45.8695382060955" lon="9.2629645281018"><ele>482.0</ele><time>2026-04-18T13:37:02Z</time></trkpt><trkpt lat="45.869473844156616" lon="9.263158018562171"><ele>487.25</ele><time>2026-04-18T13:37:03Z</time></trkpt><trkpt lat="45.869464922021066" lon="9.263389138986758"><ele>492.5</ele><time>2026-04-18T13:37:04Z</time></trkpt><trkpt lat="45.86947500949656" lon="9.263622658640784"><ele>497.75</ele><time>2026-04-18T13:37:05Z</time></trkpt><trkpt lat="45.8694489339598" lon="9.263784526563388"><ele>503.0</ele><time>2026-04-18T13:37:06Z</time></trkpt><trkpt lat="45.86942182538401" lon="9.263935765265456"><ele>499.25</ele><time>2026-04-18T13:37:07Z</time></trkpt><trkpt lat="45.86932484585983" lon="9.264064982073815"><ele>495.5</ele><time>2026-04-18T13:37:08Z</time></trkpt><trkpt lat="45.869244920148" lon="9.264190795171025"><ele>491.75</ele><time>2026-04-18T13:37:09Z</time></trkpt><trkpt lat="45.86918250023059" lon="9.264306830001106"><ele>488.0</ele><time>2026-04-18T13:37:10Z</time></trkpt><trkpt lat="45.86911989650245" lon="9.264415492024602"><ele>488.0</ele><time>2026-04-18T13:37:11Z</time></trkpt><trkpt lat="45.869060858930204" lon="9.264514463927522"><ele>487.99999999999994</ele><time>2026-04-18T13:37:12Z</time></trkpt><trkpt lat="45.869003972089544" lon="9.264611544149886"><ele>487.99999999999994</ele><time>2026-04-18T13:37:13Z</time></trkpt><trkpt lat="45.86893388078016" lon="9.264730011596232"><ele>488.0</ele><time>2026-04-18T13:37:14Z</time></trkpt><trkpt lat="45.868866161867366" lon="9.264857250453806"><ele>488.0</ele><time>2026-04-18T13:37:15Z</time></trkpt><trkpt lat="45.868798300747855" lon="9.264986924910579"><ele>486.5</ele><time>2026-04-18T13:37:16Z</time></trkpt><trkpt lat="45.86872138893529" lon="9.26511187801394"><ele>485.0</ele><time>2026-04-18T13:37:17Z</time></trkpt><trkpt lat="45.868607697753255" lon="9.265174347866978"><ele>483.5</ele><time>2026-04-18T13:37:18Z</time></trkpt><trkpt lat="45.86849761358002" lon="9.26521692071738"><ele>482.0</ele><time>2026-04-18T13:37:19Z</time></trkpt><trkpt lat="45.86839803316372" lon="9.265270193684255"><ele>482.0</ele><time>2026-04-18T13:37:20Z</time></trkpt><trkpt lat="45.86829559013581" lon="9.265292401931218"><ele>482.0</ele><time>2026-04-18T13:37:21Z</time></trkpt><trkpt lat="45.86818589094586" lon="9.26532795423228"><ele>482.0</ele><time>2026-04-18T13:37:22Z</time></trkpt><trkpt lat="45.86807046958891" lon="9.265367516013718"><ele>482.0</ele><time>2026-04-18T13:37:23Z</time></trkpt><trkpt lat="45.867955776915274" lon="9.265405054847246"><ele>482.0</ele><time>2026-04-18T13:37:24Z</time></trkpt><trkpt lat="45.867850406219794" lon="9.265445622673202"><ele>482.00000000000006</ele><time>2026-04-18T13:37:25Z</time></trkpt><trkpt lat="45.86775388758914" lon="9.265478708663995"><ele>482.00000000000006</ele><time>2026-04-18T13:37:26Z</time></trkpt><trkpt lat="45.86764880000619" lon="9.265518094985628"><ele>482.0</ele><time>2026-04-18T13:37:27Z</time></trkpt><trkpt lat="45.8675381363413" lon="9.265554954591446"><ele>482.0</ele><time>2026-04-18T13:37:28Z</time></trkpt><trkpt lat="45.867429067475115" lon="9.265600991988384"><ele>483.5</ele><time>2026-04-18T13:37:29Z</time></trkpt><trkpt lat="45.86731928056428" lon="9.265663652581638"><ele>485.0</ele><time>2026-04-18T13:37:30Z</time></trkpt><trkpt lat="45.867209019605845" lon="9.26574973347571"><ele>486.5</ele><time>2026-04-18T13:37:31Z</time></trkpt><trkpt lat="45.86708233859552" lon="9.265858876993436"><ele>488.0</ele><time>2026-04-18T13:37:32Z</time></trkpt><trkpt lat="45.86697524839466" lon="9.265981824889582"><ele>488.0</ele><time>2026-04-18T13:37:32.999Z</time></trkpt><trkpt lat="45.86690186121293" lon="9.266101308852388"><ele>488.0</ele><time>2026-04-18T13:37:33.999Z</time></trkpt><trkpt lat="45.86683061239497" lon="9.26623774398473"><ele>488.0</ele><time>2026-04-18T13:37:34.999Z</time></trkpt><trkpt lat="45.866767511630215" lon="9.266369287693397"><ele>488.0</ele><time>2026-04-18T13:37:35.999Z</time></trkpt><trkpt lat="45.8666991281955" lon="9.266499322064945"><ele>487.5</ele><time>2026-04-18T13:37:36.999Z</time></trkpt><trkpt lat="45.86662269965074" lon="9.266647112913475"><ele>487.0</ele><time>2026-04-18T13:37:37.999Z</time></trkpt><trkpt lat="45.86655062020403" lon="9.266781018371919"><ele>486.5</ele><time>2026-04-18T13:37:38.999Z</time></trkpt><trkpt lat="45.866475905356864" lon="9.266905661155429"><ele>486.0</ele><time>2026-04-18T13:37:39.999Z</time></trkpt><trkpt lat="45.86641281996519" lon="9.267027179195281"><ele>486.0</ele><time>2026-04-18T13:37:40.999Z</time></trkpt><trkpt lat="45.866346026658306" lon="9.267148327800932"><ele>486.0</ele><time>2026-04-18T13:37:41.999Z</time></trkpt><trkpt lat="45.86627632190093" lon="9.267288328816846"><ele>486.0</ele><time>2026-04-18T13:37:42.999Z</time></trkpt><trkpt lat="45.866203316482704" lon="9.267432950524801"><ele>486.0</ele><time>2026-04-18T13:37:43.999Z</time></trkpt><trkpt lat="45.86612535672952" lon="9.267581272581726"><ele>485.25</ele><time>2026-04-18T13:37:44.999Z</time></trkpt><trkpt lat="45.86604797139165" lon="9.26771896806976"><ele>484.5</ele><time>2026-04-18T13:37:45.999Z</time></trkpt><trkpt lat="45.86596988012172" lon="9.26786899253864"><ele>483.75</ele><time>2026-04-18T13:37:46.999Z</time></trkpt><trkpt lat="45.8658988074889" lon="9.268017647414961"><ele>483.0</ele><time>2026-04-18T13:37:47.999Z</time></trkpt><trkpt lat="45.86583878953413" lon="9.26817733234758"><ele>483.0</ele><time>2026-04-18T13:37:48.999Z</time></trkpt><trkpt lat="45.86578442964332" lon="9.268350178448761"><ele>483.0</ele><time>2026-04-18T13:37:49.999Z</time></trkpt><trkpt lat="45.86573263063631" lon="9.2685268538989"><ele>483.0</ele><time>2026-04-18T13:37:50.999Z</time></trkpt><trkpt lat="45.865681948712044" lon="9.268704969689512"><ele>483.0</ele><time>2026-04-18T13:37:51.999Z</time></trkpt><trkpt lat="45.865614211161855" lon="9.268879663111665"><ele>485.5</ele><time>2026-04-18T13:37:52.999Z</time></trkpt><trkpt lat="45.865559277564586" lon="9.26905840126396"><ele>488.0</ele><time>2026-04-18T13:37:53.999Z</time></trkpt><trkpt lat="45.8655082149515" lon="9.269223144791404"><ele>490.5</ele><time>2026-04-18T13:37:54.999Z</time></trkpt><trkpt lat="45.865464118210724" lon="9.26936559192077"><ele>493.0</ele><time>2026-04-18T13:37:55.999Z</time></trkpt><trkpt lat="45.86542539385222" lon="9.269490493806757"><ele>493.0</ele><time>2026-04-18T13:37:56.999Z</time></trkpt><trkpt lat="45.86538507990884" lon="9.269620324904505"><ele>493.0</ele><time>2026-04-18T13:37:57.999Z</time></trkpt><trkpt lat="45.865343806791195" lon="9.269753245022539"><ele>493.0</ele><time>2026-04-18T13:37:58.999Z</time></trkpt><trkpt lat="45.86528976813688" lon="9.269927276569796"><ele>493.0</ele><time>2026-04-18T13:37:59.999Z</time></trkpt><trkpt lat="45.86521989808642" lon="9.270152070697963"><ele>490.33333333333337</ele><time>2026-04-18T13:38:00.999Z</time></trkpt><trkpt lat="45.86514661297745" lon="9.270386889956306"><ele>487.66666666666663</ele><time>2026-04-18T13:38:01.999Z</time></trkpt><trkpt lat="45.86507474219472" lon="9.27062464567352"><ele>485.0</ele><time>2026-04-18T13:38:02.999Z</time></trkpt><trkpt lat="45.86502068851073" lon="9.270854398868515"><ele>485.0</ele><time>2026-04-18T13:38:03.999Z</time></trkpt><trkpt lat="45.864926280150954" lon="9.271046788002083"><ele>485.0</ele><time>2026-04-18T13:38:04.999Z</time></trkpt><trkpt lat="45.86484824467575" lon="9.271251613660683"><ele>485.0</ele><time>2026-04-18T13:38:06.016Z</time></trkpt><trkpt lat="45.86477358679494" lon="9.271456790027372"><ele>487.75</ele><time>2026-04-18T13:38:07.016Z</time></trkpt><trkpt lat="45.86469607785893" lon="9.271657061579603"><ele>490.5</ele><time>2026-04-18T13:38:07.999Z</time></trkpt><trkpt lat="45.86469332931091" lon="9.271854585655415"><ele>493.25</ele><time>2026-04-18T13:38:08.999Z</time></trkpt><trkpt lat="45.86464139943999" lon="9.272028745445235"><ele>496.0</ele><time>2026-04-18T13:38:09.999Z</time></trkpt><trkpt lat="45.86458578651404" lon="9.272210024539213"><ele>499.25</ele><time>2026-04-18T13:38:10.999Z</time></trkpt><trkpt lat="45.86452936502616" lon="9.272393939267063"><ele>502.5</ele><time>2026-04-18T13:38:11.999Z</time></trkpt><trkpt lat="45.86447487651545" lon="9.272570131374156"><ele>505.75</ele><time>2026-04-18T13:38:12.999Z</time></trkpt><trkpt lat="45.8644177796175" lon="9.27275404771309"><ele>509.0</ele><time>2026-04-18T13:38:13.999Z</time></trkpt><trkpt lat="45.8643579747277" lon="9.272948621530354"><ele>514.75</ele><time>2026-04-18T13:38:14.999Z</time></trkpt><trkpt lat="45.86430220824655" lon="9.273153375498838"><ele>520.5</ele><time>2026-04-18T13:38:15.999Z</time></trkpt><trkpt lat="45.86427552833015" lon="9.273351835465794"><ele>526.25</ele><time>2026-04-18T13:38:16.999Z</time></trkpt><trkpt lat="45.8642365150641" lon="9.273539597966307"><ele>532.0</ele><time>2026-04-18T13:38:17.999Z</time></trkpt><trkpt lat="45.86420339361231" lon="9.273708130555493"><ele>518.8000000000001</ele><time>2026-04-18T13:38:18.999Z</time></trkpt><trkpt lat="45.86418011352036" lon="9.27386086096887"><ele>505.6</ele><time>2026-04-18T13:38:19.999Z</time></trkpt><trkpt lat="45.86415584990698" lon="9.2740233426061"><ele>492.40000000000003</ele><time>2026-04-18T13:38:20.999Z</time></trkpt><trkpt lat="45.86413323499565" lon="9.27417535160101"><ele>479.20000000000005</ele><time>2026-04-18T13:38:21.999Z</time></trkpt><trkpt lat="45.864115563416" lon="9.27429037471075"><ele>466.0</ele><time>2026-04-18T13:38:22.999Z</time></trkpt><trkpt lat="45.864100724891" lon="9.274412555869157"><ele>466.0</ele><time>2026-04-18T13:38:23.999Z</time></trkpt><trkpt lat="45.86407988242603" lon="9.274535812826873"><ele>466.0</ele><time>2026-04-18T13:38:24.999Z</time></trkpt><trkpt lat="45.864058602804306" lon="9.274676766343987"><ele>466.0</ele><time>2026-04-18T13:38:25.999Z</time></trkpt><trkpt lat="45.86403596723209" lon="9.274824456118909"><ele>466.0</ele><time>2026-04-18T13:38:26.999Z</time></trkpt><trkpt lat="45.86400381829483" lon="9.274985530095543"><ele>466.0</ele><time>2026-04-18T13:38:27.999Z</time></trkpt><trkpt lat="45.863941898883645" lon="9.275120996522515"><ele>467.6</ele><time>2026-04-18T13:38:28.999Z</time></trkpt><trkpt lat="45.86389652226436" lon="9.275266857701117"><ele>469.20000000000005</ele><time>2026-04-18T13:38:29.999Z</time></trkpt><trkpt lat="45.86382852121023" lon="9.275384873529454"><ele>470.79999999999995</ele><time>2026-04-18T13:38:30.999Z</time></trkpt><trkpt lat="45.86375569469886" lon="9.275502026990338"><ele>472.4</ele><time>2026-04-18T13:38:31.999Z</time></trkpt><trkpt lat="45.86367010581989" lon="9.27559545175979"><ele>474.0</ele><time>2026-04-18T13:38:32.999Z</time></trkpt><trkpt lat="45.86358054257333" lon="9.275677076321665"><ele>475.79999999999995</ele><time>2026-04-18T13:38:33.999Z</time></trkpt><trkpt lat="45.86348744418311" lon="9.275764057824542"><ele>477.59999999999997</ele><time>2026-04-18T13:38:34.999Z</time></trkpt><trkpt lat="45.863397588047604" lon="9.275840458497054"><ele>479.4</ele><time>2026-04-18T13:38:35.999Z</time></trkpt><trkpt lat="45.86330066041783" lon="9.275890208959567"><ele>481.2</ele><time>2026-04-18T13:38:36.999Z</time></trkpt><trkpt lat="45.863185689955245" lon="9.275906493309886"><ele>483.0</ele><time>2026-04-18T13:38:37.999Z</time></trkpt><trkpt lat="45.86309078428355" lon="9.275942789695781"><ele>476.0</ele><time>2026-04-18T13:38:38.999Z</time></trkpt><trkpt lat="45.86298459019946" lon="9.275948817743343"><ele>468.99999999999994</ele><time>2026-04-18T13:38:39.999Z</time></trkpt><trkpt lat="45.86288151150536" lon="9.275934460446427"><ele>461.99999999999994</ele><time>2026-04-18T13:38:40.999Z</time></trkpt><trkpt lat="45.8627783634505" lon="9.275913700528497"><ele>455.0</ele><time>2026-04-18T13:38:42Z</time></trkpt><trkpt lat="45.86268089615406" lon="9.275876762982664"><ele>448.0</ele><time>2026-04-18T13:38:43Z</time></trkpt><trkpt lat="45.862589260347264" lon="9.27583497410313"><ele>446.4</ele><time>2026-04-18T13:38:44Z</time></trkpt><trkpt lat="45.86251261716689" lon="9.275789480913762"><ele>444.79999999999995</ele><time>2026-04-18T13:38:45Z</time></trkpt><trkpt lat="45.86246073321721" lon="9.275726578223386"><ele>443.2</ele><time>2026-04-18T13:38:46Z</time></trkpt><trkpt lat="45.86238482865491" lon="9.275666312492929"><ele>441.6</ele><time>2026-04-18T13:38:48Z</time></trkpt><trkpt lat="45.8622508567291" lon="9.27588437674981"><ele>440.0</ele><time>2026-04-18T13:38:53Z</time></trkpt><trkpt lat="45.862237669302964" lon="9.276065728432004"><ele>440.0</ele><time>2026-04-18T13:38:54Z</time></trkpt><trkpt lat="45.86217207220041" lon="9.276208632455223"><ele>440.0</ele><time>2026-04-18T13:38:55Z</time></trkpt><trkpt lat="45.86208390797403" lon="9.276322930153366"><ele>440.0</ele><time>2026-04-18T13:38:56Z</time></trkpt><trkpt lat="45.861996449687986" lon="9.276397017981399"><ele>440.0</ele><time>2026-04-18T13:38:57Z</time></trkpt><trkpt lat="45.86183819919384" lon="9.276473380180539"><ele>445.0</ele><time>2026-04-18T13:38:58Z</time></trkpt><trkpt lat="45.861705337012324" lon="9.276563223384425"><ele>450.0</ele><time>2026-04-18T13:38:59Z</time></trkpt><trkpt lat="45.86159658746423" lon="9.276685949130453"><ele>455.0</ele><time>2026-04-18T13:39:00Z</time></trkpt><trkpt lat="45.86153429919314" lon="9.276858390832048"><ele>460.0</ele><time>2026-04-18T13:39:01Z</time></trkpt><trkpt lat="45.861513734681246" lon="9.277054632606788"><ele>458.6666666666667</ele><time>2026-04-18T13:39:02Z</time></trkpt><trkpt lat="45.861532592063334" lon="9.2772946458896"><ele>457.33333333333337</ele><time>2026-04-18T13:39:03Z</time></trkpt><trkpt lat="45.86156109550187" lon="9.277627010820588"><ele>456.0</ele><time>2026-04-18T13:39:04Z</time></trkpt><trkpt lat="45.861547293118804" lon="9.278001054107868"><ele>456.5</ele><time>2026-04-18T13:39:05Z</time></trkpt><trkpt lat="45.861541435218356" lon="9.278389323581454"><ele>457.0</ele><time>2026-04-18T13:39:06Z</time></trkpt><trkpt lat="45.861544824840855" lon="9.278774545863726"><ele>458.5</ele><time>2026-04-18T13:39:07Z</time></trkpt><trkpt lat="45.861543784710065" lon="9.279111637316603"><ele>460.0</ele><time>2026-04-18T13:39:08Z</time></trkpt><trkpt lat="45.861537788264144" lon="9.279425055813663"><ele>460.0</ele><time>2026-04-18T13:39:09Z</time></trkpt><trkpt lat="45.86152972923634" lon="9.279717861347992"><ele>460.0</ele><time>2026-04-18T13:39:10Z</time></trkpt><trkpt lat="45.86154638209951" lon="9.280015506944302"><ele>460.0</ele><time>2026-04-18T13:39:11Z</time></trkpt><trkpt lat="45.86159743651488" lon="9.280312198725643"><ele>460.6666666666667</ele><time>2026-04-18T13:39:12Z</time></trkpt><trkpt lat="45.86166336937817" lon="9.280605983624344"><ele>461.33333333333337</ele><time>2026-04-18T13:39:13Z</time></trkpt><trkpt lat="45.861749797001465" lon="9.280888290313442"><ele>462.0</ele><time>2026-04-18T13:39:14Z</time></trkpt><trkpt lat="45.86185633594409" lon="9.28116525354281"><ele>464.66666666666663</ele><time>2026-04-18T13:39:15Z</time></trkpt><trkpt lat="45.86195841440979" lon="9.281413886742444"><ele>467.3333333333333</ele><time>2026-04-18T13:39:16Z</time></trkpt><trkpt lat="45.862068194061344" lon="9.281631667483246"><ele>470.0</ele><time>2026-04-18T13:39:17Z</time></trkpt><trkpt lat="45.86220119262128" lon="9.281841691233554"><ele>470.0</ele><time>2026-04-18T13:39:18Z</time></trkpt><trkpt lat="45.86236648491822" lon="9.282041098894732"><ele>470.0</ele><time>2026-04-18T13:39:19Z</time></trkpt><trkpt lat="45.86256205694957" lon="9.28221631742646"><ele>470.0</ele><time>2026-04-18T13:39:20Z</time></trkpt><trkpt lat="45.8627329627199" lon="9.282408877032033"><ele>468.0</ele><time>2026-04-18T13:39:21Z</time></trkpt><trkpt lat="45.86293036452061" lon="9.282537067780076"><ele>466.0</ele><time>2026-04-18T13:39:22Z</time></trkpt><trkpt lat="45.86313133609532" lon="9.282654716604846"><ele>464.0</ele><time>2026-04-18T13:39:23Z</time></trkpt><trkpt lat="45.86334824469023" lon="9.282752859885138"><ele>464.3333333333333</ele><time>2026-04-18T13:39:24Z</time></trkpt><trkpt lat="45.86355400604729" lon="9.282818357756302"><ele>464.66666666666663</ele><time>2026-04-18T13:39:25Z</time></trkpt><trkpt lat="45.86377027703982" lon="9.2828522179639"><ele>465.0</ele><time>2026-04-18T13:39:26Z</time></trkpt><trkpt lat="45.86399199793509" lon="9.282854195383452"><ele>465.0</ele><time>2026-04-18T13:39:27Z</time></trkpt><trkpt lat="45.86422446168425" lon="9.282837364164372"><ele>465.0</ele><time>2026-04-18T13:39:28Z</time></trkpt><trkpt lat="45.86446331753846" lon="9.282803827811268"><ele>464.5</ele><time>2026-04-18T13:39:29Z</time></trkpt><trkpt lat="45.86470237749936" lon="9.282762931728005"><ele>464.0</ele><time>2026-04-18T13:39:30Z</time></trkpt><trkpt lat="45.86494739232317" lon="9.282716949845204"><ele>465.0</ele><time>2026-04-18T13:39:31Z</time></trkpt><trkpt lat="45.86519836280013" lon="9.282663264605038"><ele>466.0</ele><time>2026-04-18T13:39:32Z</time></trkpt><trkpt lat="45.865432874720554" lon="9.28261212645133"><ele>466.0</ele><time>2026-04-18T13:39:33Z</time></trkpt><trkpt lat="45.86565556945156" lon="9.282604716795875"><ele>466.0</ele><time>2026-04-18T13:39:34Z</time></trkpt><trkpt lat="45.86585328752189" lon="9.28258443422715"><ele>466.0</ele><time>2026-04-18T13:39:35Z</time></trkpt><trkpt lat="45.86603571684579" lon="9.282652854451692"><ele>466.0</ele><time>2026-04-18T13:39:36Z</time></trkpt><trkpt lat="45.86621242096281" lon="9.282727822929255"><ele>466.0</ele><time>2026-04-18T13:39:37Z</time></trkpt><trkpt lat="45.86635320919472" lon="9.282940845165463"><ele>466.0</ele><time>2026-04-18T13:39:38Z</time></trkpt><trkpt lat="45.86648400112638" lon="9.283163635371436"><ele>466.0</ele><time>2026-04-18T13:39:39Z</time></trkpt><trkpt lat="45.86660972644378" lon="9.28343015580385"><ele>466.0</ele><time>2026-04-18T13:39:40Z</time></trkpt><trkpt lat="45.866757935137734" lon="9.283700605387542"><ele>466.0</ele><time>2026-04-18T13:39:40.999Z</time></trkpt><trkpt lat="45.86689468401634" lon="9.28394726322808"><ele>466.0</ele><time>2026-04-18T13:39:41.999Z</time></trkpt><trkpt lat="45.86703019054791" lon="9.284138064327886"><ele>466.0</ele><time>2026-04-18T13:39:42.999Z</time></trkpt><trkpt lat="45.867161795217676" lon="9.284296611659714"><ele>466.0</ele><time>2026-04-18T13:39:43.999Z</time></trkpt><trkpt lat="45.86729271896173" lon="9.284425742566437"><ele>466.0</ele><time>2026-04-18T13:39:44.999Z</time></trkpt><trkpt lat="45.86740616251123" lon="9.28454221405641"><ele>466.0</ele><time>2026-04-18T13:39:45.999Z</time></trkpt><trkpt lat="45.86748543874198" lon="9.284677739283843"><ele>466.0</ele><time>2026-04-18T13:39:46.999Z</time></trkpt><trkpt lat="45.86753815687489" lon="9.284842798687901"><ele>466.5</ele><time>2026-04-18T13:39:47.999Z</time></trkpt><trkpt lat="45.86758080748414" lon="9.285002479565819"><ele>467.0</ele><time>2026-04-18T13:39:48.999Z</time></trkpt><trkpt lat="45.86762051770194" lon="9.285147861647053"><ele>467.5</ele><time>2026-04-18T13:39:49.999Z</time></trkpt><trkpt lat="45.867687931431874" lon="9.285281939829163"><ele>468.0</ele><time>2026-04-18T13:39:50.999Z</time></trkpt><trkpt lat="45.8677913248352" lon="9.285402891970849"><ele>468.0</ele><time>2026-04-18T13:39:51.999Z</time></trkpt><trkpt lat="45.86792375229654" lon="9.285543151725479"><ele>468.0</ele><time>2026-04-18T13:39:52.999Z</time></trkpt><trkpt lat="45.868059504433724" lon="9.285733778594116"><ele>468.0</ele><time>2026-04-18T13:39:53.999Z</time></trkpt><trkpt lat="45.868191491285636" lon="9.286004985329082"><ele>467.0</ele><time>2026-04-18T13:39:54.999Z</time></trkpt><trkpt lat="45.86836812252253" lon="9.286283933470582"><ele>466.0</ele><time>2026-04-18T13:39:55.999Z</time></trkpt><trkpt lat="45.868527320975254" lon="9.286563435304346"><ele>466.0</ele><time>2026-04-18T13:39:56.999Z</time></trkpt><trkpt lat="45.8686697507946" lon="9.286796742389935"><ele>466.0</ele><time>2026-04-18T13:39:57.999Z</time></trkpt><trkpt lat="45.86880409132158" lon="9.28702173496333"><ele>466.0</ele><time>2026-04-18T13:39:58.999Z</time></trkpt><trkpt lat="45.8689288000657" lon="9.287232900150318"><ele>465.33333333333337</ele><time>2026-04-18T13:39:59.999Z</time></trkpt><trkpt lat="45.86903952773923" lon="9.28742705658578"><ele>464.66666666666663</ele><time>2026-04-18T13:40:00.999Z</time></trkpt><trkpt lat="45.8691345932557" lon="9.287597188558628"><ele>464.0</ele><time>2026-04-18T13:40:01.999Z</time></trkpt><trkpt lat="45.86921571147357" lon="9.287741100030896"><ele>464.5</ele><time>2026-04-18T13:40:02.999Z</time></trkpt><trkpt lat="45.86929557212526" lon="9.28787413663219"><ele>465.0</ele><time>2026-04-18T13:40:03.999Z</time></trkpt><trkpt lat="45.86937446716635" lon="9.288013160574657"><ele>465.5</ele><time>2026-04-18T13:40:04.999Z</time></trkpt><trkpt lat="45.86945923022146" lon="9.288161462746194"><ele>466.0</ele><time>2026-04-18T13:40:05.999Z</time></trkpt><trkpt lat="45.86953785865814" lon="9.288317050228857"><ele>466.0</ele><time>2026-04-18T13:40:06.999Z</time></trkpt><trkpt lat="45.8696138716195" lon="9.288482690768578"><ele>466.0</ele><time>2026-04-18T13:40:07.999Z</time></trkpt><trkpt lat="45.86968731364121" lon="9.288653096541262"><ele>466.0</ele><time>2026-04-18T13:40:08.999Z</time></trkpt><trkpt lat="45.86976156950966" lon="9.288825685771851"><ele>466.0</ele><time>2026-04-18T13:40:09.999Z</time></trkpt><trkpt lat="45.86983560863058" lon="9.288999083667415"><ele>466.0</ele><time>2026-04-18T13:40:10.999Z</time></trkpt><trkpt lat="45.86991133770751" lon="9.289172493708126"><ele>466.0</ele><time>2026-04-18T13:40:11.999Z</time></trkpt><trkpt lat="45.869989713493126" lon="9.28934544632278"><ele>466.0</ele><time>2026-04-18T13:40:12.999Z</time></trkpt><trkpt lat="45.87006922406872" lon="9.289516937768447"><ele>466.0</ele><time>2026-04-18T13:40:13.999Z</time></trkpt><trkpt lat="45.87014420137432" lon="9.289676377813263"><ele>468.75</ele><time>2026-04-18T13:40:14.999Z</time></trkpt><trkpt lat="45.870209922329494" lon="9.289817364359958"><ele>471.5</ele><time>2026-04-18T13:40:15.999Z</time></trkpt><trkpt lat="45.870269800597704" lon="9.289973245456832"><ele>474.25</ele><time>2026-04-18T13:40:16.999Z</time></trkpt><trkpt lat="45.870340045362454" lon="9.290161914354762"><ele>477.0</ele><time>2026-04-18T13:40:17.999Z</time></trkpt><trkpt lat="45.870429988383705" lon="9.290378773636217"><ele>477.0</ele><time>2026-04-18T13:40:18.999Z</time></trkpt><trkpt lat="45.870526503607486" lon="9.290608796289694"><ele>477.0</ele><time>2026-04-18T13:40:19.999Z</time></trkpt><trkpt lat="45.87064623831282" lon="9.290827937184"><ele>477.0</ele><time>2026-04-18T13:40:20.999Z</time></trkpt><trkpt lat="45.87073114803599" lon="9.291094778672539"><ele>477.0</ele><time>2026-04-18T13:40:21.999Z</time></trkpt><trkpt lat="45.87083737315676" lon="9.291342082434982"><ele>477.0</ele><time>2026-04-18T13:40:22.999Z</time></trkpt><trkpt lat="45.87094265397396" lon="9.291579122239291"><ele>477.0</ele><time>2026-04-18T13:40:23.999Z</time></trkpt><trkpt lat="45.87105411885088" lon="9.2918133484814"><ele>478.33333333333337</ele><time>2026-04-18T13:40:24.999Z</time></trkpt><trkpt lat="45.871180977168954" lon="9.292039756912656"><ele>479.6666666666667</ele><time>2026-04-18T13:40:25.999Z</time></trkpt><trkpt lat="45.87131510885386" lon="9.292244093840667"><ele>481.0</ele><time>2026-04-18T13:40:26.999Z</time></trkpt><trkpt lat="45.87144945848942" lon="9.29244043045479"><ele>481.0</ele><time>2026-04-18T13:40:27.999Z</time></trkpt><trkpt lat="45.87157870541099" lon="9.292630355701228"><ele>481.0</ele><time>2026-04-18T13:40:28.999Z</time></trkpt><trkpt lat="45.87168978490057" lon="9.292802466017031"><ele>481.0</ele><time>2026-04-18T13:40:29.999Z</time></trkpt><trkpt lat="45.871790293805134" lon="9.292956699047183"><ele>484.25</ele><time>2026-04-18T13:40:30.999Z</time></trkpt><trkpt lat="45.87188339892864" lon="9.293097972493785"><ele>487.5</ele><time>2026-04-18T13:40:31.999Z</time></trkpt><trkpt lat="45.87197346989828" lon="9.293235340945932"><ele>490.75</ele><time>2026-04-18T13:40:32.999Z</time></trkpt><trkpt lat="45.87205768808925" lon="9.293362138959015"><ele>494.0</ele><time>2026-04-18T13:40:33.999Z</time></trkpt><trkpt lat="45.872140571960905" lon="9.293490398677143"><ele>494.0</ele><time>2026-04-18T13:40:34.999Z</time></trkpt><trkpt lat="45.87222692856278" lon="9.293616521604552"><ele>494.0</ele><time>2026-04-18T13:40:35.999Z</time></trkpt><trkpt lat="45.87231631468554" lon="9.293737496658153"><ele>494.0</ele><time>2026-04-18T13:40:36.999Z</time></trkpt><trkpt lat="45.872421183031285" lon="9.293848144377995"><ele>494.0</ele><time>2026-04-18T13:40:37.999Z</time></trkpt><trkpt lat="45.87253848070022" lon="9.293952941640887"><ele>495.0</ele><time>2026-04-18T13:40:38.999Z</time></trkpt><trkpt lat="45.87267063852303" lon="9.294050171317041"><ele>496.0</ele><time>2026-04-18T13:40:39.999Z</time></trkpt><trkpt lat="45.87280890190822" lon="9.294142906341762"><ele>497.0</ele><time>2026-04-18T13:40:40.999Z</time></trkpt><trkpt lat="45.87295205975596" lon="9.294249075835394"><ele>497.0</ele><time>2026-04-18T13:40:41.999Z</time></trkpt><trkpt lat="45.87309483666568" lon="9.294369141223711"><ele>497.0</ele><time>2026-04-18T13:40:42.999Z</time></trkpt><trkpt lat="45.87321505661696" lon="9.294530029246811"><ele>497.0</ele><time>2026-04-18T13:40:43.999Z</time></trkpt><trkpt lat="45.8733549105832" lon="9.29466960377745"><ele>495.0</ele><time>2026-04-18T13:40:44.999Z</time></trkpt><trkpt lat="45.873486482938006" lon="9.294832516851443"><ele>493.0</ele><time>2026-04-18T13:40:45.999Z</time></trkpt><trkpt lat="45.87362035423887" lon="9.29499184071351"><ele>491.0</ele><time>2026-04-18T13:40:46.999Z</time></trkpt><trkpt lat="45.87375861241656" lon="9.295153947512112"><ele>491.0</ele><time>2026-04-18T13:40:48Z</time></trkpt><trkpt lat="45.87389922274574" lon="9.295322511550166"><ele>491.0</ele><time>2026-04-18T13:40:49Z</time></trkpt><trkpt lat="45.874033992272444" lon="9.295501790297282"><ele>491.0</ele><time>2026-04-18T13:40:50Z</time></trkpt><trkpt lat="45.87416752392385" lon="9.295690351271222"><ele>492.0</ele><time>2026-04-18T13:40:51Z</time></trkpt><trkpt lat="45.87429649039394" lon="9.295874152273736"><ele>493.0</ele><time>2026-04-18T13:40:52Z</time></trkpt><trkpt lat="45.874416844092046" lon="9.296078567134987"><ele>494.0</ele><time>2026-04-18T13:40:53Z</time></trkpt><trkpt lat="45.87452998743951" lon="9.296286972658255"><ele>492.0</ele><time>2026-04-18T13:40:54Z</time></trkpt><trkpt lat="45.87462674049043" lon="9.296495418939937"><ele>490.0</ele><time>2026-04-18T13:40:55Z</time></trkpt><trkpt lat="45.87471787120397" lon="9.296689465611509"><ele>488.0</ele><time>2026-04-18T13:40:56Z</time></trkpt><trkpt lat="45.87482089292441" lon="9.29683645659832"><ele>488.0</ele><time>2026-04-18T13:40:57Z</time></trkpt><trkpt lat="45.87495391321757" lon="9.296933184869577"><ele>488.0</ele><time>2026-04-18T13:40:58Z</time></trkpt><trkpt lat="45.87512240026575" lon="9.29695350214386"><ele>488.0</ele><time>2026-04-18T13:40:59Z</time></trkpt><trkpt lat="45.87529518222453" lon="9.296917494356302"><ele>489.0</ele><time>2026-04-18T13:41:00Z</time></trkpt><trkpt lat="45.875473723420356" lon="9.296861506852185"><ele>490.0</ele><time>2026-04-18T13:41:01Z</time></trkpt><trkpt lat="45.875642249149934" lon="9.296849746169729"><ele>491.0</ele><time>2026-04-18T13:41:02Z</time></trkpt><trkpt lat="45.87579933579607" lon="9.296936586905117"><ele>492.0</ele><time>2026-04-18T13:41:03Z</time></trkpt><trkpt lat="45.87594191773849" lon="9.297039887494414"><ele>493.0</ele><time>2026-04-18T13:41:04Z</time></trkpt><trkpt lat="45.87608741806186" lon="9.297153811621557"><ele>494.0</ele><time>2026-04-18T13:41:05Z</time></trkpt><trkpt lat="45.87622501560971" lon="9.297241685140154"><ele>492.75</ele><time>2026-04-18T13:41:06Z</time></trkpt><trkpt lat="45.87634025212232" lon="9.297344096162385"><ele>491.5</ele><time>2026-04-18T13:41:07Z</time></trkpt><trkpt lat="45.87645751334369" lon="9.29744322635"><ele>490.25</ele><time>2026-04-18T13:41:08Z</time></trkpt><trkpt lat="45.87657413172357" lon="9.29753151391039"><ele>489.0</ele><time>2026-04-18T13:41:09Z</time></trkpt><trkpt lat="45.87669641511404" lon="9.29763611266445"><ele>490.5</ele><time>2026-04-18T13:41:10Z</time></trkpt><trkpt lat="45.87682013623121" lon="9.297735417728921"><ele>492.0</ele><time>2026-04-18T13:41:11Z</time></trkpt><trkpt lat="45.87694578238983" lon="9.297838369631247"><ele>493.5</ele><time>2026-04-18T13:41:12Z</time></trkpt><trkpt lat="45.8770627539895" lon="9.297947212804127"><ele>495.0</ele><time>2026-04-18T13:41:13Z</time></trkpt><trkpt lat="45.877185827515284" lon="9.298057966246231"><ele>493.75</ele><time>2026-04-18T13:41:14Z</time></trkpt><trkpt lat="45.87729526183663" lon="9.29817632441444"><ele>492.5</ele><time>2026-04-18T13:41:15Z</time></trkpt><trkpt lat="45.87738764707297" lon="9.298299050146914"><ele>491.25</ele><time>2026-04-18T13:41:16Z</time></trkpt><trkpt lat="45.87747119605154" lon="9.298421223085063"><ele>490.0</ele><time>2026-04-18T13:41:17Z</time></trkpt><trkpt lat="45.87756234771961" lon="9.298540296245706"><ele>491.25</ele><time>2026-04-18T13:41:18Z</time></trkpt><trkpt lat="45.87765940963437" lon="9.298619375389416"><ele>492.5</ele><time>2026-04-18T13:41:19Z</time></trkpt><trkpt lat="45.87777607841702" lon="9.29865136270678"><ele>493.75</ele><time>2026-04-18T13:41:20Z</time></trkpt><trkpt lat="45.87788966102209" lon="9.298662507934347"><ele>495.0</ele><time>2026-04-18T13:41:21Z</time></trkpt><trkpt lat="45.878006944100036" lon="9.29867221346516"><ele>495.0</ele><time>2026-04-18T13:41:22Z</time></trkpt><trkpt lat="45.87813522432022" lon="9.298706479688022"><ele>495.0</ele><time>2026-04-18T13:41:23Z</time></trkpt><trkpt lat="45.87826855942448" lon="9.298729433513714"><ele>495.0</ele><time>2026-04-18T13:41:24Z</time></trkpt><trkpt lat="45.878392495914625" lon="9.298748869248683"><ele>495.0</ele><time>2026-04-18T13:41:25Z</time></trkpt><trkpt lat="45.8784958602698" lon="9.298771125736005"><ele>494.75</ele><time>2026-04-18T13:41:26Z</time></trkpt><trkpt lat="45.87860799892767" lon="9.298813002844604"><ele>494.5</ele><time>2026-04-18T13:41:27Z</time></trkpt><trkpt lat="45.878730407796056" lon="9.29889625760161"><ele>494.25</ele><time>2026-04-18T13:41:28Z</time></trkpt><trkpt lat="45.87886491269063" lon="9.298937476552945"><ele>494.0</ele><time>2026-04-18T13:41:29Z</time></trkpt><trkpt lat="45.87900053736586" lon="9.298976632170456"><ele>494.0</ele><time>2026-04-18T13:41:30Z</time></trkpt><trkpt lat="45.879144848496" lon="9.29899509544383"><ele>494.0</ele><time>2026-04-18T13:41:31Z</time></trkpt><trkpt lat="45.879295643945106" lon="9.299004020174769"><ele>494.0</ele><time>2026-04-18T13:41:32Z</time></trkpt><trkpt lat="45.87944519937943" lon="9.299010462262371"><ele>494.0</ele><time>2026-04-18T13:41:33Z</time></trkpt><trkpt lat="45.87959255384888" lon="9.299022249575044"><ele>495.0</ele><time>2026-04-18T13:41:34Z</time></trkpt><trkpt lat="45.87973321289602" lon="9.299052893798617"><ele>496.0</ele><time>2026-04-18T13:41:35Z</time></trkpt><trkpt lat="45.879855765241786" lon="9.29914151776053"><ele>497.0</ele><time>2026-04-18T13:41:35.999Z</time></trkpt><trkpt lat="45.879970630013645" lon="9.299249315317482"><ele>498.0</ele><time>2026-04-18T13:41:36.999Z</time></trkpt><trkpt lat="45.88006548242565" lon="9.299371657582487"><ele>496.75</ele><time>2026-04-18T13:41:37.999Z</time></trkpt><trkpt lat="45.8801671881532" lon="9.299485466322478"><ele>495.5</ele><time>2026-04-18T13:41:38.999Z</time></trkpt><trkpt lat="45.880269500449515" lon="9.299582451213347"><ele>494.25</ele><time>2026-04-18T13:41:39.999Z</time></trkpt><trkpt lat="45.880369428952505" lon="9.299683271372919"><ele>493.0</ele><time>2026-04-18T13:41:40.999Z</time></trkpt><trkpt lat="45.8804678945899" lon="9.299791726902342"><ele>492.75</ele><time>2026-04-18T13:41:41.999Z</time></trkpt><trkpt lat="45.880564498097804" lon="9.299903640128324"><ele>492.5</ele><time>2026-04-18T13:41:42.999Z</time></trkpt><trkpt lat="45.880659138598425" lon="9.300023024313905"><ele>492.25</ele><time>2026-04-18T13:41:43.999Z</time></trkpt><trkpt lat="45.88075940880792" lon="9.300162095052032"><ele>492.0</ele><time>2026-04-18T13:41:44.999Z</time></trkpt><trkpt lat="45.88085537021142" lon="9.300298633107902"><ele>491.25</ele><time>2026-04-18T13:41:45.999Z</time></trkpt><trkpt lat="45.880956281571166" lon="9.300440808855384"><ele>490.5</ele><time>2026-04-18T13:41:46.999Z</time></trkpt><trkpt lat="45.881068717701126" lon="9.300580733839821"><ele>489.75</ele><time>2026-04-18T13:41:47.999Z</time></trkpt><trkpt lat="45.881182676237735" lon="9.300704475207354"><ele>489.0</ele><time>2026-04-18T13:41:48.999Z</time></trkpt><trkpt lat="45.88130629594713" lon="9.300815326484052"><ele>489.0</ele><time>2026-04-18T13:41:49.999Z</time></trkpt><trkpt lat="45.88143594546807" lon="9.300911940607081"><ele>489.0</ele><time>2026-04-18T13:41:50.999Z</time></trkpt><trkpt lat="45.88154968892425" lon="9.300994615918226"><ele>489.0</ele><time>2026-04-18T13:41:51.999Z</time></trkpt><trkpt lat="45.881684571468845" lon="9.301070686627554"><ele>489.0</ele><time>2026-04-18T13:41:52.999Z</time></trkpt><trkpt lat="45.88179286448495" lon="9.301155620702296"><ele>488.75</ele><time>2026-04-18T13:41:53.999Z</time></trkpt><trkpt lat="45.88191257739057" lon="9.301218182897873"><ele>488.5</ele><time>2026-04-18T13:41:54.999Z</time></trkpt><trkpt lat="45.88203009595226" lon="9.301292585173826"><ele>488.25</ele><time>2026-04-18T13:41:55.999Z</time></trkpt><trkpt lat="45.88215316548475" lon="9.301356420423193"><ele>488.0</ele><time>2026-04-18T13:41:56.999Z</time></trkpt><trkpt lat="45.88227019344191" lon="9.301422975292342"><ele>488.0</ele><time>2026-04-18T13:41:57.999Z</time></trkpt><trkpt lat="45.88239193307089" lon="9.30148793802399"><ele>488.0</ele><time>2026-04-18T13:41:58.999Z</time></trkpt><trkpt lat="45.882516997815905" lon="9.301554687258054"><ele>488.0</ele><time>2026-04-18T13:41:59.999Z</time></trkpt><trkpt lat="45.88263830622987" lon="9.30162010944276"><ele>488.0</ele><time>2026-04-18T13:42:00.999Z</time></trkpt><trkpt lat="45.88276144058137" lon="9.301687083038184"><ele>487.25</ele><time>2026-04-18T13:42:01.999Z</time></trkpt><trkpt lat="45.88288080050328" lon="9.30175465574496"><ele>486.5</ele><time>2026-04-18T13:42:02.999Z</time></trkpt><trkpt lat="45.883000370419175" lon="9.301823012921107"><ele>485.75</ele><time>2026-04-18T13:42:03.999Z</time></trkpt><trkpt lat="45.88312240402076" lon="9.301893712951657"><ele>485.0</ele><time>2026-04-18T13:42:04.999Z</time></trkpt><trkpt lat="45.883246295136466" lon="9.301967378326138"><ele>485.0</ele><time>2026-04-18T13:42:05.999Z</time></trkpt><trkpt lat="45.883363332364915" lon="9.302029565592887"><ele>485.0</ele><time>2026-04-18T13:42:06.999Z</time></trkpt><trkpt lat="45.88348530049303" lon="9.302096235035627"><ele>485.0</ele><time>2026-04-18T13:42:07.999Z</time></trkpt><trkpt lat="45.88360378432398" lon="9.302154914870252"><ele>485.0</ele><time>2026-04-18T13:42:08.999Z</time></trkpt><trkpt lat="45.88372525338981" lon="9.302223445288393"><ele>484.75</ele><time>2026-04-18T13:42:09.999Z</time></trkpt><trkpt lat="45.88384476546538" lon="9.30229856625223"><ele>484.5</ele><time>2026-04-18T13:42:10.999Z</time></trkpt><trkpt lat="45.883960886703264" lon="9.302361223348155"><ele>484.25</ele><time>2026-04-18T13:42:11.999Z</time></trkpt><trkpt lat="45.88408748212147" lon="9.302405391382539"><ele>484.0</ele><time>2026-04-18T13:42:12.999Z</time></trkpt><trkpt lat="45.88421296146602" lon="9.302437502667368"><ele>486.25</ele><time>2026-04-18T13:42:13.999Z</time></trkpt><trkpt lat="45.88433733329522" lon="9.302458466107867"><ele>488.5</ele><time>2026-04-18T13:42:14.999Z</time></trkpt><trkpt lat="45.88445736859154" lon="9.302479032370226"><ele>490.75</ele><time>2026-04-18T13:42:15.999Z</time></trkpt><trkpt lat="45.884562340313934" lon="9.302549483721524"><ele>493.0</ele><time>2026-04-18T13:42:16.999Z</time></trkpt><trkpt lat="45.88463716801139" lon="9.302665387195702"><ele>493.0</ele><time>2026-04-18T13:42:17.999Z</time></trkpt><trkpt lat="45.88469816994241" lon="9.302823020020686"><ele>493.0</ele><time>2026-04-18T13:42:18.999Z</time></trkpt><trkpt lat="45.8847404301062" lon="9.303024796952194"><ele>493.0</ele><time>2026-04-18T13:42:19.999Z</time></trkpt><trkpt lat="45.88477085128082" lon="9.303247814784804"><ele>493.0</ele><time>2026-04-18T13:42:20.999Z</time></trkpt><trkpt lat="45.88485270286622" lon="9.30341623692868"><ele>491.25</ele><time>2026-04-18T13:42:21.999Z</time></trkpt><trkpt lat="45.884960376485886" lon="9.303540123898577"><ele>489.5</ele><time>2026-04-18T13:42:22.999Z</time></trkpt><trkpt lat="45.88509559861086" lon="9.303643515670998"><ele>487.75</ele><time>2026-04-18T13:42:23.999Z</time></trkpt><trkpt lat="45.88522397377865" lon="9.303741354856301"><ele>486.0</ele><time>2026-04-18T13:42:24.999Z</time></trkpt><trkpt lat="45.88531707279905" lon="9.303874883750657"><ele>493.0</ele><time>2026-04-18T13:42:25.999Z</time></trkpt><trkpt lat="45.885376056724134" lon="9.304039191426956"><ele>500.0</ele><time>2026-04-18T13:42:26.999Z</time></trkpt><trkpt lat="45.88541525411027" lon="9.304250521187791"><ele>507.0</ele><time>2026-04-18T13:42:27.999Z</time></trkpt><trkpt lat="45.88544133612623" lon="9.30450857442198"><ele>500.33333333333337</ele><time>2026-04-18T13:42:28.999Z</time></trkpt><trkpt lat="45.88547651986925" lon="9.304777850026221"><ele>493.6666666666667</ele><time>2026-04-18T13:42:29.999Z</time></trkpt><trkpt lat="45.88552136300293" lon="9.305016182507332"><ele>487.0</ele><time>2026-04-18T13:42:30.999Z</time></trkpt><trkpt lat="45.885595466450745" lon="9.30521951303684"><ele>487.0</ele><time>2026-04-18T13:42:31.999Z</time></trkpt><trkpt lat="45.88570285697577" lon="9.305399331611438"><ele>487.0</ele><time>2026-04-18T13:42:32.999Z</time></trkpt><trkpt lat="45.885835565757645" lon="9.305572649695653"><ele>487.0</ele><time>2026-04-18T13:42:33.999Z</time></trkpt><trkpt lat="45.88598772205978" lon="9.305696788547175"><ele>486.0</ele><time>2026-04-18T13:42:34.999Z</time></trkpt><trkpt lat="45.886127217631085" lon="9.305806542814754"><ele>485.0</ele><time>2026-04-18T13:42:35.999Z</time></trkpt><trkpt lat="45.88626821546158" lon="9.305915495576123"><ele>484.0</ele><time>2026-04-18T13:42:36.999Z</time></trkpt><trkpt lat="45.88640312609317" lon="9.306020636916557"><ele>484.0</ele><time>2026-04-18T13:42:37.999Z</time></trkpt><trkpt lat="45.88654414463458" lon="9.306132142413752"><ele>484.0</ele><time>2026-04-18T13:42:38.999Z</time></trkpt><trkpt lat="45.886661432153566" lon="9.306224883278063"><ele>484.0</ele><time>2026-04-18T13:42:39.999Z</time></trkpt><trkpt lat="45.88677354384196" lon="9.30631311551147"><ele>484.0</ele><time>2026-04-18T13:42:40.999Z</time></trkpt><trkpt lat="45.88688487927056" lon="9.306394422799166"><ele>478.25</ele><time>2026-04-18T13:42:41.999Z</time></trkpt><trkpt lat="45.88699561912894" lon="9.3064739015387"><ele>472.5</ele><time>2026-04-18T13:42:42.999Z</time></trkpt><trkpt lat="45.88711483695339" lon="9.306545976260965"><ele>466.75</ele><time>2026-04-18T13:42:43.999Z</time></trkpt><trkpt lat="45.88724079103227" lon="9.30659536516415"><ele>461.0</ele><time>2026-04-18T13:42:44.999Z</time></trkpt><trkpt lat="45.887364884561876" lon="9.306643602586371"><ele>461.0</ele><time>2026-04-18T13:42:45.999Z</time></trkpt><trkpt lat="45.887494115262946" lon="9.30668170502422"><ele>461.0</ele><time>2026-04-18T13:42:46.999Z</time></trkpt><trkpt lat="45.887622259827836" lon="9.306695790867874"><ele>461.0</ele><time>2026-04-18T13:42:47.999Z</time></trkpt><trkpt lat="45.887763459747504" lon="9.306697559818472"><ele>461.0</ele><time>2026-04-18T13:42:48.999Z</time></trkpt><trkpt lat="45.88790482560779" lon="9.306691224428773"><ele>461.5</ele><time>2026-04-18T13:42:49.999Z</time></trkpt><trkpt lat="45.88805319021904" lon="9.30669487528755"><ele>462.0</ele><time>2026-04-18T13:42:50.999Z</time></trkpt><trkpt lat="45.88821747019308" lon="9.306695948332536"><ele>462.5</ele><time>2026-04-18T13:42:51.999Z</time></trkpt><trkpt lat="45.88835053719356" lon="9.306695449522934"><ele>463.0</ele><time>2026-04-18T13:42:52.999Z</time></trkpt><trkpt lat="45.88849455054966" lon="9.306684639819956"><ele>458.75</ele><time>2026-04-18T13:42:54Z</time></trkpt><trkpt lat="45.88861850411578" lon="9.306624138033477"><ele>454.5</ele><time>2026-04-18T13:42:55Z</time></trkpt><trkpt lat="45.888768673173594" lon="9.30659010674348"><ele>450.25</ele><time>2026-04-18T13:42:56Z</time></trkpt><trkpt lat="45.88892451627368" lon="9.306543737043869"><ele>446.0</ele><time>2026-04-18T13:42:57Z</time></trkpt><trkpt lat="45.88908124625092" lon="9.306496948682952"><ele>446.0</ele><time>2026-04-18T13:42:58Z</time></trkpt><trkpt lat="45.889247623965" lon="9.306450163788144"><ele>446.0</ele><time>2026-04-18T13:42:59Z</time></trkpt><trkpt lat="45.889417671169" lon="9.30642672214536"><ele>446.0</ele><time>2026-04-18T13:43:00Z</time></trkpt><trkpt lat="45.889586799252854" lon="9.306430462141066"><ele>447.66666666666663</ele><time>2026-04-18T13:43:01Z</time></trkpt><trkpt lat="45.88974422400748" lon="9.306448949245668"><ele>449.33333333333337</ele><time>2026-04-18T13:43:02Z</time></trkpt><trkpt lat="45.88989031250455" lon="9.30649565262982"><ele>451.0</ele><time>2026-04-18T13:43:03Z</time></trkpt><trkpt lat="45.890031756777425" lon="9.306590753063665"><ele>454.0</ele><time>2026-04-18T13:43:04Z</time></trkpt><trkpt lat="45.890137286904675" lon="9.306740322601263"><ele>457.0</ele><time>2026-04-18T13:43:05Z</time></trkpt><trkpt lat="45.890238848757384" lon="9.306910656544956"><ele>460.0</ele><time>2026-04-18T13:43:06Z</time></trkpt><trkpt lat="45.89033041246529" lon="9.307072483884404"><ele>463.0</ele><time>2026-04-18T13:43:07Z</time></trkpt><trkpt lat="45.8904243889777" lon="9.307202927758844"><ele>463.0</ele><time>2026-04-18T13:43:08Z</time></trkpt><trkpt lat="45.89053149715049" lon="9.307273974764039"><ele>463.0</ele><time>2026-04-18T13:43:09Z</time></trkpt><trkpt lat="45.890645032564784" lon="9.30728549308926"><ele>463.0</ele><time>2026-04-18T13:43:10Z</time></trkpt><trkpt lat="45.890777896381316" lon="9.307228632374002"><ele>463.0</ele><time>2026-04-18T13:43:11Z</time></trkpt><trkpt lat="45.89093195384923" lon="9.307101210956501"><ele>457.6666666666667</ele><time>2026-04-18T13:43:12Z</time></trkpt><trkpt lat="45.891114868744175" lon="9.307014804396118"><ele>452.33333333333337</ele><time>2026-04-18T13:43:13Z</time></trkpt><trkpt lat="45.891320776715126" lon="9.306929011237346"><ele>447.0</ele><time>2026-04-18T13:43:14Z</time></trkpt><trkpt lat="45.89151080647081" lon="9.306848233347703"><ele>447.0</ele><time>2026-04-18T13:43:15Z</time></trkpt><trkpt lat="45.89169776283265" lon="9.306808669144154"><ele>447.0</ele><time>2026-04-18T13:43:16Z</time></trkpt><trkpt lat="45.891885817719334" lon="9.306749496458474"><ele>447.0</ele><time>2026-04-18T13:43:17Z</time></trkpt><trkpt lat="45.89206231950503" lon="9.30669192268112"><ele>440.66666666666663</ele><time>2026-04-18T13:43:18Z</time></trkpt><trkpt lat="45.89222251790013" lon="9.306615154492214"><ele>434.3333333333333</ele><time>2026-04-18T13:43:19Z</time></trkpt><trkpt lat="45.892389811094155" lon="9.306563233445589"><ele>428.0</ele><time>2026-04-18T13:43:20Z</time></trkpt><trkpt lat="45.89253719329681" lon="9.30650548235676"><ele>426.75</ele><time>2026-04-18T13:43:21Z</time></trkpt><trkpt lat="45.89267112423763" lon="9.306430987402921"><ele>425.5</ele><time>2026-04-18T13:43:22Z</time></trkpt><trkpt lat="45.89279384670292" lon="9.30632936055674"><ele>424.25</ele><time>2026-04-18T13:43:23Z</time></trkpt><trkpt lat="45.89289414342468" lon="9.306202780409457"><ele>423.0</ele><time>2026-04-18T13:43:24Z</time></trkpt><trkpt lat="45.89297724954179" lon="9.306067341903837"><ele>423.0</ele><time>2026-04-18T13:43:25Z</time></trkpt><trkpt lat="45.89306630065085" lon="9.305907197470024"><ele>423.0</ele><time>2026-04-18T13:43:26Z</time></trkpt><trkpt lat="45.89316264742071" lon="9.305787889049714"><ele>423.0</ele><time>2026-04-18T13:43:27Z</time></trkpt><trkpt lat="45.893279725727396" lon="9.30572028201286"><ele>423.0</ele><time>2026-04-18T13:43:28Z</time></trkpt><trkpt lat="45.89340689918425" lon="9.305704788550468"><ele>419.75</ele><time>2026-04-18T13:43:29Z</time></trkpt><trkpt lat="45.89354436425167" lon="9.305725295981503"><ele>416.5</ele><time>2026-04-18T13:43:30Z</time></trkpt><trkpt lat="45.89368878943512" lon="9.305712330869088"><ele>413.25</ele><time>2026-04-18T13:43:31Z</time></trkpt><trkpt lat="45.89382496825205" lon="9.305680477368199"><ele>410.0</ele><time>2026-04-18T13:43:32Z</time></trkpt><trkpt lat="45.89395585510365" lon="9.305615023965098"><ele>414.75</ele><time>2026-04-18T13:43:33Z</time></trkpt><trkpt lat="45.894078388322704" lon="9.305504694135166"><ele>419.5</ele><time>2026-04-18T13:43:34Z</time></trkpt><trkpt lat="45.8941843200618" lon="9.305359081349167"><ele>424.25</ele><time>2026-04-18T13:43:35Z</time></trkpt><trkpt lat="45.89430839595384" lon="9.30524516413159"><ele>429.0</ele><time>2026-04-18T13:43:36Z</time></trkpt><trkpt lat="45.89443961205818" lon="9.305233191810732"><ele>430.2</ele><time>2026-04-18T13:43:37Z</time></trkpt><trkpt lat="45.89455851533478" lon="9.305192214470543"><ele>431.4</ele><time>2026-04-18T13:43:38Z</time></trkpt><trkpt lat="45.89465672012989" lon="9.305202840308931"><ele>432.6</ele><time>2026-04-18T13:43:39Z</time></trkpt><trkpt lat="45.89473739544106" lon="9.305200288485258"><ele>433.8</ele><time>2026-04-18T13:43:40Z</time></trkpt><trkpt lat="45.89477940691816" lon="9.305312935703009"><ele>435.0</ele><time>2026-04-18T13:43:42Z</time></trkpt><trkpt lat="45.89462437477954" lon="9.305435133535545"><ele>435.0</ele><time>2026-04-18T13:43:44Z</time></trkpt><trkpt lat="45.89448158246759" lon="9.305490368569863"><ele>435.0</ele><time>2026-04-18T13:43:45Z</time></trkpt><trkpt lat="45.89434527872872" lon="9.30559397911101"><ele>435.0</ele><time>2026-04-18T13:43:46Z</time></trkpt><trkpt lat="45.89421337487225" lon="9.305716662723608"><ele>426.66666666666663</ele><time>2026-04-18T13:43:47Z</time></trkpt><trkpt lat="45.894078400191766" lon="9.305871342441737"><ele>418.3333333333333</ele><time>2026-04-18T13:43:48Z</time></trkpt><trkpt lat="45.89394350236806" lon="9.306023191388224"><ele>410.0</ele><time>2026-04-18T13:43:49Z</time></trkpt><trkpt lat="45.893819209179426" lon="9.306156746076011"><ele>410.0</ele><time>2026-04-18T13:43:50Z</time></trkpt><trkpt lat="45.893691404628036" lon="9.306304607770382"><ele>410.0</ele><time>2026-04-18T13:43:51Z</time></trkpt><trkpt lat="45.893558890903684" lon="9.306421534171005"><ele>410.0</ele><time>2026-04-18T13:43:52Z</time></trkpt><trkpt lat="45.893434739096534" lon="9.306574919159518"><ele>407.75</ele><time>2026-04-18T13:43:52.999Z</time></trkpt><trkpt lat="45.89331897033465" lon="9.306685505075938"><ele>405.5</ele><time>2026-04-18T13:43:53.999Z</time></trkpt><trkpt lat="45.89320101978118" lon="9.306805696321465"><ele>403.25</ele><time>2026-04-18T13:43:54.999Z</time></trkpt><trkpt lat="45.89308310151368" lon="9.306930946602488"><ele>401.0</ele><time>2026-04-18T13:43:55.999Z</time></trkpt><trkpt lat="45.89297142556134" lon="9.30705086917999"><ele>401.0</ele><time>2026-04-18T13:43:56.999Z</time></trkpt><trkpt lat="45.89285992253623" lon="9.307155931029072"><ele>401.0</ele><time>2026-04-18T13:43:57.999Z</time></trkpt><trkpt lat="45.892745448826346" lon="9.307230791139364"><ele>401.0</ele><time>2026-04-18T13:43:58.999Z</time></trkpt><trkpt lat="45.89262730435627" lon="9.307298582757891"><ele>401.0</ele><time>2026-04-18T13:43:59.999Z</time></trkpt><trkpt lat="45.892528555403366" lon="9.307347104808512"><ele>400.3333333333333</ele><time>2026-04-18T13:44:00.999Z</time></trkpt><trkpt lat="45.892442135933834" lon="9.3074010687944"><ele>399.66666666666663</ele><time>2026-04-18T13:44:01.999Z</time></trkpt><trkpt lat="45.89237754872407" lon="9.307488900146403"><ele>399.0</ele><time>2026-04-18T13:44:02.999Z</time></trkpt><trkpt lat="45.89238843619912" lon="9.307596143825053"><ele>398.33333333333337</ele><time>2026-04-18T13:44:03.999Z</time></trkpt><trkpt lat="45.892451280860016" lon="9.30764671519831"><ele>397.6666666666667</ele><time>2026-04-18T13:44:04.999Z</time></trkpt><trkpt lat="45.892542418873965" lon="9.30762266327701"><ele>397.0</ele><time>2026-04-18T13:44:05.999Z</time></trkpt><trkpt lat="45.892626541442695" lon="9.30755951737556"><ele>392.5</ele><time>2026-04-18T13:44:06.999Z</time></trkpt><trkpt lat="45.892740264646946" lon="9.307499904981341"><ele>388.0</ele><time>2026-04-18T13:44:07.999Z</time></trkpt><trkpt lat="45.89285869005333" lon="9.307428681954681"><ele>383.5</ele><time>2026-04-18T13:44:08.999Z</time></trkpt><trkpt lat="45.892983542134886" lon="9.307362490895207"><ele>379.0</ele><time>2026-04-18T13:44:09.999Z</time></trkpt><trkpt lat="45.89311305226076" lon="9.307290734492339"><ele>382.0</ele><time>2026-04-18T13:44:10.999Z</time></trkpt><trkpt lat="45.893252009375715" lon="9.307219263366306"><ele>385.0</ele><time>2026-04-18T13:44:11.999Z</time></trkpt><trkpt lat="45.893396943195604" lon="9.30716504316119"><ele>388.0</ele><time>2026-04-18T13:44:12.999Z</time></trkpt><trkpt lat="45.89353217360566" lon="9.307105264277903"><ele>391.0</ele><time>2026-04-18T13:44:13.999Z</time></trkpt><trkpt lat="45.8936630493507" lon="9.307053113096275"><ele>391.0</ele><time>2026-04-18T13:44:14.999Z</time></trkpt><trkpt lat="45.89379155013452" lon="9.30700611543633"><ele>391.0</ele><time>2026-04-18T13:44:15.999Z</time></trkpt><trkpt lat="45.89391980461895" lon="9.306988144470173"><ele>391.0</ele><time>2026-04-18T13:44:16.999Z</time></trkpt><trkpt lat="45.894042866409144" lon="9.307010179241118"><ele>391.0</ele><time>2026-04-18T13:44:17.999Z</time></trkpt><trkpt lat="45.8941647028928" lon="9.30707702500432"><ele>392.33333333333337</ele><time>2026-04-18T13:44:18.999Z</time></trkpt><trkpt lat="45.894277545808" lon="9.307185764088754"><ele>393.66666666666663</ele><time>2026-04-18T13:44:19.999Z</time></trkpt><trkpt lat="45.89437856425896" lon="9.307343050457272"><ele>395.0</ele><time>2026-04-18T13:44:20.999Z</time></trkpt><trkpt lat="45.894476985040136" lon="9.307536022406673"><ele>391.3333333333333</ele><time>2026-04-18T13:44:21.999Z</time></trkpt><trkpt lat="45.89458328642135" lon="9.307754590800867"><ele>387.66666666666663</ele><time>2026-04-18T13:44:22.999Z</time></trkpt><trkpt lat="45.89467807805292" lon="9.30794844934816"><ele>384.0</ele><time>2026-04-18T13:44:23.999Z</time></trkpt><trkpt lat="45.894769350852194" lon="9.308129588241455"><ele>379.5</ele><time>2026-04-18T13:44:24.999Z</time></trkpt><trkpt lat="45.894868496921276" lon="9.308260572878854"><ele>375.0</ele><time>2026-04-18T13:44:25.999Z</time></trkpt><trkpt lat="45.894992587419" lon="9.308326474168712"><ele>370.5</ele><time>2026-04-18T13:44:26.999Z</time></trkpt><trkpt lat="45.89512284621858" lon="9.30831962077206"><ele>366.0</ele><time>2026-04-18T13:44:27.999Z</time></trkpt><trkpt lat="45.895254729499186" lon="9.308254413787086"><ele>362.6666666666667</ele><time>2026-04-18T13:44:28.999Z</time></trkpt><trkpt lat="45.89537456734414" lon="9.30810863754313"><ele>359.33333333333337</ele><time>2026-04-18T13:44:29.999Z</time></trkpt><trkpt lat="45.895455142629956" lon="9.307896356363946"><ele>356.0</ele><time>2026-04-18T13:44:30.999Z</time></trkpt><trkpt lat="45.895520175167164" lon="9.307681384087532"><ele>356.0</ele><time>2026-04-18T13:44:31.999Z</time></trkpt><trkpt lat="45.89556298664916" lon="9.307475377124808"><ele>356.0</ele><time>2026-04-18T13:44:32.999Z</time></trkpt><trkpt lat="45.89562146462491" lon="9.307280631521985"><ele>356.0</ele><time>2026-04-18T13:44:33.999Z</time></trkpt><trkpt lat="45.89570253605482" lon="9.307128334010786"><ele>356.0</ele><time>2026-04-18T13:44:34.999Z</time></trkpt><trkpt lat="45.89579477272582" lon="9.307012795780276"><ele>359.0</ele><time>2026-04-18T13:44:35.999Z</time></trkpt><trkpt lat="45.89591340586703" lon="9.306933894787045"><ele>362.0</ele><time>2026-04-18T13:44:36.999Z</time></trkpt><trkpt lat="45.896042693041224" lon="9.306899061347535"><ele>365.0</ele><time>2026-04-18T13:44:37.999Z</time></trkpt><trkpt lat="45.89617656927553" lon="9.306925296564874"><ele>368.0</ele><time>2026-04-18T13:44:38.999Z</time></trkpt><trkpt lat="45.896302054822065" lon="9.307016308401932"><ele>368.0</ele><time>2026-04-18T13:44:39.999Z</time></trkpt><trkpt lat="45.89640975579205" lon="9.307146632708603"><ele>368.0</ele><time>2026-04-18T13:44:40.999Z</time></trkpt><trkpt lat="45.8965299116686" lon="9.30728892456549"><ele>368.0</ele><time>2026-04-18T13:44:41.999Z</time></trkpt><trkpt lat="45.89664731028851" lon="9.30743170468582"><ele>363.0</ele><time>2026-04-18T13:44:42.999Z</time></trkpt><trkpt lat="45.89675621244622" lon="9.307571575318377"><ele>358.0</ele><time>2026-04-18T13:44:43.999Z</time></trkpt><trkpt lat="45.89685734581722" lon="9.307693630539775"><ele>353.0</ele><time>2026-04-18T13:44:44.999Z</time></trkpt><trkpt lat="45.896974366645175" lon="9.307750756034258"><ele>348.0</ele><time>2026-04-18T13:44:45.999Z</time></trkpt><trkpt lat="45.89710233849039" lon="9.307721915271374"><ele>348.0</ele><time>2026-04-18T13:44:46.999Z</time></trkpt><trkpt lat="45.89724417998717" lon="9.307673265511145"><ele>348.0</ele><time>2026-04-18T13:44:47.999Z</time></trkpt><trkpt lat="45.8973915038529" lon="9.307619867800442"><ele>348.0</ele><time>2026-04-18T13:44:48.999Z</time></trkpt><trkpt lat="45.89754284312843" lon="9.307566261965746"><ele>343.5</ele><time>2026-04-18T13:44:49.999Z</time></trkpt><trkpt lat="45.897691436156435" lon="9.307514213248092"><ele>339.0</ele><time>2026-04-18T13:44:50.999Z</time></trkpt><trkpt lat="45.89783152847028" lon="9.30746391596476"><ele>334.5</ele><time>2026-04-18T13:44:51.999Z</time></trkpt><trkpt lat="45.897957200916665" lon="9.307394008939125"><ele>330.0</ele><time>2026-04-18T13:44:52.999Z</time></trkpt><trkpt lat="45.89809116967164" lon="9.307353855514505"><ele>330.0</ele><time>2026-04-18T13:44:53.999Z</time></trkpt><trkpt lat="45.89822679556535" lon="9.307291489046772"><ele>330.0</ele><time>2026-04-18T13:44:54.999Z</time></trkpt><trkpt lat="45.89835038425932" lon="9.307225888428887"><ele>330.0</ele><time>2026-04-18T13:44:55.999Z</time></trkpt><trkpt lat="45.898463605272376" lon="9.30712641502172"><ele>330.0</ele><time>2026-04-18T13:44:56.999Z</time></trkpt><trkpt lat="45.898549376795444" lon="9.306976178118829"><ele>325.5</ele><time>2026-04-18T13:44:57.999Z</time></trkpt><trkpt lat="45.89861916844419" lon="9.306792379565337"><ele>321.0</ele><time>2026-04-18T13:44:58.999Z</time></trkpt><trkpt lat="45.898680898893026" lon="9.30661552084813"><ele>316.5</ele><time>2026-04-18T13:45:00Z</time></trkpt><trkpt lat="45.898740330969154" lon="9.306445246771633"><ele>312.0</ele><time>2026-04-18T13:45:01Z</time></trkpt><trkpt lat="45.89879307695809" lon="9.306278801491617"><ele>312.0</ele><time>2026-04-18T13:45:02Z</time></trkpt><trkpt lat="45.898890756337664" lon="9.306168360883378"><ele>312.0</ele><time>2026-04-18T13:45:03Z</time></trkpt><trkpt lat="45.89898466722053" lon="9.30605913022098"><ele>312.0</ele><time>2026-04-18T13:45:04Z</time></trkpt><trkpt lat="45.89906180061363" lon="9.305931763702636"><ele>312.0</ele><time>2026-04-18T13:45:05Z</time></trkpt><trkpt lat="45.89913746093389" lon="9.30580654347627"><ele>312.0</ele><time>2026-04-18T13:45:06Z</time></trkpt><trkpt lat="45.89920381109889" lon="9.305671827615496"><ele>312.0</ele><time>2026-04-18T13:45:07Z</time></trkpt><trkpt lat="45.89923867369356" lon="9.305515872910162"><ele>312.0</ele><time>2026-04-18T13:45:08Z</time></trkpt><trkpt lat="45.89926942903443" lon="9.305364648388052"><ele>312.0</ele><time>2026-04-18T13:45:09Z</time></trkpt><trkpt lat="45.89930299753897" lon="9.305219118303553"><ele>312.0</ele><time>2026-04-18T13:45:10Z</time></trkpt><trkpt lat="45.89935146257586" lon="9.305074155401229"><ele>309.2</ele><time>2026-04-18T13:45:11Z</time></trkpt><trkpt lat="45.89939375586914" lon="9.304939353556701"><ele>306.4</ele><time>2026-04-18T13:45:12Z</time></trkpt><trkpt lat="45.89943026454845" lon="9.304820877130869"><ele>303.6</ele><time>2026-04-18T13:45:13Z</time></trkpt><trkpt lat="45.899466029297805" lon="9.30468830582901"><ele>300.8</ele><time>2026-04-18T13:45:14Z</time></trkpt><trkpt lat="45.899500400988124" lon="9.304569495904582"><ele>298.0</ele><time>2026-04-18T13:45:15Z</time></trkpt><trkpt lat="45.8995427402466" lon="9.304472355500367"><ele>298.0</ele><time>2026-04-18T13:45:16Z</time></trkpt><trkpt lat="45.899623346454334" lon="9.304419946890274"><ele>298.0</ele><time>2026-04-18T13:45:17Z</time></trkpt><trkpt lat="45.89975814586306" lon="9.304349701270686"><ele>298.0</ele><time>2026-04-18T13:45:18Z</time></trkpt><trkpt lat="45.89989742775935" lon="9.304240410589614"><ele>298.0</ele><time>2026-04-18T13:45:19Z</time></trkpt><trkpt lat="45.90002297797573" lon="9.304120751728313"><ele>286.75</ele><time>2026-04-18T13:45:20Z</time></trkpt><trkpt lat="45.90011730806395" lon="9.304020616456608"><ele>275.5</ele><time>2026-04-18T13:45:21Z</time></trkpt><trkpt lat="45.90017779907634" lon="9.30386571312182"><ele>264.25</ele><time>2026-04-18T13:45:22Z</time></trkpt><trkpt lat="45.90022491358503" lon="9.30367599229927"><ele>253.0</ele><time>2026-04-18T13:45:23Z</time></trkpt><trkpt lat="45.90027948667592" lon="9.303475569476468"><ele>253.0</ele><time>2026-04-18T13:45:24Z</time></trkpt><trkpt lat="45.900333577960616" lon="9.303255348706365"><ele>253.0</ele><time>2026-04-18T13:45:25Z</time></trkpt><trkpt lat="45.90036772565972" lon="9.303059800962847"><ele>253.0</ele><time>2026-04-18T13:45:26Z</time></trkpt><trkpt lat="45.90038194452401" lon="9.302924150969748"><ele>253.0</ele><time>2026-04-18T13:45:27Z</time></trkpt><trkpt lat="45.90039119557103" lon="9.302825759476375"><ele>258.2</ele><time>2026-04-18T13:45:28Z</time></trkpt><trkpt lat="45.9004047870971" lon="9.302666904578764"><ele>263.4</ele><time>2026-04-18T13:45:30Z</time></trkpt><trkpt lat="45.90041937792507" lon="9.302537923234919"><ele>268.59999999999997</ele><time>2026-04-18T13:45:33Z</time></trkpt><trkpt lat="45.9004424361285" lon="9.302436393792341"><ele>273.8</ele><time>2026-04-18T13:45:37Z</time></trkpt><trkpt lat="45.900494981288126" lon="9.302274968352856"><ele>279.0</ele><time>2026-04-18T13:46:30.999Z</time></trkpt><trkpt lat="45.90052409172335" lon="9.302184255747642"><ele>284.1666666666667</ele><time>2026-04-18T13:46:31.999Z</time></trkpt><trkpt lat="45.90055203407305" lon="9.302090332224893"><ele>289.3333333333333</ele><time>2026-04-18T13:46:32.999Z</time></trkpt><trkpt lat="45.900581076050784" lon="9.30199701519863"><ele>294.5</ele><time>2026-04-18T13:46:33.999Z</time></trkpt><trkpt lat="45.90062432775708" lon="9.30189304187797"><ele>299.66666666666663</ele><time>2026-04-18T13:46:34.999Z</time></trkpt><trkpt lat="45.900670028010786" lon="9.30179857625614"><ele>304.8333333333333</ele><time>2026-04-18T13:46:35.999Z</time></trkpt><trkpt lat="45.90072787003068" lon="9.301692128754302"><ele>310.0</ele><time>2026-04-18T13:46:36.999Z</time></trkpt><trkpt lat="45.90078846409466" lon="9.301608128661334"><ele>310.0</ele><time>2026-04-18T13:46:37.999Z</time></trkpt><trkpt lat="45.90084783914863" lon="9.301510147101387"><ele>310.0</ele><time>2026-04-18T13:46:38.999Z</time></trkpt><trkpt lat="45.9008973615592" lon="9.301389116017893"><ele>310.0</ele><time>2026-04-18T13:46:39.999Z</time></trkpt><trkpt lat="45.90094945276348" lon="9.301284419894866"><ele>310.0</ele><time>2026-04-18T13:46:40.999Z</time></trkpt><trkpt lat="45.90099035956257" lon="9.301175087480157"><ele>310.0</ele><time>2026-04-18T13:46:41.999Z</time></trkpt><trkpt lat="45.901039174886044" lon="9.301047495862191"><ele>303.25</ele><time>2026-04-18T13:46:42.999Z</time></trkpt><trkpt lat="45.90109547421847" lon="9.300912958939946"><ele>296.5</ele><time>2026-04-18T13:46:43.999Z</time></trkpt><trkpt lat="45.90115228019221" lon="9.300765236771252"><ele>289.75</ele><time>2026-04-18T13:46:44.999Z</time></trkpt><trkpt lat="45.90121212846988" lon="9.300618449912502"><ele>283.0</ele><time>2026-04-18T13:46:45.999Z</time></trkpt><trkpt lat="45.90128367240206" lon="9.30047141920918"><ele>283.0</ele><time>2026-04-18T13:46:46.999Z</time></trkpt><trkpt lat="45.901356728699525" lon="9.300328003773554"><ele>283.0</ele><time>2026-04-18T13:46:47.999Z</time></trkpt><trkpt lat="45.90142005446954" lon="9.300172969313122"><ele>283.0</ele><time>2026-04-18T13:46:48.999Z</time></trkpt><trkpt lat="45.90147040835295" lon="9.30001604228719"><ele>283.0</ele><time>2026-04-18T13:46:49.999Z</time></trkpt><trkpt lat="45.901513780312705" lon="9.29985612986303"><ele>286.5</ele><time>2026-04-18T13:46:50.999Z</time></trkpt><trkpt lat="45.901557564567746" lon="9.299665433102378"><ele>290.0</ele><time>2026-04-18T13:46:51.999Z</time></trkpt><trkpt lat="45.90159011786439" lon="9.2994698121699"><ele>293.5</ele><time>2026-04-18T13:46:52.999Z</time></trkpt><trkpt lat="45.901633641251316" lon="9.299256131795467"><ele>297.0</ele><time>2026-04-18T13:46:53.999Z</time></trkpt><trkpt lat="45.90169896683923" lon="9.299057836066314"><ele>298.6666666666667</ele><time>2026-04-18T13:46:54.999Z</time></trkpt><trkpt lat="45.901741190413794" lon="9.298827763371845"><ele>300.33333333333337</ele><time>2026-04-18T13:46:55.999Z</time></trkpt><trkpt lat="45.90172726320273" lon="9.29857575113967"><ele>302.0</ele><time>2026-04-18T13:46:56.999Z</time></trkpt><trkpt lat="45.90174884917467" lon="9.298362548913927"><ele>290.6666666666667</ele><time>2026-04-18T13:46:57.999Z</time></trkpt><trkpt lat="45.90180583579069" lon="9.298141821384256"><ele>279.3333333333333</ele><time>2026-04-18T13:46:58.999Z</time></trkpt><trkpt lat="45.90186170241361" lon="9.297931074948773"><ele>268.0</ele><time>2026-04-18T13:46:59.999Z</time></trkpt><trkpt lat="45.90192257836206" lon="9.297735565649674"><ele>268.0</ele><time>2026-04-18T13:47:00.999Z</time></trkpt><trkpt lat="45.9019920131814" lon="9.297560339769246"><ele>268.0</ele><time>2026-04-18T13:47:01.999Z</time></trkpt><trkpt lat="45.90214283420012" lon="9.29748628172414"><ele>268.0</ele><time>2026-04-18T13:47:02.999Z</time></trkpt><trkpt lat="45.90223304215128" lon="9.297324252233183"><ele>268.0</ele><time>2026-04-18T13:47:03.999Z</time></trkpt><trkpt lat="45.9023185071777" lon="9.29717660565684"><ele>272.25</ele><time>2026-04-18T13:47:04.999Z</time></trkpt><trkpt lat="45.90237663618627" lon="9.296991671730806"><ele>276.5</ele><time>2026-04-18T13:47:06Z</time></trkpt><trkpt lat="45.902470593325354" lon="9.296824003958761"><ele>280.75</ele><time>2026-04-18T13:47:07Z</time></trkpt><trkpt lat="45.902484662177685" lon="9.296688588608337"><ele>285.0</ele><time>2026-04-18T13:47:08Z</time></trkpt><trkpt lat="45.902529785536615" lon="9.296613325605488"><ele>285.0</ele><time>2026-04-18T13:47:09Z</time></trkpt><trkpt lat="45.902584158899536" lon="9.296551174024728"><ele>285.0</ele><time>2026-04-18T13:47:11Z</time></trkpt><trkpt lat="45.90263792565364" lon="9.296711349334979"><ele>285.0</ele><time>2026-04-18T13:47:13Z</time></trkpt><trkpt lat="45.90256884963052" lon="9.296802369744663"><ele>285.0</ele><time>2026-04-18T13:47:14Z</time></trkpt><trkpt lat="45.902522236319285" lon="9.296929496706205"><ele>285.0</ele><time>2026-04-18T13:47:15Z</time></trkpt><trkpt lat="45.90246800925273" lon="9.297049281438339"><ele>285.0</ele><time>2026-04-18T13:47:16Z</time></trkpt><trkpt lat="45.902420286231035" lon="9.297193938008673"><ele>285.0</ele><time>2026-04-18T13:47:17Z</time></trkpt><trkpt lat="45.90237098728356" lon="9.297347946034739"><ele>285.0</ele><time>2026-04-18T13:47:18Z</time></trkpt><trkpt lat="45.902315788695894" lon="9.297478823742974"><ele>285.0</ele><time>2026-04-18T13:47:19Z</time></trkpt><trkpt lat="45.90226408301231" lon="9.297585448958282"><ele>285.0</ele><time>2026-04-18T13:47:20Z</time></trkpt><trkpt lat="45.90226744846038" lon="9.29768160060178"><ele>285.0</ele><time>2026-04-18T13:47:21Z</time></trkpt><trkpt lat="45.90234479813518" lon="9.297732362584407"><ele>285.0</ele><time>2026-04-18T13:47:22Z</time></trkpt><trkpt lat="45.902424199142644" lon="9.297698793830723"><ele>285.0</ele><time>2026-04-18T13:47:23Z</time></trkpt><trkpt lat="45.90245059136492" lon="9.297535894607078"><ele>285.0</ele><time>2026-04-18T13:47:24Z</time></trkpt><trkpt lat="45.902514992243646" lon="9.297390894743053"><ele>285.0</ele><time>2026-04-18T13:47:25Z</time></trkpt><trkpt lat="45.90257801127714" lon="9.297235661513986"><ele>279.5</ele><time>2026-04-18T13:47:26Z</time></trkpt><trkpt lat="45.90263390169798" lon="9.29708136725395"><ele>274.0</ele><time>2026-04-18T13:47:27Z</time></trkpt><trkpt lat="45.90272501964007" lon="9.29695721755555"><ele>268.5</ele><time>2026-04-18T13:47:28Z</time></trkpt><trkpt lat="45.9028468984711" lon="9.296891013586922"><ele>263.0</ele><time>2026-04-18T13:47:29Z</time></trkpt><trkpt lat="45.90296095088666" lon="9.296817348492606"><ele>263.0</ele><time>2026-04-18T13:47:30Z</time></trkpt><trkpt lat="45.90308540917182" lon="9.29678299911687"><ele>263.0</ele><time>2026-04-18T13:47:31Z</time></trkpt><trkpt lat="45.90320307320431" lon="9.296745982606696"><ele>263.0</ele><time>2026-04-18T13:47:32Z</time></trkpt><trkpt lat="45.90332098262046" lon="9.296725855462691"><ele>263.0</ele><time>2026-04-18T13:47:33Z</time></trkpt><trkpt lat="45.90343459113139" lon="9.296729259032347"><ele>261.25</ele><time>2026-04-18T13:47:34Z</time></trkpt><trkpt lat="45.9035475034278" lon="9.296747989438408"><ele>259.5</ele><time>2026-04-18T13:47:35Z</time></trkpt><trkpt lat="45.90366002142465" lon="9.29679285442644"><ele>257.75</ele><time>2026-04-18T13:47:36Z</time></trkpt><trkpt lat="45.90376145484744" lon="9.296846923858451"><ele>256.0</ele><time>2026-04-18T13:47:37Z</time></trkpt><trkpt lat="45.90386960350979" lon="9.296883031352332"><ele>256.0</ele><time>2026-04-18T13:47:38Z</time></trkpt><trkpt lat="45.90397193160755" lon="9.296896085662915"><ele>256.0</ele><time>2026-04-18T13:47:39Z</time></trkpt><trkpt lat="45.90409384357559" lon="9.296891499981424"><ele>256.0</ele><time>2026-04-18T13:47:40Z</time></trkpt><trkpt lat="45.904224657539594" lon="9.296877097565636"><ele>256.0</ele><time>2026-04-18T13:47:41Z</time></trkpt><trkpt lat="45.90435924209824" lon="9.296852209984356"><ele>254.0</ele><time>2026-04-18T13:47:42Z</time></trkpt><trkpt lat="45.90449739181325" lon="9.29682676703163"><ele>252.0</ele><time>2026-04-18T13:47:43Z</time></trkpt><trkpt lat="45.90463688146619" lon="9.296797707505942"><ele>250.0</ele><time>2026-04-18T13:47:44Z</time></trkpt><trkpt lat="45.904779886673396" lon="9.296758016371706"><ele>248.0</ele><time>2026-04-18T13:47:45Z</time></trkpt><trkpt lat="45.90492104400293" lon="9.296708848069391"><ele>248.0</ele><time>2026-04-18T13:47:46Z</time></trkpt><trkpt lat="45.90505991339783" lon="9.296636054580835"><ele>248.0</ele><time>2026-04-18T13:47:47Z</time></trkpt><trkpt lat="45.90518683967269" lon="9.296529943121781"><ele>248.0</ele><time>2026-04-18T13:47:48Z</time></trkpt><trkpt lat="45.90532031976861" lon="9.296414053374399"><ele>246.75</ele><time>2026-04-18T13:47:49Z</time></trkpt><trkpt lat="45.90545452741995" lon="9.296295996042941"><ele>245.5</ele><time>2026-04-18T13:47:50Z</time></trkpt><trkpt lat="45.90557507756352" lon="9.296195736751162"><ele>244.25</ele><time>2026-04-18T13:47:51Z</time></trkpt><trkpt lat="45.90569891051342" lon="9.296095660121098"><ele>243.0</ele><time>2026-04-18T13:47:52Z</time></trkpt><trkpt lat="45.90582778794647" lon="9.296013523274661"><ele>240.75</ele><time>2026-04-18T13:47:53Z</time></trkpt><trkpt lat="45.90595785996062" lon="9.295957514674424"><ele>238.5</ele><time>2026-04-18T13:47:54Z</time></trkpt><trkpt lat="45.90609205531683" lon="9.295919150494429"><ele>236.25</ele><time>2026-04-18T13:47:55Z</time></trkpt><trkpt lat="45.90622201018439" lon="9.295923598009963"><ele>234.0</ele><time>2026-04-18T13:47:56Z</time></trkpt><trkpt lat="45.90635121403303" lon="9.295887316244391"><ele>234.0</ele><time>2026-04-18T13:47:57Z</time></trkpt><trkpt lat="45.90648260291708" lon="9.295883365926638"><ele>234.0</ele><time>2026-04-18T13:47:58Z</time></trkpt><trkpt lat="45.906607009268896" lon="9.295885065284828"><ele>234.0</ele><time>2026-04-18T13:47:59Z</time></trkpt><trkpt lat="45.90673092544114" lon="9.295882911608032"><ele>234.0</ele><time>2026-04-18T13:48:00Z</time></trkpt><trkpt lat="45.90684788085218" lon="9.295844450964827"><ele>232.5</ele><time>2026-04-18T13:48:01Z</time></trkpt><trkpt lat="45.90696664198903" lon="9.295796887487796"><ele>231.0</ele><time>2026-04-18T13:48:02Z</time></trkpt><trkpt lat="45.90708199265934" lon="9.29574536476816"><ele>229.5</ele><time>2026-04-18T13:48:03Z</time></trkpt><trkpt lat="45.907200376678425" lon="9.29573937085867"><ele>228.0</ele><time>2026-04-18T13:48:04Z</time></trkpt><trkpt lat="45.907307735945786" lon="9.295779806228516"><ele>228.0</ele><time>2026-04-18T13:48:05Z</time></trkpt><trkpt lat="45.907404284260295" lon="9.295871292920475"><ele>228.0</ele><time>2026-04-18T13:48:06Z</time></trkpt><trkpt lat="45.90748082740656" lon="9.296012661958931"><ele>228.0</ele><time>2026-04-18T13:48:07Z</time></trkpt><trkpt lat="45.907582411552596" lon="9.296162735584673"><ele>228.0</ele><time>2026-04-18T13:48:08Z</time></trkpt><trkpt lat="45.907677476705906" lon="9.296288156757033"><ele>227.75</ele><time>2026-04-18T13:48:09Z</time></trkpt><trkpt lat="45.90778981200431" lon="9.296370709945684"><ele>227.5</ele><time>2026-04-18T13:48:10Z</time></trkpt><trkpt lat="45.90791434778467" lon="9.296417432183073"><ele>227.25</ele><time>2026-04-18T13:48:11Z</time></trkpt><trkpt lat="45.90805083691947" lon="9.296406924803355"><ele>227.0</ele><time>2026-04-18T13:48:12Z</time></trkpt><trkpt lat="45.90819010645156" lon="9.29635407271182"><ele>227.0</ele><time>2026-04-18T13:48:12.999Z</time></trkpt><trkpt lat="45.908333948941724" lon="9.296302329918483"><ele>227.0</ele><time>2026-04-18T13:48:13.999Z</time></trkpt><trkpt lat="45.908479243358286" lon="9.29624802347069"><ele>227.0</ele><time>2026-04-18T13:48:14.999Z</time></trkpt><trkpt lat="45.908611121193154" lon="9.296173401204463"><ele>227.0</ele><time>2026-04-18T13:48:15.999Z</time></trkpt><trkpt lat="45.9087398269522" lon="9.296063827602751"><ele>224.25</ele><time>2026-04-18T13:48:16.999Z</time></trkpt><trkpt lat="45.90884899187804" lon="9.295922022949092"><ele>221.5</ele><time>2026-04-18T13:48:17.999Z</time></trkpt><trkpt lat="45.90893213331003" lon="9.29576640969013"><ele>218.75</ele><time>2026-04-18T13:48:18.999Z</time></trkpt><trkpt lat="45.90899723535021" lon="9.295598592138674"><ele>216.0</ele><time>2026-04-18T13:48:19.999Z</time></trkpt><trkpt lat="45.90905707654881" lon="9.295439465721905"><ele>216.0</ele><time>2026-04-18T13:48:20.999Z</time></trkpt><trkpt lat="45.90912077051889" lon="9.29528878826034"><ele>216.0</ele><time>2026-04-18T13:48:21.999Z</time></trkpt><trkpt lat="45.90920181228112" lon="9.295155342577669"><ele>216.0</ele><time>2026-04-18T13:48:22.999Z</time></trkpt><trkpt lat="45.90928652785265" lon="9.295035865401909"><ele>216.0</ele><time>2026-04-18T13:48:23.999Z</time></trkpt><trkpt lat="45.909374131027704" lon="9.294930097550736"><ele>216.0</ele><time>2026-04-18T13:48:24.999Z</time></trkpt><trkpt lat="45.909465237278994" lon="9.294831387616819"><ele>216.00000000000003</ele><time>2026-04-18T13:48:25.999Z</time></trkpt><trkpt lat="45.90955729625851" lon="9.2947472403767"><ele>216.00000000000003</ele><time>2026-04-18T13:48:26.999Z</time></trkpt><trkpt lat="45.909637146973694" lon="9.294715228731908"><ele>216.0</ele><time>2026-04-18T13:48:27.999Z</time></trkpt><trkpt lat="45.90970588820266" lon="9.29473394401527"><ele>216.0</ele><time>2026-04-18T13:48:28.999Z</time></trkpt><trkpt lat="45.909773621250686" lon="9.294838186507498"><ele>212.75</ele><time>2026-04-18T13:48:30.999Z</time></trkpt><trkpt lat="45.909684221499155" lon="9.295098162003528"><ele>209.5</ele><time>2026-04-18T13:48:33.999Z</time></trkpt><trkpt lat="45.90961328015941" lon="9.295233862340101"><ele>206.25</ele><time>2026-04-18T13:48:34.999Z</time></trkpt><trkpt lat="45.90955588919125" lon="9.295384188010022"><ele>203.0</ele><time>2026-04-18T13:48:35.999Z</time></trkpt><trkpt lat="45.909501390597605" lon="9.295529914637783"><ele>202.2</ele><time>2026-04-18T13:48:36.999Z</time></trkpt><trkpt lat="45.90945728127279" lon="9.295677891426916"><ele>201.4</ele><time>2026-04-18T13:48:37.999Z</time></trkpt><trkpt lat="45.909401955438256" lon="9.2957721888306"><ele>200.6</ele><time>2026-04-18T13:48:38.999Z</time></trkpt><trkpt lat="45.909367705241706" lon="9.295866955606554"><ele>199.79999999999998</ele><time>2026-04-18T13:48:39.999Z</time></trkpt><trkpt lat="45.909304341042656" lon="9.295976047254525"><ele>199.0</ele><time>2026-04-18T13:48:40.999Z</time></trkpt><trkpt lat="45.909230636430834" lon="9.296101291801685"><ele>199.5</ele><time>2026-04-18T13:48:41.999Z</time></trkpt><trkpt lat="45.90915797786805" lon="9.296243449908689"><ele>200.0</ele><time>2026-04-18T13:48:42.999Z</time></trkpt><trkpt lat="45.909079021044825" lon="9.296382402245358"><ele>200.5</ele><time>2026-04-18T13:48:43.999Z</time></trkpt><trkpt lat="45.90898342470436" lon="9.29647302248927"><ele>201.0</ele><time>2026-04-18T13:48:44.999Z</time></trkpt><trkpt lat="45.90888585486126" lon="9.2965723920432"><ele>201.0</ele><time>2026-04-18T13:48:45.999Z</time></trkpt><trkpt lat="45.90878360423901" lon="9.29666865018087"><ele>201.0</ele><time>2026-04-18T13:48:46.999Z</time></trkpt><trkpt lat="45.908677566610784" lon="9.296766915833658"><ele>201.0</ele><time>2026-04-18T13:48:47.999Z</time></trkpt><trkpt lat="45.908571614419756" lon="9.296867221555333"><ele>201.0</ele><time>2026-04-18T13:48:48.999Z</time></trkpt><trkpt lat="45.90846175425341" lon="9.296969640165695"><ele>201.0</ele><time>2026-04-18T13:48:49.999Z</time></trkpt><trkpt lat="45.90834136999552" lon="9.297059242416674"><ele>201.0</ele><time>2026-04-18T13:48:50.999Z</time></trkpt><trkpt lat="45.908231036609436" lon="9.297170890947363"><ele>201.0</ele><time>2026-04-18T13:48:51.999Z</time></trkpt><trkpt lat="45.908122215438496" lon="9.297270299104023"><ele>201.0</ele><time>2026-04-18T13:48:52.999Z</time></trkpt><trkpt lat="45.90800817785155" lon="9.297362364904622"><ele>201.0</ele><time>2026-04-18T13:48:53.999Z</time></trkpt><trkpt lat="45.90789441801236" lon="9.297463393952993"><ele>201.0</ele><time>2026-04-18T13:48:54.999Z</time></trkpt><trkpt lat="45.90778043870656" lon="9.29756719668678"><ele>201.0</ele><time>2026-04-18T13:48:55.999Z</time></trkpt><trkpt lat="45.90766089196396" lon="9.2976711966091"><ele>201.0</ele><time>2026-04-18T13:48:56.999Z</time></trkpt><trkpt lat="45.90754283213919" lon="9.297774503073647"><ele>200.75</ele><time>2026-04-18T13:48:57.999Z</time></trkpt><trkpt lat="45.907422755055094" lon="9.297881061423773"><ele>200.5</ele><time>2026-04-18T13:48:58.999Z</time></trkpt><trkpt lat="45.907306264928806" lon="9.297990426175499"><ele>200.25</ele><time>2026-04-18T13:48:59.999Z</time></trkpt><trkpt lat="45.90718884842935" lon="9.298097309773148"><ele>200.0</ele><time>2026-04-18T13:49:00.999Z</time></trkpt><trkpt lat="45.9070806771177" lon="9.29820380732826"><ele>200.0</ele><time>2026-04-18T13:49:01.999Z</time></trkpt><trkpt lat="45.9069669577375" lon="9.298315318255584"><ele>200.0</ele><time>2026-04-18T13:49:02.999Z</time></trkpt><trkpt lat="45.906849473033546" lon="9.298426577975759"><ele>200.0</ele><time>2026-04-18T13:49:03.999Z</time></trkpt><trkpt lat="45.90673336801678" lon="9.298522754524809"><ele>200.0</ele><time>2026-04-18T13:49:04.999Z</time></trkpt><trkpt lat="45.90661860648691" lon="9.298621631962824"><ele>200.0</ele><time>2026-04-18T13:49:05.999Z</time></trkpt><trkpt lat="45.90649928160738" lon="9.29872877164422"><ele>200.0</ele><time>2026-04-18T13:49:06.999Z</time></trkpt><trkpt lat="45.90638546628903" lon="9.298835744792424"><ele>200.0</ele><time>2026-04-18T13:49:07.999Z</time></trkpt><trkpt lat="45.90627089664427" lon="9.298945102443149"><ele>200.0</ele><time>2026-04-18T13:49:08.999Z</time></trkpt><trkpt lat="45.906156793348515" lon="9.299052500204322"><ele>200.0</ele><time>2026-04-18T13:49:09.999Z</time></trkpt><trkpt lat="45.906041318765475" lon="9.299157591220217"><ele>200.0</ele><time>2026-04-18T13:49:10.999Z</time></trkpt><trkpt lat="45.90592248349616" lon="9.299262139533631"><ele>200.0</ele><time>2026-04-18T13:49:12Z</time></trkpt><trkpt lat="45.905811375912904" lon="9.29937171083103"><ele>200.0</ele><time>2026-04-18T13:49:13Z</time></trkpt><trkpt lat="45.90569803014524" lon="9.299479675112165"><ele>199.75</ele><time>2026-04-18T13:49:14Z</time></trkpt><trkpt lat="45.90557519455544" lon="9.299574778020489"><ele>199.5</ele><time>2026-04-18T13:49:15Z</time></trkpt><trkpt lat="45.90545104175162" lon="9.299651006066446"><ele>199.25</ele><time>2026-04-18T13:49:16Z</time></trkpt><trkpt lat="45.9053231736954" lon="9.299707268914837"><ele>199.0</ele><time>2026-04-18T13:49:17Z</time></trkpt><trkpt lat="45.90518884646608" lon="9.299751088256173"><ele>199.5</ele><time>2026-04-18T13:49:18Z</time></trkpt><trkpt lat="45.905055073141455" lon="9.299797430690841"><ele>200.0</ele><time>2026-04-18T13:49:19Z</time></trkpt><trkpt lat="45.90492610427546" lon="9.299852868030671"><ele>200.5</ele><time>2026-04-18T13:49:20Z</time></trkpt><trkpt lat="45.90480090626358" lon="9.299920751146495"><ele>201.0</ele><time>2026-04-18T13:49:21Z</time></trkpt><trkpt lat="45.90468375378054" lon="9.300024774390293"><ele>201.0</ele><time>2026-04-18T13:49:22Z</time></trkpt><trkpt lat="45.90457915166607" lon="9.300147523261142"><ele>201.0</ele><time>2026-04-18T13:49:23Z</time></trkpt><trkpt lat="45.90447122717869" lon="9.300278172084745"><ele>201.0</ele><time>2026-04-18T13:49:24Z</time></trkpt><trkpt lat="45.90436450629878" lon="9.300401410021514"><ele>201.0</ele><time>2026-04-18T13:49:25Z</time></trkpt><trkpt lat="45.904257636635606" lon="9.300525040683043"><ele>200.75</ele><time>2026-04-18T13:49:26Z</time></trkpt><trkpt lat="45.90415061868987" lon="9.300647405689173"><ele>200.5</ele><time>2026-04-18T13:49:27Z</time></trkpt><trkpt lat="45.90404153825415" lon="9.300765659330919"><ele>200.25</ele><time>2026-04-18T13:49:28Z</time></trkpt><trkpt lat="45.9039298615662" lon="9.300868651183054"><ele>200.0</ele><time>2026-04-18T13:49:29Z</time></trkpt><trkpt lat="45.90380422796965" lon="9.300959971583591"><ele>200.0</ele><time>2026-04-18T13:49:30Z</time></trkpt><trkpt lat="45.90366283013679" lon="9.301034956646888"><ele>200.0</ele><time>2026-04-18T13:49:31Z</time></trkpt><trkpt lat="45.90351402769331" lon="9.301092674829382"><ele>200.0</ele><time>2026-04-18T13:49:32Z</time></trkpt><trkpt lat="45.90335925910721" lon="9.301143651335627"><ele>201.5</ele><time>2026-04-18T13:49:33Z</time></trkpt><trkpt lat="45.90321467217723" lon="9.30119324793713"><ele>203.0</ele><time>2026-04-18T13:49:34Z</time></trkpt><trkpt lat="45.90308105314614" lon="9.301244262692274"><ele>204.5</ele><time>2026-04-18T13:49:35Z</time></trkpt><trkpt lat="45.90294559941187" lon="9.301292298692024"><ele>206.0</ele><time>2026-04-18T13:49:36Z</time></trkpt><trkpt lat="45.90281157445171" lon="9.301347292036175"><ele>206.75</ele><time>2026-04-18T13:49:37Z</time></trkpt><trkpt lat="45.90268841697791" lon="9.301427020871758"><ele>207.5</ele><time>2026-04-18T13:49:38Z</time></trkpt><trkpt lat="45.902586201533424" lon="9.301554615342445"><ele>208.25</ele><time>2026-04-18T13:49:39Z</time></trkpt><trkpt lat="45.902500418960834" lon="9.30171408109168"><ele>209.0</ele><time>2026-04-18T13:49:40Z</time></trkpt><trkpt lat="45.902421092440456" lon="9.301880793090403"><ele>209.0</ele><time>2026-04-18T13:49:41Z</time></trkpt><trkpt lat="45.902337265852275" lon="9.302039917884867"><ele>209.0</ele><time>2026-04-18T13:49:42Z</time></trkpt><trkpt lat="45.90225261504678" lon="9.302196649123097"><ele>209.0</ele><time>2026-04-18T13:49:43Z</time></trkpt><trkpt lat="45.90217171555753" lon="9.302366964406783"><ele>209.0</ele><time>2026-04-18T13:49:44Z</time></trkpt><trkpt lat="45.90208981355112" lon="9.302531236171117"><ele>207.75</ele><time>2026-04-18T13:49:45Z</time></trkpt><trkpt lat="45.90201450580427" lon="9.302704150212952"><ele>206.5</ele><time>2026-04-18T13:49:46Z</time></trkpt><trkpt lat="45.90194235071565" lon="9.302880686225043"><ele>205.25</ele><time>2026-04-18T13:49:47Z</time></trkpt><trkpt lat="45.901866599592644" lon="9.303050994962478"><ele>204.0</ele><time>2026-04-18T13:49:48Z</time></trkpt><trkpt lat="45.90179216866701" lon="9.303223577612936"><ele>207.0</ele><time>2026-04-18T13:49:49Z</time></trkpt><trkpt lat="45.901716128516554" lon="9.303392272698423"><ele>210.0</ele><time>2026-04-18T13:49:50Z</time></trkpt><trkpt lat="45.90163316501165" lon="9.303554878313902"><ele>213.0</ele><time>2026-04-18T13:49:51Z</time></trkpt><trkpt lat="45.90154217380063" lon="9.303705751892013"><ele>216.0</ele><time>2026-04-18T13:49:52Z</time></trkpt><trkpt lat="45.9014518465797" lon="9.303859284892273"><ele>212.75</ele><time>2026-04-18T13:49:53Z</time></trkpt><trkpt lat="45.901358728643466" lon="9.30401283208375"><ele>209.5</ele><time>2026-04-18T13:49:54Z</time></trkpt><trkpt lat="45.901266298360916" lon="9.304162679822804"><ele>206.25</ele><time>2026-04-18T13:49:55Z</time></trkpt><trkpt lat="45.90117267736891" lon="9.304306940198815"><ele>203.0</ele><time>2026-04-18T13:49:56Z</time></trkpt><trkpt lat="45.90108314039572" lon="9.304457596663807"><ele>203.0</ele><time>2026-04-18T13:49:57Z</time></trkpt><trkpt lat="45.90099487423115" lon="9.304609537522236"><ele>203.0</ele><time>2026-04-18T13:49:58Z</time></trkpt><trkpt lat="45.90091178760995" lon="9.30476961573236"><ele>203.0</ele><time>2026-04-18T13:49:59Z</time></trkpt><trkpt lat="45.90081847756219" lon="9.304929727995082"><ele>203.0</ele><time>2026-04-18T13:50:00Z</time></trkpt><trkpt lat="45.900742559073684" lon="9.30510522107952"><ele>203.5</ele><time>2026-04-18T13:50:01Z</time></trkpt><trkpt lat="45.90066914233702" lon="9.305272254126722"><ele>204.0</ele><time>2026-04-18T13:50:02Z</time></trkpt><trkpt lat="45.9005950950839" lon="9.305438517273625"><ele>204.5</ele><time>2026-04-18T13:50:03Z</time></trkpt><trkpt lat="45.900519408396065" lon="9.305595846266172"><ele>205.0</ele><time>2026-04-18T13:50:04Z</time></trkpt><trkpt lat="45.900429604083314" lon="9.305742671398617"><ele>205.0</ele><time>2026-04-18T13:50:05Z</time></trkpt><trkpt lat="45.90033519901873" lon="9.305894215548072"><ele>205.0</ele><time>2026-04-18T13:50:06Z</time></trkpt><trkpt lat="45.90022042386029" lon="9.306016712916692"><ele>205.0</ele><time>2026-04-18T13:50:07Z</time></trkpt><trkpt lat="45.90011214634572" lon="9.306149896438974"><ele>205.0</ele><time>2026-04-18T13:50:08Z</time></trkpt><trkpt lat="45.90000593274872" lon="9.306281352553986"><ele>206.25</ele><time>2026-04-18T13:50:09Z</time></trkpt><trkpt lat="45.89989480870885" lon="9.306405226752805"><ele>207.5</ele><time>2026-04-18T13:50:10Z</time></trkpt><trkpt lat="45.89979933038067" lon="9.306556762448663"><ele>208.75</ele><time>2026-04-18T13:50:11Z</time></trkpt><trkpt lat="45.899708247067956" lon="9.306727163812461"><ele>210.0</ele><time>2026-04-18T13:50:12Z</time></trkpt><trkpt lat="45.899605530778885" lon="9.30691316438148"><ele>210.0</ele><time>2026-04-18T13:50:13Z</time></trkpt><trkpt lat="45.89949151252048" lon="9.30711557134681"><ele>210.0</ele><time>2026-04-18T13:50:14Z</time></trkpt><trkpt lat="45.89937722339742" lon="9.307324165194775"><ele>210.0</ele><time>2026-04-18T13:50:15Z</time></trkpt><trkpt lat="45.899269728613206" lon="9.307521747760681"><ele>209.0</ele><time>2026-04-18T13:50:15.999Z</time></trkpt><trkpt lat="45.899140312876085" lon="9.307767017806508"><ele>208.0</ele><time>2026-04-18T13:50:16.999Z</time></trkpt><trkpt lat="45.89903320704244" lon="9.308038826795661"><ele>207.0</ele><time>2026-04-18T13:50:17.999Z</time></trkpt><trkpt lat="45.89893851559345" lon="9.308276757047466"><ele>207.0</ele><time>2026-04-18T13:50:18.999Z</time></trkpt><trkpt lat="45.898866998826264" lon="9.308498613408219"><ele>207.0</ele><time>2026-04-18T13:50:19.999Z</time></trkpt><trkpt lat="45.89880573948516" lon="9.308689914284063"><ele>207.0</ele><time>2026-04-18T13:50:20.999Z</time></trkpt><trkpt lat="45.89876430086974" lon="9.30888356203431"><ele>204.33333333333331</ele><time>2026-04-18T13:50:21.999Z</time></trkpt><trkpt lat="45.89868957281569" lon="9.309078561238103"><ele>201.66666666666666</ele><time>2026-04-18T13:50:22.999Z</time></trkpt><trkpt lat="45.89863623947909" lon="9.309372323646611"><ele>199.0</ele><time>2026-04-18T13:50:23.999Z</time></trkpt><trkpt lat="45.898597170925726" lon="9.309680643718274"><ele>198.66666666666666</ele><time>2026-04-18T13:50:24.999Z</time></trkpt><trkpt lat="45.89856076543273" lon="9.309959662475993"><ele>198.33333333333331</ele><time>2026-04-18T13:50:25.999Z</time></trkpt><trkpt lat="45.898532456581236" lon="9.310196395828086"><ele>198.0</ele><time>2026-04-18T13:50:26.999Z</time></trkpt><trkpt lat="45.89849184840113" lon="9.31040478538585"><ele>199.75</ele><time>2026-04-18T13:50:27.999Z</time></trkpt><trkpt lat="45.8983975842873" lon="9.31053710528467"><ele>201.5</ele><time>2026-04-18T13:50:28.999Z</time></trkpt><trkpt lat="45.89833162631811" lon="9.3106323136281"><ele>203.25</ele><time>2026-04-18T13:50:29.999Z</time></trkpt><trkpt lat="45.89819976393577" lon="9.310709655992996"><ele>205.0</ele><time>2026-04-18T13:50:30.999Z</time></trkpt><trkpt lat="45.898058561506396" lon="9.310796195972369"><ele>205.0</ele><time>2026-04-18T13:50:31.999Z</time></trkpt><trkpt lat="45.89791400754574" lon="9.31085077287485"><ele>205.0</ele><time>2026-04-18T13:50:32.999Z</time></trkpt><trkpt lat="45.897779793661236" lon="9.310862824475535"><ele>205.0</ele><time>2026-04-18T13:50:33.999Z</time></trkpt><trkpt lat="45.89763786707802" lon="9.310851143475148"><ele>205.0</ele><time>2026-04-18T13:50:34.999Z</time></trkpt><trkpt lat="45.89747677582304" lon="9.31083577015758"><ele>207.75</ele><time>2026-04-18T13:50:35.999Z</time></trkpt><trkpt lat="45.8973153470845" lon="9.310858978107298"><ele>210.5</ele><time>2026-04-18T13:50:36.999Z</time></trkpt><trkpt lat="45.89717062933142" lon="9.310887333713968"><ele>213.25</ele><time>2026-04-18T13:50:37.999Z</time></trkpt><trkpt lat="45.89705935468857" lon="9.310964110782114"><ele>216.0</ele><time>2026-04-18T13:50:38.999Z</time></trkpt><trkpt lat="45.89693103688986" lon="9.31108821817389"><ele>216.0</ele><time>2026-04-18T13:50:39.999Z</time></trkpt><trkpt lat="45.89677320814461" lon="9.31124100862177"><ele>216.0</ele><time>2026-04-18T13:50:40.999Z</time></trkpt><trkpt lat="45.89660690285567" lon="9.311387438255345"><ele>216.0</ele><time>2026-04-18T13:50:41.999Z</time></trkpt><trkpt lat="45.896427062488655" lon="9.311531629621811"><ele>212.0</ele><time>2026-04-18T13:50:42.999Z</time></trkpt><trkpt lat="45.89625395546626" lon="9.311691029979789"><ele>208.0</ele><time>2026-04-18T13:50:43.999Z</time></trkpt><trkpt lat="45.8960830163338" lon="9.31183986927799"><ele>204.0</ele><time>2026-04-18T13:50:44.999Z</time></trkpt><trkpt lat="45.89591939290003" lon="9.311975338342641"><ele>204.66666666666669</ele><time>2026-04-18T13:50:45.999Z</time></trkpt><trkpt lat="45.89576499731167" lon="9.312108712378322"><ele>205.33333333333334</ele><time>2026-04-18T13:50:46.999Z</time></trkpt><trkpt lat="45.89560605750356" lon="9.31224327447678"><ele>206.0</ele><time>2026-04-18T13:50:47.999Z</time></trkpt><trkpt lat="45.89545674133458" lon="9.312372571252025"><ele>206.0</ele><time>2026-04-18T13:50:48.999Z</time></trkpt><trkpt lat="45.895309678998814" lon="9.31251047129515"><ele>206.0</ele><time>2026-04-18T13:50:49.999Z</time></trkpt><trkpt lat="45.895153179930546" lon="9.312632104213124"><ele>206.0</ele><time>2026-04-18T13:50:50.999Z</time></trkpt><trkpt lat="45.89501142844701" lon="9.312755385774839"><ele>206.25</ele><time>2026-04-18T13:50:51.999Z</time></trkpt><trkpt lat="45.89488173097486" lon="9.31287392156325"><ele>206.5</ele><time>2026-04-18T13:50:52.999Z</time></trkpt><trkpt lat="45.89476096922429" lon="9.312980635347175"><ele>206.75</ele><time>2026-04-18T13:50:53.999Z</time></trkpt><trkpt lat="45.894655122495344" lon="9.313047586940963"><ele>207.0</ele><time>2026-04-18T13:50:54.999Z</time></trkpt><trkpt lat="45.89453074025076" lon="9.313077054230428"><ele>215.33333333333331</ele><time>2026-04-18T13:50:55.999Z</time></trkpt><trkpt lat="45.89438293240577" lon="9.313066750631387"><ele>223.66666666666666</ele><time>2026-04-18T13:50:56.999Z</time></trkpt><trkpt lat="45.894225723505855" lon="9.313130996740027"><ele>232.0</ele><time>2026-04-18T13:50:57.999Z</time></trkpt><trkpt lat="45.89405282771359" lon="9.313210757059647"><ele>232.66666666666666</ele><time>2026-04-18T13:50:58.999Z</time></trkpt><trkpt lat="45.893881789433784" lon="9.313316522685883"><ele>233.33333333333331</ele><time>2026-04-18T13:50:59.999Z</time></trkpt><trkpt lat="45.893737333763305" lon="9.313433282632666"><ele>234.0</ele><time>2026-04-18T13:51:00.999Z</time></trkpt><trkpt lat="45.893619996675" lon="9.313557714719408"><ele>234.0</ele><time>2026-04-18T13:51:01.999Z</time></trkpt><trkpt lat="45.89350144630562" lon="9.313697569645898"><ele>234.0</ele><time>2026-04-18T13:51:02.999Z</time></trkpt><trkpt lat="45.89337812143789" lon="9.313847964227511"><ele>234.0</ele><time>2026-04-18T13:51:03.999Z</time></trkpt><trkpt lat="45.893263523889274" lon="9.313997477747284"><ele>230.75</ele><time>2026-04-18T13:51:04.999Z</time></trkpt><trkpt lat="45.89317376263321" lon="9.314146397302952"><ele>227.5</ele><time>2026-04-18T13:51:05.999Z</time></trkpt><trkpt lat="45.893087621805684" lon="9.314307740296673"><ele>224.25</ele><time>2026-04-18T13:51:06.999Z</time></trkpt><trkpt lat="45.89300250152859" lon="9.314461271902141"><ele>221.0</ele><time>2026-04-18T13:51:07.999Z</time></trkpt><trkpt lat="45.8928952536705" lon="9.314577091787212"><ele>221.0</ele><time>2026-04-18T13:51:08.999Z</time></trkpt><trkpt lat="45.89276287719377" lon="9.31467477558757"><ele>221.0</ele><time>2026-04-18T13:51:09.999Z</time></trkpt><trkpt lat="45.89262575507554" lon="9.314777267690056"><ele>221.0</ele><time>2026-04-18T13:51:10.999Z</time></trkpt><trkpt lat="45.89249690102187" lon="9.314895408337753"><ele>218.0</ele><time>2026-04-18T13:51:11.999Z</time></trkpt><trkpt lat="45.89235989395615" lon="9.314999068374155"><ele>215.0</ele><time>2026-04-18T13:51:12.999Z</time></trkpt><trkpt lat="45.89220717116058" lon="9.315061045335398"><ele>212.0</ele><time>2026-04-18T13:51:13.999Z</time></trkpt><trkpt lat="45.89206062960865" lon="9.315115435026643"><ele>212.0</ele><time>2026-04-18T13:51:14.999Z</time></trkpt><trkpt lat="45.89191277357941" lon="9.315170066387976"><ele>212.0</ele><time>2026-04-18T13:51:15.999Z</time></trkpt><trkpt lat="45.89176913963868" lon="9.315171423928954"><ele>212.0</ele><time>2026-04-18T13:51:16.999Z</time></trkpt><trkpt lat="45.8916360452125" lon="9.31517158359704"><ele>212.0</ele><time>2026-04-18T13:51:18Z</time></trkpt><trkpt lat="45.89150363065114" lon="9.315171675348994"><ele>218.5</ele><time>2026-04-18T13:51:19Z</time></trkpt><trkpt lat="45.891385158823574" lon="9.315172867768533"><ele>225.0</ele><time>2026-04-18T13:51:20Z</time></trkpt><trkpt lat="45.891288323934475" lon="9.315242547721857"><ele>231.5</ele><time>2026-04-18T13:51:21Z</time></trkpt><trkpt lat="45.89119741917422" lon="9.315342520895635"><ele>238.0</ele><time>2026-04-18T13:51:22Z</time></trkpt><trkpt lat="45.89114646712392" lon="9.315488787813155"><ele>229.25</ele><time>2026-04-18T13:51:23Z</time></trkpt><trkpt lat="45.89109964938408" lon="9.31566336114068"><ele>220.5</ele><time>2026-04-18T13:51:24Z</time></trkpt><trkpt lat="45.8911136241546" lon="9.315864807007502"><ele>211.75</ele><time>2026-04-18T13:51:25Z</time></trkpt><trkpt lat="45.89112152951011" lon="9.316056321573077"><ele>203.0</ele><time>2026-04-18T13:51:26Z</time></trkpt><trkpt lat="45.89111904793346" lon="9.316259446609825"><ele>201.75</ele><time>2026-04-18T13:51:27Z</time></trkpt><trkpt lat="45.89111733606168" lon="9.316460565903336"><ele>200.5</ele><time>2026-04-18T13:51:28Z</time></trkpt><trkpt lat="45.891078569823726" lon="9.316662190350621"><ele>199.25</ele><time>2026-04-18T13:51:29Z</time></trkpt><trkpt lat="45.89102170008684" lon="9.316845161662474"><ele>198.0</ele><time>2026-04-18T13:51:30Z</time></trkpt><trkpt lat="45.890943581480606" lon="9.317024717545456"><ele>203.25</ele><time>2026-04-18T13:51:31Z</time></trkpt><trkpt lat="45.890873229043706" lon="9.317210787648056"><ele>208.5</ele><time>2026-04-18T13:51:32Z</time></trkpt><trkpt lat="45.89078654405948" lon="9.31738755614354"><ele>213.75</ele><time>2026-04-18T13:51:33Z</time></trkpt><trkpt lat="45.89070367245226" lon="9.317546128289312"><ele>219.0</ele><time>2026-04-18T13:51:34Z</time></trkpt><trkpt lat="45.89057511194551" lon="9.317628930204108"><ele>219.0</ele><time>2026-04-18T13:51:35Z</time></trkpt><trkpt lat="45.89045767525974" lon="9.317748661718639"><ele>219.0</ele><time>2026-04-18T13:51:36Z</time></trkpt><trkpt lat="45.890317536236175" lon="9.317847613248244"><ele>219.0</ele><time>2026-04-18T13:51:37Z</time></trkpt><trkpt lat="45.89017262325813" lon="9.317952596092839"><ele>218.0</ele><time>2026-04-18T13:51:38Z</time></trkpt><trkpt lat="45.89002439195235" lon="9.318048400734279"><ele>217.0</ele><time>2026-04-18T13:51:39Z</time></trkpt><trkpt lat="45.889869062512616" lon="9.318131559141273"><ele>216.0</ele><time>2026-04-18T13:51:40Z</time></trkpt><trkpt lat="45.88972952077967" lon="9.318224988096475"><ele>216.0</ele><time>2026-04-18T13:51:41Z</time></trkpt><trkpt lat="45.889642162939346" lon="9.318391858687827"><ele>216.0</ele><time>2026-04-18T13:51:42Z</time></trkpt><trkpt lat="45.88956113872685" lon="9.318601547898291"><ele>216.0</ele><time>2026-04-18T13:51:43Z</time></trkpt><trkpt lat="45.889501144149435" lon="9.318809641903625"><ele>218.5</ele><time>2026-04-18T13:51:44Z</time></trkpt><trkpt lat="45.88942981311626" lon="9.318969271564148"><ele>221.0</ele><time>2026-04-18T13:51:45Z</time></trkpt><trkpt lat="45.889340485866626" lon="9.31909431294755"><ele>223.5</ele><time>2026-04-18T13:51:46Z</time></trkpt><trkpt lat="45.88924412232036" lon="9.319203206923397"><ele>226.0</ele><time>2026-04-18T13:51:47Z</time></trkpt><trkpt lat="45.88915398041221" lon="9.319316768001574"><ele>226.0</ele><time>2026-04-18T13:51:48Z</time></trkpt><trkpt lat="45.88906478622846" lon="9.319425736567114"><ele>226.0</ele><time>2026-04-18T13:51:49Z</time></trkpt><trkpt lat="45.888965040535375" lon="9.319532278188868"><ele>226.0</ele><time>2026-04-18T13:51:50Z</time></trkpt><trkpt lat="45.888868809552314" lon="9.319618818129607"><ele>226.0</ele><time>2026-04-18T13:51:51Z</time></trkpt><trkpt lat="45.88874788142732" lon="9.319652775156786"><ele>226.0</ele><time>2026-04-18T13:51:52Z</time></trkpt><trkpt lat="45.88861479222528" lon="9.319692829848368"><ele>226.0</ele><time>2026-04-18T13:51:53Z</time></trkpt><trkpt lat="45.88849623922077" lon="9.319762914222471"><ele>226.0</ele><time>2026-04-18T13:51:54Z</time></trkpt><trkpt lat="45.888378971802815" lon="9.319860047102056"><ele>226.0</ele><time>2026-04-18T13:51:55Z</time></trkpt><trkpt lat="45.8882691235434" lon="9.31995158187765"><ele>226.5</ele><time>2026-04-18T13:51:56Z</time></trkpt><trkpt lat="45.8881608729926" lon="9.32004227429044"><ele>227.0</ele><time>2026-04-18T13:51:57Z</time></trkpt><trkpt lat="45.88805647845879" lon="9.32015436796523"><ele>227.5</ele><time>2026-04-18T13:51:58Z</time></trkpt><trkpt lat="45.88796341682341" lon="9.320289111665621"><ele>228.0</ele><time>2026-04-18T13:51:59Z</time></trkpt><trkpt lat="45.88786809779257" lon="9.320423707907908"><ele>228.0</ele><time>2026-04-18T13:52:00Z</time></trkpt><trkpt lat="45.88777794611296" lon="9.320559215691219"><ele>228.0</ele><time>2026-04-18T13:52:01Z</time></trkpt><trkpt lat="45.88769248056586" lon="9.320696919658532"><ele>228.0</ele><time>2026-04-18T13:52:02Z</time></trkpt><trkpt lat="45.88761983567192" lon="9.320823034562647"><ele>228.0</ele><time>2026-04-18T13:52:03Z</time></trkpt><trkpt lat="45.88756038403193" lon="9.320940783096587"><ele>230.0</ele><time>2026-04-18T13:52:04Z</time></trkpt><trkpt lat="45.887506817139" lon="9.32110165143944"><ele>232.0</ele><time>2026-04-18T13:52:05Z</time></trkpt><trkpt lat="45.887452080815585" lon="9.321270003953686"><ele>234.0</ele><time>2026-04-18T13:52:06Z</time></trkpt><trkpt lat="45.887390699322864" lon="9.321432709903455"><ele>236.0</ele><time>2026-04-18T13:52:07Z</time></trkpt><trkpt lat="45.88731330301423" lon="9.321572451068523"><ele>229.25</ele><time>2026-04-18T13:52:08Z</time></trkpt><trkpt lat="45.88720130875029" lon="9.321654665533917"><ele>222.5</ele><time>2026-04-18T13:52:09Z</time></trkpt><trkpt lat="45.887101041610165" lon="9.32177774700666"><ele>215.75</ele><time>2026-04-18T13:52:10Z</time></trkpt><trkpt lat="45.88699343438025" lon="9.321897135913655"><ele>209.0</ele><time>2026-04-18T13:52:11Z</time></trkpt><trkpt lat="45.886907258322346" lon="9.32204733016084"><ele>209.0</ele><time>2026-04-18T13:52:12Z</time></trkpt><trkpt lat="45.88680353983172" lon="9.322193914451187"><ele>209.0</ele><time>2026-04-18T13:52:13Z</time></trkpt><trkpt lat="45.886690591541885" lon="9.322332969958603"><ele>209.0</ele><time>2026-04-18T13:52:14Z</time></trkpt><trkpt lat="45.88657411064665" lon="9.322452960868095"><ele>209.0</ele><time>2026-04-18T13:52:15Z</time></trkpt><trkpt lat="45.88646825776531" lon="9.322565067518319"><ele>206.66666666666669</ele><time>2026-04-18T13:52:15.999Z</time></trkpt><trkpt lat="45.886400347347596" lon="9.322733465160598"><ele>204.33333333333331</ele><time>2026-04-18T13:52:16.999Z</time></trkpt><trkpt lat="45.886316746481995" lon="9.322965082339175"><ele>202.0</ele><time>2026-04-18T13:52:17.999Z</time></trkpt><trkpt lat="45.88626364647557" lon="9.323142341393433"><ele>202.0</ele><time>2026-04-18T13:52:18.999Z</time></trkpt><trkpt lat="45.88617803199978" lon="9.323281355630748"><ele>202.0</ele><time>2026-04-18T13:52:19.999Z</time></trkpt><trkpt lat="45.88609325049125" lon="9.323418280356597"><ele>202.0</ele><time>2026-04-18T13:52:20.999Z</time></trkpt><trkpt lat="45.885980794762844" lon="9.323473769211306"><ele>202.0</ele><time>2026-04-18T13:52:21.999Z</time></trkpt><trkpt lat="45.88587243898982" lon="9.323578427661667"><ele>208.25</ele><time>2026-04-18T13:52:22.999Z</time></trkpt><trkpt lat="45.885748740001674" lon="9.323660204199001"><ele>214.5</ele><time>2026-04-18T13:52:23.999Z</time></trkpt><trkpt lat="45.885623353934484" lon="9.323737154291265"><ele>220.75</ele><time>2026-04-18T13:52:24.999Z</time></trkpt><trkpt lat="45.88550192930677" lon="9.323811558030453"><ele>227.0</ele><time>2026-04-18T13:52:25.999Z</time></trkpt><trkpt lat="45.88538418868086" lon="9.323891192652347"><ele>227.75</ele><time>2026-04-18T13:52:26.999Z</time></trkpt><trkpt lat="45.88527299513866" lon="9.324008511785726"><ele>228.5</ele><time>2026-04-18T13:52:27.999Z</time></trkpt><trkpt lat="45.8851895991071" lon="9.324131808872085"><ele>229.25</ele><time>2026-04-18T13:52:28.999Z</time></trkpt><trkpt lat="45.88509251555387" lon="9.324275315346982"><ele>230.0</ele><time>2026-04-18T13:52:29.999Z</time></trkpt><trkpt lat="45.885003449994" lon="9.32441152948841"><ele>230.0</ele><time>2026-04-18T13:52:30.999Z</time></trkpt><trkpt lat="45.88493243529045" lon="9.324578256988847"><ele>230.0</ele><time>2026-04-18T13:52:31.999Z</time></trkpt><trkpt lat="45.88488899185566" lon="9.32477844297756"><ele>230.0</ele><time>2026-04-18T13:52:32.999Z</time></trkpt><trkpt lat="45.884853248034965" lon="9.324989730255174"><ele>230.0</ele><time>2026-04-18T13:52:33.999Z</time></trkpt><trkpt lat="45.88479316806149" lon="9.325183991055127"><ele>224.75</ele><time>2026-04-18T13:52:34.999Z</time></trkpt><trkpt lat="45.88474788882685" lon="9.325384664900895"><ele>219.5</ele><time>2026-04-18T13:52:35.999Z</time></trkpt><trkpt lat="45.8847024422596" lon="9.325587583048101"><ele>214.25</ele><time>2026-04-18T13:52:36.999Z</time></trkpt><trkpt lat="45.88466430117056" lon="9.325783341786407"><ele>209.0</ele><time>2026-04-18T13:52:37.999Z</time></trkpt><trkpt lat="45.88463552474448" lon="9.325960679100858"><ele>207.0</ele><time>2026-04-18T13:52:38.999Z</time></trkpt><trkpt lat="45.88460670202951" lon="9.326137208562432"><ele>205.0</ele><time>2026-04-18T13:52:39.999Z</time></trkpt><trkpt lat="45.88458071188949" lon="9.326295424992335"><ele>203.0</ele><time>2026-04-18T13:52:40.999Z</time></trkpt><trkpt lat="45.8845543808628" lon="9.326458610492155"><ele>201.0</ele><time>2026-04-18T13:52:41.999Z</time></trkpt><trkpt lat="45.88452771915981" lon="9.326631083388396"><ele>201.0</ele><time>2026-04-18T13:52:42.999Z</time></trkpt><trkpt lat="45.884502905562044" lon="9.32679160123137"><ele>201.0</ele><time>2026-04-18T13:52:43.999Z</time></trkpt><trkpt lat="45.88447984133931" lon="9.326940793561313"><ele>201.0</ele><time>2026-04-18T13:52:44.999Z</time></trkpt><trkpt lat="45.88445852320717" lon="9.327089148179692"><ele>201.0</ele><time>2026-04-18T13:52:45.999Z</time></trkpt><trkpt lat="45.88443656894412" lon="9.327252700987819"><ele>201.0</ele><time>2026-04-18T13:52:46.999Z</time></trkpt><trkpt lat="45.884419192183955" lon="9.327415727499028"><ele>200.60000000000002</ele><time>2026-04-18T13:52:47.999Z</time></trkpt><trkpt lat="45.884405400761416" lon="9.327560115475446"><ele>200.2</ele><time>2026-04-18T13:52:48.999Z</time></trkpt><trkpt lat="45.884393585171146" lon="9.32769826017404"><ele>199.8</ele><time>2026-04-18T13:52:49.999Z</time></trkpt><trkpt lat="45.88438186544838" lon="9.327840864415283"><ele>199.39999999999998</ele><time>2026-04-18T13:52:50.999Z</time></trkpt><trkpt lat="45.88437068733356" lon="9.327980958891592"><ele>199.0</ele><time>2026-04-18T13:52:51.999Z</time></trkpt><trkpt lat="45.884359995607326" lon="9.328123991973637"><ele>198.79999999999998</ele><time>2026-04-18T13:52:52.999Z</time></trkpt><trkpt lat="45.884349114803875" lon="9.328269553813131"><ele>198.6</ele><time>2026-04-18T13:52:53.999Z</time></trkpt><trkpt lat="45.88433851916875" lon="9.328411301162419"><ele>198.4</ele><time>2026-04-18T13:52:54.999Z</time></trkpt><trkpt lat="45.884327406896915" lon="9.328559959736511"><ele>198.2</ele><time>2026-04-18T13:52:55.999Z</time></trkpt><trkpt lat="45.88431552475959" lon="9.328718917911656"><ele>198.0</ele><time>2026-04-18T13:52:56.999Z</time></trkpt><trkpt lat="45.88430282732717" lon="9.328888782891084"><ele>198.0</ele><time>2026-04-18T13:52:57.999Z</time></trkpt><trkpt lat="45.8842898448714" lon="9.32906246078889"><ele>198.0</ele><time>2026-04-18T13:52:58.999Z</time></trkpt><trkpt lat="45.88427639296688" lon="9.329242418762247"><ele>198.0</ele><time>2026-04-18T13:52:59.999Z</time></trkpt><trkpt lat="45.88426246826665" lon="9.32942870201088"><ele>198.0</ele><time>2026-04-18T13:53:00.999Z</time></trkpt><trkpt lat="45.8842497827027" lon="9.329601836545214"><ele>203.75</ele><time>2026-04-18T13:53:01.999Z</time></trkpt><trkpt lat="45.884235900726615" lon="9.329785634437116"><ele>209.5</ele><time>2026-04-18T13:53:02.999Z</time></trkpt><trkpt lat="45.884229406292405" lon="9.32996884134401"><ele>215.25</ele><time>2026-04-18T13:53:03.999Z</time></trkpt><trkpt lat="45.88422997262791" lon="9.330159383590965"><ele>221.0</ele><time>2026-04-18T13:53:04.999Z</time></trkpt><trkpt lat="45.88423083070987" lon="9.330346580526811"><ele>221.0</ele><time>2026-04-18T13:53:05.999Z</time></trkpt><trkpt lat="45.884229821466064" lon="9.330512301711577"><ele>221.0</ele><time>2026-04-18T13:53:06.999Z</time></trkpt><trkpt lat="45.88422555646877" lon="9.330689063310853"><ele>221.0</ele><time>2026-04-18T13:53:07.999Z</time></trkpt><trkpt lat="45.8842080868879" lon="9.330852048693583"><ele>221.0</ele><time>2026-04-18T13:53:08.999Z</time></trkpt><trkpt lat="45.88417047239265" lon="9.331011906022235"><ele>219.75</ele><time>2026-04-18T13:53:09.999Z</time></trkpt><trkpt lat="45.88411465902462" lon="9.331165226905421"><ele>218.5</ele><time>2026-04-18T13:53:10.999Z</time></trkpt><trkpt lat="45.884044056195265" lon="9.331324984897334"><ele>217.25</ele><time>2026-04-18T13:53:11.999Z</time></trkpt><trkpt lat="45.883985972018685" lon="9.331509175571103"><ele>216.0</ele><time>2026-04-18T13:53:12.999Z</time></trkpt><trkpt lat="45.883904999383816" lon="9.331688544215089"><ele>213.33333333333331</ele><time>2026-04-18T13:53:13.999Z</time></trkpt><trkpt lat="45.883827639538026" lon="9.331872328218514"><ele>210.66666666666666</ele><time>2026-04-18T13:53:14.999Z</time></trkpt><trkpt lat="45.88374859523315" lon="9.332071323279703"><ele>208.0</ele><time>2026-04-18T13:53:15.999Z</time></trkpt><trkpt lat="45.88365392372595" lon="9.332267694411184"><ele>207.0</ele><time>2026-04-18T13:53:16.999Z</time></trkpt><trkpt lat="45.88356994677649" lon="9.332463296883578"><ele>206.0</ele><time>2026-04-18T13:53:17.999Z</time></trkpt><trkpt lat="45.88350318986246" lon="9.332664537049032"><ele>205.0</ele><time>2026-04-18T13:53:18.999Z</time></trkpt><trkpt lat="45.883414194967855" lon="9.332863789356105"><ele>206.0</ele><time>2026-04-18T13:53:19.999Z</time></trkpt><trkpt lat="45.88332108245392" lon="9.333069964010788"><ele>207.0</ele><time>2026-04-18T13:53:21.021Z</time></trkpt><trkpt lat="45.883224415958715" lon="9.333267573585825"><ele>208.0</ele><time>2026-04-18T13:53:22.018Z</time></trkpt><trkpt lat="45.88313035824812" lon="9.333463226263651"><ele>208.0</ele><time>2026-04-18T13:53:23.014Z</time></trkpt><trkpt lat="45.88303464867424" lon="9.333673980438897"><ele>208.0</ele><time>2026-04-18T13:53:24.013Z</time></trkpt><trkpt lat="45.88293598666083" lon="9.333904535991493"><ele>208.0</ele><time>2026-04-18T13:53:25.014Z</time></trkpt><trkpt lat="45.882833445369165" lon="9.334143551886402"><ele>392.0</ele><time>2026-04-18T13:53:26.022Z</time></trkpt><trkpt lat="45.8817636690933" lon="9.336706220506557"><ele>385.5</ele><time>2026-04-18T13:53:30.659Z</time></trkpt><trkpt lat="45.88150847619874" lon="9.337236588059499"><ele>379.0</ele><time>2026-04-18T13:53:31.658Z</time></trkpt><trkpt lat="45.88124575544678" lon="9.33775945671086"><ele>369.0</ele><time>2026-04-18T13:53:32.659Z</time></trkpt><trkpt lat="45.88097944295675" lon="9.338274955205682"><ele>359.0</ele><time>2026-04-18T13:53:33.654Z</time></trkpt><trkpt lat="45.8809228" lon="9.3383789"><ele>201.0</ele><time>2026-04-18T13:53:34.654Z</time></trkpt><trkpt lat="45.87330542043398" lon="9.356377953672181"><ele>201.0</ele><time>2026-04-18T13:55:15.998Z</time></trkpt><trkpt lat="45.87323465844132" lon="9.356582319175152"><ele>201.0</ele><time>2026-04-18T13:55:16.998Z</time></trkpt><trkpt lat="45.87317546243702" lon="9.35684688927007"><ele>201.0</ele><time>2026-04-18T13:55:17.998Z</time></trkpt><trkpt lat="45.8730782161989" lon="9.35704847476015"><ele>202.0</ele><time>2026-04-18T13:55:18.998Z</time></trkpt><trkpt lat="45.872958948427616" lon="9.357223942906"><ele>203.0</ele><time>2026-04-18T13:55:19.998Z</time></trkpt><trkpt lat="45.87281388591574" lon="9.357370278803376"><ele>204.0</ele><time>2026-04-18T13:55:20.998Z</time></trkpt><trkpt lat="45.87265953220883" lon="9.357510758259858"><ele>205.66666666666669</ele><time>2026-04-18T13:55:21.998Z</time></trkpt><trkpt lat="45.87249207571911" lon="9.357613542175349"><ele>207.33333333333334</ele><time>2026-04-18T13:55:22.998Z</time></trkpt><trkpt lat="45.87232252307928" lon="9.357700973198432"><ele>209.0</ele><time>2026-04-18T13:55:24Z</time></trkpt><trkpt lat="45.87214901059375" lon="9.357773225602633"><ele>209.0</ele><time>2026-04-18T13:55:25Z</time></trkpt><trkpt lat="45.87199067506216" lon="9.35784179631651"><ele>209.0</ele><time>2026-04-18T13:55:26Z</time></trkpt><trkpt lat="45.87183464745301" lon="9.357924554710058"><ele>209.0</ele><time>2026-04-18T13:55:27Z</time></trkpt><trkpt lat="45.871675195931196" lon="9.358007405262123"><ele>214.66666666666669</ele><time>2026-04-18T13:55:28.016Z</time></trkpt><trkpt lat="45.871517182573356" lon="9.358089584714868"><ele>220.33333333333331</ele><time>2026-04-18T13:55:29.024Z</time></trkpt><trkpt lat="45.87136024168791" lon="9.358170971018913"><ele>226.0</ele><time>2026-04-18T13:55:30.023Z</time></trkpt><trkpt lat="45.87120405705343" lon="9.358252053307824"><ele>226.0</ele><time>2026-04-18T13:55:31.018Z</time></trkpt><trkpt lat="45.871046263229296" lon="9.35833401180489"><ele>226.0</ele><time>2026-04-18T13:55:32.024Z</time></trkpt><trkpt lat="45.859179799357115" lon="9.366349190012388"><ele>200.0</ele><time>2026-04-18T13:57:05.314Z</time></trkpt><trkpt lat="45.858921775979205" lon="9.365713475499058"><ele>200.0</ele><time>2026-04-18T13:57:07.999Z</time></trkpt><trkpt lat="45.85881510965589" lon="9.365725553665946"><ele>200.0</ele><time>2026-04-18T13:57:08.999Z</time></trkpt><trkpt lat="45.85871909227294" lon="9.36575486886305"><ele>200.0</ele><time>2026-04-18T13:57:09.999Z</time></trkpt><trkpt lat="45.858632718863234" lon="9.365771738144431"><ele>200.0</ele><time>2026-04-18T13:57:10.999Z</time></trkpt><trkpt lat="45.85855651622575" lon="9.365823797787215"><ele>200.0</ele><time>2026-04-18T13:57:11.999Z</time></trkpt><trkpt lat="45.858484489599476" lon="9.365858946482074"><ele>200.4</ele><time>2026-04-18T13:57:12.999Z</time></trkpt><trkpt lat="45.85836898700975" lon="9.365920084598482"><ele>200.8</ele><time>2026-04-18T13:57:14.999Z</time></trkpt><trkpt lat="45.858249533638066" lon="9.365926560237952"><ele>201.2</ele><time>2026-04-18T13:57:16.999Z</time></trkpt><trkpt lat="45.858189636516805" lon="9.365897226759"><ele>201.6</ele><time>2026-04-18T13:57:17.999Z</time></trkpt><trkpt lat="45.85807036043984" lon="9.365832696129539"><ele>202.0</ele><time>2026-04-18T13:57:19.999Z</time></trkpt><trkpt lat="45.85795640875693" lon="9.36582467154248"><ele>202.0</ele><time>2026-04-18T13:57:21.999Z</time></trkpt><trkpt lat="45.85785199781591" lon="9.365833032772228"><ele>202.0</ele><time>2026-04-18T13:57:23.999Z</time></trkpt><trkpt lat="45.85773591597627" lon="9.36584144551882"><ele>202.0</ele><time>2026-04-18T13:57:25.999Z</time></trkpt><trkpt lat="45.857637028756464" lon="9.36584360732777"><ele>202.0</ele><time>2026-04-18T13:57:27.999Z</time></trkpt><trkpt lat="45.85754398546158" lon="9.365844060680399"><ele>202.0</ele><time>2026-04-18T13:57:30.001Z</time></trkpt><trkpt lat="45.85745826679905" lon="9.365853290283994"><ele>201.49999999999997</ele><time>2026-04-18T13:57:32.001Z</time></trkpt><trkpt lat="45.85735523765624" lon="9.365936905306429"><ele>201.0</ele><time>2026-04-18T13:57:34.001Z</time></trkpt><trkpt lat="45.85735237549445" lon="9.366036305137936"><ele>200.5</ele><time>2026-04-18T13:57:35.001Z</time></trkpt><trkpt lat="45.85737616051545" lon="9.366125993641237"><ele>200.0</ele><time>2026-04-18T13:57:36.001Z</time></trkpt><trkpt lat="45.85738942549891" lon="9.36621583904465"><ele>199.49999999999997</ele><time>2026-04-18T13:57:37.001Z</time></trkpt><trkpt lat="45.857379557817715" lon="9.366315391325077"><ele>199.0</ele><time>2026-04-18T13:57:38.001Z</time></trkpt><trkpt lat="45.85735174991045" lon="9.36641155058431"><ele>198.99999999999997</ele><time>2026-04-18T13:57:39.001Z</time></trkpt><trkpt lat="45.857318251630005" lon="9.366503638661115"><ele>199.0</ele><time>2026-04-18T13:57:40.001Z</time></trkpt><trkpt lat="45.857299284486736" lon="9.366615003327432"><ele>199.0</ele><time>2026-04-18T13:57:41.001Z</time></trkpt><trkpt lat="45.85729855988973" lon="9.3667354390214"><ele>199.0</ele><time>2026-04-18T13:57:42.001Z</time></trkpt><trkpt lat="45.857317448786866" lon="9.366867706150225"><ele>198.99999999999997</ele><time>2026-04-18T13:57:43Z</time></trkpt><trkpt lat="45.85735456279884" lon="9.367000684296253"><ele>199.0</ele><time>2026-04-18T13:57:44Z</time></trkpt><trkpt lat="45.857421252139446" lon="9.367133517248668"><ele>198.75</ele><time>2026-04-18T13:57:45Z</time></trkpt><trkpt lat="45.857499733788586" lon="9.367270643536264"><ele>198.5</ele><time>2026-04-18T13:57:46Z</time></trkpt><trkpt lat="45.85756279749842" lon="9.367414988729639"><ele>198.25</ele><time>2026-04-18T13:57:47Z</time></trkpt><trkpt lat="45.857623837709234" lon="9.367535321435325"><ele>198.0</ele><time>2026-04-18T13:57:48Z</time></trkpt><trkpt lat="45.857681850481164" lon="9.367666405265336"><ele>198.0</ele><time>2026-04-18T13:57:49Z</time></trkpt><trkpt lat="45.85777188913013" lon="9.367846757740702"><ele>198.0</ele><time>2026-04-18T13:57:50Z</time></trkpt><trkpt lat="45.8578433762919" lon="9.368055632338697"><ele>198.0</ele><time>2026-04-18T13:57:51Z</time></trkpt><trkpt lat="45.85786159075468" lon="9.368230729519656"><ele>198.0</ele><time>2026-04-18T13:57:52Z</time></trkpt><trkpt lat="45.85784685711966" lon="9.368403494987108"><ele>198.25</ele><time>2026-04-18T13:57:53Z</time></trkpt><trkpt lat="45.857824797868865" lon="9.36857657183481"><ele>198.5</ele><time>2026-04-18T13:57:54Z</time></trkpt><trkpt lat="45.85781269701381" lon="9.36875880440663"><ele>198.75</ele><time>2026-04-18T13:57:55Z</time></trkpt><trkpt lat="45.857795751612585" lon="9.36893878035422"><ele>199.0</ele><time>2026-04-18T13:57:56Z</time></trkpt><trkpt lat="45.8577780840151" lon="9.369119563651141"><ele>199.0</ele><time>2026-04-18T13:57:57Z</time></trkpt><trkpt lat="45.85776241750497" lon="9.369302862047038"><ele>199.0</ele><time>2026-04-18T13:57:58Z</time></trkpt><trkpt lat="45.85774691594422" lon="9.369483945014867"><ele>199.0</ele><time>2026-04-18T13:57:59Z</time></trkpt><trkpt lat="45.857736243397625" lon="9.369666056730916"><ele>199.0</ele><time>2026-04-18T13:58:00Z</time></trkpt><trkpt lat="45.8577319814026" lon="9.369850000934827"><ele>199.0</ele><time>2026-04-18T13:58:01Z</time></trkpt><trkpt lat="45.85771983304901" lon="9.370034543041355"><ele>199.0</ele><time>2026-04-18T13:58:02Z</time></trkpt><trkpt lat="45.85770034057766" lon="9.37022304546305"><ele>199.0</ele><time>2026-04-18T13:58:03Z</time></trkpt><trkpt lat="45.85770808453545" lon="9.370412472348654"><ele>199.0</ele><time>2026-04-18T13:58:04Z</time></trkpt><trkpt lat="45.857772510750934" lon="9.370640630478979"><ele>200.33333333333331</ele><time>2026-04-18T13:58:05Z</time></trkpt><trkpt lat="45.85787504844769" lon="9.370919803659195"><ele>201.66666666666669</ele><time>2026-04-18T13:58:06Z</time></trkpt><trkpt lat="45.857962199367314" lon="9.371141303272355"><ele>203.0</ele><time>2026-04-18T13:58:07Z</time></trkpt><trkpt lat="45.858005356045055" lon="9.37133013362672"><ele>203.0</ele><time>2026-04-18T13:58:08Z</time></trkpt><trkpt lat="45.85802201930139" lon="9.371501085253119"><ele>203.0</ele><time>2026-04-18T13:58:09Z</time></trkpt><trkpt lat="45.857990299805664" lon="9.371671592468688"><ele>203.0</ele><time>2026-04-18T13:58:10Z</time></trkpt><trkpt lat="45.85792427083791" lon="9.371839588792179"><ele>203.0</ele><time>2026-04-18T13:58:11Z</time></trkpt><trkpt lat="45.857823739769024" lon="9.371958355560045"><ele>203.0</ele><time>2026-04-18T13:58:12Z</time></trkpt><trkpt lat="45.85766918843802" lon="9.372101274579073"><ele>203.0</ele><time>2026-04-18T13:58:13Z</time></trkpt><trkpt lat="45.85751540979387" lon="9.372280935377331"><ele>203.0</ele><time>2026-04-18T13:58:14Z</time></trkpt><trkpt lat="45.857353751236865" lon="9.372487528255652"><ele>202.33333333333334</ele><time>2026-04-18T13:58:15Z</time></trkpt><trkpt lat="45.85722851346949" lon="9.372657374599523"><ele>201.66666666666669</ele><time>2026-04-18T13:58:16Z</time></trkpt><trkpt lat="45.85713010938867" lon="9.37283713383477"><ele>201.0</ele><time>2026-04-18T13:58:17Z</time></trkpt><trkpt lat="45.85703027213454" lon="9.37305249887492"><ele>201.0</ele><time>2026-04-18T13:58:18Z</time></trkpt><trkpt lat="45.856935581677014" lon="9.373274686630541"><ele>201.0</ele><time>2026-04-18T13:58:19Z</time></trkpt><trkpt lat="45.856859642025036" lon="9.37347361371434"><ele>201.0</ele><time>2026-04-18T13:58:20Z</time></trkpt><trkpt lat="45.85676944111116" lon="9.373633885249424"><ele>205.25</ele><time>2026-04-18T13:58:21Z</time></trkpt><trkpt lat="45.8566915412896" lon="9.373785472233864"><ele>209.5</ele><time>2026-04-18T13:58:22Z</time></trkpt><trkpt lat="45.856629348396325" lon="9.37393805340406"><ele>213.75</ele><time>2026-04-18T13:58:23Z</time></trkpt><trkpt lat="45.85656072314276" lon="9.374073156347427"><ele>218.0</ele><time>2026-04-18T13:58:24Z</time></trkpt><trkpt lat="45.856478360206374" lon="9.374188951170476"><ele>218.0</ele><time>2026-04-18T13:58:25Z</time></trkpt><trkpt lat="45.856381033524485" lon="9.374316666374067"><ele>218.0</ele><time>2026-04-18T13:58:26Z</time></trkpt><trkpt lat="45.85626858712973" lon="9.37441126354012"><ele>218.0</ele><time>2026-04-18T13:58:27Z</time></trkpt><trkpt lat="45.856136229057405" lon="9.374495847972105"><ele>218.0</ele><time>2026-04-18T13:58:28Z</time></trkpt><trkpt lat="45.856016751445765" lon="9.374534735283657"><ele>218.5</ele><time>2026-04-18T13:58:29Z</time></trkpt><trkpt lat="45.85590405365135" lon="9.374506095588542"><ele>219.0</ele><time>2026-04-18T13:58:30Z</time></trkpt><trkpt lat="45.855783703011284" lon="9.37447186311153"><ele>219.5</ele><time>2026-04-18T13:58:31Z</time></trkpt><trkpt lat="45.85565342230434" lon="9.374458387473062"><ele>220.0</ele><time>2026-04-18T13:58:32Z</time></trkpt><trkpt lat="45.855519173467044" lon="9.374428645357336"><ele>220.0</ele><time>2026-04-18T13:58:33Z</time></trkpt><trkpt lat="45.855380547364284" lon="9.374398944383637"><ele>220.0</ele><time>2026-04-18T13:58:34Z</time></trkpt><trkpt lat="45.85524748469044" lon="9.374379048014065"><ele>220.0</ele><time>2026-04-18T13:58:35Z</time></trkpt><trkpt lat="45.85511277787538" lon="9.374360702428435"><ele>220.0</ele><time>2026-04-18T13:58:36Z</time></trkpt><trkpt lat="45.85498306270775" lon="9.374372794460546"><ele>220.25</ele><time>2026-04-18T13:58:37Z</time></trkpt><trkpt lat="45.85485940296761" lon="9.37439888525335"><ele>220.5</ele><time>2026-04-18T13:58:38Z</time></trkpt><trkpt lat="45.854743264828926" lon="9.37443345800452"><ele>220.75</ele><time>2026-04-18T13:58:39Z</time></trkpt><trkpt lat="45.85462457338127" lon="9.374467641951451"><ele>221.0</ele><time>2026-04-18T13:58:40Z</time></trkpt><trkpt lat="45.85451065802009" lon="9.374491122007816"><ele>221.0</ele><time>2026-04-18T13:58:41Z</time></trkpt><trkpt lat="45.854398229464955" lon="9.374497941387348"><ele>221.0</ele><time>2026-04-18T13:58:42Z</time></trkpt><trkpt lat="45.854290198074786" lon="9.37449354792091"><ele>221.0</ele><time>2026-04-18T13:58:43Z</time></trkpt><trkpt lat="45.854178598411345" lon="9.374497371170412"><ele>221.0</ele><time>2026-04-18T13:58:44Z</time></trkpt><trkpt lat="45.854059521686324" lon="9.374510195397242"><ele>219.25</ele><time>2026-04-18T13:58:45Z</time></trkpt><trkpt lat="45.85394075859155" lon="9.374532515170307"><ele>217.5</ele><time>2026-04-18T13:58:46Z</time></trkpt><trkpt lat="45.85382668150491" lon="9.374577045864221"><ele>215.75</ele><time>2026-04-18T13:58:47Z</time></trkpt><trkpt lat="45.8537168978184" lon="9.374643441265409"><ele>214.0</ele><time>2026-04-18T13:58:48Z</time></trkpt><trkpt lat="45.85360307783107" lon="9.374716364832477"><ele>212.5</ele><time>2026-04-18T13:58:49Z</time></trkpt><trkpt lat="45.853485525216996" lon="9.374775993434573"><ele>211.0</ele><time>2026-04-18T13:58:50Z</time></trkpt><trkpt lat="45.85336805574045" lon="9.374838468817558"><ele>209.5</ele><time>2026-04-18T13:58:51Z</time></trkpt><trkpt lat="45.85325672115598" lon="9.374888897029349"><ele>208.0</ele><time>2026-04-18T13:58:52Z</time></trkpt><trkpt lat="45.853155118734975" lon="9.37495143612815"><ele>208.0</ele><time>2026-04-18T13:58:53Z</time></trkpt><trkpt lat="45.85307192817282" lon="9.375019954498807"><ele>208.0</ele><time>2026-04-18T13:58:54Z</time></trkpt><trkpt lat="45.85298158870902" lon="9.375074634719384"><ele>208.0</ele><time>2026-04-18T13:58:55Z</time></trkpt><trkpt lat="45.852897012148695" lon="9.375135293284034"><ele>208.0</ele><time>2026-04-18T13:58:56Z</time></trkpt><trkpt lat="45.852827072078156" lon="9.375188613110746"><ele>208.0</ele><time>2026-04-18T13:58:57Z</time></trkpt><trkpt lat="45.8527333133053" lon="9.37526827416557"><ele>208.0</ele><time>2026-04-18T13:58:58Z</time></trkpt><trkpt lat="45.852647210952604" lon="9.37534335012801"><ele>208.0</ele><time>2026-04-18T13:58:59Z</time></trkpt><trkpt lat="45.85256133553164" lon="9.375422291296418"><ele>208.0</ele><time>2026-04-18T13:59:00Z</time></trkpt><trkpt lat="45.85247931261676" lon="9.375514730465138"><ele>208.0</ele><time>2026-04-18T13:59:01Z</time></trkpt><trkpt lat="45.852401583480784" lon="9.375608588779677"><ele>208.0</ele><time>2026-04-18T13:59:02Z</time></trkpt><trkpt lat="45.85232510308772" lon="9.375714776801834"><ele>208.0</ele><time>2026-04-18T13:59:03Z</time></trkpt><trkpt lat="45.85225635734388" lon="9.375833930412789"><ele>208.0</ele><time>2026-04-18T13:59:03.999Z</time></trkpt><trkpt lat="45.85218897752699" lon="9.375962472405943"><ele>208.0</ele><time>2026-04-18T13:59:04.999Z</time></trkpt><trkpt lat="45.85212631934525" lon="9.376109388792608"><ele>208.0</ele><time>2026-04-18T13:59:05.999Z</time></trkpt><trkpt lat="45.85206057374688" lon="9.376253678086746"><ele>209.0</ele><time>2026-04-18T13:59:06.999Z</time></trkpt><trkpt lat="45.8519872809434" lon="9.376396328273236"><ele>210.0</ele><time>2026-04-18T13:59:07.999Z</time></trkpt><trkpt lat="45.851919644574565" lon="9.376519270664264"><ele>211.0</ele><time>2026-04-18T13:59:08.999Z</time></trkpt><trkpt lat="45.85184089222877" lon="9.376646166488507"><ele>212.0</ele><time>2026-04-18T13:59:09.999Z</time></trkpt><trkpt lat="45.85176906066758" lon="9.376771087173259"><ele>212.0</ele><time>2026-04-18T13:59:10.999Z</time></trkpt><trkpt lat="45.851696193195394" lon="9.37690081186084"><ele>212.0</ele><time>2026-04-18T13:59:11.999Z</time></trkpt><trkpt lat="45.8516221587452" lon="9.377042721696077"><ele>212.0</ele><time>2026-04-18T13:59:12.999Z</time></trkpt><trkpt lat="45.851558680744425" lon="9.377180759062552"><ele>212.0</ele><time>2026-04-18T13:59:13.999Z</time></trkpt><trkpt lat="45.851497193511165" lon="9.377318016155613"><ele>210.0</ele><time>2026-04-18T13:59:14.999Z</time></trkpt><trkpt lat="45.85143478229078" lon="9.377451733723097"><ele>208.0</ele><time>2026-04-18T13:59:15.999Z</time></trkpt><trkpt lat="45.85137185184033" lon="9.377596433141461"><ele>206.0</ele><time>2026-04-18T13:59:16.999Z</time></trkpt><trkpt lat="45.85131184366821" lon="9.377738401594808"><ele>204.0</ele><time>2026-04-18T13:59:17.999Z</time></trkpt><trkpt lat="45.85125070832774" lon="9.3778771559531"><ele>204.0</ele><time>2026-04-18T13:59:18.999Z</time></trkpt><trkpt lat="45.85118989897589" lon="9.378013565598788"><ele>204.0</ele><time>2026-04-18T13:59:19.999Z</time></trkpt><trkpt lat="45.85112938310688" lon="9.378153361970398"><ele>204.0</ele><time>2026-04-18T13:59:20.999Z</time></trkpt><trkpt lat="45.85106722204507" lon="9.378296790459855"><ele>204.0</ele><time>2026-04-18T13:59:21.999Z</time></trkpt><trkpt lat="45.85100478660275" lon="9.378439280830364"><ele>205.25</ele><time>2026-04-18T13:59:22.999Z</time></trkpt><trkpt lat="45.850944217295584" lon="9.378581195964767"><ele>206.5</ele><time>2026-04-18T13:59:23.999Z</time></trkpt><trkpt lat="45.85088292669644" lon="9.378721020795306"><ele>207.75</ele><time>2026-04-18T13:59:24.999Z</time></trkpt><trkpt lat="45.85082199312133" lon="9.378864251074026"><ele>209.0</ele><time>2026-04-18T13:59:25.999Z</time></trkpt><trkpt lat="45.850757042420554" lon="9.379006841209963"><ele>209.0</ele><time>2026-04-18T13:59:26.999Z</time></trkpt><trkpt lat="45.85069446473594" lon="9.379147162183834"><ele>209.0</ele><time>2026-04-18T13:59:27.999Z</time></trkpt><trkpt lat="45.850633698599474" lon="9.37928542860526"><ele>209.0</ele><time>2026-04-18T13:59:28.999Z</time></trkpt><trkpt lat="45.85057207088089" lon="9.37942922686154"><ele>209.0</ele><time>2026-04-18T13:59:29.999Z</time></trkpt><trkpt lat="45.850504134682225" lon="9.379580528467635"><ele>206.75</ele><time>2026-04-18T13:59:30.999Z</time></trkpt><trkpt lat="45.85042992785925" lon="9.379742528941776"><ele>204.5</ele><time>2026-04-18T13:59:31.999Z</time></trkpt><trkpt lat="45.850356757527045" lon="9.379911768769539"><ele>202.25</ele><time>2026-04-18T13:59:32.999Z</time></trkpt><trkpt lat="45.85028176969251" lon="9.380081067737498"><ele>200.0</ele><time>2026-04-18T13:59:33.999Z</time></trkpt><trkpt lat="45.85020419652461" lon="9.38025918963703"><ele>200.0</ele><time>2026-04-18T13:59:35Z</time></trkpt><trkpt lat="45.850132811554914" lon="9.380408456993639"><ele>200.0</ele><time>2026-04-18T13:59:36Z</time></trkpt><trkpt lat="45.85006466807065" lon="9.380557055970861"><ele>200.0</ele><time>2026-04-18T13:59:37Z</time></trkpt><trkpt lat="45.85000065009208" lon="9.38070204171527"><ele>200.0</ele><time>2026-04-18T13:59:38Z</time></trkpt><trkpt lat="45.849948793776115" lon="9.380821581726366"><ele>200.6</ele><time>2026-04-18T13:59:39Z</time></trkpt><trkpt lat="45.84991212879706" lon="9.38096038873404"><ele>201.2</ele><time>2026-04-18T13:59:40Z</time></trkpt><trkpt lat="45.84987342964449" lon="9.381097228265427"><ele>201.8</ele><time>2026-04-18T13:59:41Z</time></trkpt><trkpt lat="45.8498304474721" lon="9.381197135855144"><ele>202.4</ele><time>2026-04-18T13:59:42Z</time></trkpt><trkpt lat="45.849799081858365" lon="9.381312077338215"><ele>203.0</ele><time>2026-04-18T13:59:43Z</time></trkpt><trkpt lat="45.84976365159935" lon="9.381412505781057"><ele>203.0</ele><time>2026-04-18T13:59:44Z</time></trkpt><trkpt lat="45.84973069103883" lon="9.38151615910328"><ele>203.0</ele><time>2026-04-18T13:59:45Z</time></trkpt><trkpt lat="45.84969092345606" lon="9.381635400427212"><ele>203.0</ele><time>2026-04-18T13:59:46Z</time></trkpt><trkpt lat="45.84964821402017" lon="9.381770340688869"><ele>203.0</ele><time>2026-04-18T13:59:47Z</time></trkpt><trkpt lat="45.84959422560979" lon="9.381901630420273"><ele>203.0</ele><time>2026-04-18T13:59:48Z</time></trkpt><trkpt lat="45.84954704644548" lon="9.382046902531991"><ele>201.75</ele><time>2026-04-18T13:59:49Z</time></trkpt><trkpt lat="45.849473437705456" lon="9.382189840490229"><ele>200.5</ele><time>2026-04-18T13:59:50Z</time></trkpt><trkpt lat="45.8494391248856" lon="9.38231092343591"><ele>199.25</ele><time>2026-04-18T13:59:51Z</time></trkpt><trkpt lat="45.849392858220554" lon="9.382462038604704"><ele>198.0</ele><time>2026-04-18T13:59:52Z</time></trkpt><trkpt lat="45.849343001358925" lon="9.382618736543328"><ele>199.75</ele><time>2026-04-18T13:59:53Z</time></trkpt><trkpt lat="45.849289896034634" lon="9.382766031014786"><ele>201.5</ele><time>2026-04-18T13:59:54Z</time></trkpt><trkpt lat="45.84923776487991" lon="9.382914467140132"><ele>203.25</ele><time>2026-04-18T13:59:55Z</time></trkpt><trkpt lat="45.84918421994897" lon="9.383063659037699"><ele>205.0</ele><time>2026-04-18T13:59:56Z</time></trkpt><trkpt lat="45.84912962925319" lon="9.383207323356654"><ele>205.0</ele><time>2026-04-18T13:59:57Z</time></trkpt><trkpt lat="45.84906452428295" lon="9.383373233849166"><ele>205.0</ele><time>2026-04-18T13:59:58Z</time></trkpt><trkpt lat="45.848980877477054" lon="9.383571596527421"><ele>205.0</ele><time>2026-04-18T13:59:59Z</time></trkpt><trkpt lat="45.84891367703659" lon="9.383760104088225"><ele>205.0</ele><time>2026-04-18T14:00:00Z</time></trkpt><trkpt lat="45.84886833026652" lon="9.383967425190853"><ele>202.66666666666666</ele><time>2026-04-18T14:00:01Z</time></trkpt><trkpt lat="45.84883240232344" lon="9.38419489572"><ele>200.33333333333331</ele><time>2026-04-18T14:00:02Z</time></trkpt><trkpt lat="45.84880683496014" lon="9.384410785609214"><ele>198.0</ele><time>2026-04-18T14:00:03Z</time></trkpt><trkpt lat="45.84878431173581" lon="9.384615354907044"><ele>198.0</ele><time>2026-04-18T14:00:04Z</time></trkpt><trkpt lat="45.848760439621834" lon="9.384783716874463"><ele>198.0</ele><time>2026-04-18T14:00:05Z</time></trkpt><trkpt lat="45.84874054014581" lon="9.384924342030986"><ele>198.0</ele><time>2026-04-18T14:00:06Z</time></trkpt><trkpt lat="45.84872091899611" lon="9.385058004828297"><ele>198.0</ele><time>2026-04-18T14:00:07Z</time></trkpt><trkpt lat="45.848693709077004" lon="9.385181635534417"><ele>198.0</ele><time>2026-04-18T14:00:08Z</time></trkpt><trkpt lat="45.848662906567384" lon="9.385298884411986"><ele>198.0</ele><time>2026-04-18T14:00:09Z</time></trkpt><trkpt lat="45.848635771776046" lon="9.385408532051319"><ele>198.0</ele><time>2026-04-18T14:00:10Z</time></trkpt><trkpt lat="45.848614097052845" lon="9.385514947956038"><ele>198.0</ele><time>2026-04-18T14:00:11Z</time></trkpt><trkpt lat="45.84859538158579" lon="9.385619884084043"><ele>198.0</ele><time>2026-04-18T14:00:12Z</time></trkpt><trkpt lat="45.84856421134253" lon="9.385739478997378"><ele>198.0</ele><time>2026-04-18T14:00:13Z</time></trkpt><trkpt lat="45.84853131847056" lon="9.385852352450962"><ele>198.0</ele><time>2026-04-18T14:00:14Z</time></trkpt><trkpt lat="45.84850117015025" lon="9.38595221052069"><ele>199.0</ele><time>2026-04-18T14:00:15Z</time></trkpt><trkpt lat="45.84845965239682" lon="9.38606576473705"><ele>200.0</ele><time>2026-04-18T14:00:17Z</time></trkpt><trkpt lat="45.84839693937978" lon="9.386165475590932"><ele>201.0</ele><time>2026-04-18T14:00:20Z</time></trkpt><trkpt lat="45.848329347645446" lon="9.38624139331222"><ele>202.0</ele><time>2026-04-18T14:00:22Z</time></trkpt><trkpt lat="45.84825133675705" lon="9.386318192371167"><ele>203.0</ele><time>2026-04-18T14:00:25Z</time></trkpt><trkpt lat="45.848158611746534" lon="9.386403539901002"><ele>203.0</ele><time>2026-04-18T14:00:27Z</time></trkpt><trkpt lat="45.8480803571026" lon="9.386497762972601"><ele>203.0</ele><time>2026-04-18T14:00:29Z</time></trkpt><trkpt lat="45.84799380697611" lon="9.386651742346455"><ele>203.0</ele><time>2026-04-18T14:00:31Z</time></trkpt><trkpt lat="45.84793880758957" lon="9.386830182329744"><ele>203.0</ele><time>2026-04-18T14:00:32Z</time></trkpt><trkpt lat="45.84788444014016" lon="9.386988455291792"><ele>203.00000000000003</ele><time>2026-04-18T14:00:33Z</time></trkpt><trkpt lat="45.84784091537422" lon="9.387123888442177"><ele>203.0</ele><time>2026-04-18T14:00:34Z</time></trkpt><trkpt lat="45.84781562295618" lon="9.387254458913706"><ele>203.0</ele><time>2026-04-18T14:00:35Z</time></trkpt><trkpt lat="45.847828665572266" lon="9.387374340024039"><ele>203.0</ele><time>2026-04-18T14:00:36Z</time></trkpt><trkpt lat="45.84787389711233" lon="9.387470721051518"><ele>203.00000000000003</ele><time>2026-04-18T14:00:37Z</time></trkpt><trkpt lat="45.8479447215639" lon="9.387532810603304"><ele>203.0</ele><time>2026-04-18T14:00:38Z</time></trkpt><trkpt lat="45.8480213711543" lon="9.387517576255426"><ele>202.4</ele><time>2026-04-18T14:00:39Z</time></trkpt><trkpt lat="45.848086061543206" lon="9.387480124769056"><ele>201.8</ele><time>2026-04-18T14:00:40Z</time></trkpt><trkpt lat="45.848184118305426" lon="9.387412808036988"><ele>201.2</ele><time>2026-04-18T14:00:42Z</time></trkpt><trkpt lat="45.848298762387145" lon="9.387396445780201"><ele>200.6</ele><time>2026-04-18T14:00:44Z</time></trkpt><trkpt lat="45.848412642133425" lon="9.38743808274459"><ele>200.0</ele><time>2026-04-18T14:00:46Z</time></trkpt><trkpt lat="45.8484806656929" lon="9.387459925992351"><ele>199.6</ele><time>2026-04-18T14:00:47Z</time></trkpt><trkpt lat="45.848601826778015" lon="9.387510055289473"><ele>199.2</ele><time>2026-04-18T14:00:49Z</time></trkpt><trkpt lat="45.84866462537121" lon="9.387534268452166"><ele>198.8</ele><time>2026-04-18T14:00:50Z</time></trkpt><trkpt lat="45.84876788172282" lon="9.387568907419102"><ele>198.4</ele><time>2026-04-18T14:00:52Z</time></trkpt><trkpt lat="45.84887258315114" lon="9.387609885413776"><ele>198.0</ele><time>2026-04-18T14:00:54Z</time></trkpt><trkpt lat="45.84897431619878" lon="9.387643578658443"><ele>198.0</ele><time>2026-04-18T14:00:56Z</time></trkpt><trkpt lat="45.84906276909896" lon="9.38768082329167"><ele>198.0</ele><time>2026-04-18T14:00:58Z</time></trkpt><trkpt lat="45.849149537899436" lon="9.387714826487406"><ele>198.0</ele><time>2026-04-18T14:01:00Z</time></trkpt><trkpt lat="45.849242896520046" lon="9.38774270662601"><ele>198.0</ele><time>2026-04-18T14:01:02Z</time></trkpt><trkpt lat="45.84933695171306" lon="9.387779384628079"><ele>198.0</ele><time>2026-04-18T14:01:04Z</time></trkpt><trkpt lat="45.849434792116796" lon="9.38781540423176"><ele>198.16666666666666</ele><time>2026-04-18T14:01:06Z</time></trkpt><trkpt lat="45.8495310253375" lon="9.387856299611135"><ele>198.33333333333331</ele><time>2026-04-18T14:01:07.999Z</time></trkpt><trkpt lat="45.84963735691552" lon="9.387910989672047"><ele>198.5</ele><time>2026-04-18T14:01:09.999Z</time></trkpt><trkpt lat="45.84970002339152" lon="9.387953993634785"><ele>198.66666666666666</ele><time>2026-04-18T14:01:10.999Z</time></trkpt><trkpt lat="45.84976373507449" lon="9.387996170548972"><ele>198.83333333333331</ele><time>2026-04-18T14:01:11.999Z</time></trkpt><trkpt lat="45.84984502912519" lon="9.388031541469307"><ele>199.0</ele><time>2026-04-18T14:01:12.999Z</time></trkpt><trkpt lat="45.84993826919044" lon="9.388041194076255"><ele>200.0</ele><time>2026-04-18T14:01:13.999Z</time></trkpt><trkpt lat="45.85003711170751" lon="9.388047020567527"><ele>201.0</ele><time>2026-04-18T14:01:14.999Z</time></trkpt><trkpt lat="45.850143110698205" lon="9.388065660746468"><ele>202.0</ele><time>2026-04-18T14:01:15.999Z</time></trkpt><trkpt lat="45.850253417565376" lon="9.38810377890842"><ele>203.0</ele><time>2026-04-18T14:01:16.999Z</time></trkpt><trkpt lat="45.85037270020081" lon="9.388154814885363"><ele>204.0</ele><time>2026-04-18T14:01:17.999Z</time></trkpt><trkpt lat="45.850490519130354" lon="9.388206522470377"><ele>204.5</ele><time>2026-04-18T14:01:18.999Z</time></trkpt><trkpt lat="45.85061326071448" lon="9.38823712228219"><ele>205.0</ele><time>2026-04-18T14:01:19.999Z</time></trkpt><trkpt lat="45.850745404278946" lon="9.388292522506829"><ele>205.5</ele><time>2026-04-18T14:01:20.999Z</time></trkpt><trkpt lat="45.85086489740788" lon="9.388360499288371"><ele>206.0</ele><time>2026-04-18T14:01:21.999Z</time></trkpt><trkpt lat="45.85101949742192" lon="9.388412148884651"><ele>206.0</ele><time>2026-04-18T14:01:22.999Z</time></trkpt><trkpt lat="45.851117206908484" lon="9.388449311874751"><ele>206.0</ele><time>2026-04-18T14:01:23.999Z</time></trkpt><trkpt lat="45.85121148888511" lon="9.388485171338411"><ele>206.0</ele><time>2026-04-18T14:01:24.999Z</time></trkpt><trkpt lat="45.85132721730028" lon="9.388529308949751"><ele>206.0</ele><time>2026-04-18T14:01:25.999Z</time></trkpt><trkpt lat="45.85144044725324" lon="9.388572470203293"><ele>206.0</ele><time>2026-04-18T14:01:26.999Z</time></trkpt><trkpt lat="45.851562353179055" lon="9.388618930401597"><ele>206.0</ele><time>2026-04-18T14:01:27.999Z</time></trkpt><trkpt lat="45.85167161456523" lon="9.388655585501612"><ele>206.0</ele><time>2026-04-18T14:01:28.999Z</time></trkpt><trkpt lat="45.851772255398394" lon="9.388710553264984"><ele>206.0</ele><time>2026-04-18T14:01:29.999Z</time></trkpt><trkpt lat="45.851872319726375" lon="9.388726156828698"><ele>206.0</ele><time>2026-04-18T14:01:30.999Z</time></trkpt><trkpt lat="45.85194085676231" lon="9.38875274955235"><ele>206.0</ele><time>2026-04-18T14:01:31.999Z</time></trkpt><trkpt lat="45.8520329741029" lon="9.388795040412338"><ele>206.16666666666669</ele><time>2026-04-18T14:01:33.999Z</time></trkpt><trkpt lat="45.85212277029185" lon="9.388796854115862"><ele>206.33333333333334</ele><time>2026-04-18T14:01:35.999Z</time></trkpt><trkpt lat="45.85218258428556" lon="9.388826857128553"><ele>206.5</ele><time>2026-04-18T14:01:36.999Z</time></trkpt><trkpt lat="45.85226346176999" lon="9.388838271462127"><ele>206.66666666666669</ele><time>2026-04-18T14:01:38.999Z</time></trkpt><trkpt lat="45.85236104995479" lon="9.388902942907645"><ele>206.83333333333334</ele><time>2026-04-18T14:01:45Z</time></trkpt><trkpt lat="45.85242075571827" lon="9.388951569749876"><ele>207.0</ele><time>2026-04-18T14:01:46Z</time></trkpt><trkpt lat="45.85250604081318" lon="9.388956864871064"><ele>207.0</ele><time>2026-04-18T14:01:48Z</time></trkpt><trkpt lat="45.852546721753654" lon="9.388873024323596"><ele>207.0</ele><time>2026-04-18T14:01:49Z</time></trkpt><trkpt lat="45.85253576560501" lon="9.388777260325373"><ele>207.0</ele><time>2026-04-18T14:01:50Z</time></trkpt><trkpt lat="45.85251871587482" lon="9.388679080710338"><ele>207.0</ele><time>2026-04-18T14:01:51Z</time></trkpt><trkpt lat="45.85252236228715" lon="9.388551588697771"><ele>207.0</ele><time>2026-04-18T14:01:52Z</time></trkpt><trkpt lat="45.85254435601534" lon="9.38843601433308"><ele>207.0</ele><time>2026-04-18T14:01:53Z</time></trkpt><trkpt lat="45.852564043174965" lon="9.388324415102508"><ele>207.0</ele><time>2026-04-18T14:01:54Z</time></trkpt><trkpt lat="45.8526027716837" lon="9.388163351497552"><ele>207.0</ele><time>2026-04-18T14:01:56Z</time></trkpt><trkpt lat="45.852658421056624" lon="9.388032888327295"><ele>207.0</ele><time>2026-04-18T14:01:58Z</time></trkpt><trkpt lat="45.85271867309305" lon="9.387987224024183"><ele>207.0</ele><time>2026-04-18T14:02:00Z</time></trkpt><trkpt lat="45.85280902871918" lon="9.387961969349638"><ele>207.0</ele><time>2026-04-18T14:02:03Z</time></trkpt><trkpt lat="45.852919324096646" lon="9.387992608051897"><ele>206.83333333333334</ele><time>2026-04-18T14:02:06Z</time></trkpt><trkpt lat="45.85301797275483" lon="9.388032218098783"><ele>206.66666666666669</ele><time>2026-04-18T14:02:08Z</time></trkpt><trkpt lat="45.853079681946944" lon="9.388077507555964"><ele>206.5</ele><time>2026-04-18T14:02:09Z</time></trkpt><trkpt lat="45.85315166674237" lon="9.388149116110604"><ele>206.33333333333334</ele><time>2026-04-18T14:02:10Z</time></trkpt><trkpt lat="45.853225282436476" lon="9.38821144704382"><ele>206.16666666666669</ele><time>2026-04-18T14:02:11Z</time></trkpt><trkpt lat="45.85330124016469" lon="9.388273260174316"><ele>206.0</ele><time>2026-04-18T14:02:12Z</time></trkpt><trkpt lat="45.85337979733311" lon="9.388331858538384"><ele>206.0</ele><time>2026-04-18T14:02:13Z</time></trkpt><trkpt lat="45.85345263878603" lon="9.388383416582158"><ele>206.0</ele><time>2026-04-18T14:02:14Z</time></trkpt><trkpt lat="45.853543860541" lon="9.388442479239444"><ele>206.0</ele><time>2026-04-18T14:02:15Z</time></trkpt><trkpt lat="45.85361748919269" lon="9.388492177109997"><ele>206.0</ele><time>2026-04-18T14:02:16Z</time></trkpt><trkpt lat="45.853676940307416" lon="9.388548283681695"><ele>206.0</ele><time>2026-04-18T14:02:17Z</time></trkpt><trkpt lat="45.853783691558604" lon="9.38863112347831"><ele>206.50000000000003</ele><time>2026-04-18T14:02:19Z</time></trkpt><trkpt lat="45.85386432725076" lon="9.388724913248431"><ele>207.0</ele><time>2026-04-18T14:02:21Z</time></trkpt><trkpt lat="45.85396186515989" lon="9.388779935165276"><ele>207.5</ele><time>2026-04-18T14:02:23Z</time></trkpt><trkpt lat="45.85403630236895" lon="9.388842680263819"><ele>208.0</ele><time>2026-04-18T14:02:25Z</time></trkpt><trkpt lat="45.85410864256695" lon="9.388900875319987"><ele>208.50000000000003</ele><time>2026-04-18T14:02:29Z</time></trkpt><trkpt lat="45.854160181423346" lon="9.38897009285382"><ele>209.0</ele><time>2026-04-18T14:02:32Z</time></trkpt><trkpt lat="45.85411345665674" lon="9.389114286418073"><ele>209.0</ele><time>2026-04-18T14:03:09.999Z</time></trkpt><trkpt lat="45.85428426109387" lon="9.389095751755068"><ele>209.0</ele><time>2026-04-18T14:05:06.999Z</time></trkpt><trkpt lat="45.85431321383897" lon="9.389176540910364"><ele>205.0</ele><time>2026-04-18T14:05:12.999Z</time></trkpt></trkseg></trk></gpx>